# Wetter Temperatur Luftdruck Luftfeuchtigkeit Sichtweite Windgeschwindigkeit Windrichtung Zeit
1 Clear 22 1014 48 10000 3.28 196 08:30 02.10.2022
2 Clouds 21 1015 47 10000 3.02 189 08:30 02.10.2022
3 Clear 18 1017 52 10000 1.08 23 05:21 02.10.2022
4 Clouds 15 1017 66 10000 2.88 25 01:20 02.10.2022
5 Clouds 15 1017 66 10000 2.88 25 00:38 02.10.2022
6 Clouds 14 1017 68 10000 2.85 27 23:28 01.10.2022
7 Clear 14 1017 68 10000 2.74 30 21:58 01.10.2022
8 Clouds 15 1017 71 10000 2.68 38 19:21 01.10.2022
9 Clouds 15 1017 74 10000 2.37 38 17:46 01.10.2022
10 Clouds 16 1016 81 10000 1.61 39 15:32 01.10.2022
11 Clouds 18 1014 74 10000 1.62 191 14:18 01.10.2022
12 Clouds 20 1013 60 10000 2.75 200 12:34 01.10.2022
13 Clouds 21 1013 50 10000 3.7 195 11:23 01.10.2022
14 Clouds 21 1013 50 10000 3.7 195 10:53 01.10.2022
15 Clouds 21 1013 50 10000 3.7 195 10:30 01.10.2022
16 Clouds 22 1014 42 10000 3.3 189 09:26 01.10.2022
17 Clouds 22 1014 42 10000 3.3 189 08:39 01.10.2022
18 Clear 16 1018 52 10000 2.78 28 03:50 01.10.2022
19 Clear 14 1018 53 10000 3.49 30 03:24 01.10.2022
20 Clear 14 1017 57 10000 3.49 27 23:22 30.09.2022
21 Clear 14 1017 61 10000 3.57 27 22:19 30.09.2022
22 Clear 14 1018 65 10000 3.6 27 21:22 30.09.2022
23 Clear 14 1017 65 10000 3.67 26 20:42 30.09.2022
24 Clear 14 1018 68 10000 3.63 27 19:30 30.09.2022
25 Clear 15 1018 74 10000 3.03 36 16:58 30.09.2022
26 Clouds 16 1016 83 10000 0.84 58 14:55 30.09.2022
27 Clouds 20 1014 55 10000 2.71 199 13:24 30.09.2022
28 Clouds 21 1013 51 10000 3.16 197 11:56 30.09.2022
29 Clouds 22 1014 43 10000 3.4 190 09:50 30.09.2022
30 Clear 22 1016 42 10000 3.23 199 08:20 30.09.2022
31 Clear 19 1017 49 10000 0.37 45 04:31 30.09.2022
32 Clear 14 1018 58 10000 3.34 28 02:23 30.09.2022
33 Clear 15 1017 63 10000 3.18 30 22:24 29.09.2022
34 Clear 15 1018 65 10000 3.31 29 21:26 29.09.2022
35 Clear 15 1018 67 10000 3.36 27 20:26 29.09.2022
36 Clear 15 1018 69 10000 3.09 28 18:32 29.09.2022
37 Clouds 16 1017 77 10000 2.48 39 16:56 29.09.2022
38 Clouds 16 1017 82 10000 1.96 43 16:26 29.09.2022
39 Clouds 16 1017 82 10000 1.96 43 15:35 29.09.2022
40 Clouds 20 1014 62 10000 2.92 196 13:28 29.09.2022
41 Clouds 20 1014 62 10000 2.92 196 13:28 29.09.2022
42 Clouds 22 1014 50 10000 3.54 193 08:52 29.09.2022
43 Clear 20 1016 53 10000 1.95 199 05:42 29.09.2022
44 Clouds 15 1016 72 10000 2.05 34 02:44 29.09.2022
45 Clouds 15 1015 79 10000 0.98 58 23:32 28.09.2022
46 Clouds 16 1015 77 10000 0.74 93 22:25 28.09.2022
47 Clouds 16 1015 78 10000 0.88 65 21:28 28.09.2022
48 Clouds 16 1015 77 10000 0.87 76 20:20 28.09.2022
49 Clouds 16 1016 83 10000 0.58 78 18:20 28.09.2022
50 Clouds 17 1015 85 10000 0.48 142 14:50 28.09.2022
51 Clouds 20 1013 73 10000 2.4 196 12:40 28.09.2022
52 Clouds 21 1013 68 10000 2.81 201 10:50 28.09.2022
53 Clouds 21 1014 63 10000 3.18 201 08:26 28.09.2022
54 Clouds 21 1015 63 10000 2.75 196 06:45 28.09.2022
55 Clouds 16 1015 73 10000 1.5 25 01:54 28.09.2022
56 Clouds 16 1015 73 10000 1.4 39 01:31 28.09.2022
57 Clouds 16 1015 75 10000 0.94 67 23:19 27.09.2022
58 Clouds 17 1015 75 10000 1.14 63 21:40 27.09.2022
59 Clouds 17 1016 76 10000 1.5 51 20:37 27.09.2022
60 Clouds 17 1016 77 10000 1.3 60 19:47 27.09.2022
61 Clouds 17 1016 79 10000 1.16 76 18:37 27.09.2022
62 Clouds 17 1016 81 10000 0.98 82 17:44 27.09.2022
63 Clouds 18 1015 90 10000 0.54 166 15:29 27.09.2022
64 Clouds 18 1015 90 10000 0.54 166 14:45 27.09.2022
65 Clouds 20 1014 73 10000 2.66 196 12:42 27.09.2022
66 Clouds 21 1013 66 10000 3.11 197 11:32 27.09.2022
67 Clear 22 1014 53 10000 2.96 188 08:49 27.09.2022
68 Clear 22 1015 53 10000 2.54 200 06:39 27.09.2022
69 Clear 15 1017 59 10000 2.98 27 01:57 27.09.2022
70 Clear 15 1017 61 10000 2.88 25 01:27 27.09.2022
71 Clear 15 1017 64 10000 2.64 28 23:26 26.09.2022
72 Clear 15 1017 64 10000 2.64 28 22:34 26.09.2022
73 Clouds 16 1018 69 10000 1.94 39 20:46 26.09.2022
74 Clouds 16 1017 70 10000 1.5 36 19:31 26.09.2022
75 Clouds 16 1017 71 10000 1.68 31 18:32 26.09.2022
76 Clouds 17 1017 78 10000 2.27 36 16:34 26.09.2022
77 Clouds 17 1016 93 10000 0.53 20 14:37 26.09.2022
78 Clouds 22 1014 63 10000 3.27 203 11:30 26.09.2022
79 Clouds 22 1015 56 10000 3.55 203 10:39 26.09.2022
80 Clear 23 1015 52 10000 3.56 202 10:20 26.09.2022
81 Clear 23 1015 52 10000 3.56 202 09:55 26.09.2022
82 Clear 23 1016 50 10000 3.34 203 09:24 26.09.2022
83 Clear 23 1016 50 10000 3.34 203 08:57 26.09.2022
84 Clear 14 1020 72 10000 3.52 36 02:57 26.09.2022
85 Clouds 15 1018 79 10000 2.69 35 23:57 25.09.2022
86 Clouds 15 1018 83 10000 2.14 50 22:59 25.09.2022
87 Clouds 15 1018 86 10000 1.96 55 21:41 25.09.2022
88 Clouds 16 1019 87 10000 1.93 49 20:49 25.09.2022
89 Clouds 16 1019 91 8146 1.46 37 19:43 25.09.2022
90 Clouds 16 1019 93 5848 0.79 359 18:43 25.09.2022
91 Clouds 17 1018 93 5711 0.69 241 18:20 25.09.2022
92 Clouds 17 1017 93 4923 1.6 249 16:49 25.09.2022
93 Clouds 17 1016 93 2198 1.76 233 15:45 25.09.2022
94 Clouds 18 1014 91 1713 3.2 198 14:29 25.09.2022
95 Clouds 20 1013 82 5680 3.04 190 13:19 25.09.2022
96 Clouds 20 1012 83 3792 2.86 188 10:36 25.09.2022
97 Clouds 19 1014 98 1536 2.74 192 08:25 25.09.2022
98 Rain 18 1014 91 6022 0.42 217 06:23 25.09.2022
99 Rain 17 1011 95 3487 0.75 45 03:20 25.09.2022
100 Clouds 16 1011 92 6730 2.07 19 22:50 24.09.2022
101 Clouds 16 1012 91 5920 3.28 25 21:19 24.09.2022
102 Clouds 16 1014 92 7167 3.44 10 19:23 24.09.2022
103 Clouds 16 1014 91 5207 2.68 20 18:18 24.09.2022
104 Clouds 16 1014 92 4603 2.73 15 16:36 24.09.2022
105 Clouds 16 1013 92 3236 3.07 16 15:23 24.09.2022
106 Clouds 17 1013 95 3937 1.63 7 13:50 24.09.2022
107 Clouds 17 1012 98 897 0.7 205 12:58 24.09.2022
108 Rain 19 1010 87 7005 1.56 204 11:42 24.09.2022
109 Clouds 19 1013 89 10000 0.77 143 09:57 24.09.2022
110 Clouds 19 1014 87 10000 1.58 158 08:50 24.09.2022
111 Clouds 21 1014 78 10000 2.32 200 07:39 24.09.2022
112 Clouds 20 1014 70 10000 0.29 192 04:50 24.09.2022
113 Clouds 19 1014 74 10000 1.12 34 03:43 24.09.2022
114 Clouds 18 1014 80 10000 0.66 27 22:39 23.09.2022
115 Clouds 18 1014 80 10000 0.85 25 21:31 23.09.2022
116 Clouds 18 1015 82 10000 0.82 19 20:57 23.09.2022
117 Clouds 18 1015 82 10000 1.01 15 20:23 23.09.2022
118 Clouds 19 1015 82 10000 0.44 310 18:51 23.09.2022
119 Clouds 18 1015 94 10000 0.66 174 15:24 23.09.2022
120 Clouds 23 1012 73 10000 3.28 195 11:28 23.09.2022
121 Clouds 23 1012 67 10000 3.34 195 09:35 23.09.2022
122 Clouds 23 1014 67 10000 2.45 200 06:39 23.09.2022
123 Clouds 19 1014 77 10000 1.35 23 00:41 23.09.2022
124 Clouds 19 1015 78 10000 0.94 30 23:22 22.09.2022
125 Clouds 19 1015 79 10000 1.14 35 22:27 22.09.2022
126 Clouds 19 1016 80 10000 0.85 41 21:18 22.09.2022
127 Clouds 19 1016 80 10000 1.08 35 19:58 22.09.2022
128 Clouds 19 1016 79 10000 0.77 56 17:38 22.09.2022
129 Clouds 21 1013 82 10000 2.07 199 13:20 22.09.2022
130 Clouds 22 1014 76 10000 3.21 196 10:37 22.09.2022
131 Clouds 23 1014 68 10000 2.9 195 08:58 22.09.2022
132 Clouds 22 1015 64 10000 2.99 200 07:27 22.09.2022
133 Clouds 21 1016 63 10000 0.28 180 04:36 22.09.2022
134 Clouds 17 1016 80 10000 2.39 25 23:33 21.09.2022
135 Clouds 18 1016 81 10000 2.36 20 21:52 21.09.2022
136 Clouds 18 1017 83 10000 3.08 18 20:53 21.09.2022
137 Clouds 18 1017 81 10000 2.32 31 17:55 21.09.2022
138 Clouds 18 1017 84 10000 1.91 42 17:21 21.09.2022
139 Clouds 18 1017 85 9916 3.04 14 15:18 21.09.2022
140 Clouds 18 1018 87 7340 2.89 2 13:38 21.09.2022
141 Clouds 18 1016 92 3901 0.89 318 11:34 21.09.2022
142 Clouds 18 1017 95 4724 0.61 193 10:50 21.09.2022
143 Clouds 19 1016 96 2726 2.28 198 09:38 21.09.2022
144 Clouds 19 1017 94 3508 2.92 179 08:23 21.09.2022
145 Clouds 18 1017 92 7150 0.43 105 02:51 21.09.2022
146 Clouds 18 1017 92 7150 0.43 105 02:51 21.09.2022
147 Clouds 18 1017 92 7150 0.43 105 02:32 21.09.2022
148 Clouds 17 1016 84 10000 1.48 27 01:49 21.09.2022
149 Clouds 18 1016 84 10000 0.85 76 23:19 20.09.2022
150 Clouds 18 1016 83 10000 1.42 31 21:33 20.09.2022
151 Clouds 20 1017 82 10000 1.08 10 20:22 20.09.2022
152 Clouds 19 1017 81 10000 1.1 16 17:41 20.09.2022
153 Clouds 19 1015 88 10000 0.26 169 14:59 20.09.2022
154 Clouds 21 1014 81 10000 1.45 193 13:58 20.09.2022
155 Clouds 23 1014 71 10000 3.57 194 11:24 20.09.2022
156 Rain 22 1016 71 10000 2.56 205 08:29 20.09.2022
157 Clouds 23 1015 62 10000 1.34 246 07:31 20.09.2022
158 Clouds 21 1017 70 10000 0.79 146 04:30 20.09.2022
159 Clouds 18 1017 85 9622 1.74 51 01:28 20.09.2022
160 Clouds 18 1016 75 10000 1.94 34 22:29 19.09.2022
161 Clouds 18 1017 75 10000 2.11 35 21:28 19.09.2022
162 Clouds 18 1017 75 10000 2.11 35 20:39 19.09.2022
163 Clouds 19 1017 77 10000 1.7 35 18:42 19.09.2022
164 Clouds 19 1016 88 10000 1.59 21 16:29 19.09.2022
165 Rain 22 1014 80 10000 1.89 207 13:44 19.09.2022
166 Clouds 24 1013 67 10000 3.28 204 11:43 19.09.2022
167 Clouds 25 1013 57 10000 3.7 202 09:35 19.09.2022
168 Clear 25 1014 43 10000 2.99 202 08:20 19.09.2022
169 Clear 17 1017 48 10000 3.58 23 03:28 19.09.2022
170 Clear 17 1016 56 10000 3.15 24 23:39 18.09.2022
171 Clear 17 1016 61 10000 2.75 28 22:29 18.09.2022
172 Clear 18 1016 64 10000 2.54 26 20:47 18.09.2022
173 Clouds 18 1016 66 10000 2.59 25 19:33 18.09.2022
174 Clouds 18 1016 74 10000 2.74 25 17:51 18.09.2022
175 Clouds 18 1016 82 10000 2.49 31 16:46 18.09.2022
176 Clouds 18 1015 94 10000 0.26 126 14:40 18.09.2022
177 Clouds 21 1014 79 10000 2.07 201 13:34 18.09.2022
178 Clear 23 1012 60 10000 3.65 204 11:55 18.09.2022
179 Clear 24 1013 43 10000 3.19 198 07:46 18.09.2022
180 Clear 15 1016 65 10000 3.56 23 01:43 18.09.2022
181 Clear 15 1016 67 10000 3.39 25 01:19 18.09.2022
182 Clear 16 1016 72 10000 3.09 23 22:56 17.09.2022
183 Clear 16 1016 80 10000 2.02 29 20:53 17.09.2022
184 Clouds 16 1016 86 10000 1.07 41 19:37 17.09.2022
185 Clouds 17 1015 83 10000 0.77 8 18:21 17.09.2022
186 Clouds 19 1012 87 10000 2.02 192 14:24 17.09.2022
187 Clouds 19 1012 87 10000 2.02 192 13:32 17.09.2022
188 Clouds 22 1010 77 9146 3.96 194 10:49 17.09.2022
189 Clouds 22 1011 62 10000 2.97 210 07:28 17.09.2022
190 Clouds 21 1011 66 10000 1.98 208 06:19 17.09.2022
191 Clouds 17 1010 80 10000 1.36 31 23:41 16.09.2022
192 Clouds 17 1010 86 10000 1.71 18 22:27 16.09.2022
193 Clouds 18 1010 87 10000 0.89 8 20:54 16.09.2022
194 Clouds 18 1010 87 10000 0.89 8 20:54 16.09.2022
195 Clouds 18 1009 87 10000 0.31 353 19:35 16.09.2022
196 Clouds 19 1008 91 6308 0.61 171 16:26 16.09.2022
197 Clouds 20 1007 92 3359 1.74 196 14:52 16.09.2022
198 Clouds 22 1005 72 10000 3.35 201 13:21 16.09.2022
199 Clear 25 1005 56 10000 3.86 202 10:24 16.09.2022
200 Clear 25 1006 47 10000 3.36 199 07:52 16.09.2022
201 Clear 24 1007 45 10000 2.65 198 06:48 16.09.2022
202 Clear 23 1007 44 10000 1.64 194 05:57 16.09.2022
203 Clear 17 1009 69 10000 3.06 23 02:35 16.09.2022
204 Clouds 17 1011 81 10000 1.89 24 22:20 15.09.2022
205 Clear 18 1011 82 10000 1.46 36 20:39 15.09.2022
206 Clouds 18 1012 84 10000 1.26 46 19:42 15.09.2022
207 Clouds 19 1011 84 10000 0.61 38 17:58 15.09.2022
208 Clouds 20 1011 81 10000 0.5 22 17:28 15.09.2022
209 Clouds 20 1010 82 10000 0.42 39 15:47 15.09.2022
210 Clouds 22 1009 81 10000 2.72 199 12:51 15.09.2022
211 Clouds 23 1009 75 10000 3.34 201 11:48 15.09.2022
212 Clouds 24 1009 68 10000 3.83 200 09:46 15.09.2022
213 Clouds 24 1011 69 10000 3.55 200 07:45 15.09.2022
214 Clouds 20 1013 72 10000 1.31 45 03:48 15.09.2022
215 Clouds 18 1014 87 10000 0.79 40 23:30 14.09.2022
216 Clouds 18 1016 87 10000 0.9 40 20:48 14.09.2022
217 Clouds 18 1015 84 10000 1.69 35 19:33 14.09.2022
218 Clouds 19 1015 85 10000 1.11 48 18:26 14.09.2022
219 Clouds 19 1014 86 10000 0.83 22 16:37 14.09.2022
220 Clouds 20 1013 89 10000 0.24 89 15:29 14.09.2022
221 Clouds 21 1013 85 10000 1.59 177 12:57 14.09.2022
222 Rain 23 1012 77 8353 3.49 200 10:47 14.09.2022
223 Clouds 24 1013 69 9002 3.95 202 09:27 14.09.2022
224 Clouds 23 1015 63 10000 2.89 197 06:50 14.09.2022
225 Clouds 23 1015 63 10000 2.89 197 06:31 14.09.2022
226 Clouds 20 1016 63 10000 1.21 30 03:54 14.09.2022
227 Clouds 17 1016 71 10000 2.79 26 01:41 14.09.2022
228 Clouds 17 1015 74 10000 2.88 27 01:19 14.09.2022
229 Clouds 18 1016 78 10000 2.58 24 23:55 13.09.2022
230 Clouds 18 1016 78 10000 2.58 24 23:37 13.09.2022
231 Clouds 18 1016 81 10000 2.38 25 23:19 13.09.2022
232 Clouds 18 1016 81 10000 2.38 25 22:43 13.09.2022
233 Clouds 18 1016 81 10000 2.38 25 22:43 13.09.2022
234 Clouds 18 1016 84 10000 2.1 27 21:42 13.09.2022
235 Clouds 18 1016 83 10000 1.71 38 19:32 13.09.2022
236 Clouds 19 1015 88 10000 1.34 40 16:45 13.09.2022
237 Clouds 19 1014 94 10000 1.02 46 15:53 13.09.2022
238 Clouds 21 1012 87 10000 2.03 202 13:54 13.09.2022
239 Clouds 24 1011 68 10000 3.61 204 12:28 13.09.2022
240 Clear 25 1012 51 10000 3.36 200 08:32 13.09.2022
241 Clear 20 1016 47 10000 1.88 24 04:24 13.09.2022
242 Clear 17 1015 57 10000 3.2 24 23:32 12.09.2022
243 Clear 17 1015 61 10000 3.07 25 22:46 12.09.2022
244 Clear 17 1015 64 10000 2.73 27 21:36 12.09.2022
245 Clouds 18 1015 66 10000 2.55 29 20:25 12.09.2022
246 Clouds 18 1015 69 10000 2.62 29 18:42 12.09.2022
247 Clouds 19 1014 89 10000 1.73 32 16:23 12.09.2022
248 Clouds 21 1012 76 10000 2.36 203 13:41 12.09.2022
249 Clouds 24 1010 58 10000 3.97 204 11:22 12.09.2022
250 Clear 25 1011 55 10000 3.85 201 09:35 12.09.2022
251 Clear 21 1014 50 10000 0.41 234 04:49 12.09.2022
252 Clear 19 1015 58 10000 1.76 16 03:33 12.09.2022
253 Clear 17 1015 73 10000 2.23 27 23:22 11.09.2022
254 Clear 17 1015 73 10000 2.14 35 21:59 11.09.2022
255 Clear 17 1015 75 10000 2 32 20:47 11.09.2022
256 Clouds 18 1015 75 10000 1.85 36 19:53 11.09.2022
257 Clouds 18 1015 76 10000 1.59 33 19:22 11.09.2022
258 Clouds 18 1014 79 10000 1.87 33 18:20 11.09.2022
259 Clouds 19 1014 85 10000 1.75 27 16:36 11.09.2022
260 Clouds 20 1013 88 10000 0.86 214 14:33 11.09.2022
261 Clouds 23 1011 70 10000 3.16 196 12:40 11.09.2022
262 Clear 25 1012 58 10000 3.56 201 08:48 11.09.2022
263 Clear 24 1014 58 10000 2.91 199 06:56 11.09.2022
264 Clouds 17 1016 79 10000 2.24 25 00:50 11.09.2022
265 Clear 18 1017 82 10000 2.08 29 22:55 10.09.2022
266 Clear 18 1017 85 10000 1.64 35 21:25 10.09.2022
267 Clouds 18 1017 82 10000 1.38 35 19:47 10.09.2022
268 Clouds 19 1016 83 10000 0.74 50 19:29 10.09.2022
269 Clouds 19 1016 83 10000 0.74 50 18:54 10.09.2022
270 Clouds 19 1016 86 10000 0.55 64 16:39 10.09.2022
271 Clouds 21 1014 77 10000 0.33 175 14:42 10.09.2022
272 Clouds 22 1014 81 10000 2.43 205 12:53 10.09.2022
273 Clouds 23 1015 77 10000 3.1 201 11:19 10.09.2022
274 Clouds 23 1015 77 6709 3.46 201 09:50 10.09.2022
275 Clouds 24 1016 74 10000 3.34 202 08:37 10.09.2022
276 Clouds 23 1017 70 10000 2.6 202 07:22 10.09.2022
277 Clouds 18 1018 77 10000 1.8 28 00:41 10.09.2022
278 Clouds 18 1018 77 10000 1.83 29 23:33 09.09.2022
279 Clouds 19 1018 78 10000 1.52 34 22:19 09.09.2022
280 Clouds 19 1018 78 10000 1.31 40 20:47 09.09.2022
281 Clouds 20 1018 80 10000 1.46 44 19:25 09.09.2022
282 Clouds 20 1018 80 10000 1.46 44 18:53 09.09.2022
283 Clouds 21 1017 81 10000 0.26 146 16:28 09.09.2022
284 Clouds 22 1016 83 6570 1.9 197 13:50 09.09.2022
285 Clouds 23 1015 77 7314 2.99 198 12:32 09.09.2022
286 Clouds 26 1015 62 10000 3.75 206 09:57 09.09.2022
287 Clear 23 1019 60 10000 2.03 203 05:38 09.09.2022
288 Clear 18 1020 71 10000 1.59 24 03:21 09.09.2022
289 Clear 19 1019 71 10000 1.81 34 21:57 08.09.2022
290 Clear 19 1019 71 10000 1.81 34 21:36 08.09.2022
291 Clear 19 1019 70 10000 1.88 32 20:32 08.09.2022
292 Clouds 19 1019 70 10000 1.82 33 19:57 08.09.2022
293 Clouds 20 1019 74 10000 2.36 30 18:26 08.09.2022
294 Clouds 21 1018 82 10000 0.94 27 16:21 08.09.2022
295 Clouds 22 1017 84 9221 0.82 202 14:40 08.09.2022
296 Clouds 24 1016 74 10000 2.99 199 13:27 08.09.2022
297 Clear 25 1015 67 10000 3.48 200 12:24 08.09.2022
298 Clear 26 1015 61 10000 3.88 202 10:58 08.09.2022
299 Clear 26 1016 52 10000 3.43 202 08:54 08.09.2022
300 Clear 25 1018 45 10000 2.59 201 06:43 08.09.2022
301 Clear 18 1020 54 10000 2.67 21 02:37 08.09.2022
302 Clear 18 1019 53 10000 2.7 22 02:19 08.09.2022
303 Clear 18 1019 53 10000 2.7 22 01:38 08.09.2022
304 Clear 18 1019 58 10000 2.48 23 22:55 07.09.2022
305 Clear 19 1019 59 10000 2.64 24 21:43 07.09.2022
306 Clear 19 1019 61 10000 2.84 26 20:56 07.09.2022
307 Clouds 19 1019 63 10000 2.77 27 19:53 07.09.2022
308 Clouds 19 1020 66 10000 2.67 23 18:37 07.09.2022
309 Clouds 21 1017 85 10000 0.62 197 14:56 07.09.2022
310 Clear 25 1015 56 10000 3.53 202 10:50 07.09.2022
311 Clear 25 1016 53 10000 3.51 202 09:52 07.09.2022
312 Clear 25 1017 51 10000 3.27 201 07:36 07.09.2022
313 Clear 22 1018 51 10000 0.78 221 04:39 07.09.2022
314 Clear 17 1018 71 10000 2.34 23 00:25 07.09.2022
315 Clear 18 1018 73 10000 1.87 34 21:45 06.09.2022
316 Clouds 18 1018 73 10000 1.73 39 21:24 06.09.2022
317 Clouds 18 1018 73 10000 2.14 42 18:53 06.09.2022
318 Clouds 18 1018 77 10000 2.09 43 18:27 06.09.2022
319 Clouds 19 1018 81 9866 1.95 40 17:23 06.09.2022
320 Clouds 19 1018 81 9866 1.95 40 16:40 06.09.2022
321 Clouds 20 1016 87 10000 0.7 196 15:23 06.09.2022
322 Clouds 22 1014 74 10000 2.34 200 13:46 06.09.2022
323 Clouds 23 1014 64 10000 3.12 201 13:25 06.09.2022
324 Clouds 23 1014 64 10000 3.12 201 12:37 06.09.2022
325 Clouds 24 1014 51 10000 3.4 203 10:46 06.09.2022
326 Clouds 24 1015 46 10000 3.48 202 08:54 06.09.2022
327 Clear 24 1016 44 10000 3.11 202 07:51 06.09.2022
328 Clear 21 1017 44 10000 0.44 218 04:48 06.09.2022
329 Clear 16 1016 65 10000 2.91 25 23:52 05.09.2022
330 Clear 16 1016 68 10000 2.64 25 22:40 05.09.2022
331 Clear 17 1016 70 10000 2.46 33 20:59 05.09.2022
332 Clouds 17 1016 72 10000 2.27 28 19:50 05.09.2022
333 Clouds 18 1016 74 10000 2.02 23 18:49 05.09.2022
334 Clouds 18 1016 79 10000 1.79 25 18:23 05.09.2022
335 Clouds 18 1016 79 10000 1.79 25 17:31 05.09.2022
336 Clouds 19 1014 83 10000 0.6 58 15:53 05.09.2022
337 Clouds 20 1013 80 10000 2.03 200 13:54 05.09.2022
338 Clouds 22 1013 72 10000 3.24 200 12:29 05.09.2022
339 Clouds 22 1013 71 10000 2.97 195 10:35 05.09.2022
340 Clouds 22 1014 71 10000 3.19 199 07:44 05.09.2022
341 Clouds 18 1015 85 10000 0.56 83 02:58 05.09.2022
342 Clouds 18 1014 85 10000 0.33 47 23:58 04.09.2022
343 Clouds 18 1014 87 9291 0.85 337 22:28 04.09.2022
344 Clouds 18 1014 87 9291 0.85 337 21:45 04.09.2022
345 Clouds 18 1015 89 9175 1.18 332 19:50 04.09.2022
346 Clouds 19 1015 90 4464 0.84 352 18:33 04.09.2022
347 Clouds 19 1014 94 1926 0.63 336 17:26 04.09.2022
348 Rain 19 1013 98 570 0.52 274 15:42 04.09.2022
349 Clouds 20 1011 96 544 1.25 223 14:24 04.09.2022
350 Clouds 21 1011 94 1997 2.51 207 12:27 04.09.2022
351 Clouds 21 1011 89 5252 3.02 204 10:59 04.09.2022
352 Clouds 22 1012 83 2603 3.02 198 09:25 04.09.2022
353 Clouds 21 1013 84 10000 2.06 212 06:31 04.09.2022
354 Clouds 19 1012 85 10000 0.77 61 02:41 04.09.2022
355 Clouds 19 1012 90 10000 0.6 71 22:33 03.09.2022
356 Clouds 19 1012 91 10000 0.5 128 21:26 03.09.2022
357 Clouds 19 1012 91 10000 0.5 128 20:55 03.09.2022
358 Clouds 20 1013 89 10000 0.42 142 18:31 03.09.2022
359 Clouds 20 1013 90 10000 0.76 165 17:19 03.09.2022
360 Clouds 20 1012 91 10000 0.67 153 15:35 03.09.2022
361 Clouds 20 1012 92 10000 0.92 188 14:41 03.09.2022
362 Clouds 21 1011 89 10000 1.49 200 13:44 03.09.2022
363 Clouds 22 1011 83 4218 2.79 200 11:32 03.09.2022
364 Clouds 23 1012 80 10000 2.87 208 09:32 03.09.2022
365 Clouds 23 1013 74 10000 2.61 208 07:48 03.09.2022
366 Clouds 21 1015 80 10000 1.34 211 04:50 03.09.2022
367 Clouds 19 1015 85 10000 0.37 33 02:40 03.09.2022
368 Clouds 18 1015 80 10000 1.38 29 23:44 02.09.2022
369 Clouds 19 1015 78 10000 1.35 35 22:21 02.09.2022
370 Clouds 19 1016 84 10000 1.33 30 20:42 02.09.2022
371 Clouds 19 1016 86 10000 1.09 35 19:47 02.09.2022
372 Clouds 20 1016 89 10000 0.48 48 18:50 02.09.2022
373 Clouds 20 1016 86 10000 0.2 179 18:25 02.09.2022
374 Clouds 21 1016 84 10000 0.26 210 17:25 02.09.2022
375 Clouds 21 1016 84 10000 0.26 210 16:31 02.09.2022
376 Clouds 22 1015 85 10000 2.4 206 13:42 02.09.2022
377 Clouds 25 1014 72 10000 3.85 205 10:57 02.09.2022
378 Clouds 25 1014 67 10000 4.07 204 09:45 02.09.2022
379 Clouds 25 1015 64 10000 3.75 200 08:47 02.09.2022
380 Clouds 24 1017 65 10000 2.73 202 06:48 02.09.2022
381 Clouds 23 1017 65 10000 2 204 06:22 02.09.2022
382 Clear 18 1017 74 10000 2.19 15 00:26 02.09.2022
383 Clouds 19 1017 78 10000 1.96 18 22:24 01.09.2022
384 Clouds 19 1017 78 10000 1.96 18 21:38 01.09.2022
385 Clouds 19 1017 81 10000 2.1 23 21:20 01.09.2022
386 Clouds 20 1017 79 10000 1.29 33 20:26 01.09.2022
387 Clouds 20 1017 80 10000 1.16 34 18:34 01.09.2022
388 Clouds 20 1017 89 10000 1.28 42 16:55 01.09.2022
389 Clouds 21 1015 88 10000 1.28 202 15:26 01.09.2022
390 Clouds 22 1014 81 10000 2.21 193 13:33 01.09.2022
391 Clouds 23 1013 77 10000 3.42 198 12:55 01.09.2022
392 Clouds 25 1012 71 10000 4.37 203 11:51 01.09.2022
393 Clouds 26 1012 65 10000 4.4 203 11:20 01.09.2022
394 Clouds 26 1012 60 10000 3.94 201 09:32 01.09.2022
395 Clear 26 1013 58 10000 3.37 201 07:31 01.09.2022
396 Clear 21 1015 59 10000 1.06 13 03:59 01.09.2022
397 Clear 18 1015 73 10000 2.69 21 01:31 01.09.2022
398 Clouds 19 1015 80 10000 1.84 32 22:56 31.08.2022
399 Clouds 19 1015 81 10000 0.88 42 20:45 31.08.2022
400 Clouds 20 1015 84 10000 0.7 41 18:47 31.08.2022
401 Clouds 21 1015 91 10000 0.64 16 16:47 31.08.2022
402 Clouds 22 1014 89 10000 1.51 191 15:28 31.08.2022
403 Clouds 23 1013 82 10000 2.33 202 13:37 31.08.2022
404 Clouds 25 1011 71 10000 3.79 207 11:55 31.08.2022
405 Clouds 26 1012 63 10000 3.76 205 09:36 31.08.2022
406 Clear 26 1013 60 10000 3.25 198 08:26 31.08.2022
407 Clear 19 1016 76 10000 2.04 24 02:58 31.08.2022
408 Clear 19 1017 80 10000 2.11 23 22:29 30.08.2022
409 Clear 19 1017 80 10000 2.11 23 22:29 30.08.2022
410 Clear 19 1018 85 10000 1.53 34 21:29 30.08.2022
411 Clear 19 1017 82 10000 1.41 36 20:35 30.08.2022
412 Clouds 21 1017 89 10000 0.35 97 16:58 30.08.2022
413 Clouds 23 1015 80 10000 2.15 203 13:53 30.08.2022
414 Clouds 25 1014 74 10000 3.19 202 12:25 30.08.2022
415 Clouds 25 1015 73 10000 3.89 201 11:20 30.08.2022
416 Clouds 26 1015 69 10000 4.03 203 09:58 30.08.2022
417 Clear 25 1017 63 10000 2.72 199 06:49 30.08.2022
418 Clear 18 1017 79 10000 1.55 26 01:26 30.08.2022
419 Clear 19 1018 82 10000 1.36 36 22:39 29.08.2022
420 Clear 19 1018 83 10000 1.12 42 21:54 29.08.2022
421 Clouds 19 1018 83 10000 0.87 43 20:47 29.08.2022
422 Clouds 20 1018 84 10000 0.57 54 19:35 29.08.2022
423 Clouds 21 1018 85 10000 1.3 25 17:39 29.08.2022
424 Clouds 20 1018 90 9018 0.45 6 17:18 29.08.2022
425 Clouds 21 1017 89 10000 0.32 236 15:38 29.08.2022
426 Clouds 22 1015 85 10000 2.06 201 13:58 29.08.2022
427 Clouds 23 1015 81 10000 2.66 200 12:32 29.08.2022
428 Clouds 24 1015 75 10000 3.34 197 10:49 29.08.2022
429 Clouds 24 1016 76 10000 3.31 199 09:20 29.08.2022
430 Clouds 24 1016 77 10000 3.17 204 07:35 29.08.2022
431 Clouds 19 1016 83 10000 1.76 17 02:34 29.08.2022
432 Clouds 19 1015 85 10000 1.51 17 23:37 28.08.2022
433 Clouds 20 1015 85 10000 1.07 9 21:49 28.08.2022
434 Clouds 20 1015 82 10000 1.08 11 21:31 28.08.2022
435 Clouds 20 1015 83 10000 1.3 24 20:24 28.08.2022
436 Clouds 20 1015 84 10000 1.31 22 18:38 28.08.2022
437 Clouds 20 1015 86 10000 1.37 17 18:18 28.08.2022
438 Clouds 21 1014 89 10000 1.11 30 16:55 28.08.2022
439 Clouds 21 1013 94 10000 0.38 357 15:42 28.08.2022
440 Clouds 23 1011 84 10000 2.28 200 13:47 28.08.2022
441 Clouds 24 1010 79 10000 2.97 199 12:31 28.08.2022
442 Clouds 25 1009 71 10000 3.83 199 10:40 28.08.2022
443 Clouds 26 1010 71 10000 3.74 197 09:40 28.08.2022
444 Clouds 26 1010 70 10000 3.59 202 08:32 28.08.2022
445 Clear 26 1010 68 10000 3.31 200 07:41 28.08.2022
446 Clear 19 1012 72 10000 1.97 31 01:31 28.08.2022
447 Clear 20 1012 74 10000 1.77 31 00:22 28.08.2022
448 Clear 20 1012 75 10000 1.72 21 22:31 27.08.2022
449 Clouds 20 1013 79 10000 1.62 39 21:24 27.08.2022
450 Clouds 21 1013 84 10000 1.11 53 19:39 27.08.2022
451 Clouds 22 1012 89 10000 0.86 14 16:42 27.08.2022
452 Clouds 22 1011 91 10000 0.13 163 15:39 27.08.2022
453 Clouds 22 1010 88 10000 1.21 193 14:35 27.08.2022
454 Clouds 25 1009 74 10000 3.6 203 12:23 27.08.2022
455 Clouds 26 1009 72 10000 3.93 203 11:24 27.08.2022
456 Clouds 26 1009 69 10000 4.07 202 09:40 27.08.2022
457 Clear 26 1010 67 10000 3.21 201 07:31 27.08.2022
458 Clear 20 1012 73 10000 1.61 30 02:33 27.08.2022
459 Clear 20 1012 75 10000 1.8 29 23:55 26.08.2022
460 Clear 20 1012 76 10000 1.77 25 22:31 26.08.2022
461 Clouds 20 1012 80 10000 1.33 41 20:39 26.08.2022
462 Clouds 21 1013 84 10000 0.79 38 19:23 26.08.2022
463 Rain 22 1012 86 10000 0.45 36 16:46 26.08.2022
464 Clouds 23 1011 86 10000 0.91 204 15:27 26.08.2022
465 Clouds 24 1011 85 10000 2.23 203 14:29 26.08.2022
466 Clouds 25 1010 77 10000 3.25 200 12:47 26.08.2022
467 Clear 27 1010 67 10000 3.91 202 11:27 26.08.2022
468 Clear 27 1010 64 10000 3.45 201 10:29 26.08.2022
469 Clear 25 1012 65 10000 2.7 199 07:28 26.08.2022
470 Clear 19 1013 69 10000 2.1 29 01:40 26.08.2022
471 Clear 20 1013 73 10000 1.89 27 23:32 25.08.2022
472 Clear 20 1014 79 10000 1.73 37 21:27 25.08.2022
473 Clouds 21 1015 81 10000 1.74 28 20:29 25.08.2022
474 Clouds 21 1014 84 10000 1.6 32 18:53 25.08.2022
475 Clouds 21 1014 88 10000 1.33 41 17:50 25.08.2022
476 Clouds 21 1014 88 10000 1.33 41 17:31 25.08.2022
477 Clouds 22 1014 93 10000 0.2 1 15:40 25.08.2022
478 Clouds 23 1013 90 10000 1.08 198 14:34 25.08.2022
479 Clouds 25 1012 76 10000 3.3 197 11:55 25.08.2022
480 Clouds 26 1012 73 10000 3.67 197 10:48 25.08.2022
481 Clouds 27 1012 66 10000 3.53 199 08:54 25.08.2022
482 Clouds 25 1013 65 10000 1.64 198 05:39 25.08.2022
483 Clouds 20 1014 80 10000 2.12 25 01:42 25.08.2022
484 Clouds 21 1014 81 10000 1.11 43 23:26 24.08.2022
485 Clouds 21 1015 82 10000 1.18 30 22:22 24.08.2022
486 Clouds 21 1015 82 10000 1.18 30 21:36 24.08.2022
487 Clouds 21 1016 83 10000 0.98 7 20:52 24.08.2022
488 Clouds 22 1016 82 10000 0.76 13 19:19 24.08.2022
489 Clouds 21 1017 84 10000 2.2 8 16:47 24.08.2022
490 Clouds 21 1016 87 10000 2.25 0 15:52 24.08.2022
491 Clouds 21 1015 95 2980 0.66 327 13:40 24.08.2022
492 Clouds 22 1014 93 1421 2.59 199 11:50 24.08.2022
493 Clouds 23 1014 88 4064 2.61 200 10:34 24.08.2022
494 Clouds 24 1015 80 10000 3.27 198 08:25 24.08.2022
495 Clear 21 1015 72 10000 2.22 27 02:57 24.08.2022
496 Clouds 21 1015 74 10000 2.53 24 23:35 23.08.2022
497 Clouds 21 1015 77 10000 1.78 32 22:33 23.08.2022
498 Clouds 21 1016 78 10000 1.45 40 21:35 23.08.2022
499 Rain 22 1016 79 10000 0.9 39 20:30 23.08.2022
500 Rain 22 1016 79 10000 1.06 37 18:50 23.08.2022
501 Clouds 21 1016 82 10000 1.49 33 17:50 23.08.2022
502 Clouds 22 1015 86 10000 1.42 38 17:18 23.08.2022
503 Clouds 22 1014 89 10000 0.88 49 15:39 23.08.2022
504 Clouds 24 1012 78 10000 2.1 196 13:36 23.08.2022
505 Clouds 25 1012 73 10000 2.83 197 12:30 23.08.2022
506 Clouds 26 1011 70 10000 3.68 201 10:51 23.08.2022
507 Clouds 26 1011 70 10000 3.68 201 10:32 23.08.2022
508 Clouds 27 1011 61 10000 3.76 199 08:54 23.08.2022
509 Clouds 27 1011 60 10000 3.03 203 08:22 23.08.2022
510 Clouds 27 1011 60 10000 3.03 203 07:48 23.08.2022
511 Clouds 26 1012 57 10000 2.47 199 06:58 23.08.2022
512 Clouds 25 1012 56 10000 1.57 196 06:19 23.08.2022
513 Clear 19 1013 75 10000 2.5 22 01:42 23.08.2022
514 Clear 20 1012 79 10000 2.69 22 00:26 23.08.2022
515 Clear 20 1012 79 10000 2.69 22 23:30 22.08.2022
516 Clear 20 1012 84 10000 1.92 36 22:19 22.08.2022
517 Clouds 21 1012 86 10000 0.67 84 19:51 22.08.2022
518 Clouds 21 1012 86 10000 0.67 84 19:30 22.08.2022
519 Clouds 21 1012 88 10000 0.71 105 18:36 22.08.2022
520 Clouds 22 1010 86 10000 0.72 184 15:45 22.08.2022
521 Clouds 23 1009 84 10000 0.94 207 14:46 22.08.2022
522 Clouds 25 1008 74 10000 3.32 204 11:20 22.08.2022
523 Clouds 26 1008 66 10000 3.65 204 09:20 22.08.2022
524 Clouds 23 1010 66 10000 0.63 209 04:45 22.08.2022
525 Clouds 20 1010 77 10000 2.43 27 00:54 22.08.2022
526 Clouds 20 1010 77 10000 2.43 27 00:35 22.08.2022
527 Clouds 20 1009 78 10000 1.56 39 22:56 21.08.2022
528 Clouds 20 1010 78 10000 1.84 36 21:45 21.08.2022
529 Clouds 20 1010 80 10000 2.06 28 21:18 21.08.2022
530 Clouds 21 1011 84 10000 1.24 38 19:40 21.08.2022
531 Clouds 21 1012 89 10000 1.1 23 18:28 21.08.2022
532 Clouds 20 1012 93 9996 0.81 7 16:34 21.08.2022
533 Rain 21 1011 94 10000 0.31 253 15:51 21.08.2022
534 Clouds 22 1010 90 10000 1.32 201 14:41 21.08.2022
535 Clouds 23 1009 82 10000 1.89 197 13:44 21.08.2022
536 Clouds 24 1009 78 10000 2.34 198 12:53 21.08.2022
537 Clouds 25 1010 67 10000 2.62 192 09:57 21.08.2022
538 Clouds 24 1011 69 10000 2.14 180 08:56 21.08.2022
539 Clouds 24 1011 69 10000 2.14 180 08:38 21.08.2022
540 Clouds 25 1011 66 10000 2.96 197 07:53 21.08.2022
541 Clouds 24 1012 67 10000 1.41 194 05:39 21.08.2022
542 Clouds 20 1012 89 10000 1.98 26 00:54 21.08.2022
543 Clouds 20 1012 89 9768 0.56 12 23:20 20.08.2022
544 Clouds 20 1012 87 10000 0.61 71 21:51 20.08.2022
545 Clouds 20 1012 87 10000 0.58 106 20:50 20.08.2022
546 Clouds 20 1013 86 10000 1.2 38 19:42 20.08.2022
547 Clouds 20 1013 87 10000 0.88 57 18:45 20.08.2022
548 Clouds 20 1013 87 10000 0.7 69 18:25 20.08.2022
549 Clouds 21 1013 90 4236 0.81 45 17:20 20.08.2022
550 Clouds 20 1012 93 3612 0.32 270 15:52 20.08.2022
551 Clouds 22 1011 94 1551 1.9 208 13:48 20.08.2022
552 Rain 23 1010 87 5496 2.87 196 11:56 20.08.2022
553 Rain 23 1010 87 5496 2.87 196 11:36 20.08.2022
554 Rain 23 1012 85 10000 2.76 201 09:20 20.08.2022
555 Clouds 24 1010 80 10000 2.77 197 07:18 20.08.2022
556 Rain 23 1011 84 10000 1.42 204 04:50 20.08.2022
557 Rain 20 1011 91 10000 0.27 213 00:57 20.08.2022
558 Rain 22 1010 86 10000 0.1 25 23:26 19.08.2022
559 Rain 22 1010 86 10000 0.1 25 22:45 19.08.2022
560 Rain 22 1012 91 10000 0.09 192 21:20 19.08.2022
561 Clouds 22 1012 89 10000 0.74 189 18:59 19.08.2022
562 Clouds 22 1012 89 10000 0.74 189 18:59 19.08.2022
563 Clouds 22 1012 89 10000 0.74 189 18:59 19.08.2022
564 Clouds 22 1012 89 10000 0.74 189 18:59 19.08.2022
565 Clouds 22 1011 92 1665 1.07 187 15:58 19.08.2022
566 Clouds 23 1009 87 10000 2.06 193 13:44 19.08.2022
567 Clouds 25 1008 82 10000 3.42 201 11:50 19.08.2022
568 Clouds 26 1008 78 10000 3.54 201 10:31 19.08.2022
569 Clouds 26 1009 72 10000 3.38 202 08:43 19.08.2022
570 Clouds 23 1011 78 10000 1.45 203 04:39 19.08.2022
571 Clouds 20 1010 83 10000 0.95 14 00:40 19.08.2022
572 Clouds 20 1010 84 10000 0.75 23 00:19 19.08.2022
573 Clouds 21 1010 84 10000 0.56 31 22:56 18.08.2022
574 Clouds 21 1010 84 10000 0.66 44 22:23 18.08.2022
575 Clouds 21 1010 84 10000 0.66 44 21:49 18.08.2022
576 Clouds 21 1011 85 10000 0.82 34 20:47 18.08.2022
577 Clouds 22 1011 86 10000 0.06 87 19:35 18.08.2022
578 Clouds 22 1011 85 10000 0.32 158 18:43 18.08.2022
579 Clouds 22 1011 87 10000 0.34 114 17:32 18.08.2022
580 Clouds 23 1010 91 3835 0.57 202 15:51 18.08.2022
581 Clouds 24 1009 87 10000 1.56 198 14:21 18.08.2022
582 Clouds 24 1009 87 10000 1.56 198 13:44 18.08.2022
583 Clouds 25 1009 80 10000 3.12 197 12:28 18.08.2022
584 Clouds 26 1009 76 10000 3.35 205 11:18 18.08.2022
585 Clouds 27 1009 74 10000 3.77 205 09:43 18.08.2022
586 Clear 26 1010 61 10000 2.51 197 07:27 18.08.2022
587 Clear 25 1011 60 10000 1.83 199 06:18 18.08.2022
588 Clouds 20 1012 75 10000 1.6 22 01:43 18.08.2022
589 Clouds 20 1012 79 10000 1.06 43 22:32 17.08.2022
590 Clouds 21 1013 78 10000 1.21 20 20:21 17.08.2022
591 Clouds 21 1012 77 10000 1.27 25 19:55 17.08.2022
592 Clouds 21 1012 82 10000 1.49 35 18:33 17.08.2022
593 Clouds 23 1012 80 10000 0.6 31 16:52 17.08.2022
594 Clouds 23 1011 82 10000 0.08 100 15:45 17.08.2022
595 Clouds 23 1011 86 10000 1.05 198 14:40 17.08.2022
596 Clouds 26 1010 75 10000 3.34 198 12:29 17.08.2022
597 Clouds 26 1010 73 10000 3.62 203 10:59 17.08.2022
598 Clouds 26 1011 70 10000 3.46 200 09:19 17.08.2022
599 Clear 25 1012 64 10000 2 199 06:29 17.08.2022
600 Clouds 19 1012 70 10000 2.08 29 00:50 17.08.2022
601 Clouds 20 1013 71 10000 2.08 36 23:27 16.08.2022
602 Clouds 20 1014 72 10000 1.93 30 21:32 16.08.2022
603 Clouds 21 1014 70 10000 1.18 27 20:20 16.08.2022
604 Clouds 21 1014 70 10000 1.56 31 19:26 16.08.2022
605 Clouds 21 1014 72 10000 1.6 32 17:55 16.08.2022
606 Clouds 21 1014 73 10000 1.47 35 16:48 16.08.2022
607 Clouds 22 1012 76 10000 1.1 38 15:45 16.08.2022
608 Clouds 23 1011 75 10000 0.68 104 14:54 16.08.2022
609 Clouds 23 1011 75 10000 0.68 104 14:36 16.08.2022
610 Clouds 24 1011 64 10000 0.98 167 12:33 16.08.2022
611 Clouds 24 1013 60 10000 2.03 14 10:23 16.08.2022
612 Clouds 24 1014 62 10000 0.8 29 08:54 16.08.2022
613 Clouds 25 1012 59 10000 1.38 220 08:26 16.08.2022
614 Rain 25 1013 59 10000 0.87 245 06:48 16.08.2022
615 Clouds 20 1015 83 10000 2.83 18 00:32 16.08.2022
616 Clouds 19 1018 93 5601 0.38 52 22:26 15.08.2022
617 Clouds 19 1018 93 5601 0.38 52 21:51 15.08.2022
618 Clouds 19 1018 94 5255 0.64 141 20:35 15.08.2022
619 Clouds 19 1018 95 5928 0.32 168 19:59 15.08.2022
620 Rain 20 1017 97 2367 0.75 198 18:20 15.08.2022
621 Clouds 20 1016 98 475 0.9 188 16:26 15.08.2022
622 Clouds 20 1016 98 475 0.9 188 15:55 15.08.2022
623 Clouds 20 1015 99 240 1.82 202 13:54 15.08.2022
624 Clouds 21 1014 99 184 2.27 201 12:24 15.08.2022
625 Clouds 22 1014 99 354 2.66 205 09:54 15.08.2022
626 Clouds 22 1014 94 589 3.57 204 07:50 15.08.2022
627 Clouds 22 1014 86 10000 1.53 206 04:36 15.08.2022
628 Clouds 21 1011 88 10000 0.1 100 01:26 15.08.2022
629 Rain 21 1013 91 10000 0.22 100 22:39 14.08.2022
630 Clouds 21 1013 92 10000 0.5 144 21:38 14.08.2022
631 Clouds 21 1013 94 10000 0.41 191 19:58 14.08.2022
632 Clouds 22 1013 94 10000 0.74 186 18:59 14.08.2022
633 Clouds 22 1013 93 10000 0.61 210 18:19 14.08.2022
634 Clouds 22 1013 94 9381 0.58 207 16:53 14.08.2022
635 Clouds 22 1012 95 6687 1.08 189 15:49 14.08.2022
636 Clouds 22 1011 93 4119 1.6 189 14:34 14.08.2022
637 Clouds 23 1011 90 3696 2.42 204 13:50 14.08.2022
638 Clouds 24 1010 82 10000 3.17 205 13:20 14.08.2022
639 Clouds 24 1010 82 10000 3.17 205 12:34 14.08.2022
640 Clouds 26 1010 76 10000 3.47 202 10:55 14.08.2022
641 Clouds 27 1010 71 10000 3.76 199 08:52 14.08.2022
642 Clear 25 1011 70 10000 2.12 199 06:22 14.08.2022
643 Clear 23 1012 73 10000 0.29 192 03:36 14.08.2022
644 Clouds 21 1011 87 10000 1.42 20 00:33 14.08.2022
645 Clouds 21 1012 89 10000 0.43 17 22:56 13.08.2022
646 Clouds 21 1012 89 10000 0.43 17 22:56 13.08.2022
647 Clouds 21 1012 89 10000 0.7 1 21:47 13.08.2022
648 Clouds 21 1012 89 10000 0.1 354 20:47 13.08.2022
649 Clouds 22 1012 86 10000 0.83 28 19:46 13.08.2022
650 Clouds 23 1011 87 10000 1.69 14 18:19 13.08.2022
651 Clouds 23 1010 94 9448 0.39 67 15:57 13.08.2022
652 Clouds 24 1009 87 10000 1.58 185 14:40 13.08.2022
653 Clear 26 1007 75 10000 2.09 199 13:46 13.08.2022
654 Clear 28 1007 65 10000 3.56 202 11:59 13.08.2022
655 Clear 28 1007 61 10000 3.7 203 10:33 13.08.2022
656 Clear 28 1007 55 10000 3.37 199 09:22 13.08.2022
657 Clear 26 1009 58 10000 1.55 205 05:59 13.08.2022
658 Clear 20 1011 67 10000 2.42 28 00:44 13.08.2022
659 Clear 21 1012 66 10000 2.66 28 22:37 12.08.2022
660 Clear 21 1012 67 10000 2.6 30 21:35 12.08.2022
661 Clouds 21 1013 69 10000 3.08 32 19:46 12.08.2022
662 Clouds 21 1013 70 10000 3.11 34 19:21 12.08.2022
663 Clouds 22 1012 72 10000 3 32 17:59 12.08.2022
664 Clouds 23 1010 77 10000 1.75 34 16:25 12.08.2022
665 Clouds 25 1009 74 10000 0.43 319 14:50 12.08.2022
666 Clouds 27 1007 57 10000 1.99 224 13:26 12.08.2022
667 Clouds 28 1007 54 10000 2.79 208 11:40 12.08.2022
668 Clouds 28 1008 48 10000 2.65 198 08:50 12.08.2022
669 Clouds 28 1009 47 10000 2.21 203 07:45 12.08.2022
670 Clouds 25 1012 52 10000 0.38 251 04:55 12.08.2022
671 Clouds 20 1013 73 10000 3.47 20 00:31 12.08.2022
672 Clouds 20 1014 76 10000 3.55 19 23:55 11.08.2022
673 Clouds 20 1015 79 10000 4.02 20 22:45 11.08.2022
674 Clouds 19 1016 81 10000 3.75 16 21:53 11.08.2022
675 Clouds 20 1016 82 10000 3.07 7 21:28 11.08.2022
676 Clouds 20 1016 82 10000 3.07 7 20:30 11.08.2022
677 Clouds 20 1015 86 10000 1.78 352 19:33 11.08.2022
678 Clouds 20 1014 89 10000 0.95 335 18:53 11.08.2022
679 Clouds 21 1013 92 5825 1.11 19 16:46 11.08.2022
680 Clouds 20 1012 96 2506 0.72 13 15:42 11.08.2022
681 Clouds 20 1012 98 496 0.79 215 14:36 11.08.2022
682 Clouds 21 1011 99 882 2.09 201 11:56 11.08.2022
683 Clouds 22 1011 98 247 2.54 216 08:57 11.08.2022
684 Clouds 23 1010 93 352 2.51 212 06:49 11.08.2022
685 Rain 22 1009 95 1864 0.41 203 02:38 11.08.2022
686 Rain 21 1008 99 500 0.57 237 23:41 10.08.2022
687 Rain 22 1009 96 655 0.43 226 21:49 10.08.2022
688 Clouds 22 1009 97 602 0.72 231 21:18 10.08.2022
689 Clouds 22 1009 97 602 0.72 231 20:35 10.08.2022
690 Clouds 23 1009 98 518 0.83 199 18:53 10.08.2022
691 Clouds 23 1008 96 2024 0.6 199 17:27 10.08.2022
692 Clouds 23 1007 96 2631 1.27 193 14:57 10.08.2022
693 Clouds 24 1006 93 1768 2.13 194 13:34 10.08.2022
694 Clouds 28 1005 70 10000 3.37 204 10:51 10.08.2022
695 Clouds 28 1006 64 10000 3.27 204 08:42 10.08.2022
696 Clouds 27 1007 61 10000 2.84 199 07:35 10.08.2022
697 Clouds 26 1008 59 10000 1.98 201 05:46 10.08.2022
698 Clouds 20 1011 71 10000 1.63 37 02:22 10.08.2022
699 Clouds 21 1010 69 10000 2.03 25 23:33 09.08.2022
700 Clouds 21 1010 69 10000 2.43 26 22:48 09.08.2022
701 Clouds 21 1010 69 10000 2.46 22 21:33 09.08.2022
702 Clouds 22 1011 73 10000 2.08 21 19:33 09.08.2022
703 Clouds 22 1010 77 10000 3.06 20 17:53 09.08.2022
704 Clouds 23 1010 79 10000 2.43 22 17:26 09.08.2022
705 Clouds 23 1010 79 10000 2.43 22 16:33 09.08.2022
706 Clouds 24 1008 78 10000 0.15 350 15:26 09.08.2022
707 Clouds 26 1009 61 10000 1.03 186 12:20 09.08.2022
708 Clouds 24 1012 74 10000 1.23 167 08:55 09.08.2022
709 Clouds 23 1013 78 10000 1.31 173 08:26 09.08.2022
710 Clouds 23 1014 82 10000 0.91 162 07:18 09.08.2022
711 Clouds 21 1013 85 10000 0.4 148 02:54 09.08.2022
712 Clouds 21 1011 81 10000 1.17 33 23:26 08.08.2022
713 Clouds 21 1011 81 10000 1.17 33 22:52 08.08.2022
714 Clouds 21 1012 80 10000 1.19 37 21:48 08.08.2022
715 Clouds 21 1012 79 10000 1.22 50 20:51 08.08.2022
716 Clouds 21 1011 78 10000 1.68 39 19:50 08.08.2022
717 Clouds 22 1011 79 10000 2.27 28 18:19 08.08.2022
718 Clouds 23 1009 82 10000 1.22 50 15:57 08.08.2022
719 Clouds 23 1009 82 10000 1.22 50 15:38 08.08.2022
720 Clouds 25 1008 75 10000 2.28 219 12:39 08.08.2022
721 Clouds 26 1008 68 10000 2.74 216 11:32 08.08.2022
722 Clouds 24 1011 70 10000 0.86 252 08:26 08.08.2022
723 Clouds 23 1012 80 10000 0.74 311 05:35 08.08.2022
724 Clouds 20 1011 96 3260 0.7 312 01:55 08.08.2022
725 Clouds 21 1010 92 8587 0.52 1 21:51 07.08.2022
726 Clouds 21 1010 92 8587 0.52 1 21:32 07.08.2022
727 Clouds 21 1010 96 10000 0.78 146 20:25 07.08.2022
728 Clouds 21 1010 96 10000 0.78 146 19:53 07.08.2022
729 Clouds 22 1010 96 10000 0.59 157 19:29 07.08.2022
730 Clouds 22 1010 97 860 0.79 123 18:21 07.08.2022
731 Clouds 22 1009 99 648 0.86 162 16:53 07.08.2022
732 Clouds 22 1009 98 361 1.24 180 15:54 07.08.2022
733 Clouds 22 1008 97 541 1.25 191 14:39 07.08.2022
734 Clouds 23 1008 89 7643 2.25 204 12:59 07.08.2022
735 Clouds 25 1007 81 8106 3.26 195 10:59 07.08.2022
736 Clouds 25 1008 79 10000 3.04 191 10:28 07.08.2022
737 Clouds 21 1011 93 1786 0.78 200 04:58 07.08.2022
738 Clouds 21 1010 97 2991 0.75 180 03:19 07.08.2022
739 Rain 21 1008 95 10000 0.17 124 23:37 06.08.2022
740 Clouds 21 1009 96 3929 0.67 176 22:20 06.08.2022
741 Clouds 21 1009 92 10000 0.99 183 20:24 06.08.2022
742 Clouds 21 1009 97 4000 1.15 187 19:39 06.08.2022
743 Clouds 22 1009 95 10000 0.72 164 18:22 06.08.2022
744 Clouds 22 1008 94 10000 0.63 202 16:40 06.08.2022
745 Clouds 23 1007 89 10000 0.81 183 14:31 06.08.2022
746 Clouds 23 1007 88 10000 1.38 208 13:40 06.08.2022
747 Clouds 25 1007 80 10000 2.36 194 11:24 06.08.2022
748 Clouds 25 1008 78 10000 2.95 199 09:50 06.08.2022
749 Clouds 25 1009 75 10000 2.96 209 08:28 06.08.2022
750 Clouds 22 1011 82 10000 0.1 156 03:35 06.08.2022
751 Clouds 20 1011 86 10000 1.34 18 23:32 05.08.2022
752 Clouds 19 1012 89 10000 1.24 29 21:54 05.08.2022
753 Clouds 20 1011 88 10000 0.25 197 19:32 05.08.2022
754 Clouds 21 1010 83 10000 0.55 45 18:44 05.08.2022
755 Clouds 22 1010 82 10000 1.54 29 17:27 05.08.2022
756 Clouds 22 1010 82 10000 1.54 29 16:48 05.08.2022
757 Clouds 22 1010 86 10000 0.75 25 15:21 05.08.2022
758 Clouds 22 1010 85 10000 0.74 218 13:59 05.08.2022
759 Clouds 23 1010 83 10000 1.04 211 13:23 05.08.2022
760 Clouds 23 1011 82 10000 0.66 212 12:24 05.08.2022
761 Clouds 22 1011 84 10000 0.68 224 10:44 05.08.2022
762 Clouds 22 1013 87 10000 1.52 198 08:25 05.08.2022
763 Clouds 22 1013 82 10000 1.29 195 06:41 05.08.2022
764 Clouds 21 1011 91 10000 0.33 315 00:34 05.08.2022
765 Clouds 21 1013 93 2918 0.51 349 22:29 04.08.2022
766 Clouds 21 1013 93 3889 0.19 75 21:26 04.08.2022
767 Clouds 21 1013 93 3889 0.19 75 20:43 04.08.2022
768 Clouds 21 1013 91 10000 0.11 141 19:40 04.08.2022
769 Clouds 22 1012 87 10000 0.4 256 18:36 04.08.2022
770 Clouds 22 1012 86 10000 0.88 45 17:38 04.08.2022
771 Clouds 22 1012 94 1963 2.06 177 14:22 04.08.2022
772 Clouds 23 1011 88 10000 2.7 200 12:57 04.08.2022
773 Clouds 26 1010 77 10000 3.98 207 11:18 04.08.2022
774 Clouds 26 1011 64 10000 3.13 200 07:53 04.08.2022
775 Rain 26 1011 63 10000 2.62 203 06:40 04.08.2022
776 Clear 20 1014 71 10000 1.74 28 02:33 04.08.2022
777 Clouds 19 1013 74 10000 1.94 21 23:45 03.08.2022
778 Clouds 20 1013 77 10000 2.13 15 22:55 03.08.2022
779 Clouds 20 1014 83 10000 1.43 25 20:50 03.08.2022
780 Rain 20 1013 82 10000 0.79 60 19:46 03.08.2022
781 Clouds 21 1013 83 10000 0.82 23 18:37 03.08.2022
782 Clouds 22 1012 87 8354 0.2 138 16:26 03.08.2022
783 Clouds 22 1012 87 8354 0.2 138 15:45 03.08.2022
784 Clouds 25 1010 75 10000 3.4 204 12:44 03.08.2022
785 Clouds 27 1010 61 10000 3.53 202 09:46 03.08.2022
786 Clear 23 1013 55 10000 1.24 192 04:51 03.08.2022
787 Clear 22 1012 58 10000 0.74 26 04:21 03.08.2022
788 Clear 18 1013 70 10000 2.81 21 02:25 03.08.2022
789 Clear 18 1013 75 10000 1.55 17 23:54 02.08.2022
790 Clear 19 1013 77 10000 2.23 24 21:59 02.08.2022
791 Clear 19 1013 77 10000 2.23 24 21:40 02.08.2022
792 Clouds 20 1013 79 10000 1.3 44 20:25 02.08.2022
793 Clouds 21 1011 84 10000 0.78 66 16:51 02.08.2022
794 Clouds 23 1009 77 10000 2.33 200 13:54 02.08.2022
795 Clouds 26 1007 67 10000 4.13 205 10:34 02.08.2022
796 Clouds 26 1008 64 10000 3.55 203 08:36 02.08.2022
797 Clear 26 1009 64 10000 3.28 201 07:51 02.08.2022
798 Clear 23 1010 62 10000 0.54 207 04:56 02.08.2022
799 Clear 19 1011 74 10000 2.13 32 02:30 02.08.2022
800 Clouds 19 1010 79 10000 1.13 41 23:25 01.08.2022
801 Clouds 20 1010 80 10000 1.38 34 21:48 01.08.2022
802 Clouds 20 1011 85 10000 1.02 32 20:27 01.08.2022
803 Clouds 20 1011 82 10000 1.55 41 18:56 01.08.2022
804 Clouds 20 1011 90 10000 1 65 17:22 01.08.2022
805 Clouds 20 1011 90 10000 1 65 16:48 01.08.2022
806 Clouds 20 1010 91 10000 0.59 117 15:46 01.08.2022
807 Clouds 22 1009 84 10000 0.62 187 15:19 01.08.2022
808 Clouds 23 1009 75 10000 0.42 219 13:39 01.08.2022
809 Clouds 22 1010 76 10000 0.7 185 11:38 01.08.2022
810 Clouds 21 1011 77 10000 1.07 39 09:38 01.08.2022
811 Clouds 20 1013 92 3750 1.14 307 08:18 01.08.2022
812 Clouds 20 1011 86 10000 0.63 240 04:43 01.08.2022
813 Clouds 20 1010 89 10000 0.5 91 02:31 01.08.2022
814 Clouds 20 1010 89 5468 1.2 44 22:54 31.07.2022
815 Clouds 20 1010 89 5468 1.2 44 22:36 31.07.2022
816 Clouds 19 1010 89 9863 0.5 349 20:46 31.07.2022
817 Clouds 19 1011 90 10000 0.82 27 19:25 31.07.2022
818 Clouds 20 1011 89 10000 0.65 41 17:43 31.07.2022
819 Clouds 21 1010 86 10000 0.26 90 15:30 31.07.2022
820 Rain 21 1009 88 10000 0.35 72 13:21 31.07.2022
821 Rain 21 1009 89 10000 0.5 195 11:45 31.07.2022
822 Clouds 20 1010 96 6424 0.47 203 09:27 31.07.2022
823 Clouds 22 1010 91 10000 1.97 191 06:37 31.07.2022
824 Clouds 20 1010 95 10000 0.27 120 02:56 31.07.2022
825 Clouds 20 1010 91 10000 0.97 40 23:29 30.07.2022
826 Clouds 20 1011 92 10000 0.72 41 22:19 30.07.2022
827 Clouds 20 1011 92 10000 0.72 41 21:40 30.07.2022
828 Clouds 20 1011 92 10000 0.9 45 20:51 30.07.2022
829 Clouds 21 1011 93 10000 0.41 34 19:58 30.07.2022
830 Clouds 20 1012 92 10000 0.49 46 18:26 30.07.2022
831 Rain 20 1012 94 10000 0.37 73 16:54 30.07.2022
832 Clouds 21 1012 96 10000 0.53 194 15:35 30.07.2022
833 Clouds 21 1011 92 8257 1.4 193 14:53 30.07.2022
834 Clouds 22 1011 87 7867 1.61 193 12:47 30.07.2022
835 Clouds 22 1011 88 7416 1.98 184 11:55 30.07.2022
836 Clouds 22 1012 89 3709 2.51 191 10:25 30.07.2022
837 Clouds 22 1012 89 3709 2.51 191 09:46 30.07.2022
838 Clouds 22 1013 88 10000 2.21 190 07:47 30.07.2022
839 Clouds 20 1013 90 10000 0.35 40 02:36 30.07.2022
840 Clouds 20 1012 91 10000 0.15 149 01:46 30.07.2022
841 Clouds 21 1013 89 5661 1.28 29 22:25 29.07.2022
842 Clouds 20 1014 92 5529 0.93 51 20:59 29.07.2022
843 Clouds 20 1014 88 10000 0.92 60 19:48 29.07.2022
844 Clouds 21 1014 90 10000 0.69 29 17:53 29.07.2022
845 Clouds 22 1013 94 4944 0.84 191 15:21 29.07.2022
846 Clouds 21 1014 94 3998 0.36 222 12:59 29.07.2022
847 Clouds 21 1013 97 638 1.79 225 10:35 29.07.2022
848 Clouds 23 1013 89 909 3.4 206 08:49 29.07.2022
849 Clouds 24 1013 82 3579 3.54 206 07:54 29.07.2022
850 Clouds 19 1015 84 10000 1.38 34 01:47 29.07.2022
851 Clouds 19 1015 87 10000 0.99 42 22:49 28.07.2022
852 Clouds 20 1015 86 10000 1.02 31 21:00 28.07.2022
853 Clouds 20 1016 87 10000 0.58 19 20:30 28.07.2022
854 Clouds 20 1016 86 10000 1.36 34 19:43 28.07.2022
855 Clouds 20 1016 89 10000 1.24 43 18:50 28.07.2022
856 Clouds 20 1016 89 10000 0.95 38 17:43 28.07.2022
857 Clouds 21 1015 90 10000 0.93 27 16:51 28.07.2022
858 Clouds 21 1015 93 10000 0.27 47 15:30 28.07.2022
859 Clouds 22 1014 95 329 1.06 214 13:29 28.07.2022
860 Rain 23 1014 94 630 2.66 202 10:37 28.07.2022
861 Clouds 24 1014 79 10000 2.45 200 06:42 28.07.2022
862 Clouds 22 1016 85 10000 1.38 208 05:29 28.07.2022
863 Clouds 20 1014 92 10000 0.4 5 01:23 28.07.2022
864 Rain 21 1015 89 10000 0.53 11 22:41 27.07.2022
865 Clouds 21 1016 93 10000 0.47 2 21:29 27.07.2022
866 Clouds 21 1016 90 10000 0.66 174 19:43 27.07.2022
867 Clouds 22 1015 85 10000 0.83 19 17:50 27.07.2022
868 Clouds 21 1015 90 10000 0.83 351 15:52 27.07.2022
869 Clouds 21 1015 92 9311 0.64 334 15:20 27.07.2022
870 Clouds 21 1015 92 9311 0.64 334 14:40 27.07.2022
871 Clouds 21 1015 91 2685 0.84 358 12:50 27.07.2022
872 Clouds 22 1016 91 312 1.07 182 08:44 27.07.2022
873 Clouds 23 1015 86 7362 1.91 163 07:24 27.07.2022
874 Rain 21 1014 91 10000 0.47 144 02:42 27.07.2022
875 Clouds 21 1015 96 2096 0.24 27 22:29 26.07.2022
876 Clouds 21 1016 96 2096 0.44 113 21:23 26.07.2022
877 Rain 21 1016 96 2096 0.44 113 20:43 26.07.2022
878 Rain 21 1016 97 1986 0.43 33 18:44 26.07.2022
879 Rain 21 1016 96 2157 0.35 137 18:20 26.07.2022
880 Clouds 21 1016 98 1624 0.47 64 16:46 26.07.2022
881 Clouds 22 1015 98 1438 1.12 190 15:42 26.07.2022
882 Clouds 22 1014 93 1931 1.18 199 13:47 26.07.2022
883 Clouds 23 1014 93 2047 2.28 204 11:40 26.07.2022
884 Clouds 23 1014 91 4950 2.66 199 09:32 26.07.2022
885 Clouds 23 1016 91 1898 2.63 202 07:31 26.07.2022
886 Clouds 21 1016 96 3241 0.33 79 01:21 26.07.2022
887 Clouds 21 1016 97 4360 0.36 157 23:33 25.07.2022
888 Clouds 21 1016 97 4280 0.43 151 22:33 25.07.2022
889 Clouds 21 1016 97 4309 0.45 156 21:43 25.07.2022
890 Clouds 21 1017 97 4377 0.49 178 20:42 25.07.2022
891 Clouds 21 1017 96 2322 0.33 173 19:51 25.07.2022
892 Clouds 21 1017 91 10000 0.62 39 18:23 25.07.2022
893 Clouds 21 1017 91 10000 0.62 39 17:33 25.07.2022
894 Clouds 21 1015 98 3361 0.74 191 15:37 25.07.2022
895 Clouds 22 1014 93 469 1.69 206 12:33 25.07.2022
896 Clouds 22 1014 94 694 1.81 192 10:38 25.07.2022
897 Clouds 24 1014 83 10000 3.03 206 06:51 25.07.2022
898 Clouds 21 1014 95 10000 0.51 38 23:56 24.07.2022
899 Clouds 20 1014 97 1484 0.55 141 23:21 24.07.2022
900 Clouds 20 1014 97 1484 0.55 141 22:41 24.07.2022
901 Clouds 21 1014 98 10000 0.73 207 21:30 24.07.2022
902 Clouds 21 1014 94 2973 0.69 209 20:56 24.07.2022
903 Clouds 21 1014 94 2992 0.51 194 20:32 24.07.2022
904 Clouds 21 1015 92 10000 0.34 330 18:59 24.07.2022
905 Clouds 22 1014 98 1185 0.85 153 16:53 24.07.2022
906 Clouds 22 1013 99 519 1.42 181 15:53 24.07.2022
907 Clouds 22 1012 97 1006 1.78 196 14:41 24.07.2022
908 Clouds 23 1011 94 1300 1.91 212 13:43 24.07.2022
909 Clouds 23 1011 92 1301 2.09 201 12:19 24.07.2022
910 Clouds 23 1012 90 1425 2.26 201 11:28 24.07.2022
911 Clouds 24 1012 89 1390 2.43 203 09:33 24.07.2022
912 Clouds 24 1012 82 8387 2.76 199 07:53 24.07.2022
913 Clouds 24 1012 84 4047 2.31 206 06:55 24.07.2022
914 Rain 21 1013 98 3485 0.38 187 02:41 24.07.2022
915 Clouds 22 1012 91 4292 0.43 44 22:37 23.07.2022
916 Clouds 22 1014 95 1747 0.29 161 20:47 23.07.2022
917 Clouds 21 1014 99 905 0.89 202 18:59 23.07.2022
918 Clouds 22 1014 96 1869 0.94 191 17:58 23.07.2022
919 Clouds 22 1013 94 2052 0.56 216 17:25 23.07.2022
920 Clouds 22 1013 91 2130 0.51 182 16:21 23.07.2022
921 Clouds 23 1012 90 10000 0.7 246 15:21 23.07.2022
922 Clouds 23 1012 90 10000 0.7 246 14:52 23.07.2022
923 Clouds 23 1012 90 10000 1.08 184 14:21 23.07.2022
924 Rain 23 1012 90 2614 1.99 200 11:55 23.07.2022
925 Clouds 24 1012 88 821 2.7 205 10:37 23.07.2022
926 Clouds 24 1012 86 1213 3.06 204 09:38 23.07.2022
927 Clouds 24 1013 88 1226 2.2 202 07:18 23.07.2022
928 Clouds 22 1013 92 10000 0.49 173 03:37 23.07.2022
929 Clouds 22 1012 93 10000 0.16 226 00:34 23.07.2022
930 Clouds 21 1013 97 7288 0.6 166 21:36 22.07.2022
931 Clouds 22 1013 93 10000 0.65 189 20:31 22.07.2022
932 Clouds 21 1014 98 1158 0.26 57 18:42 22.07.2022
933 Clouds 22 1013 95 10000 0.46 235 17:40 22.07.2022
934 Clouds 22 1012 95 9072 0.58 185 15:48 22.07.2022
935 Clouds 23 1011 92 2398 1.89 194 12:47 22.07.2022
936 Clouds 26 1011 79 8577 3.4 197 10:23 22.07.2022
937 Clouds 26 1011 77 10000 3.39 200 09:24 22.07.2022
938 Rain 26 1012 77 10000 3.08 201 07:58 22.07.2022
939 Clouds 24 1012 75 10000 0.51 230 04:24 22.07.2022
940 Clouds 21 1013 89 10000 1.18 33 23:44 21.07.2022
941 Clouds 21 1014 92 8863 0.19 275 21:55 21.07.2022
942 Clouds 21 1014 89 10000 0.71 29 20:28 21.07.2022
943 Clouds 21 1014 90 9269 0.4 158 18:52 21.07.2022
944 Clouds 22 1011 85 10000 0.96 1 17:22 21.07.2022
945 Clouds 22 1011 85 10000 0.96 1 16:43 21.07.2022
946 Clouds 23 1011 88 10000 0.58 102 14:49 21.07.2022
947 Clouds 23 1011 86 1592 0.49 194 13:58 21.07.2022
948 Clouds 23 1011 92 1707 1.88 203 12:27 21.07.2022
949 Clouds 23 1011 91 819 2.36 203 10:37 21.07.2022
950 Rain 24 1011 88 1528 2.81 198 08:54 21.07.2022
951 Rain 24 1011 88 1528 2.81 198 08:35 21.07.2022
952 Rain 24 1011 85 8187 2.17 203 07:23 21.07.2022
953 Clouds 22 1009 84 10000 0.59 298 03:48 21.07.2022
954 Clouds 21 1009 92 5884 1.28 340 23:23 20.07.2022
955 Clouds 21 1010 95 5343 0.9 343 22:20 20.07.2022
956 Clouds 21 1010 97 4071 0.15 3 20:50 20.07.2022
957 Clouds 21 1010 97 2892 0.32 45 19:48 20.07.2022
958 Clouds 22 1010 89 10000 0.7 197 19:20 20.07.2022
959 Rain 22 1010 89 10000 0.7 197 18:33 20.07.2022
960 Clouds 22 1010 89 9617 0.92 27 17:43 20.07.2022
961 Clouds 22 1009 93 3770 0.76 223 15:59 20.07.2022
962 Clouds 23 1008 92 2399 1.34 181 14:54 20.07.2022
963 Clouds 24 1008 85 5324 2.33 208 13:53 20.07.2022
964 Clouds 25 1007 80 10000 2.36 201 11:32 20.07.2022
965 Rain 25 1009 76 10000 3.02 198 07:39 20.07.2022
966 Clouds 21 1009 87 10000 0.32 48 02:45 20.07.2022
967 Clouds 21 1009 89 10000 0.51 9 00:46 20.07.2022
968 Clouds 22 1009 89 10000 0.34 344 23:37 19.07.2022
969 Clouds 22 1009 92 10000 0.5 185 22:21 19.07.2022
970 Clouds 22 1009 90 10000 0.53 198 21:18 19.07.2022
971 Clouds 22 1010 90 10000 0.07 210 20:23 19.07.2022
972 Clouds 22 1011 94 10000 0.33 135 18:43 19.07.2022
973 Clouds 22 1010 95 10000 0.35 72 17:57 19.07.2022
974 Clouds 22 1010 97 3984 1.05 189 16:26 19.07.2022
975 Clouds 23 1009 94 4048 1.45 182 14:31 19.07.2022
976 Clouds 25 1008 83 10000 3.09 202 11:38 19.07.2022
977 Clouds 26 1008 81 10000 3.1 202 10:31 19.07.2022
978 Clouds 26 1009 76 10000 3.35 208 08:48 19.07.2022
979 Clouds 26 1010 75 10000 2.86 203 08:22 19.07.2022
980 Clouds 24 1011 81 10000 2.18 197 07:18 19.07.2022
981 Clouds 23 1012 85 8783 1.23 206 05:27 19.07.2022
982 Clouds 23 1012 85 8783 1.23 206 04:48 19.07.2022
983 Clouds 21 1012 92 10000 0.2 307 00:35 19.07.2022
984 Clouds 21 1012 92 10000 0.29 33 23:31 18.07.2022
985 Clouds 21 1012 93 10000 0.51 52 22:58 18.07.2022
986 Clouds 20 1012 93 10000 0.43 44 21:58 18.07.2022
987 Clouds 21 1012 92 10000 0.95 18 20:51 18.07.2022
988 Clouds 22 1012 91 10000 0.75 349 19:26 18.07.2022
989 Clouds 22 1012 92 10000 0.29 40 17:24 18.07.2022
990 Clouds 23 1012 92 10000 0.29 159 15:51 18.07.2022
991 Clouds 23 1011 90 10000 1.24 194 14:34 18.07.2022
992 Clouds 24 1011 86 10000 1.7 200 12:58 18.07.2022
993 Clouds 24 1012 85 4707 2.05 195 11:30 18.07.2022
994 Clouds 26 1011 72 10000 3.95 201 08:54 18.07.2022
995 Clouds 26 1012 71 10000 3.37 201 07:38 18.07.2022
996 Clouds 20 1014 75 10000 1.49 35 01:24 18.07.2022
997 Clouds 20 1014 73 10000 1.62 27 22:43 17.07.2022
998 Clouds 21 1014 73 10000 1.57 31 22:22 17.07.2022
999 Clouds 21 1014 73 10000 1.3 36 21:23 17.07.2022
1000 Clouds 21 1014 73 10000 1.3 36 20:44 17.07.2022
1001 Clouds 21 1015 73 10000 1.67 30 19:34 17.07.2022
1002 Clouds 22 1015 74 10000 1.83 29 18:56 17.07.2022
1003 Clouds 22 1014 77 10000 1.73 36 17:39 17.07.2022
1004 Clouds 22 1014 83 10000 1.43 43 16:51 17.07.2022
1005 Clouds 22 1014 89 10000 0.86 49 16:27 17.07.2022
1006 Clouds 24 1013 82 10000 1.1 182 14:58 17.07.2022
1007 Clouds 25 1012 70 10000 1.21 210 13:32 17.07.2022
1008 Clouds 26 1012 65 10000 1.2 254 12:22 17.07.2022
1009 Clouds 25 1014 67 10000 1.45 292 09:30 17.07.2022
1010 Clouds 24 1016 67 10000 1.3 343 06:37 17.07.2022
1011 Clouds 20 1016 83 10000 0.06 119 02:33 17.07.2022
1012 Clouds 20 1015 75 10000 2.23 13 23:22 16.07.2022
1013 Clouds 21 1015 76 10000 1.83 16 21:57 16.07.2022
1014 Clouds 20 1016 77 10000 1.69 21 20:26 16.07.2022
1015 Clouds 21 1015 78 10000 2.32 22 18:42 16.07.2022
1016 Clouds 22 1013 81 10000 1.48 30 17:20 16.07.2022
1017 Clouds 23 1012 80 10000 0.86 200 15:23 16.07.2022
1018 Clouds 25 1011 70 10000 3.13 202 11:55 16.07.2022
1019 Clouds 26 1011 62 10000 3.55 202 09:37 16.07.2022
1020 Clouds 26 1011 59 10000 3.55 202 08:58 16.07.2022
1021 Clouds 26 1011 59 10000 3.55 202 08:33 16.07.2022
1022 Clouds 25 1013 57 10000 2.14 201 05:59 16.07.2022
1023 Clouds 23 1014 61 10000 1.13 33 03:31 16.07.2022
1024 Clouds 19 1014 72 10000 2.97 25 23:52 15.07.2022
1025 Clouds 19 1014 72 10000 2.59 25 22:44 15.07.2022
1026 Clouds 19 1014 72 10000 2.49 23 21:31 15.07.2022
1027 Clouds 20 1014 73 10000 2.69 30 20:32 15.07.2022
1028 Clouds 20 1015 77 10000 2.92 30 18:46 15.07.2022
1029 Clouds 20 1015 78 10000 2.91 35 17:49 15.07.2022
1030 Clouds 21 1014 82 10000 1.66 43 16:23 15.07.2022
1031 Clouds 21 1014 84 10000 1.41 22 13:48 15.07.2022
1032 Clouds 21 1014 90 7654 1.04 208 12:22 15.07.2022
1033 Clouds 21 1014 90 3413 2.65 200 10:51 15.07.2022
1034 Clouds 21 1015 81 4544 1.36 332 07:47 15.07.2022
1035 Clouds 19 1013 90 5761 1.1 15 02:39 15.07.2022
1036 Clouds 20 1012 90 7013 0.05 183 00:39 15.07.2022
1037 Clouds 20 1012 84 10000 0.57 256 22:54 14.07.2022
1038 Clouds 21 1012 82 10000 1.1 22 21:57 14.07.2022
1039 Clouds 21 1012 82 10000 1.1 22 21:33 14.07.2022
1040 Clouds 21 1012 82 10000 1.36 31 20:57 14.07.2022
1041 Clouds 21 1012 82 10000 1.36 31 20:37 14.07.2022
1042 Clouds 21 1013 83 10000 0.57 15 20:18 14.07.2022
1043 Clouds 20 1011 89 10000 2.61 40 16:42 14.07.2022
1044 Rain 20 1011 96 2493 0.69 338 16:18 14.07.2022
1045 Clouds 21 1010 98 1450 1.5 230 14:44 14.07.2022
1046 Clouds 21 1010 98 1450 1.5 230 14:44 14.07.2022
1047 Clouds 22 1009 91 4523 1.99 193 13:39 14.07.2022
1048 Clouds 24 1008 78 6873 3.29 208 12:23 14.07.2022
1049 Clouds 25 1008 73 10000 2.53 210 11:26 14.07.2022
1050 Clouds 25 1008 73 10000 2.53 210 10:49 14.07.2022
1051 Clouds 22 1011 89 4013 1.75 195 08:28 14.07.2022
1052 Clouds 22 1010 78 10000 0.95 210 04:18 14.07.2022
1053 Clouds 20 1009 86 10000 0.58 72 00:55 14.07.2022
1054 Clouds 20 1009 87 10000 0.76 46 00:18 14.07.2022
1055 Clouds 20 1010 88 10000 0.67 13 22:28 13.07.2022
1056 Clouds 20 1010 88 10000 0.67 13 21:37 13.07.2022
1057 Clouds 20 1010 87 10000 0.9 30 20:38 13.07.2022
1058 Clouds 22 1009 83 10000 0.41 37 18:26 13.07.2022
1059 Clouds 22 1008 85 10000 1.16 34 17:22 13.07.2022
1060 Rain 22 1008 88 10000 0.09 89 16:18 13.07.2022
1061 Clouds 24 1007 82 10000 2.08 194 13:57 13.07.2022
1062 Clouds 24 1007 80 10000 3.35 197 11:33 13.07.2022
1063 Clouds 25 1007 78 9118 3.5 199 10:44 13.07.2022
1064 Clouds 26 1007 73 8792 3.65 202 09:49 13.07.2022
1065 Clouds 26 1007 71 8353 3.88 203 09:20 13.07.2022
1066 Clouds 23 1009 78 10000 2.2 211 05:21 13.07.2022
1067 Clouds 21 1009 85 10000 0.41 61 00:49 13.07.2022
1068 Clouds 21 1009 88 10000 0.35 147 22:48 12.07.2022
1069 Clouds 21 1010 87 7104 0.72 165 21:49 12.07.2022
1070 Clouds 21 1010 87 6293 0.59 144 20:54 12.07.2022
1071 Clouds 21 1010 87 6293 0.59 144 20:36 12.07.2022
1072 Clouds 22 1010 88 10000 0.34 109 18:53 12.07.2022
1073 Clouds 22 1010 89 10000 0.19 130 17:32 12.07.2022
1074 Clouds 22 1009 93 10000 0.87 190 15:37 12.07.2022
1075 Rain 23 1008 87 10000 1.93 201 13:55 12.07.2022
1076 Clouds 25 1008 79 10000 3.15 201 11:59 12.07.2022
1077 Clouds 25 1008 76 10000 3.37 199 10:47 12.07.2022
1078 Clouds 25 1010 76 10000 3.49 196 09:19 12.07.2022
1079 Clouds 26 1010 73 10000 3.36 200 08:18 12.07.2022
1080 Clouds 24 1011 78 10000 2.2 202 05:57 12.07.2022
1081 Clouds 24 1011 78 10000 2.2 202 05:39 12.07.2022
1082 Clouds 21 1012 89 10000 0.58 32 01:43 12.07.2022
1083 Clouds 21 1012 85 10000 0.94 19 22:59 11.07.2022
1084 Clouds 21 1012 87 9524 1.06 18 21:45 11.07.2022
1085 Clouds 20 1013 88 9106 0.73 11 20:33 11.07.2022
1086 Clouds 21 1012 86 10000 0.34 31 19:33 11.07.2022
1087 Clouds 22 1012 87 9084 0.82 38 18:32 11.07.2022
1088 Clouds 21 1013 89 5814 0.78 33 17:39 11.07.2022
1089 Clouds 21 1012 97 1435 0.51 216 16:18 11.07.2022
1090 Clouds 23 1010 88 5500 1.76 208 14:32 11.07.2022
1091 Clouds 24 1010 77 10000 1.72 196 11:40 11.07.2022
1092 Clouds 22 1012 82 10000 0.12 20 10:22 11.07.2022
1093 Clouds 24 1010 78 10000 1.84 186 09:42 11.07.2022
1094 Clouds 23 1011 79 10000 0.88 184 08:33 11.07.2022
1095 Clouds 21 1014 91 5901 0.76 273 05:51 11.07.2022
1096 Clouds 21 1012 91 10000 0.43 70 00:22 11.07.2022
1097 Clouds 21 1012 90 10000 0.35 43 22:56 10.07.2022
1098 Clouds 21 1013 92 10000 0.59 87 21:51 10.07.2022
1099 Clouds 21 1013 92 8098 0.51 149 20:54 10.07.2022
1100 Clouds 21 1012 90 10000 0.21 174 19:50 10.07.2022
1101 Clouds 21 1012 94 4857 0.77 33 18:49 10.07.2022
1102 Clouds 21 1012 97 3616 0.27 50 17:37 10.07.2022
1103 Clouds 21 1011 97 720 1.07 193 16:57 10.07.2022
1104 Clouds 21 1009 98 515 0.84 197 15:33 10.07.2022
1105 Clouds 23 1009 91 735 2 198 14:33 10.07.2022
1106 Clouds 21 1010 92 5119 0.31 122 12:30 10.07.2022
1107 Clouds 21 1011 96 937 0.98 219 11:25 10.07.2022
1108 Clouds 21 1011 97 3805 1.5 207 08:46 10.07.2022
1109 Clouds 21 1011 95 3369 2.54 196 07:59 10.07.2022
1110 Clouds 21 1011 92 3810 0.75 143 03:38 10.07.2022
1111 Clouds 21 1009 97 1034 0.46 155 23:30 09.07.2022
1112 Clouds 21 1009 96 764 0.23 150 22:25 09.07.2022
1113 Clouds 21 1010 96 2042 0.2 299 21:29 09.07.2022
1114 Clouds 22 1009 98 411 0.61 224 18:45 09.07.2022
1115 Rain 22 1009 96 875 0.63 184 17:59 09.07.2022
1116 Clouds 22 1008 96 302 0.55 93 16:59 09.07.2022
1117 Rain 22 1008 94 262 1.48 201 15:44 09.07.2022
1118 Clouds 23 1007 97 179 0.56 142 15:25 09.07.2022
1119 Clouds 23 1007 95 388 2.59 199 13:54 09.07.2022
1120 Clouds 24 1007 87 2763 1.68 204 13:27 09.07.2022
1121 Rain 24 1008 88 1607 2.39 200 11:33 09.07.2022
1122 Clouds 24 1008 87 3413 2.14 187 10:24 09.07.2022
1123 Clouds 25 1009 83 6305 2.66 207 08:25 09.07.2022
1124 Clouds 25 1009 80 10000 3.1 209 06:59 09.07.2022
1125 Clouds 24 1009 80 10000 1.67 206 04:34 09.07.2022
1126 Clouds 22 1010 94 5027 0.32 208 23:22 08.07.2022
1127 Clouds 22 1011 93 4796 0.34 261 21:59 08.07.2022
1128 Clouds 22 1011 94 4738 0.47 258 21:18 08.07.2022
1129 Clouds 22 1011 94 4738 0.47 258 20:30 08.07.2022
1130 Clouds 22 1011 95 1500 0.67 187 18:33 08.07.2022
1131 Clouds 23 1011 96 870 0.44 217 17:33 08.07.2022
1132 Clouds 23 1011 96 870 0.44 217 17:33 08.07.2022
1133 Clouds 23 1010 96 10000 1.45 213 15:30 08.07.2022
1134 Clouds 24 1009 90 10000 1.55 198 14:49 08.07.2022
1135 Clouds 27 1008 79 7883 3.3 204 12:28 08.07.2022
1136 Clouds 27 1008 76 10000 3.22 201 10:45 08.07.2022
1137 Clouds 27 1010 76 10000 3.33 201 09:24 08.07.2022
1138 Clouds 26 1011 77 10000 2.15 205 06:55 08.07.2022
1139 Clouds 24 1012 81 7518 1.41 198 04:31 08.07.2022
1140 Clouds 22 1013 90 10000 0.61 20 23:56 07.07.2022
1141 Clouds 22 1013 91 10000 0.68 8 22:47 07.07.2022
1142 Clouds 22 1013 92 10000 0.57 2 21:39 07.07.2022
1143 Clouds 23 1013 87 10000 0.59 155 18:43 07.07.2022
1144 Clouds 23 1012 87 10000 0.25 148 17:41 07.07.2022
1145 Clouds 23 1012 90 1707 0.19 222 15:57 07.07.2022
1146 Clouds 24 1012 87 2719 1.4 191 13:30 07.07.2022
1147 Clouds 24 1012 87 1589 1.97 195 12:40 07.07.2022
1148 Clouds 25 1012 84 10000 2.29 208 12:21 07.07.2022
1149 Clouds 25 1012 84 10000 2.29 208 11:31 07.07.2022
1150 Clouds 25 1013 87 10000 2.88 211 10:44 07.07.2022
1151 Clouds 25 1013 83 2182 3.47 204 10:26 07.07.2022
1152 Clouds 26 1014 74 10000 2.66 204 07:58 07.07.2022
1153 Clouds 23 1017 81 10000 1.31 198 05:23 07.07.2022
1154 Clouds 21 1017 84 10000 0.9 39 23:37 06.07.2022
1155 Clouds 21 1017 84 10000 1.13 26 23:19 06.07.2022
1156 Clouds 21 1017 84 10000 1.13 26 22:57 06.07.2022
1157 Clouds 21 1017 84 10000 1.13 26 22:39 06.07.2022
1158 Clouds 21 1017 84 10000 1.33 45 21:59 06.07.2022
1159 Clouds 21 1016 86 10000 0.31 125 19:41 06.07.2022
1160 Clouds 22 1016 83 10000 0.8 92 18:41 06.07.2022
1161 Clouds 22 1015 86 10000 1.06 48 16:43 06.07.2022
1162 Clouds 24 1013 83 10000 1.57 174 15:28 06.07.2022
1163 Clouds 26 1011 79 4557 2.97 203 12:44 06.07.2022
1164 Clouds 27 1011 69 10000 2.74 208 11:49 06.07.2022
1165 Rain 26 1013 81 9915 2.09 201 10:22 06.07.2022
1166 Clouds 26 1013 82 8910 2.61 195 08:41 06.07.2022
1167 Clouds 26 1012 80 6974 2.93 203 07:36 06.07.2022
1168 Clouds 26 1012 74 10000 2.28 201 05:31 06.07.2022
1169 Clouds 22 1012 84 10000 1.23 24 22:49 05.07.2022
1170 Clouds 22 1012 86 10000 0.88 49 22:27 05.07.2022
1171 Clouds 22 1012 88 10000 0.91 43 20:42 05.07.2022
1172 Clouds 22 1012 92 5638 0.15 50 19:44 05.07.2022
1173 Clouds 23 1011 86 7242 0.89 151 19:25 05.07.2022
1174 Clouds 24 1010 82 10000 0.56 358 17:48 05.07.2022
1175 Clouds 24 1010 84 6667 0.53 338 16:56 05.07.2022
1176 Clouds 24 1010 87 3246 0.54 181 15:38 05.07.2022
1177 Clouds 24 1009 87 10000 0.87 197 14:33 05.07.2022
1178 Clouds 25 1008 88 10000 2.71 203 12:48 05.07.2022
1179 Clouds 26 1007 84 10000 3.23 202 11:52 05.07.2022
1180 Clouds 27 1007 78 10000 3.51 204 10:42 05.07.2022
1181 Clouds 28 1007 69 10000 3.28 201 09:28 05.07.2022
1182 Clouds 28 1007 71 10000 3.13 202 08:18 05.07.2022
1183 Clouds 26 1009 77 10000 2.33 201 05:45 05.07.2022
1184 Rain 23 1010 88 2533 0.66 235 04:25 05.07.2022
1185 Clouds 22 1010 95 1468 0.54 281 00:38 05.07.2022
1186 Clouds 22 1010 97 560 0.42 244 23:34 04.07.2022
1187 Clouds 22 1010 97 558 0.99 223 22:50 04.07.2022
1188 Clouds 22 1010 97 804 1.31 216 21:48 04.07.2022
1189 Clouds 23 1010 97 1139 0.84 260 20:54 04.07.2022
1190 Clouds 23 1010 97 1139 0.84 260 20:35 04.07.2022
1191 Clouds 22 1010 96 10000 0.87 231 19:55 04.07.2022
1192 Clouds 22 1010 96 10000 0.87 231 19:36 04.07.2022
1193 Clouds 23 1010 96 7131 0.39 113 18:26 04.07.2022
1194 Clouds 23 1009 96 10000 0.43 197 16:34 04.07.2022
1195 Clouds 24 1008 92 4039 0.17 11 15:34 04.07.2022
1196 Clouds 24 1008 95 643 1.14 213 13:33 04.07.2022
1197 Clouds 24 1008 94 662 2.67 209 12:36 04.07.2022
1198 Clouds 27 1007 79 4105 3.67 198 10:35 04.07.2022
1199 Clouds 27 1007 75 4341 3.25 197 09:53 04.07.2022
1200 Clouds 27 1008 77 10000 3.46 199 08:31 04.07.2022
1201 Clouds 26 1009 75 10000 2.15 203 05:34 04.07.2022
1202 Clouds 22 1009 89 6252 0.25 334 00:42 04.07.2022
1203 Clouds 22 1010 89 10000 1.02 20 23:25 03.07.2022
1204 Clouds 22 1011 91 10000 1.23 39 21:58 03.07.2022
1205 Clouds 22 1011 93 6386 1.29 12 20:41 03.07.2022
1206 Clouds 22 1011 97 5533 0.33 266 19:42 03.07.2022
1207 Clouds 22 1011 96 4669 0.64 106 19:23 03.07.2022
1208 Clouds 22 1010 93 5371 0.41 346 17:45 03.07.2022
1209 Clouds 23 1009 89 10000 0.53 312 16:54 03.07.2022
1210 Clouds 23 1008 93 1068 1.08 175 15:24 03.07.2022
1211 Clouds 23 1008 93 1068 1.08 175 14:32 03.07.2022
1212 Rain 24 1008 90 1322 1.59 208 13:48 03.07.2022
1213 Clouds 25 1007 81 10000 2.42 199 12:41 03.07.2022
1214 Clouds 26 1007 79 2292 2.56 202 11:39 03.07.2022
1215 Clouds 25 1008 81 1865 2.04 202 10:39 03.07.2022
1216 Clouds 25 1009 81 1489 2.18 189 09:59 03.07.2022
1217 Clouds 25 1009 79 8075 2.51 200 07:36 03.07.2022
1218 Clouds 23 1010 83 10000 1.53 201 05:18 03.07.2022
1219 Clouds 22 1008 90 1425 0.52 321 00:24 03.07.2022
1220 Clouds 22 1009 91 4662 0.08 4 22:36 02.07.2022
1221 Clouds 22 1009 91 4936 0.31 27 21:38 02.07.2022
1222 Clouds 22 1010 91 10000 0.64 39 19:53 02.07.2022
1223 Clouds 22 1009 93 10000 0.48 10 19:31 02.07.2022
1224 Clouds 22 1010 97 4107 0.47 87 17:58 02.07.2022
1225 Clouds 22 1010 97 4107 0.47 87 17:37 02.07.2022
1226 Clouds 23 1008 91 10000 0.48 163 15:32 02.07.2022
1227 Clouds 24 1006 86 1270 2.54 199 12:24 02.07.2022
1228 Clouds 25 1007 83 1210 2.85 204 11:28 02.07.2022
1229 Clouds 25 1007 83 1210 2.85 204 10:48 02.07.2022
1230 Clouds 25 1007 82 1376 2.74 201 09:49 02.07.2022
1231 Clouds 25 1007 81 4674 2.85 199 08:37 02.07.2022
1232 Clouds 25 1007 78 10000 2.98 198 08:18 02.07.2022
1233 Clouds 22 1008 81 10000 0.82 35 02:53 02.07.2022
1234 Clouds 21 1008 91 10000 0.31 336 00:27 02.07.2022
1235 Clouds 21 1009 92 10000 0.52 47 22:59 01.07.2022
1236 Clouds 21 1010 95 5397 0.76 42 22:26 01.07.2022
1237 Clouds 21 1010 95 5397 0.76 42 21:37 01.07.2022
1238 Clouds 21 1010 97 4001 0.59 63 20:58 01.07.2022
1239 Clouds 21 1010 95 9634 0.29 182 19:48 01.07.2022
1240 Rain 22 1009 90 10000 0.96 237 19:22 01.07.2022
1241 Rain 22 1009 88 10000 1.63 26 16:40 01.07.2022
1242 Rain 23 1008 94 1599 1.71 192 14:27 01.07.2022
1243 Clouds 24 1008 90 1618 1.94 222 13:23 01.07.2022
1244 Clouds 24 1008 88 3005 2.06 203 10:53 01.07.2022
1245 Clouds 24 1009 85 4900 2.46 208 10:19 01.07.2022
1246 Clouds 24 1009 85 4900 2.46 208 10:19 01.07.2022
1247 Rain 23 1010 89 752 1.69 210 06:21 01.07.2022
1248 Clouds 21 1009 94 1629 0.55 144 02:19 01.07.2022
1249 Clouds 22 1009 93 4177 0.35 312 23:34 30.06.2022
1250 Clouds 22 1009 95 2039 0.49 9 22:50 30.06.2022
1251 Clouds 22 1009 95 2039 0.49 9 22:31 30.06.2022
1252 Clouds 21 1010 97 3432 0.76 110 21:53 30.06.2022
1253 Rain 22 1010 95 10000 0.77 171 20:45 30.06.2022
1254 Rain 22 1009 92 10000 0.26 19 20:20 30.06.2022
1255 Clouds 22 1009 92 10000 0.26 19 19:47 30.06.2022
1256 Clouds 22 1010 94 10000 0.67 348 18:52 30.06.2022
1257 Clouds 22 1010 94 10000 0.72 81 17:53 30.06.2022
1258 Clouds 22 1010 96 1364 0.6 125 17:18 30.06.2022
1259 Rain 22 1009 97 919 0.9 175 16:18 30.06.2022
1260 Rain 23 1007 95 336 1.44 195 13:59 30.06.2022
1261 Clouds 24 1006 88 2152 2.69 190 13:20 30.06.2022
1262 Clouds 24 1006 88 2152 2.69 190 12:33 30.06.2022
1263 Clouds 25 1006 85 2374 2.11 192 10:57 30.06.2022
1264 Rain 25 1006 84 2696 2.81 205 09:51 30.06.2022
1265 Clouds 25 1007 82 1312 3.6 206 09:23 30.06.2022
1266 Clouds 25 1008 81 3013 3.34 203 07:41 30.06.2022
1267 Clouds 25 1008 76 8986 2.58 213 05:46 30.06.2022
1268 Clouds 21 1008 88 10000 0.45 71 23:56 29.06.2022
1269 Clouds 21 1008 88 10000 0.67 59 22:42 29.06.2022
1270 Clouds 21 1009 89 10000 0.92 31 22:20 29.06.2022
1271 Clouds 21 1009 90 10000 0.95 22 20:56 29.06.2022
1272 Clouds 21 1009 90 10000 0.95 22 20:32 29.06.2022
1273 Clouds 22 1010 91 10000 0.5 48 19:33 29.06.2022
1274 Clouds 22 1010 89 10000 0.21 60 17:40 29.06.2022
1275 Clouds 22 1009 89 10000 0.24 91 16:33 29.06.2022
1276 Clouds 23 1007 92 4763 1.44 218 14:19 29.06.2022
1277 Clouds 23 1008 91 2452 1.64 209 12:38 29.06.2022
1278 Clouds 24 1008 87 4791 2.64 207 10:20 29.06.2022
1279 Clouds 24 1008 87 4791 2.64 207 09:31 29.06.2022
1280 Clouds 25 1007 79 1500 3.17 203 07:30 29.06.2022
1281 Clouds 24 1007 76 10000 1.6 199 04:49 29.06.2022
1282 Clouds 22 1008 89 10000 0.33 298 00:55 29.06.2022
1283 Rain 22 1008 89 10000 0.33 298 00:35 29.06.2022
1284 Clouds 22 1009 89 10000 0.16 60 22:53 28.06.2022
1285 Clouds 22 1009 89 10000 0.27 70 22:23 28.06.2022
1286 Clouds 22 1009 89 10000 0.27 70 21:53 28.06.2022
1287 Clouds 22 1009 89 10000 0.27 70 21:31 28.06.2022
1288 Clouds 23 1009 87 10000 0.63 211 20:27 28.06.2022
1289 Clouds 22 1011 88 8056 0.43 168 19:32 28.06.2022
1290 Clouds 22 1010 87 10000 0.18 115 18:44 28.06.2022
1291 Clouds 23 1010 87 10000 0.25 115 17:39 28.06.2022
1292 Clouds 23 1010 87 10000 0.53 189 15:57 28.06.2022
1293 Clouds 23 1009 86 6214 0.79 206 15:21 28.06.2022
1294 Clouds 23 1009 87 2557 1.6 208 14:20 28.06.2022
1295 Clouds 23 1009 87 2557 1.6 208 13:50 28.06.2022
1296 Clouds 24 1010 84 4374 2 197 12:54 28.06.2022
1297 Clouds 26 1009 71 5533 3.36 201 11:18 28.06.2022
1298 Clouds 26 1009 70 3352 3.19 199 09:28 28.06.2022
1299 Clouds 26 1009 70 3352 3.19 199 08:43 28.06.2022
1300 Clouds 26 1010 68 10000 3.07 200 07:42 28.06.2022
1301 Clouds 24 1012 75 10000 1.79 204 05:58 28.06.2022
1302 Clouds 21 1013 86 9049 0.4 201 00:56 28.06.2022
1303 Clouds 22 1013 83 10000 0.66 26 23:37 27.06.2022
1304 Clouds 22 1013 84 10000 0.72 355 22:52 27.06.2022
1305 Clouds 22 1013 86 6314 0.68 18 21:37 27.06.2022
1306 Clouds 22 1014 87 6041 0.36 359 20:52 27.06.2022
1307 Clouds 22 1015 88 6844 0.41 4 19:31 27.06.2022
1308 Clouds 22 1014 87 9004 0.14 216 18:25 27.06.2022
1309 Clouds 23 1013 87 10000 1.1 197 16:20 27.06.2022
1310 Clouds 24 1012 82 7311 2.03 207 15:22 27.06.2022
1311 Clouds 25 1012 76 10000 2.7 200 13:36 27.06.2022
1312 Clouds 26 1011 65 10000 3.45 203 12:56 27.06.2022
1313 Clouds 28 1010 54 10000 3.91 205 10:34 27.06.2022
1314 Clear 29 1011 47 10000 4.11 195 09:20 27.06.2022
1315 Clear 28 1011 45 10000 3.58 196 08:29 27.06.2022
1316 Clear 27 1012 50 10000 3.07 199 06:39 27.06.2022
1317 Clear 23 1015 57 10000 0.21 321 03:55 27.06.2022
1318 Clear 19 1015 68 10000 2.03 15 00:56 27.06.2022
1319 Clear 20 1016 69 10000 1.66 8 22:18 26.06.2022
1320 Clear 20 1016 68 10000 2.08 11 20:48 26.06.2022
1321 Clouds 21 1016 68 10000 2.27 14 19:42 26.06.2022
1322 Clouds 21 1016 68 10000 1.58 26 18:31 26.06.2022
1323 Clouds 22 1015 70 10000 0.91 46 16:47 26.06.2022
1324 Clouds 25 1012 57 10000 2.73 202 15:26 26.06.2022
1325 Clouds 26 1011 53 10000 3.26 203 13:53 26.06.2022
1326 Clear 27 1011 49 10000 3.68 202 13:20 26.06.2022
1327 Clear 28 1010 44 10000 3.67 199 11:26 26.06.2022
1328 Clear 28 1010 43 10000 3.8 197 10:28 26.06.2022
1329 Clear 28 1010 43 10000 3.8 197 09:39 26.06.2022
1330 Clear 28 1010 36 10000 3.21 201 07:45 26.06.2022
1331 Clear 18 1014 63 10000 3.44 27 02:28 26.06.2022
1332 Clear 18 1013 65 10000 2.81 19 00:21 26.06.2022
1333 Clear 18 1013 65 10000 2.81 19 23:51 25.06.2022
1334 Clear 19 1013 65 10000 2.42 15 23:23 25.06.2022
1335 Clear 19 1013 65 10000 2.49 13 22:27 25.06.2022
1336 Clear 19 1013 65 10000 2.49 13 21:46 25.06.2022
1337 Clear 19 1013 66 10000 2.46 11 21:20 25.06.2022
1338 Clouds 20 1013 68 10000 2.38 7 20:28 25.06.2022
1339 Clouds 20 1013 66 10000 2.82 12 19:42 25.06.2022
1340 Clouds 21 1013 76 10000 2.05 19 18:19 25.06.2022
1341 Clouds 21 1013 76 10000 2.05 19 18:19 25.06.2022
1342 Clouds 21 1012 79 10000 1.02 9 17:24 25.06.2022
1343 Clouds 22 1011 78 10000 0.42 197 15:42 25.06.2022
1344 Clouds 25 1009 57 10000 3.36 191 13:48 25.06.2022
1345 Clouds 27 1008 49 10000 3.67 191 12:38 25.06.2022
1346 Clear 28 1008 40 10000 3.39 202 10:58 25.06.2022
1347 Clear 28 1009 36 10000 3.61 202 09:22 25.06.2022
1348 Clear 28 1009 36 10000 3.61 202 08:46 25.06.2022
1349 Clear 27 1009 34 10000 3.49 205 08:19 25.06.2022
1350 Clear 24 1012 42 10000 0.77 217 05:23 25.06.2022
1351 Clear 17 1013 62 10000 3.15 26 00:43 25.06.2022
1352 Clear 18 1013 64 10000 2.45 25 22:56 24.06.2022
1353 Clear 18 1013 66 10000 2.13 16 21:57 24.06.2022
1354 Clear 19 1013 68 10000 2.3 13 21:19 24.06.2022
1355 Clouds 19 1013 71 10000 2.75 12 20:19 24.06.2022
1356 Clouds 19 1013 68 10000 2.86 11 20:19 24.06.2022
1357 Clouds 19 1013 73 10000 2.81 9 19:22 24.06.2022
1358 Clouds 19 1013 73 10000 2.81 9 18:49 24.06.2022
1359 Clouds 19 1013 73 10000 2.81 9 18:30 24.06.2022
1360 Clouds 19 1013 79 10000 2.52 17 17:41 24.06.2022
1361 Clouds 20 1012 82 10000 0.46 193 15:56 24.06.2022
1362 Clouds 23 1011 67 10000 3.07 190 14:29 24.06.2022
1363 Clouds 23 1011 67 10000 3.07 190 13:55 24.06.2022
1364 Clear 26 1009 49 10000 4.38 196 11:54 24.06.2022
1365 Clear 26 1009 49 10000 4.38 196 11:34 24.06.2022
1366 Clear 27 1010 40 10000 3.94 202 10:22 24.06.2022
1367 Clear 27 1010 40 10000 3.94 202 09:40 24.06.2022
1368 Clear 27 1011 38 10000 3.8 199 08:52 24.06.2022
1369 Clear 25 1012 36 10000 3.04 202 06:58 24.06.2022
1370 Clear 25 1012 36 10000 3.04 202 06:40 24.06.2022
1371 Clear 24 1013 37 10000 2 207 05:57 24.06.2022
1372 Clear 18 1015 53 10000 3.14 26 02:31 24.06.2022
1373 Clear 17 1015 57 10000 3.4 26 22:57 23.06.2022
1374 Clear 17 1015 57 10000 3.4 26 22:38 23.06.2022
1375 Clear 18 1015 60 10000 3.19 19 20:57 23.06.2022
1376 Clear 18 1015 60 10000 3.19 19 20:32 23.06.2022
1377 Clear 18 1015 67 10000 3.21 17 19:25 23.06.2022
1378 Clear 19 1015 74 10000 2.98 21 17:51 23.06.2022
1379 Clear 19 1015 82 10000 1.49 22 16:58 23.06.2022
1380 Clear 19 1014 83 10000 0.95 203 15:49 23.06.2022
1381 Clear 22 1013 66 10000 2.68 195 15:24 23.06.2022
1382 Clouds 24 1012 49 10000 3.2 194 13:33 23.06.2022
1383 Clouds 26 1012 40 10000 4.17 201 11:27 23.06.2022
1384 Clouds 26 1012 40 10000 4.17 201 10:31 23.06.2022
1385 Clouds 26 1013 38 10000 3.65 198 08:49 23.06.2022
1386 Clear 21 1016 45 10000 1.73 25 03:35 23.06.2022
1387 Clear 16 1017 58 10000 3.24 30 00:26 23.06.2022
1388 Clear 16 1017 58 10000 3.24 30 23:30 22.06.2022
1389 Clear 17 1017 59 10000 3.22 28 22:39 22.06.2022
1390 Clear 17 1017 61 10000 3.03 22 21:22 22.06.2022
1391 Clear 17 1017 61 10000 3.03 22 20:42 22.06.2022
1392 Clear 17 1018 63 10000 3.35 20 19:56 22.06.2022
1393 Clouds 17 1018 71 10000 3.28 15 18:47 22.06.2022
1394 Clouds 18 1017 80 10000 2.22 22 17:28 22.06.2022
1395 Clouds 18 1017 83 10000 0.65 51 16:24 22.06.2022
1396 Rain 20 1015 73 10000 1.8 185 15:26 22.06.2022
1397 Rain 21 1014 64 10000 3.23 190 14:19 22.06.2022
1398 Clouds 21 1014 63 10000 3.06 190 13:37 22.06.2022
1399 Clouds 23 1013 52 10000 3.85 201 13:18 22.06.2022
1400 Clouds 24 1013 49 10000 4.1 200 11:49 22.06.2022
1401 Clouds 24 1013 46 10000 4.21 199 10:55 22.06.2022
1402 Clouds 24 1013 46 10000 3.56 197 10:19 22.06.2022
1403 Clouds 22 1014 48 10000 2.66 198 08:27 22.06.2022
1404 Clouds 19 1015 52 10000 1.74 27 03:50 22.06.2022
1405 Clouds 14 1015 58 10000 3.83 34 01:23 22.06.2022
1406 Clouds 14 1014 59 10000 4.19 34 00:24 22.06.2022
1407 Clouds 15 1014 65 10000 3.8 30 22:18 21.06.2022
1408 Clouds 15 1014 75 10000 3.27 18 19:55 21.06.2022
1409 Clouds 16 1014 77 10000 3.24 25 18:35 21.06.2022
1410 Clouds 16 1014 79 10000 3.38 19 17:39 21.06.2022
1411 Clouds 19 1008 67 6443 1.81 165 13:54 21.06.2022
1412 Clouds 22 1008 48 10000 3.18 192 11:37 21.06.2022
1413 Clouds 22 1008 45 10000 3.87 214 10:18 21.06.2022
1414 Clouds 22 1008 44 10000 3.32 216 08:48 21.06.2022
1415 Clouds 19 1010 55 10000 0.43 332 07:23 21.06.2022
1416 Clouds 14 1010 71 10000 2.67 28 01:43 21.06.2022
1417 Clouds 15 1009 72 10000 2.32 26 23:25 20.06.2022
1418 Clouds 15 1010 74 10000 2.4 23 21:55 20.06.2022
1419 Clouds 15 1011 76 10000 1.78 359 20:53 20.06.2022
1420 Clouds 16 1011 79 10000 1.08 333 19:44 20.06.2022
1421 Clouds 16 1011 82 10000 0.9 7 18:48 20.06.2022
1422 Clouds 16 1011 84 10000 1.21 29 18:23 20.06.2022
1423 Clouds 16 1011 84 10000 1.21 29 17:36 20.06.2022
1424 Clouds 16 1010 87 10000 1.3 190 15:58 20.06.2022
1425 Clouds 17 1009 81 3431 3.03 195 13:34 20.06.2022
1426 Clouds 20 1008 65 6671 3.44 205 11:25 20.06.2022
1427 Clouds 21 1009 62 3316 4.2 202 09:48 20.06.2022
1428 Clouds 21 1009 58 4871 4.07 200 08:45 20.06.2022
1429 Clear 21 1009 46 10000 3.5 201 06:59 20.06.2022
1430 Clear 16 1011 65 10000 2.01 23 03:29 20.06.2022
1431 Clear 14 1010 71 10000 2.72 25 00:37 20.06.2022
1432 Clear 15 1011 77 10000 1.63 35 23:25 19.06.2022
1433 Clear 15 1012 77 10000 1.51 33 22:19 19.06.2022
1434 Clear 15 1012 77 10000 1.51 33 22:19 19.06.2022
1435 Clear 15 1012 77 10000 1.51 33 21:41 19.06.2022
1436 Clear 15 1012 78 10000 1.38 34 20:46 19.06.2022
1437 Clouds 16 1012 74 10000 2.1 27 19:48 19.06.2022
1438 Clouds 16 1012 75 10000 1.38 37 19:24 19.06.2022
1439 Clouds 16 1012 75 10000 1.38 37 18:31 19.06.2022
1440 Clouds 16 1012 76 10000 0.87 83 17:39 19.06.2022
1441 Clouds 16 1011 78 10000 0.89 78 16:39 19.06.2022
1442 Clouds 17 1011 78 10000 0.86 141 15:44 19.06.2022
1443 Clouds 18 1010 72 10000 1.77 182 15:26 19.06.2022
1444 Clouds 18 1011 78 10000 1.57 156 14:35 19.06.2022
1445 Clouds 18 1010 80 4919 3.14 193 13:44 19.06.2022
1446 Clouds 22 1008 50 10000 3.95 218 11:53 19.06.2022
1447 Clouds 23 1009 50 9049 4.46 207 10:52 19.06.2022
1448 Clouds 23 1010 46 10000 4.47 201 08:55 19.06.2022
1449 Clouds 23 1010 46 10000 4.47 201 08:32 19.06.2022
1450 Clear 22 1011 47 10000 3.87 202 06:54 19.06.2022
1451 Clear 19 1012 48 10000 0.63 25 03:57 19.06.2022
1452 Clouds 15 1013 64 10000 2.91 19 00:51 19.06.2022
1453 Clouds 15 1012 66 10000 3.23 18 00:22 19.06.2022
1454 Clouds 15 1012 66 10000 3.23 18 23:35 18.06.2022
1455 Clouds 16 1012 66 10000 2.91 19 22:30 18.06.2022
1456 Clouds 16 1013 69 10000 2.41 19 20:54 18.06.2022
1457 Clouds 16 1013 71 10000 2.47 22 20:18 18.06.2022
1458 Clouds 16 1013 73 10000 2.56 30 19:21 18.06.2022
1459 Clouds 16 1013 73 10000 2.56 30 18:42 18.06.2022
1460 Clouds 17 1012 79 10000 2.51 18 17:29 18.06.2022
1461 Clouds 17 1012 80 10000 0.6 20 16:18 18.06.2022
1462 Clouds 18 1011 74 10000 0.72 205 15:18 18.06.2022
1463 Clouds 18 1011 74 10000 0.72 205 14:41 18.06.2022
1464 Clouds 19 1011 77 10000 1.01 249 12:46 18.06.2022
1465 Clouds 19 1012 76 7905 1.9 229 11:29 18.06.2022
1466 Clouds 19 1012 73 10000 1.88 222 10:23 18.06.2022
1467 Clouds 19 1012 69 10000 2.43 192 09:19 18.06.2022
1468 Clouds 19 1013 70 10000 3.13 197 07:58 18.06.2022
1469 Clouds 20 1012 58 10000 2.52 176 06:24 18.06.2022
1470 Clouds 18 1013 71 10000 1.26 89 02:53 18.06.2022
1471 Clouds 16 1012 71 10000 2.7 37 01:23 18.06.2022
1472 Clouds 16 1012 71 10000 2.7 37 00:41 18.06.2022
1473 Rain 15 1013 74 10000 2.02 39 23:43 17.06.2022
1474 Clouds 16 1013 74 10000 2 32 22:55 17.06.2022
1475 Clouds 16 1013 76 10000 1.93 21 20:40 17.06.2022
1476 Clouds 17 1013 75 10000 2.63 47 19:25 17.06.2022
1477 Clouds 17 1013 78 10000 2.42 37 18:25 17.06.2022
1478 Clouds 17 1013 78 10000 2.42 37 17:34 17.06.2022
1479 Clouds 17 1013 83 10000 2 33 16:38 17.06.2022
1480 Clouds 17 1012 85 10000 1.38 42 15:42 17.06.2022
1481 Clouds 18 1012 83 10000 0.71 47 14:46 17.06.2022
1482 Clouds 18 1012 84 7658 1.31 92 14:19 17.06.2022
1483 Clouds 18 1012 82 9453 1.62 82 13:42 17.06.2022
1484 Clouds 17 1013 89 7893 1.35 132 12:42 17.06.2022
1485 Clouds 18 1013 90 3176 1.71 185 11:56 17.06.2022
1486 Clouds 18 1013 90 3176 1.71 185 11:35 17.06.2022
1487 Clouds 18 1013 86 3894 0.97 193 09:59 17.06.2022
1488 Clouds 19 1014 80 7611 1.93 184 08:27 17.06.2022
1489 Clouds 22 1012 65 10000 2.71 182 06:58 17.06.2022
1490 Clouds 21 1013 68 10000 1.59 184 05:35 17.06.2022
1491 Clouds 17 1014 82 7123 1.63 5 02:42 17.06.2022
1492 Clouds 17 1012 70 10000 2.59 28 00:36 17.06.2022
1493 Clouds 17 1013 70 10000 1.5 39 22:44 16.06.2022
1494 Clouds 17 1013 71 10000 1.29 48 21:36 16.06.2022
1495 Clouds 17 1014 71 10000 1.8 44 21:18 16.06.2022
1496 Clouds 17 1014 71 10000 1.8 44 20:36 16.06.2022
1497 Clouds 17 1014 72 10000 1.71 14 19:55 16.06.2022
1498 Clouds 17 1014 74 10000 2.97 25 18:30 16.06.2022
1499 Clouds 17 1014 77 10000 3.2 15 17:44 16.06.2022
1500 Clouds 18 1014 79 10000 3.15 11 16:46 16.06.2022
1501 Clouds 17 1015 85 10000 1.28 65 15:24 16.06.2022
1502 Clouds 17 1015 85 10000 1.28 65 14:56 16.06.2022
1503 Clouds 18 1014 81 10000 1.6 86 13:45 16.06.2022
1504 Clouds 18 1015 86 4020 2 104 12:37 16.06.2022
1505 Clouds 19 1014 84 6472 1.73 150 11:54 16.06.2022
1506 Clouds 21 1012 75 5684 1.96 182 11:18 16.06.2022
1507 Clouds 21 1012 75 5684 1.96 182 10:33 16.06.2022
1508 Clouds 24 1011 53 9702 3.69 210 09:26 16.06.2022
1509 Clouds 24 1011 53 9702 3.69 210 08:46 16.06.2022
1510 Clouds 24 1012 54 6719 3.2 198 07:29 16.06.2022
1511 Clouds 23 1012 54 7646 2.77 193 05:42 16.06.2022
1512 Clouds 19 1014 70 10000 1.77 36 02:54 16.06.2022
1513 Clouds 18 1014 65 10000 2.85 28 01:51 16.06.2022
1514 Clouds 18 1013 65 10000 2.63 35 01:21 16.06.2022
1515 Clouds 18 1013 65 10000 2.63 35 01:21 16.06.2022
1516 Clouds 19 1013 64 10000 2.21 37 23:56 15.06.2022
1517 Clouds 19 1013 64 10000 2.21 37 23:56 15.06.2022
1518 Clouds 19 1013 64 10000 2.28 31 22:45 15.06.2022
1519 Clouds 19 1014 66 10000 2.08 21 21:29 15.06.2022
1520 Clouds 19 1014 66 10000 2.08 21 20:57 15.06.2022
1521 Clouds 19 1014 66 10000 2.08 21 20:35 15.06.2022
1522 Clouds 19 1015 66 10000 3.04 25 19:49 15.06.2022
1523 Clouds 19 1015 68 10000 3.19 24 18:30 15.06.2022
1524 Clouds 20 1015 67 10000 2.77 32 17:43 15.06.2022
1525 Rain 20 1014 72 10000 2.02 26 16:21 15.06.2022
1526 Clouds 21 1013 70 9707 0.44 353 14:37 15.06.2022
1527 Clouds 24 1011 57 10000 2.33 218 13:20 15.06.2022
1528 Rain 24 1011 57 10000 2.33 218 12:40 15.06.2022
1529 Clouds 25 1010 48 10000 3.03 232 11:24 15.06.2022
1530 Clouds 26 1011 46 10000 3.45 229 10:21 15.06.2022
1531 Clouds 27 1010 40 10000 4.3 213 08:59 15.06.2022
1532 Clouds 27 1011 39 10000 3.58 202 07:32 15.06.2022
1533 Clear 25 1012 42 10000 1.48 212 05:36 15.06.2022
1534 Clouds 20 1014 59 10000 2.03 16 02:47 15.06.2022
1535 Clouds 18 1014 63 10000 3.7 22 01:36 15.06.2022
1536 Clouds 18 1014 63 10000 3.67 21 00:19 15.06.2022
1537 Clouds 18 1014 63 10000 3.67 21 23:38 14.06.2022
1538 Clouds 18 1014 63 10000 3.52 20 22:46 14.06.2022
1539 Clouds 19 1015 63 10000 3.25 21 21:43 14.06.2022
1540 Clouds 19 1015 62 10000 2.97 17 20:58 14.06.2022
1541 Clouds 19 1015 62 10000 2.97 17 20:40 14.06.2022
1542 Clouds 19 1015 64 10000 3.54 18 19:47 14.06.2022
1543 Clouds 20 1015 64 10000 3.1 20 18:39 14.06.2022
1544 Clouds 21 1014 61 10000 1.23 18 16:53 14.06.2022
1545 Clouds 21 1014 61 10000 1.23 18 16:34 14.06.2022
1546 Clouds 22 1014 56 10000 0.96 224 15:41 14.06.2022
1547 Clouds 24 1012 48 10000 2.42 211 14:53 14.06.2022
1548 Clouds 25 1011 42 10000 3 207 13:59 14.06.2022
1549 Clouds 26 1011 42 10000 2.75 203 12:59 14.06.2022
1550 Clouds 26 1011 40 10000 3.24 215 11:58 14.06.2022
1551 Clouds 27 1011 37 10000 3.67 226 10:52 14.06.2022
1552 Clouds 28 1010 32 10000 4.21 212 10:29 14.06.2022
1553 Clouds 28 1011 32 10000 3.49 202 09:22 14.06.2022
1554 Clouds 28 1011 32 10000 3.49 202 08:37 14.06.2022
1555 Clouds 26 1013 38 10000 2.81 202 06:32 14.06.2022
1556 Clouds 22 1015 54 10000 0.73 303 03:52 14.06.2022
1557 Clouds 17 1016 66 10000 2.18 9 01:37 14.06.2022
1558 Clouds 18 1015 65 10000 2.16 25 00:24 14.06.2022
1559 Clear 18 1015 66 10000 1.66 18 22:58 13.06.2022
1560 Clear 18 1015 65 10000 2.01 18 22:23 13.06.2022
1561 Clear 18 1015 65 10000 2.01 18 21:39 13.06.2022
1562 Clouds 19 1016 65 10000 2.66 14 19:59 13.06.2022
1563 Clouds 19 1016 65 10000 2.69 16 19:18 13.06.2022
1564 Clouds 20 1015 62 10000 2.23 13 17:56 13.06.2022
1565 Clouds 21 1015 60 10000 1.73 25 17:25 13.06.2022
1566 Clouds 21 1015 60 10000 1.73 25 16:31 13.06.2022
1567 Clouds 22 1014 56 10000 0.65 58 14:52 13.06.2022
1568 Clouds 22 1014 56 10000 0.65 58 14:32 13.06.2022
1569 Clouds 23 1013 56 10000 0.87 92 13:36 13.06.2022
1570 Clouds 23 1015 59 10000 1.3 170 12:23 13.06.2022
1571 Clouds 23 1015 55 10000 3.14 209 10:58 13.06.2022
1572 Clouds 25 1013 43 10000 4.14 214 10:26 13.06.2022
1573 Clouds 26 1013 35 10000 2.88 220 09:22 13.06.2022
1574 Clouds 25 1015 36 10000 1.79 215 06:55 13.06.2022
1575 Clouds 24 1016 39 10000 1.24 253 05:36 13.06.2022
1576 Clouds 18 1018 61 10000 2.54 358 02:47 13.06.2022
1577 Clouds 17 1019 64 10000 3.27 11 01:36 13.06.2022
1578 Clouds 17 1018 65 10000 3.21 16 23:50 12.06.2022
1579 Clouds 17 1018 65 10000 2.99 13 22:50 12.06.2022
1580 Clouds 18 1018 64 10000 2.65 6 22:22 12.06.2022
1581 Clouds 18 1017 65 10000 2.45 358 20:58 12.06.2022
1582 Clouds 18 1017 66 10000 2.46 355 20:19 12.06.2022
1583 Clouds 18 1017 66 10000 2.46 355 19:30 12.06.2022
1584 Clouds 19 1017 68 10000 3 2 17:47 12.06.2022
1585 Clouds 20 1014 62 10000 1.28 19 16:24 12.06.2022
1586 Clouds 22 1013 57 10000 0.73 91 14:57 12.06.2022
1587 Clouds 23 1012 49 10000 0.62 23 14:21 12.06.2022
1588 Clouds 23 1012 49 10000 0.62 23 13:51 12.06.2022
1589 Clouds 23 1013 52 10000 0.74 21 12:40 12.06.2022
1590 Clouds 23 1014 56 10000 1.37 342 11:39 12.06.2022
1591 Clouds 21 1016 67 10000 2.59 305 10:22 12.06.2022
1592 Clouds 23 1014 54 7278 3.04 251 09:19 12.06.2022
1593 Clouds 23 1014 54 7278 3.04 251 08:45 12.06.2022
1594 Clouds 25 1013 40 10000 3.4 221 07:33 12.06.2022
1595 Clear 23 1014 44 10000 0.37 301 04:52 12.06.2022
1596 Clear 18 1015 60 10000 3.04 17 03:24 12.06.2022
1597 Clear 16 1016 59 10000 4.01 23 01:42 12.06.2022
1598 Clear 16 1015 60 10000 3.81 21 00:58 12.06.2022
1599 Clear 17 1015 59 10000 3.89 19 00:21 12.06.2022
1600 Clear 17 1015 59 10000 3.89 19 23:44 11.06.2022
1601 Clear 17 1015 59 10000 3.74 21 22:39 11.06.2022
1602 Clear 17 1015 59 10000 3.69 20 21:53 11.06.2022
1603 Clear 17 1015 60 10000 3.55 18 20:38 11.06.2022
1604 Clouds 18 1016 59 10000 3.22 16 19:46 11.06.2022
1605 Clouds 18 1016 61 10000 3.42 14 19:26 11.06.2022
1606 Clouds 18 1016 61 10000 3.42 14 18:34 11.06.2022
1607 Clouds 18 1015 63 10000 3.55 11 17:51 11.06.2022
1608 Clouds 19 1015 62 10000 3.52 11 17:28 11.06.2022
1609 Clouds 19 1015 62 10000 3.52 11 16:56 11.06.2022
1610 Clouds 20 1013 59 10000 2.49 3 16:29 11.06.2022
1611 Clouds 20 1013 59 10000 2.49 3 15:42 11.06.2022
1612 Clouds 22 1012 51 10000 1.38 197 13:53 11.06.2022
1613 Clouds 23 1012 51 10000 0.68 256 12:51 11.06.2022
1614 Clouds 22 1013 56 10000 2.57 223 10:54 11.06.2022
1615 Clouds 25 1011 41 10000 3.64 232 09:55 11.06.2022
1616 Clouds 26 1010 32 10000 2.57 228 09:19 11.06.2022
1617 Clouds 25 1012 38 10000 1.91 283 07:43 11.06.2022
1618 Clear 24 1012 40 10000 1.53 287 06:30 11.06.2022
1619 Clear 22 1013 47 10000 1.13 351 04:49 11.06.2022
1620 Clouds 16 1015 57 10000 4.45 23 01:53 11.06.2022
1621 Clouds 16 1015 57 10000 4.45 23 01:33 11.06.2022
1622 Clouds 16 1015 59 10000 4.53 24 00:20 11.06.2022
1623 Clouds 16 1015 60 10000 4.44 21 22:32 10.06.2022
1624 Clouds 17 1015 62 10000 4.24 22 21:52 10.06.2022
1625 Clouds 17 1015 66 10000 4.16 21 20:42 10.06.2022
1626 Clouds 18 1015 69 10000 4.54 15 20:22 10.06.2022
1627 Clouds 18 1015 69 10000 4.54 15 19:38 10.06.2022
1628 Clouds 17 1016 74 10000 4.77 17 19:18 10.06.2022
1629 Clouds 17 1016 74 10000 4.77 17 19:18 10.06.2022
1630 Clouds 17 1016 74 10000 4.77 17 19:18 10.06.2022
1631 Clouds 17 1017 78 8913 4.76 16 18:18 10.06.2022
1632 Clouds 17 1017 78 8913 4.76 16 17:35 10.06.2022
1633 Clouds 17 1017 80 7638 3.79 18 16:55 10.06.2022
1634 Clouds 17 1017 78 10000 2.68 359 15:47 10.06.2022
1635 Clouds 18 1015 73 10000 2.69 336 14:57 10.06.2022
1636 Clouds 19 1014 74 8656 2.14 318 13:41 10.06.2022
1637 Clouds 22 1012 60 7934 0.8 223 12:24 10.06.2022
1638 Clouds 22 1012 60 7934 0.8 223 11:40 10.06.2022
1639 Clouds 23 1011 50 10000 2.97 197 10:37 10.06.2022
1640 Clouds 24 1011 44 10000 3.34 208 09:40 10.06.2022
1641 Clouds 25 1011 37 10000 3.68 219 08:23 10.06.2022
1642 Clouds 25 1011 34 10000 2.13 234 06:51 10.06.2022
1643 Clouds 25 1011 34 10000 2.13 234 06:32 10.06.2022
1644 Clouds 24 1012 36 10000 1.33 253 05:45 10.06.2022
1645 Clouds 19 1014 55 10000 3.15 16 02:55 10.06.2022
1646 Clouds 17 1015 55 10000 4.16 20 01:37 10.06.2022
1647 Clouds 17 1015 56 10000 3.95 18 23:58 09.06.2022
1648 Clouds 17 1015 57 10000 3.78 15 22:56 09.06.2022
1649 Clouds 18 1015 58 10000 3.89 13 21:47 09.06.2022
1650 Clouds 18 1015 60 10000 3.89 10 21:29 09.06.2022
1651 Clouds 18 1015 60 10000 3.89 10 20:47 09.06.2022
1652 Clouds 18 1015 61 10000 4.2 11 19:54 09.06.2022
1653 Clouds 19 1015 60 10000 3.92 11 18:47 09.06.2022
1654 Clouds 19 1015 58 10000 3.36 12 17:56 09.06.2022
1655 Clouds 19 1014 58 10000 3.06 24 16:46 09.06.2022
1656 Clouds 20 1013 58 10000 1.84 55 15:44 09.06.2022
1657 Clouds 22 1012 49 10000 0.99 110 14:34 09.06.2022
1658 Clouds 23 1010 44 10000 1.86 131 13:46 09.06.2022
1659 Clouds 24 1010 40 10000 1.25 190 13:26 09.06.2022
1660 Clouds 24 1010 42 10000 2.7 288 11:53 09.06.2022
1661 Clouds 24 1011 47 10000 4.08 291 10:51 09.06.2022
1662 Clouds 25 1009 37 10000 3.88 261 09:42 09.06.2022
1663 Clouds 26 1009 31 10000 3.84 227 09:23 09.06.2022
1664 Clear 26 1010 27 10000 3.08 193 07:34 09.06.2022
1665 Clear 24 1012 32 10000 1.32 220 05:46 09.06.2022
1666 Clear 17 1014 49 10000 4.03 25 01:59 09.06.2022
1667 Clear 17 1013 49 10000 4.05 24 23:34 08.06.2022
1668 Clear 18 1013 48 10000 3.95 23 22:51 08.06.2022
1669 Clear 18 1013 48 10000 3.86 22 22:26 08.06.2022
1670 Clear 18 1013 48 10000 3.86 22 21:49 08.06.2022
1671 Clear 18 1013 47 10000 3.68 22 20:43 08.06.2022
1672 Clouds 19 1013 44 10000 3.36 18 19:50 08.06.2022
1673 Clouds 20 1013 42 10000 2.67 18 19:18 08.06.2022
1674 Clouds 20 1013 42 10000 2.67 18 18:42 08.06.2022
1675 Clouds 21 1012 43 10000 0.53 10 16:34 08.06.2022
1676 Clouds 24 1009 36 10000 2.43 218 15:27 08.06.2022
1677 Clouds 25 1009 32 10000 2.38 234 13:37 08.06.2022
1678 Clouds 26 1009 35 10000 3.32 240 11:51 08.06.2022
1679 Clouds 26 1009 34 10000 3.51 243 11:24 08.06.2022
1680 Clouds 26 1010 32 10000 3.37 245 09:48 08.06.2022
1681 Clouds 26 1010 30 10000 2.78 218 09:20 08.06.2022
1682 Clear 26 1011 30 10000 1.6 191 08:18 08.06.2022
1683 Clear 24 1013 35 10000 0.45 109 05:36 08.06.2022
1684 Clear 18 1016 55 10000 3.76 33 03:20 08.06.2022
1685 Clear 16 1015 52 10000 4.28 33 00:28 08.06.2022
1686 Clear 16 1015 52 10000 4.34 32 23:25 07.06.2022
1687 Clear 16 1015 52 10000 4.34 32 22:42 07.06.2022
1688 Clear 16 1016 52 10000 4.26 31 22:20 07.06.2022
1689 Clear 17 1016 51 10000 4.2 31 21:28 07.06.2022
1690 Clear 17 1016 51 10000 4.2 31 20:52 07.06.2022
1691 Clear 17 1016 51 10000 4.2 31 20:31 07.06.2022
1692 Clouds 18 1016 49 10000 3.98 34 19:27 07.06.2022
1693 Clouds 18 1016 48 10000 3.7 35 18:19 07.06.2022
1694 Clouds 19 1014 46 10000 2.62 37 17:21 07.06.2022
1695 Clouds 19 1014 46 10000 2.62 37 16:41 07.06.2022
1696 Clouds 20 1013 46 10000 0.41 40 15:44 07.06.2022
1697 Clouds 23 1011 41 10000 1.99 215 15:24 07.06.2022
1698 Clouds 23 1011 41 10000 1.99 215 14:46 07.06.2022
1699 Clouds 25 1010 36 10000 2.98 208 14:27 07.06.2022
1700 Clouds 25 1010 36 10000 3.09 202 13:30 07.06.2022
1701 Clouds 26 1010 34 10000 2.97 194 12:45 07.06.2022
1702 Clouds 26 1010 33 10000 2.62 180 11:37 07.06.2022
1703 Clouds 26 1011 36 10000 2.05 162 10:26 07.06.2022
1704 Clouds 25 1011 39 10000 2.06 147 08:49 07.06.2022
1705 Clouds 25 1011 39 10000 2.06 147 08:49 07.06.2022
1706 Clouds 25 1011 39 10000 2.06 147 08:49 07.06.2022
1707 Clear 26 1011 29 10000 2.14 170 07:32 07.06.2022
1708 Clear 24 1013 35 10000 0.35 94 05:58 07.06.2022
1709 Clear 17 1016 52 10000 3.81 32 03:22 07.06.2022
1710 Clear 15 1016 49 10000 4.56 34 00:44 07.06.2022
1711 Clear 16 1016 48 10000 4.53 36 23:40 06.06.2022
1712 Clear 16 1016 47 10000 4.36 36 22:47 06.06.2022
1713 Clear 16 1017 46 10000 4.28 36 21:56 06.06.2022
1714 Clouds 16 1017 46 10000 4.23 36 20:35 06.06.2022
1715 Clouds 17 1017 44 10000 3.99 37 19:24 06.06.2022
1716 Clouds 17 1017 44 10000 3.99 37 18:47 06.06.2022
1717 Clouds 18 1017 44 10000 3.62 41 17:55 06.06.2022
1718 Clouds 18 1015 44 10000 3.03 48 16:55 06.06.2022
1719 Clouds 19 1014 44 10000 1.45 74 15:45 06.06.2022
1720 Clouds 23 1012 41 10000 1.33 162 14:59 06.06.2022
1721 Clouds 25 1011 33 10000 2.22 177 13:43 06.06.2022
1722 Clouds 26 1010 32 10000 2.49 173 13:20 06.06.2022
1723 Clouds 26 1010 32 10000 2.49 173 12:34 06.06.2022
1724 Clouds 26 1011 32 10000 2.45 165 11:47 06.06.2022
1725 Clouds 26 1012 37 10000 2.18 153 09:53 06.06.2022
1726 Clouds 26 1012 31 10000 2.77 176 08:57 06.06.2022
1727 Clear 25 1013 33 10000 2.42 168 08:28 06.06.2022
1728 Clear 24 1014 34 10000 1.84 172 07:20 06.06.2022
1729 Clear 22 1014 43 10000 0.88 41 04:39 06.06.2022
1730 Clear 15 1017 54 10000 4.45 32 01:57 06.06.2022
1731 Clear 15 1016 54 10000 4.43 31 00:57 06.06.2022
1732 Clear 15 1016 54 10000 4.43 31 00:34 06.06.2022
1733 Clear 15 1016 53 10000 4.36 33 23:25 05.06.2022
1734 Clear 16 1017 51 10000 4.08 37 22:26 05.06.2022
1735 Clouds 16 1017 46 10000 4.27 34 20:29 05.06.2022
1736 Clouds 17 1018 45 10000 3.97 37 19:26 05.06.2022
1737 Clouds 17 1017 45 10000 3.42 44 18:21 05.06.2022
1738 Clouds 17 1017 45 10000 3.42 44 17:46 05.06.2022
1739 Clouds 18 1016 46 10000 2.71 49 17:22 05.06.2022
1740 Clouds 18 1016 46 10000 2.71 49 16:48 05.06.2022
1741 Clouds 19 1014 46 10000 1.35 74 15:41 05.06.2022
1742 Clouds 25 1011 34 10000 1.8 175 14:21 05.06.2022
1743 Clouds 24 1012 37 10000 1.85 195 14:21 05.06.2022
1744 Clouds 25 1011 34 10000 1.57 164 12:34 05.06.2022
1745 Clouds 25 1011 34 10000 1.62 153 11:30 05.06.2022
1746 Clear 25 1013 36 10000 1.47 137 10:25 05.06.2022
1747 Clear 25 1013 36 10000 1.47 137 09:58 05.06.2022
1748 Clear 24 1014 41 10000 1.39 136 08:25 05.06.2022
1749 Clear 24 1014 29 10000 1.08 152 06:48 05.06.2022
1750 Clear 21 1015 36 10000 1.03 49 05:20 05.06.2022
1751 Clear 19 1016 41 10000 2.33 39 03:38 05.06.2022
1752 Clear 14 1018 45 10000 4.68 32 01:31 05.06.2022
1753 Clear 14 1018 43 10000 4.63 33 23:49 04.06.2022
1754 Clear 15 1018 42 10000 4.4 34 21:49 04.06.2022
1755 Clouds 16 1019 42 10000 3.89 36 20:21 04.06.2022
1756 Clouds 16 1018 42 10000 3.44 42 17:59 04.06.2022
1757 Clouds 17 1017 43 10000 2.86 47 16:42 04.06.2022
1758 Clouds 18 1015 43 10000 1.4 75 16:18 04.06.2022
1759 Clouds 18 1015 43 10000 1.4 75 16:18 04.06.2022
1760 Clouds 22 1013 39 10000 2.01 172 14:37 04.06.2022
1761 Clouds 24 1011 33 10000 2.01 185 11:51 04.06.2022
1762 Clouds 24 1012 34 10000 1.65 179 10:57 04.06.2022
1763 Clouds 24 1012 35 10000 1.6 173 10:26 04.06.2022
1764 Clouds 24 1012 35 10000 1.6 173 09:42 04.06.2022
1765 Clouds 24 1013 37 10000 1.69 157 08:40 04.06.2022
1766 Clear 24 1013 31 10000 1.95 157 07:40 04.06.2022
1767 Clear 20 1015 40 10000 1.07 27 04:38 04.06.2022
1768 Clear 14 1017 50 10000 4.5 32 01:25 04.06.2022
1769 Clouds 14 1017 49 10000 4.47 32 23:53 03.06.2022
1770 Clouds 14 1017 49 10000 4.38 33 22:40 03.06.2022
1771 Clouds 15 1017 48 10000 4.21 33 21:24 03.06.2022
1772 Clouds 15 1017 48 10000 4.21 33 20:33 03.06.2022
1773 Clouds 16 1017 47 10000 3.71 38 18:23 03.06.2022
1774 Clouds 17 1015 46 10000 3.06 39 16:47 03.06.2022
1775 Clouds 21 1012 41 10000 1.53 168 15:23 03.06.2022
1776 Clouds 23 1011 33 10000 1.54 173 13:22 03.06.2022
1777 Clouds 24 1011 33 10000 1.45 157 11:40 03.06.2022
1778 Clouds 23 1012 33 10000 1.66 141 09:45 03.06.2022
1779 Clouds 23 1013 33 10000 1.63 135 09:24 03.06.2022
1780 Clear 22 1013 27 10000 1.37 163 07:27 03.06.2022
1781 Clear 22 1013 27 10000 1.37 163 06:39 03.06.2022
1782 Clear 21 1014 33 10000 0.4 102 06:20 03.06.2022
1783 Clear 13 1017 55 10000 4.72 29 00:41 03.06.2022
1784 Clear 14 1017 55 10000 4.67 28 22:48 02.06.2022
1785 Clear 14 1017 55 10000 4.48 28 21:57 02.06.2022
1786 Clouds 15 1018 56 10000 4.21 29 20:22 02.06.2022
1787 Clouds 15 1018 56 10000 4.21 29 19:52 02.06.2022
1788 Clouds 15 1018 52 10000 4.03 36 19:33 02.06.2022
1789 Clouds 16 1017 54 10000 3.54 35 17:58 02.06.2022
1790 Clouds 17 1015 56 10000 2.9 23 16:28 02.06.2022
1791 Clouds 20 1014 47 10000 1.07 347 14:34 02.06.2022
1792 Clouds 22 1012 36 10000 0.73 195 13:30 02.06.2022
1793 Clouds 23 1012 36 10000 1.65 173 12:40 02.06.2022
1794 Clouds 23 1013 32 10000 1.23 206 10:31 02.06.2022
1795 Clouds 22 1014 30 10000 1.18 165 09:28 02.06.2022
1796 Clouds 22 1015 33 10000 1.26 153 08:29 02.06.2022
1797 Clouds 23 1014 23 10000 2.26 176 07:48 02.06.2022
1798 Clear 21 1015 28 10000 1.04 196 05:33 02.06.2022
1799 Clouds 18 1017 43 10000 2.24 37 03:48 02.06.2022
1800 Clear 14 1018 53 10000 4.63 26 23:55 01.06.2022
1801 Clear 14 1018 54 10000 4.61 27 22:55 01.06.2022
1802 Clear 14 1018 54 10000 4.46 27 21:45 01.06.2022
1803 Clear 14 1018 55 10000 4.44 26 21:20 01.06.2022
1804 Clear 14 1018 55 10000 4.44 26 20:38 01.06.2022
1805 Clouds 15 1018 55 10000 3.74 37 19:48 01.06.2022
1806 Clouds 16 1017 56 10000 3.02 47 18:19 01.06.2022
1807 Clouds 16 1016 57 10000 2.28 50 16:46 01.06.2022
1808 Clouds 17 1015 57 10000 0.38 32 15:39 01.06.2022
1809 Clouds 20 1013 50 10000 1.53 240 14:31 01.06.2022
1810 Clouds 22 1013 42 10000 1.4 219 12:46 01.06.2022
1811 Clouds 23 1013 37 10000 1.77 182 10:41 01.06.2022
1812 Clear 22 1014 35 10000 1.67 152 09:27 01.06.2022
1813 Clear 22 1015 36 10000 1.38 158 07:57 01.06.2022
1814 Clear 21 1015 27 10000 1.35 177 06:49 01.06.2022
1815 Clear 13 1018 59 10000 4.22 34 01:44 01.06.2022
1816 Clouds 14 1017 64 10000 3.12 40 23:47 31.05.2022
1817 Clouds 14 1017 64 10000 3.06 38 22:38 31.05.2022
1818 Clouds 14 1017 64 10000 3.05 37 22:18 31.05.2022
1819 Clouds 14 1017 65 10000 3.11 39 21:22 31.05.2022
1820 Clouds 14 1017 65 10000 3.11 39 20:41 31.05.2022
1821 Clouds 15 1017 68 10000 3.19 40 18:57 31.05.2022
1822 Clouds 15 1017 70 10000 3.15 44 18:19 31.05.2022
1823 Clouds 15 1017 70 10000 3.15 44 17:37 31.05.2022
1824 Clouds 17 1014 65 10000 1.6 105 15:42 31.05.2022
1825 Clouds 20 1012 57 10000 1.48 188 15:22 31.05.2022
1826 Clouds 21 1011 50 10000 1.98 241 12:39 31.05.2022
1827 Clouds 22 1011 45 10000 2.26 232 12:18 31.05.2022
1828 Clouds 22 1012 41 10000 1.69 168 10:22 31.05.2022
1829 Clear 22 1013 36 10000 2.29 177 07:43 31.05.2022
1830 Clear 20 1014 43 10000 1.41 200 06:19 31.05.2022
1831 Clear 18 1015 54 10000 1.99 32 03:49 31.05.2022
1832 Clear 13 1016 66 10000 4.2 28 23:45 30.05.2022
1833 Clear 13 1016 67 10000 4.15 27 23:23 30.05.2022
1834 Clear 13 1016 67 10000 4.15 27 22:37 30.05.2022
1835 Clear 13 1016 69 10000 4.09 25 21:40 30.05.2022
1836 Clear 14 1017 72 10000 4 24 20:51 30.05.2022
1837 Clouds 14 1018 74 10000 3.74 26 19:43 30.05.2022
1838 Clouds 15 1018 78 10000 3.15 41 17:53 30.05.2022
1839 Clouds 15 1018 82 9258 3.08 39 17:21 30.05.2022
1840 Clouds 15 1017 85 5746 1.93 25 15:54 30.05.2022
1841 Clouds 20 1012 60 10000 3.82 219 13:26 30.05.2022
1842 Clouds 22 1011 48 10000 3.7 215 11:40 30.05.2022
1843 Clouds 23 1012 40 10000 2.21 175 09:52 30.05.2022
1844 Clouds 22 1012 33 10000 2.71 183 07:51 30.05.2022
1845 Clear 21 1013 32 10000 1.42 182 06:22 30.05.2022
1846 Clear 20 1014 35 10000 0.41 68 04:52 30.05.2022
1847 Clear 13 1016 60 10000 4.48 33 00:43 30.05.2022
1848 Clouds 14 1016 64 10000 4.23 37 22:41 29.05.2022
1849 Clouds 14 1016 66 10000 3.93 35 21:46 29.05.2022
1850 Clouds 15 1016 72 10000 2.77 43 20:29 29.05.2022
1851 Clouds 15 1016 81 10000 1.58 69 19:29 29.05.2022
1852 Clouds 15 1016 81 10000 1.58 69 18:34 29.05.2022
1853 Clouds 17 1014 76 10000 1.1 94 16:25 29.05.2022
1854 Clouds 17 1014 76 10000 1.1 94 15:46 29.05.2022
1855 Clouds 20 1012 67 10000 1.95 178 14:54 29.05.2022
1856 Clouds 20 1011 69 8130 2.1 210 12:57 29.05.2022
1857 Clouds 21 1011 65 5562 2.82 201 11:20 29.05.2022
1858 Clouds 22 1011 62 8623 2.95 193 10:29 29.05.2022
1859 Clouds 22 1011 61 10000 2.52 189 08:31 29.05.2022
1860 Clear 20 1012 60 10000 1.67 199 04:58 29.05.2022
1861 Clear 20 1012 60 10000 1.67 199 04:36 29.05.2022
1862 Clouds 14 1013 65 10000 3.95 35 01:28 29.05.2022
1863 Clouds 14 1013 68 10000 3.92 32 23:48 28.05.2022
1864 Clouds 14 1013 71 10000 3.87 29 23:20 28.05.2022
1865 Clouds 15 1014 73 10000 3.9 29 22:19 28.05.2022
1866 Clouds 15 1015 76 10000 4.03 30 20:58 28.05.2022
1867 Clouds 16 1015 77 10000 2.56 40 19:20 28.05.2022
1868 Clouds 16 1015 79 10000 1.49 70 18:24 28.05.2022
1869 Clouds 16 1015 79 10000 1.49 70 17:33 28.05.2022
1870 Clouds 16 1013 81 10000 2.37 35 15:56 28.05.2022
1871 Clouds 16 1013 81 10000 2.37 35 15:38 28.05.2022
1872 Clouds 19 1012 77 7447 0.64 7 13:38 28.05.2022
1873 Clouds 19 1012 81 9846 0.74 321 12:43 28.05.2022
1874 Clouds 19 1012 81 10000 1.56 241 11:50 28.05.2022
1875 Clouds 22 1010 63 10000 2.77 201 10:41 28.05.2022
1876 Clouds 23 1010 55 10000 2.63 167 09:55 28.05.2022
1877 Clouds 23 1010 55 7767 2.49 164 08:39 28.05.2022
1878 Clear 23 1009 46 10000 3.08 193 06:53 28.05.2022
1879 Clear 21 1010 48 10000 0.41 221 05:24 28.05.2022
1880 Clear 15 1012 67 10000 3.5 23 02:27 28.05.2022
1881 Clouds 15 1011 70 10000 2.78 18 23:59 27.05.2022
1882 Clouds 15 1011 73 10000 2.51 18 22:49 27.05.2022
1883 Clouds 15 1012 75 10000 2.39 19 21:35 27.05.2022
1884 Clouds 16 1012 78 10000 1.96 21 20:46 27.05.2022
1885 Clouds 16 1013 79 10000 1.72 29 20:21 27.05.2022
1886 Clouds 16 1013 80 10000 2.07 37 19:38 27.05.2022
1887 Clouds 17 1014 83 10000 2.19 39 19:20 27.05.2022
1888 Clouds 17 1014 91 8438 1.87 46 17:26 27.05.2022
1889 Clouds 17 1013 92 7584 0.81 53 15:57 27.05.2022
1890 Clouds 18 1012 92 6736 0.42 176 15:20 27.05.2022
1891 Clouds 19 1011 84 9486 1.14 179 13:41 27.05.2022
1892 Clouds 20 1012 79 10000 2.41 181 12:28 27.05.2022
1893 Clouds 20 1012 79 10000 2.41 181 11:31 27.05.2022
1894 Clouds 20 1012 77 10000 2.63 186 10:52 27.05.2022
1895 Clouds 20 1012 73 10000 2.88 186 10:22 27.05.2022
1896 Clouds 20 1012 73 10000 2.88 186 09:31 27.05.2022
1897 Clouds 21 1012 64 10000 2.67 189 07:41 27.05.2022
1898 Clear 19 1012 58 10000 1.87 201 05:27 27.05.2022
1899 Clouds 14 1014 66 10000 3.57 28 01:47 27.05.2022
1900 Clouds 14 1013 68 10000 3.19 30 23:55 26.05.2022
1901 Clouds 15 1013 75 10000 2.11 41 22:29 26.05.2022
1902 Clouds 15 1013 75 10000 2.11 41 21:33 26.05.2022
1903 Clouds 16 1014 84 10000 0.75 43 19:51 26.05.2022
1904 Clouds 16 1014 85 10000 1 37 19:18 26.05.2022
1905 Clouds 16 1014 85 10000 1 37 19:18 26.05.2022
1906 Clouds 16 1015 88 10000 1.35 28 17:36 26.05.2022
1907 Clouds 16 1015 88 10000 1.35 28 17:36 26.05.2022
1908 Clouds 16 1015 91 9417 1.23 26 16:35 26.05.2022
1909 Clouds 17 1014 91 8773 0.07 38 15:34 26.05.2022
1910 Clouds 18 1013 90 2905 1.32 201 14:21 26.05.2022
1911 Clouds 18 1013 84 10000 1.94 196 12:35 26.05.2022
1912 Clouds 19 1013 75 10000 2.74 205 11:21 26.05.2022
1913 Clouds 20 1013 68 10000 3.01 197 09:40 26.05.2022
1914 Clouds 21 1013 65 10000 3.14 193 08:57 26.05.2022
1915 Clouds 21 1013 65 10000 3.09 191 07:51 26.05.2022
1916 Clear 17 1014 56 10000 0.42 68 03:35 26.05.2022
1917 Clear 13 1015 65 10000 2.95 32 00:21 26.05.2022
1918 Clear 13 1016 68 10000 2.62 36 23:22 25.05.2022
1919 Clear 13 1016 72 10000 2.09 45 21:47 25.05.2022
1920 Clear 13 1016 74 10000 1.8 52 21:28 25.05.2022
1921 Clear 13 1016 74 10000 1.8 52 20:34 25.05.2022
1922 Clouds 14 1016 75 10000 2.02 47 19:21 25.05.2022
1923 Clouds 14 1016 78 10000 2.13 29 17:33 25.05.2022
1924 Clouds 15 1016 80 10000 2.03 24 16:36 25.05.2022
1925 Clouds 15 1016 82 9251 1.21 11 15:54 25.05.2022
1926 Clouds 16 1016 81 6982 0.25 150 14:51 25.05.2022
1927 Clouds 16 1016 81 6982 0.25 150 14:32 25.05.2022
1928 Clouds 16 1015 80 4363 1.37 210 13:42 25.05.2022
1929 Clouds 18 1014 69 6947 2.42 215 12:37 25.05.2022
1930 Clouds 20 1013 60 9779 3.35 204 10:43 25.05.2022
1931 Clouds 20 1014 60 10000 3.42 197 09:54 25.05.2022
1932 Clouds 20 1014 57 10000 3.33 191 08:37 25.05.2022
1933 Clouds 19 1015 58 10000 2.71 191 07:22 25.05.2022
1934 Clouds 15 1016 58 10000 1.2 49 03:34 25.05.2022
1935 Clouds 12 1016 72 10000 2.25 49 23:56 24.05.2022
1936 Clouds 12 1016 72 10000 2.25 49 23:31 24.05.2022
1937 Clouds 12 1016 76 10000 2.06 49 22:21 24.05.2022
1938 Clouds 12 1016 76 10000 2.06 49 21:40 24.05.2022
1939 Clouds 12 1016 78 10000 2.11 54 21:20 24.05.2022
1940 Clouds 12 1017 83 10000 1.77 24 19:48 24.05.2022
1941 Clouds 13 1017 85 10000 0.86 49 18:54 24.05.2022
1942 Clouds 13 1015 88 10000 0.99 24 16:45 24.05.2022
1943 Clouds 13 1015 90 3287 0.69 38 16:23 24.05.2022
1944 Clouds 13 1015 95 1589 0.88 166 14:58 24.05.2022
1945 Clouds 13 1015 96 510 2.07 179 14:21 24.05.2022
1946 Clouds 16 1014 77 4528 2.3 198 12:50 24.05.2022
1947 Clouds 16 1014 77 4528 2.3 198 12:50 24.05.2022
1948 Clouds 16 1014 76 4398 2.96 202 11:33 24.05.2022
1949 Clouds 17 1013 72 5386 3.58 202 09:45 24.05.2022
1950 Clouds 17 1013 72 6552 2.99 201 08:50 24.05.2022
1951 Rain 15 1016 71 10000 2.52 213 06:58 24.05.2022
1952 Clouds 13 1016 80 10000 1.22 304 04:30 24.05.2022
1953 Clouds 11 1016 94 4739 0.43 3 02:37 24.05.2022
1954 Clouds 11 1014 72 10000 2.8 23 01:42 24.05.2022
1955 Rain 11 1014 74 10000 1.42 153 23:33 23.05.2022
1956 Clouds 11 1012 63 10000 2.84 39 21:59 23.05.2022
1957 Clouds 11 1012 63 10000 2.84 39 21:41 23.05.2022
1958 Clouds 11 1013 65 10000 3.67 24 20:42 23.05.2022
1959 Clouds 12 1011 70 10000 3.87 35 19:33 23.05.2022
1960 Clouds 12 1011 74 10000 3.48 35 18:59 23.05.2022
1961 Clouds 12 1011 74 10000 3.48 35 18:35 23.05.2022
1962 Clouds 12 1011 79 10000 3.09 38 17:38 23.05.2022
1963 Clouds 13 1012 92 5299 2.38 34 15:47 23.05.2022
1964 Clouds 17 1008 66 10000 1.07 120 13:44 23.05.2022
1965 Clouds 18 1009 61 6542 1.73 168 11:36 23.05.2022
1966 Clouds 19 1008 51 10000 4.57 178 10:43 23.05.2022
1967 Clouds 21 1007 44 10000 4.3 190 09:40 23.05.2022
1968 Clouds 21 1007 41 10000 3.31 191 08:38 23.05.2022
1969 Clouds 19 1009 46 10000 2.35 193 06:47 23.05.2022
1970 Clouds 18 1009 47 10000 1.72 212 06:24 23.05.2022
1971 Clear 12 1012 60 10000 4.29 26 02:36 23.05.2022
1972 Clouds 10 1013 63 10000 4.95 25 01:48 23.05.2022
1973 Clear 10 1012 64 10000 4.69 23 01:19 23.05.2022
1974 Clear 10 1012 70 10000 4.76 19 22:47 22.05.2022
1975 Clear 11 1012 74 10000 5.02 21 22:21 22.05.2022
1976 Clear 11 1012 74 10000 5.02 21 21:50 22.05.2022
1977 Clear 11 1012 78 10000 4.18 21 20:42 22.05.2022
1978 Clouds 13 1011 83 10000 3.42 21 20:20 22.05.2022
1979 Clouds 13 1011 82 10000 2.78 36 18:58 22.05.2022
1980 Clouds 13 1011 82 10000 2.78 36 18:37 22.05.2022
1981 Clouds 13 1011 84 10000 1.97 43 18:18 22.05.2022
1982 Clouds 13 1010 85 8583 1.55 56 16:51 22.05.2022
1983 Clouds 15 1009 85 7464 0.33 88 15:24 22.05.2022
1984 Clouds 15 1009 85 7464 0.33 88 14:36 22.05.2022
1985 Clouds 17 1007 78 3168 2.82 233 12:54 22.05.2022
1986 Clouds 17 1007 78 3168 2.82 233 12:31 22.05.2022
1987 Clouds 20 1005 55 8233 3.82 224 10:45 22.05.2022
1988 Clouds 21 1006 51 10000 3.54 202 09:29 22.05.2022
1989 Clouds 21 1006 44 10000 3.4 204 07:44 22.05.2022
1990 Clouds 20 1007 45 10000 2.36 209 07:20 22.05.2022
1991 Clear 16 1009 49 10000 2.08 27 04:19 22.05.2022
1992 Clear 11 1011 56 10000 4.79 25 00:59 22.05.2022
1993 Clear 11 1011 57 10000 4.7 24 23:57 21.05.2022
1994 Clear 11 1012 58 10000 4.65 25 23:29 21.05.2022
1995 Clear 12 1012 60 10000 4.56 25 21:59 21.05.2022
1996 Clear 12 1012 60 10000 4.56 25 21:38 21.05.2022
1997 Clear 12 1012 62 10000 4.39 25 20:47 21.05.2022
1998 Clouds 12 1012 64 10000 4.24 27 19:55 21.05.2022
1999 Clouds 13 1012 61 10000 4.72 29 19:20 21.05.2022
2000 Clouds 14 1012 63 10000 4.45 27 17:29 21.05.2022
2001 Clouds 17 1010 62 10000 3.71 5 14:58 21.05.2022
2002 Clouds 18 1010 60 10000 2.16 349 14:24 21.05.2022
2003 Clouds 17 1012 72 10000 1.64 31 13:34 21.05.2022
2004 Clouds 17 1011 69 10000 1.1 174 12:39 21.05.2022
2005 Clouds 20 1009 52 8328 3.21 212 11:45 21.05.2022
2006 Clouds 22 1009 40 10000 2.27 195 10:22 21.05.2022
2007 Clouds 22 1009 38 10000 2.01 208 09:18 21.05.2022
2008 Clouds 22 1009 38 10000 2.01 208 08:47 21.05.2022
2009 Clouds 22 1010 33 10000 0.59 157 06:22 21.05.2022
2010 Clouds 12 1015 55 10000 5.74 26 02:23 21.05.2022
2011 Clouds 13 1015 61 10000 5.34 22 23:44 20.05.2022
2012 Clouds 13 1016 66 10000 5.31 21 22:41 20.05.2022
2013 Clouds 13 1017 72 10000 5.38 21 22:18 20.05.2022
2014 Clouds 14 1017 74 10000 5.68 33 21:27 20.05.2022
2015 Clouds 14 1017 74 10000 5.68 33 20:51 20.05.2022
2016 Clouds 15 1019 71 10000 2.85 37 19:55 20.05.2022
2017 Clouds 15 1018 62 10000 4.97 27 18:58 20.05.2022
2018 Clouds 15 1018 65 10000 4.56 33 18:24 20.05.2022
2019 Clouds 16 1018 65 10000 3.84 63 16:49 20.05.2022
2020 Clouds 16 1016 59 10000 1.2 92 15:55 20.05.2022
2021 Clouds 16 1016 59 10000 1.2 92 15:32 20.05.2022
2022 Clouds 21 1013 49 10000 2.39 86 14:28 20.05.2022
2023 Clouds 21 1014 50 10000 2.69 81 13:31 20.05.2022
2024 Clouds 20 1015 60 8551 0.87 20 10:48 20.05.2022
2025 Clouds 21 1015 53 10000 0.18 352 09:32 20.05.2022
2026 Clouds 23 1014 47 10000 1.62 181 08:38 20.05.2022
2027 Clouds 23 1014 38 10000 0.14 290 06:45 20.05.2022
2028 Clouds 22 1015 39 10000 1.01 16 05:53 20.05.2022
2029 Clouds 18 1016 48 10000 3.71 27 03:53 20.05.2022
2030 Clear 12 1018 61 10000 5.66 24 23:54 19.05.2022
2031 Clear 13 1018 62 10000 5.44 24 22:44 19.05.2022
2032 Clear 13 1019 63 10000 5.37 24 21:53 19.05.2022
2033 Clear 13 1019 65 10000 5.19 23 21:24 19.05.2022
2034 Clear 13 1019 65 10000 5.19 23 20:58 19.05.2022
2035 Clouds 14 1020 66 10000 4.91 25 20:21 19.05.2022
2036 Clouds 14 1020 65 10000 5.1 23 19:34 19.05.2022
2037 Clouds 15 1020 75 10000 4.68 27 17:59 19.05.2022
2038 Clouds 16 1019 77 10000 3.4 30 16:29 19.05.2022
2039 Clouds 17 1018 78 10000 2.24 12 14:52 19.05.2022
2040 Clouds 17 1017 82 6192 1.55 20 14:21 19.05.2022
2041 Clouds 21 1014 61 7843 3.12 235 12:23 19.05.2022
2042 Clouds 23 1013 51 10000 3.42 213 11:25 19.05.2022
2043 Clouds 24 1014 42 10000 2.51 188 08:59 19.05.2022
2044 Clear 24 1014 38 10000 2.38 190 07:48 19.05.2022
2045 Clear 21 1016 45 10000 0.74 352 04:50 19.05.2022
2046 Clear 13 1019 61 10000 4.7 24 01:58 19.05.2022
2047 Clear 13 1019 63 10000 4.57 22 23:53 18.05.2022
2048 Clear 14 1018 64 10000 4.32 21 22:46 18.05.2022
2049 Clear 14 1018 64 10000 4.32 21 22:46 18.05.2022
2050 Clear 14 1018 65 10000 3.84 18 21:47 18.05.2022
2051 Clouds 15 1018 67 10000 3.34 15 21:25 18.05.2022
2052 Clouds 16 1018 69 10000 2.85 14 20:24 18.05.2022
2053 Clouds 15 1018 67 10000 3.76 26 19:39 18.05.2022
2054 Clouds 15 1019 73 10000 3.52 30 18:21 18.05.2022
2055 Clouds 15 1019 73 10000 3.52 30 17:41 18.05.2022
2056 Clouds 16 1019 76 10000 3.03 32 17:23 18.05.2022
2057 Clouds 16 1018 77 10000 2.01 36 16:23 18.05.2022
2058 Clouds 16 1018 77 10000 2.01 36 15:40 18.05.2022
2059 Clouds 18 1016 73 10000 0.82 58 14:35 18.05.2022
2060 Clouds 19 1017 75 4654 1.35 27 13:22 18.05.2022
2061 Clouds 19 1017 75 4654 1.35 27 12:42 18.05.2022
2062 Clouds 19 1016 70 4727 0.37 79 11:34 18.05.2022
2063 Clouds 21 1015 57 6365 1.98 172 10:56 18.05.2022
2064 Clouds 22 1015 47 10000 2.33 192 09:24 18.05.2022
2065 Clouds 22 1014 38 10000 1.31 262 07:32 18.05.2022
2066 Clear 20 1016 47 10000 1.04 274 05:56 18.05.2022
2067 Clouds 13 1018 62 10000 4.61 25 01:20 18.05.2022
2068 Clouds 13 1018 63 10000 4.56 23 00:21 18.05.2022
2069 Clouds 13 1017 66 10000 4.18 19 21:56 17.05.2022
2070 Clouds 14 1017 69 10000 3.92 21 21:20 17.05.2022
2071 Clouds 14 1018 67 10000 4.02 24 19:59 17.05.2022
2072 Clouds 15 1017 69 10000 3.93 24 19:27 17.05.2022
2073 Clouds 15 1018 73 10000 3.83 24 17:50 17.05.2022
2074 Clouds 15 1017 76 10000 3.63 21 16:58 17.05.2022
2075 Clouds 16 1017 80 10000 3.08 23 16:29 17.05.2022
2076 Clouds 17 1016 77 5964 1.71 25 15:25 17.05.2022
2077 Clouds 17 1016 77 5964 1.71 25 14:30 17.05.2022
2078 Clouds 16 1016 79 7832 0.76 48 13:32 17.05.2022
2079 Clouds 16 1016 85 3522 0.47 99 11:43 17.05.2022
2080 Clouds 20 1014 60 8907 2.43 194 09:27 17.05.2022
2081 Clouds 21 1014 53 10000 2.28 188 08:25 17.05.2022
2082 Clouds 22 1013 40 10000 1.74 201 06:48 17.05.2022
2083 Clouds 19 1015 51 10000 2.38 32 03:41 17.05.2022
2084 Clouds 13 1017 58 10000 4.78 28 00:43 17.05.2022
2085 Clouds 14 1017 58 10000 4.71 29 22:43 16.05.2022
2086 Clear 14 1018 58 10000 4.36 27 21:45 16.05.2022
2087 Clouds 14 1018 58 10000 4.25 30 20:47 16.05.2022
2088 Clouds 15 1018 59 10000 4 32 19:46 16.05.2022
2089 Clouds 16 1018 58 10000 3.65 45 18:21 16.05.2022
2090 Clouds 18 1015 54 10000 2.79 47 15:53 16.05.2022
2091 Clouds 23 1011 43 10000 0.93 307 14:26 16.05.2022
2092 Clouds 22 1012 43 10000 1.4 95 13:23 16.05.2022
2093 Clouds 23 1012 41 10000 0.88 343 11:31 16.05.2022
2094 Clouds 24 1013 39 10000 2.03 205 09:47 16.05.2022
2095 Clouds 25 1014 29 10000 0.55 80 07:21 16.05.2022
2096 Clouds 22 1015 36 10000 1.91 24 04:41 16.05.2022
2097 Clouds 15 1018 40 10000 5.13 31 23:44 15.05.2022
2098 Clouds 15 1018 40 10000 5.08 31 22:34 15.05.2022
2099 Clouds 15 1018 40 10000 5.08 31 22:34 15.05.2022
2100 Clouds 15 1018 40 10000 4.97 32 21:47 15.05.2022
2101 Clouds 16 1019 41 10000 4.92 31 21:19 15.05.2022
2102 Clouds 16 1019 38 10000 4.76 32 19:56 15.05.2022
2103 Clouds 17 1019 44 10000 4.54 32 17:52 15.05.2022
2104 Clouds 17 1019 46 10000 4.36 32 16:35 15.05.2022
2105 Clouds 24 1012 33 10000 2.65 200 14:18 15.05.2022
2106 Clouds 25 1012 35 10000 1.87 210 13:27 15.05.2022
2107 Clouds 25 1012 34 10000 1.82 205 11:55 15.05.2022
2108 Clouds 26 1013 38 10000 2.22 191 10:35 15.05.2022
2109 Clouds 25 1013 35 9340 1.46 162 08:52 15.05.2022
2110 Clear 25 1014 23 10000 0.49 149 06:59 15.05.2022
2111 Clear 25 1014 23 10000 0.49 149 06:39 15.05.2022
2112 Clear 15 1018 53 10000 5 29 02:24 15.05.2022
2113 Clear 15 1017 52 10000 5.15 30 23:56 14.05.2022
2114 Clear 15 1017 52 10000 5.15 30 23:34 14.05.2022
2115 Clear 16 1017 51 10000 4.81 30 21:45 14.05.2022
2116 Clear 16 1018 50 10000 4.58 31 21:24 14.05.2022
2117 Clouds 17 1018 50 10000 4.33 34 19:54 14.05.2022
2118 Clouds 17 1017 53 10000 4.21 39 19:20 14.05.2022
2119 Clouds 17 1017 53 10000 4.21 39 18:51 14.05.2022
2120 Clouds 17 1017 53 10000 4.21 39 18:51 14.05.2022
2121 Clouds 17 1017 52 10000 3.97 43 17:43 14.05.2022
2122 Clouds 19 1014 51 10000 2.5 54 15:55 14.05.2022
2123 Clouds 22 1012 52 10000 0.89 112 14:38 14.05.2022
2124 Clouds 24 1012 45 10000 1.5 221 12:51 14.05.2022
2125 Clouds 24 1011 43 10000 2.43 193 11:42 14.05.2022
2126 Clouds 25 1011 39 10000 2.56 180 10:39 14.05.2022
2127 Clouds 25 1011 39 10000 2.23 166 10:18 14.05.2022
2128 Clear 25 1011 40 9057 2.09 166 09:19 14.05.2022
2129 Clear 24 1011 32 10000 1.17 170 07:23 14.05.2022
2130 Clear 19 1013 50 10000 3.62 30 03:45 14.05.2022
2131 Clear 14 1015 63 10000 5.09 26 00:25 14.05.2022
2132 Clear 15 1015 63 10000 4.83 27 23:24 13.05.2022
2133 Clear 15 1015 63 10000 4.83 27 22:54 13.05.2022
2134 Clear 15 1015 64 10000 4.46 28 22:20 13.05.2022
2135 Clouds 15 1015 64 10000 4.13 30 20:58 13.05.2022
2136 Clouds 15 1015 64 10000 4.08 31 20:32 13.05.2022
2137 Clouds 16 1015 65 10000 3.83 36 19:51 13.05.2022
2138 Clouds 16 1015 66 10000 3.67 39 18:47 13.05.2022
2139 Clouds 17 1014 68 10000 3.08 46 17:29 13.05.2022
2140 Clouds 17 1013 68 10000 2.39 55 16:29 13.05.2022
2141 Clouds 17 1013 68 10000 2.39 55 15:45 13.05.2022
2142 Clouds 21 1010 61 10000 0.86 132 14:29 13.05.2022
2143 Clouds 22 1010 57 10000 1.66 194 12:47 13.05.2022
2144 Clouds 23 1010 52 10000 2.3 185 11:39 13.05.2022
2145 Clouds 23 1011 47 10000 1.44 162 09:54 13.05.2022
2146 Clouds 23 1011 45 9127 1.13 160 08:51 13.05.2022
2147 Clouds 24 1011 34 10000 1.28 170 07:50 13.05.2022
2148 Clear 23 1012 35 10000 0.51 157 06:49 13.05.2022
2149 Clear 21 1013 45 10000 1.6 17 04:54 13.05.2022
2150 Clouds 14 1015 69 10000 4.09 25 00:57 13.05.2022
2151 Clouds 15 1016 71 10000 4.02 33 22:49 12.05.2022
2152 Clouds 15 1016 71 10000 4.02 33 22:30 12.05.2022
2153 Clouds 15 1017 75 10000 3.55 36 20:49 12.05.2022
2154 Clouds 16 1018 80 10000 3.53 27 19:26 12.05.2022
2155 Clouds 16 1018 81 10000 3.39 30 18:25 12.05.2022
2156 Clouds 16 1018 81 10000 3.39 30 18:25 12.05.2022
2157 Clouds 16 1017 84 10000 3.23 32 16:39 12.05.2022
2158 Clouds 18 1016 81 10000 1.38 137 14:57 12.05.2022
2159 Clouds 19 1014 74 10000 2.06 157 13:48 12.05.2022
2160 Clouds 20 1014 74 10000 1.54 143 11:48 12.05.2022
2161 Clouds 20 1014 67 5653 2.58 182 10:32 12.05.2022
2162 Clouds 24 1012 50 10000 2.9 190 08:53 12.05.2022
2163 Clouds 24 1012 50 10000 2.9 190 08:35 12.05.2022
2164 Clear 23 1014 49 10000 2.47 194 07:25 12.05.2022
2165 Clear 20 1015 61 10000 0.55 215 04:32 12.05.2022
2166 Clouds 16 1016 77 10000 2.33 34 01:30 12.05.2022
2167 Clouds 16 1015 78 10000 1.51 49 23:18 11.05.2022
2168 Clouds 17 1015 79 10000 1.61 57 22:21 11.05.2022
2169 Clouds 17 1016 80 10000 1.63 50 21:26 11.05.2022
2170 Clouds 17 1016 80 10000 1.63 50 21:26 11.05.2022
2171 Clouds 17 1016 82 10000 1.64 51 20:20 11.05.2022
2172 Clouds 16 1018 88 10000 2.28 53 17:37 11.05.2022
2173 Clouds 17 1018 89 8997 1.92 62 16:39 11.05.2022
2174 Clouds 17 1016 91 7541 0.65 134 14:48 11.05.2022
2175 Clouds 18 1015 91 7441 1 163 14:25 11.05.2022
2176 Clouds 22 1013 68 10000 2.22 185 13:25 11.05.2022
2177 Clouds 22 1012 65 10000 2.27 191 11:48 11.05.2022
2178 Clouds 23 1013 57 10000 2.63 189 09:30 11.05.2022
2179 Clear 23 1013 42 10000 2.92 190 06:59 11.05.2022
2180 Clear 13 1018 62 10000 4.08 30 02:27 11.05.2022
2181 Clouds 14 1018 68 10000 3.98 28 22:58 10.05.2022
2182 Clouds 14 1018 68 10000 3.98 28 22:30 10.05.2022
2183 Clouds 15 1017 68 10000 3.65 28 21:41 10.05.2022
2184 Clouds 15 1018 69 10000 3.4 29 20:47 10.05.2022
2185 Clouds 15 1019 71 10000 3.85 30 19:18 10.05.2022
2186 Clouds 16 1019 74 10000 3.39 29 17:43 10.05.2022
2187 Clouds 17 1018 78 10000 2.47 40 16:39 10.05.2022
2188 Clouds 21 1014 67 10000 1.05 140 13:37 10.05.2022
2189 Clouds 23 1014 56 7782 1.93 178 12:30 10.05.2022
2190 Clouds 23 1014 56 7782 1.93 178 11:42 10.05.2022
2191 Clouds 23 1014 56 8033 2.3 178 10:57 10.05.2022
2192 Clouds 23 1014 53 8361 2.82 178 09:52 10.05.2022
2193 Clear 23 1015 41 10000 2.89 183 08:29 10.05.2022
2194 Clear 21 1017 43 10000 1.75 198 06:21 10.05.2022
2195 Clear 14 1020 59 10000 3.57 29 02:31 10.05.2022
2196 Clouds 13 1020 62 10000 4.21 29 00:23 10.05.2022
2197 Clouds 13 1019 64 10000 4.29 28 22:42 09.05.2022
2198 Clouds 13 1019 65 10000 4.35 29 21:48 09.05.2022
2199 Clouds 14 1020 68 10000 3.86 32 20:22 09.05.2022
2200 Clouds 15 1019 73 10000 3.41 30 18:35 09.05.2022
2201 Clouds 15 1019 78 10000 3.17 26 17:33 09.05.2022
2202 Clouds 15 1019 83 10000 2.53 58 16:28 09.05.2022
2203 Clouds 15 1019 83 10000 2.53 58 15:48 09.05.2022
2204 Clouds 17 1017 76 9531 1.57 57 14:46 09.05.2022
2205 Clouds 19 1016 71 6745 1.05 104 14:22 09.05.2022
2206 Rain 19 1016 71 6745 1.05 104 13:32 09.05.2022
2207 Clouds 20 1016 69 5870 1.43 140 11:54 09.05.2022
2208 Clouds 20 1017 67 8098 1.7 164 10:50 09.05.2022
2209 Clouds 20 1017 67 8098 1.7 164 10:31 09.05.2022
2210 Clouds 22 1015 47 10000 2.91 206 08:23 09.05.2022
2211 Clouds 22 1015 47 10000 2.91 206 07:43 09.05.2022
2212 Clouds 14 1019 60 10000 3.82 33 02:44 09.05.2022
2213 Clouds 14 1018 62 10000 3.8 42 23:29 08.05.2022
2214 Clouds 14 1018 62 10000 3.8 42 22:47 08.05.2022
2215 Clouds 15 1017 62 10000 3.12 48 21:47 08.05.2022
2216 Clouds 15 1017 63 10000 2.53 47 20:33 08.05.2022
2217 Clouds 14 1018 68 10000 2.98 34 19:37 08.05.2022
2218 Clouds 15 1019 71 10000 3.22 27 18:49 08.05.2022
2219 Clouds 15 1019 75 10000 3.27 28 17:52 08.05.2022
2220 Clouds 16 1019 78 10000 2.94 27 16:33 08.05.2022
2221 Clouds 17 1017 76 7467 0.51 354 15:25 08.05.2022
2222 Clouds 17 1017 76 7467 0.51 354 14:39 08.05.2022
2223 Clouds 20 1015 64 4887 1.76 163 12:21 08.05.2022
2224 Clouds 20 1016 59 10000 2.78 188 10:27 08.05.2022
2225 Clouds 20 1016 59 10000 2.78 188 09:56 08.05.2022
2226 Clouds 21 1016 54 10000 2.76 182 08:52 08.05.2022
2227 Clouds 21 1016 46 10000 2.1 189 06:57 08.05.2022
2228 Clouds 13 1019 60 10000 3.38 30 03:26 08.05.2022
2229 Clouds 13 1019 60 10000 3.38 30 02:41 08.05.2022
2230 Clouds 12 1019 62 10000 4.12 33 00:21 08.05.2022
2231 Clouds 12 1019 62 10000 4.12 33 23:47 07.05.2022
2232 Clouds 12 1019 64 10000 4.03 36 22:46 07.05.2022
2233 Clear 12 1020 67 10000 3.8 39 21:57 07.05.2022
2234 Clear 12 1020 67 10000 3.8 39 21:33 07.05.2022
2235 Clouds 13 1020 70 10000 3.68 36 20:28 07.05.2022
2236 Clouds 13 1020 72 10000 3.76 32 19:23 07.05.2022
2237 Clouds 14 1020 76 10000 3.55 30 17:34 07.05.2022
2238 Clouds 15 1019 85 5522 2.24 42 15:41 07.05.2022
2239 Clouds 19 1016 63 6077 1.83 168 12:50 07.05.2022
2240 Clouds 20 1016 57 10000 2.47 186 10:33 07.05.2022
2241 Clouds 20 1017 56 10000 2.45 193 08:57 07.05.2022
2242 Clouds 20 1017 50 10000 1.53 225 07:50 07.05.2022
2243 Clouds 19 1018 54 10000 1.21 241 06:43 07.05.2022
2244 Clear 17 1019 56 10000 0.89 9 04:35 07.05.2022
2245 Clear 10 1020 67 10000 4.71 26 00:56 07.05.2022
2246 Clear 10 1020 68 10000 4.69 28 23:36 06.05.2022
2247 Clear 11 1020 68 10000 4.34 29 22:26 06.05.2022
2248 Clear 11 1020 68 10000 4.34 29 21:41 06.05.2022
2249 Clouds 11 1021 71 10000 4.1 27 20:24 06.05.2022
2250 Clouds 11 1022 71 10000 4.19 28 19:29 06.05.2022
2251 Clouds 11 1022 71 10000 4.19 28 18:56 06.05.2022
2252 Clouds 11 1022 72 10000 4.18 24 17:38 06.05.2022
2253 Clouds 13 1020 76 10000 3.53 23 16:23 06.05.2022
2254 Clouds 13 1020 76 10000 3.53 23 15:39 06.05.2022
2255 Clouds 14 1019 79 10000 2.63 24 14:33 06.05.2022
2256 Clouds 15 1019 83 5879 1.45 11 12:53 06.05.2022
2257 Clouds 15 1019 83 5879 1.45 11 12:31 06.05.2022
2258 Clouds 15 1018 87 4725 0.97 191 11:41 06.05.2022
2259 Clouds 17 1018 80 2901 1.98 184 10:26 06.05.2022
2260 Clouds 17 1018 80 2901 1.98 184 09:39 06.05.2022
2261 Clouds 19 1017 63 10000 2.59 188 07:59 06.05.2022
2262 Clouds 19 1018 57 10000 2.56 208 06:42 06.05.2022
2263 Clouds 17 1018 58 10000 0.37 108 04:51 06.05.2022
2264 Clouds 12 1019 69 10000 2.48 44 02:43 06.05.2022
2265 Clouds 12 1018 71 10000 3.16 43 23:36 05.05.2022
2266 Clouds 11 1019 70 10000 3.12 39 21:53 05.05.2022
2267 Clouds 12 1019 71 10000 3.41 35 21:19 05.05.2022
2268 Clouds 13 1019 72 10000 3.63 36 19:49 05.05.2022
2269 Clouds 13 1019 81 10000 3.08 36 16:57 05.05.2022
2270 Clouds 14 1018 88 10000 2.09 61 16:18 05.05.2022
2271 Clouds 15 1017 86 4589 1.35 123 14:43 05.05.2022
2272 Clouds 16 1017 80 4997 1.18 329 13:21 05.05.2022
2273 Clouds 17 1016 73 8026 1.7 231 12:24 05.05.2022
2274 Clouds 19 1015 65 5629 3.35 204 10:33 05.05.2022
2275 Clouds 20 1015 59 10000 3.1 201 09:39 05.05.2022
2276 Clouds 19 1017 51 10000 2.54 185 07:24 05.05.2022
2277 Clouds 13 1019 67 10000 3.45 34 03:00 05.05.2022
2278 Clouds 12 1019 69 10000 3.84 30 01:48 05.05.2022
2279 Clouds 12 1019 69 10000 4.04 36 01:22 05.05.2022
2280 Clouds 12 1019 69 10000 3.77 35 23:34 04.05.2022
2281 Clouds 12 1019 71 10000 4 34 22:27 04.05.2022
2282 Clouds 12 1019 71 10000 4 34 21:49 04.05.2022
2283 Clouds 12 1020 72 10000 3.87 34 21:26 04.05.2022
2284 Clouds 12 1020 72 10000 3.87 34 21:26 04.05.2022
2285 Clouds 13 1021 75 10000 3.51 38 20:22 04.05.2022
2286 Clouds 13 1021 75 10000 3.51 38 19:51 04.05.2022
2287 Clouds 13 1021 77 10000 3.32 36 18:51 04.05.2022
2288 Clouds 14 1021 82 10000 3.08 42 18:21 04.05.2022
2289 Clouds 14 1021 82 10000 3.08 42 17:30 04.05.2022
2290 Clouds 14 1020 92 8354 0.85 80 15:38 04.05.2022
2291 Clouds 15 1019 90 7345 2.19 167 15:20 04.05.2022
2292 Clouds 17 1017 78 8536 1.79 171 14:20 04.05.2022
2293 Clouds 18 1017 72 4873 1.58 164 13:26 04.05.2022
2294 Clouds 18 1017 74 4136 1.74 158 12:29 04.05.2022
2295 Clouds 19 1017 63 9965 4.39 180 10:40 04.05.2022
2296 Clouds 21 1016 48 10000 3.02 211 09:43 04.05.2022
2297 Clouds 21 1018 51 10000 2.93 203 08:41 04.05.2022
2298 Clouds 20 1019 47 10000 2.3 196 06:31 04.05.2022
2299 Clear 13 1022 63 10000 3.86 33 02:53 04.05.2022
2300 Clouds 11 1021 66 10000 4.5 31 00:33 04.05.2022
2301 Clouds 12 1020 66 10000 4.12 32 22:34 03.05.2022
2302 Clouds 13 1020 67 10000 3.99 29 21:43 03.05.2022
2303 Clouds 13 1020 68 10000 3.9 29 20:54 03.05.2022
2304 Clouds 14 1020 70 10000 3.95 27 19:57 03.05.2022
2305 Clouds 14 1021 84 10000 3.54 24 18:54 03.05.2022
2306 Clouds 14 1022 89 9318 3.12 38 18:20 03.05.2022
2307 Clouds 14 1022 93 3538 1.81 48 16:44 03.05.2022
2308 Clouds 13 1021 94 3483 2.47 21 15:38 03.05.2022
2309 Clouds 21 1013 57 10000 3.31 182 12:47 03.05.2022
2310 Clouds 22 1014 54 10000 3.36 199 12:27 03.05.2022
2311 Clouds 22 1014 56 10000 2.8 207 10:57 03.05.2022
2312 Clouds 22 1015 56 10000 2.91 197 09:34 03.05.2022
2313 Clouds 22 1015 48 10000 3.21 205 07:33 03.05.2022
2314 Clouds 22 1016 47 10000 2.51 196 06:44 03.05.2022
2315 Clear 13 1018 56 10000 5 30 00:54 03.05.2022
2316 Clear 13 1018 54 10000 5.04 32 22:39 02.05.2022
2317 Clear 13 1018 56 10000 4.9 32 21:54 02.05.2022
2318 Clear 13 1019 58 10000 4.82 31 20:51 02.05.2022
2319 Clouds 14 1019 63 10000 4.85 33 18:44 02.05.2022
2320 Clouds 14 1019 64 10000 4.76 28 18:25 02.05.2022
2321 Clouds 14 1019 64 10000 4.76 28 17:37 02.05.2022
2322 Clouds 16 1015 67 10000 2.53 37 16:23 02.05.2022
2323 Rain 17 1016 63 10000 2.93 44 15:31 02.05.2022
2324 Clouds 22 1012 54 10000 1.51 195 13:52 02.05.2022
2325 Clouds 23 1012 43 10000 0.88 242 12:20 02.05.2022
2326 Clouds 23 1012 45 10000 0.48 205 10:51 02.05.2022
2327 Clouds 23 1013 47 7206 0.48 141 09:30 02.05.2022
2328 Clear 23 1014 37 10000 2.07 198 07:52 02.05.2022
2329 Clear 20 1015 42 10000 1.17 31 04:36 02.05.2022
2330 Clear 12 1017 52 10000 5.06 29 00:25 02.05.2022
2331 Clear 12 1017 52 10000 5.06 29 23:52 01.05.2022
2332 Clear 12 1018 53 10000 4.98 30 22:40 01.05.2022
2333 Clear 12 1018 57 10000 5.31 27 21:26 01.05.2022
2334 Clouds 12 1019 59 10000 5.49 27 20:19 01.05.2022
2335 Clouds 13 1019 61 10000 5.22 29 19:18 01.05.2022
2336 Clouds 13 1019 61 10000 5.22 29 18:46 01.05.2022
2337 Clouds 13 1019 63 10000 5.07 29 17:46 01.05.2022
2338 Clouds 14 1018 70 10000 3.8 28 16:24 01.05.2022
2339 Clouds 14 1018 70 10000 3.8 28 15:38 01.05.2022
2340 Clouds 19 1014 65 10000 0.99 173 13:52 01.05.2022
2341 Clouds 20 1014 57 10000 1.66 237 11:41 01.05.2022
2342 Rain 21 1015 57 10000 1.86 353 09:32 01.05.2022
2343 Clouds 21 1016 61 9302 1.99 346 08:47 01.05.2022
2344 Clouds 18 1017 54 10000 2.18 35 04:31 01.05.2022
2345 Clouds 12 1020 58 10000 5.5 29 00:43 01.05.2022
2346 Clouds 12 1020 60 10000 5.43 29 21:52 30.04.2022
2347 Clouds 12 1020 60 10000 5.43 29 21:30 30.04.2022
2348 Clouds 12 1020 60 10000 5.35 30 19:47 30.04.2022
2349 Clouds 12 1021 61 10000 5.2 28 18:50 30.04.2022
2350 Clouds 14 1020 66 10000 4.99 27 17:20 30.04.2022
2351 Clouds 15 1018 68 10000 4.51 26 15:50 30.04.2022
2352 Clouds 16 1017 69 10000 3.25 15 14:54 30.04.2022
2353 Clouds 17 1017 74 10000 4.18 3 13:41 30.04.2022
2354 Clouds 17 1018 78 7807 4.41 6 11:34 30.04.2022
2355 Clouds 17 1018 79 7720 2.9 343 10:55 30.04.2022
2356 Clouds 20 1016 63 7701 2.58 266 09:54 30.04.2022
2357 Clear 22 1015 46 7867 0.71 227 07:35 30.04.2022
2358 Clear 16 1018 57 10000 3.69 30 03:45 30.04.2022
2359 Clear 11 1020 59 10000 5.63 28 23:54 29.04.2022
2360 Clear 11 1021 60 10000 5.54 29 22:36 29.04.2022
2361 Clear 11 1022 61 10000 5.49 29 21:54 29.04.2022
2362 Clear 11 1022 62 10000 5.47 29 21:21 29.04.2022
2363 Clouds 12 1023 65 10000 5.42 28 19:52 29.04.2022
2364 Clouds 12 1023 67 10000 5.29 27 18:58 29.04.2022
2365 Clouds 12 1023 69 10000 5.03 29 17:33 29.04.2022
2366 Clouds 13 1022 72 10000 4.75 27 16:30 29.04.2022
2367 Clouds 15 1021 81 6019 3.24 19 14:34 29.04.2022
2368 Clouds 18 1018 65 10000 1.25 356 13:27 29.04.2022
2369 Clouds 18 1018 65 10000 1.25 356 12:33 29.04.2022
2370 Clouds 20 1019 61 6462 1.01 314 09:52 29.04.2022
2371 Clouds 20 1020 69 4474 2.15 6 07:52 29.04.2022
2372 Clouds 19 1020 70 5153 2.29 8 07:24 29.04.2022
2373 Clouds 18 1021 70 10000 2.56 19 05:57 29.04.2022
2374 Clouds 11 1025 63 10000 5.77 25 00:52 29.04.2022
2375 Clouds 11 1025 63 10000 5.62 26 23:52 28.04.2022
2376 Clouds 12 1025 64 10000 5.43 26 22:47 28.04.2022
2377 Clouds 12 1025 66 10000 5.16 24 21:59 28.04.2022
2378 Clouds 12 1025 66 10000 5.16 24 21:37 28.04.2022
2379 Clouds 13 1025 67 10000 4.91 24 20:42 28.04.2022
2380 Clouds 13 1026 67 10000 5.31 23 19:49 28.04.2022
2381 Clouds 13 1025 70 10000 5.1 24 19:24 28.04.2022
2382 Clouds 13 1025 70 10000 5.1 24 18:45 28.04.2022
2383 Clouds 14 1025 73 10000 4.82 25 17:32 28.04.2022
2384 Clouds 14 1024 79 10000 4.31 28 16:50 28.04.2022
2385 Clouds 14 1024 82 9484 4.76 25 16:20 28.04.2022
2386 Clouds 14 1024 82 9484 4.76 25 16:20 28.04.2022
2387 Clouds 14 1024 82 9484 4.76 25 15:41 28.04.2022
2388 Clouds 14 1024 86 7322 4.39 21 14:56 28.04.2022
2389 Clouds 15 1022 82 5504 3.19 34 13:23 28.04.2022
2390 Clouds 19 1019 67 8299 0.35 0 12:28 28.04.2022
2391 Clouds 19 1019 69 5922 1.1 116 10:59 28.04.2022
2392 Clouds 21 1018 57 8349 1.53 240 10:26 28.04.2022
2393 Clouds 21 1018 57 8349 1.53 240 09:43 28.04.2022
2394 Clear 23 1017 35 10000 1.56 206 07:40 28.04.2022
2395 Clear 22 1018 37 10000 1.3 223 06:42 28.04.2022
2396 Clear 21 1018 40 10000 0.45 279 05:52 28.04.2022
2397 Clear 19 1019 44 10000 1.54 21 04:42 28.04.2022
2398 Clear 12 1021 58 10000 5.09 28 00:52 28.04.2022
2399 Clear 12 1022 58 10000 5 28 23:25 27.04.2022
2400 Clear 13 1022 58 10000 5 28 22:18 27.04.2022
2401 Clear 13 1022 58 10000 5 28 21:34 27.04.2022
2402 Clear 13 1022 58 10000 4.93 28 20:45 27.04.2022
2403 Clouds 13 1022 58 10000 4.88 28 19:55 27.04.2022
2404 Clouds 13 1022 57 10000 4.9 28 19:34 27.04.2022
2405 Clouds 13 1022 57 10000 4.88 28 18:39 27.04.2022
2406 Clouds 13 1022 57 10000 4.74 28 17:55 27.04.2022
2407 Clouds 15 1020 59 10000 3.24 32 15:57 27.04.2022
2408 Clouds 23 1015 39 10000 0.88 214 12:59 27.04.2022
2409 Clouds 23 1016 37 10000 0.39 38 11:25 27.04.2022
2410 Clouds 23 1016 37 10000 0.39 38 10:45 27.04.2022
2411 Clear 21 1018 45 10000 0.69 241 08:22 27.04.2022
2412 Clear 22 1018 29 10000 1.07 226 06:41 27.04.2022
2413 Clear 11 1022 39 10000 5.41 26 02:31 27.04.2022
2414 Clear 10 1022 45 10000 5.76 27 01:21 27.04.2022
2415 Clear 10 1022 47 10000 5.8 27 00:27 27.04.2022
2416 Clear 10 1022 48 10000 5.73 27 23:24 26.04.2022
2417 Clear 10 1022 48 10000 5.73 27 22:45 26.04.2022
2418 Clear 10 1023 50 10000 5.66 26 22:19 26.04.2022
2419 Clear 10 1024 51 10000 5.67 27 21:24 26.04.2022
2420 Clear 10 1024 51 10000 5.67 27 20:38 26.04.2022
2421 Clouds 11 1024 54 10000 5.42 29 19:45 26.04.2022
2422 Clouds 11 1024 55 10000 5.26 28 19:26 26.04.2022
2423 Clouds 11 1024 55 10000 5.26 28 18:39 26.04.2022
2424 Clouds 12 1024 56 10000 5.17 25 17:41 26.04.2022
2425 Clouds 13 1021 55 10000 4.38 24 15:41 26.04.2022
2426 Clouds 19 1016 48 10000 1.45 337 13:51 26.04.2022
2427 Clouds 20 1016 42 10000 1.23 342 13:28 26.04.2022
2428 Clouds 20 1017 39 10000 1.37 327 11:24 26.04.2022
2429 Clouds 20 1017 39 10000 1.37 327 10:30 26.04.2022
2430 Clouds 20 1018 41 10000 1.67 355 08:34 26.04.2022
2431 Clear 14 1021 48 10000 3.26 29 04:59 26.04.2022
2432 Clear 12 1022 56 10000 4.61 30 04:22 26.04.2022
2433 Clear 8 1023 60 10000 5.82 27 00:51 26.04.2022
2434 Clear 8 1023 62 10000 5.73 28 23:51 25.04.2022
2435 Clear 9 1023 64 10000 5.56 31 21:57 25.04.2022
2436 Clear 9 1023 64 10000 5.56 31 21:33 25.04.2022
2437 Clouds 11 1023 67 10000 4.56 25 19:58 25.04.2022
2438 Clouds 11 1024 67 10000 4.59 29 18:48 25.04.2022
2439 Clouds 10 1023 65 10000 4.55 26 17:40 25.04.2022
2440 Clouds 10 1023 65 10000 4.55 26 17:40 25.04.2022
2441 Clouds 11 1022 66 10000 4.57 31 16:44 25.04.2022
2442 Clouds 14 1019 72 10000 2.43 25 15:23 25.04.2022
2443 Clouds 14 1019 72 10000 2.43 25 14:34 25.04.2022
2444 Clouds 15 1018 77 7750 1.9 330 13:21 25.04.2022
2445 Clouds 16 1017 71 8160 2.36 346 10:44 25.04.2022
2446 Clouds 19 1015 51 10000 3.11 233 09:42 25.04.2022
2447 Clouds 21 1015 37 10000 1.12 186 07:56 25.04.2022
2448 Clouds 19 1017 39 10000 0.91 22 06:18 25.04.2022
2449 Clouds 8 1022 54 10000 5.88 31 01:49 25.04.2022
2450 Clouds 9 1021 54 10000 5.84 29 23:57 24.04.2022
2451 Clouds 9 1021 54 10000 5.7 28 23:28 24.04.2022
2452 Clouds 9 1021 54 10000 5.7 28 22:39 24.04.2022
2453 Clouds 9 1022 54 10000 5.6 29 21:58 24.04.2022
2454 Clouds 9 1023 55 10000 5.51 28 21:23 24.04.2022
2455 Clouds 9 1023 55 10000 5.51 28 20:47 24.04.2022
2456 Clouds 10 1022 59 10000 5.4 28 20:21 24.04.2022
2457 Clouds 10 1022 59 10000 5.37 29 18:54 24.04.2022
2458 Clouds 10 1022 59 10000 5.24 30 17:55 24.04.2022
2459 Clouds 10 1022 61 10000 5.03 30 17:22 24.04.2022
2460 Clouds 10 1022 61 10000 5.03 30 16:56 24.04.2022
2461 Clouds 11 1020 62 10000 4.38 30 16:29 24.04.2022
2462 Clouds 11 1020 62 10000 4.38 30 16:29 24.04.2022
2463 Clouds 11 1020 62 10000 4.38 30 15:53 24.04.2022
2464 Clouds 14 1017 63 10000 1.53 12 14:55 24.04.2022
2465 Clouds 18 1014 57 10000 0.39 333 13:45 24.04.2022
2466 Clouds 19 1014 51 10000 0.76 273 13:23 24.04.2022
2467 Clouds 19 1014 46 10000 0.8 246 11:53 24.04.2022
2468 Clear 19 1015 45 10000 0.26 199 10:59 24.04.2022
2469 Clear 19 1016 48 10000 0.45 196 09:47 24.04.2022
2470 Clear 18 1017 59 10000 0.45 283 08:23 24.04.2022
2471 Clear 16 1018 49 10000 1.86 19 05:46 24.04.2022
2472 Clear 7 1025 60 10000 6.02 27 02:49 24.04.2022
2473 Clear 6 1025 63 10000 5.99 27 00:47 24.04.2022
2474 Clear 6 1025 66 10000 5.91 26 23:55 23.04.2022
2475 Clear 6 1025 67 10000 5.83 27 23:25 23.04.2022
2476 Clear 6 1025 67 10000 5.83 27 22:40 23.04.2022
2477 Clear 7 1025 69 10000 5.53 29 21:48 23.04.2022
2478 Clear 8 1025 70 10000 5.08 28 21:29 23.04.2022
2479 Clouds 9 1025 70 10000 5.07 28 19:57 23.04.2022
2480 Clouds 9 1025 72 10000 5.07 29 19:20 23.04.2022
2481 Clouds 9 1025 72 10000 5.07 29 18:54 23.04.2022
2482 Clouds 9 1025 72 10000 5.07 29 18:32 23.04.2022
2483 Clouds 9 1025 72 10000 5.07 29 18:32 23.04.2022
2484 Clouds 10 1025 74 10000 4.7 27 17:47 23.04.2022
2485 Clouds 10 1024 74 10000 3.92 25 16:46 23.04.2022
2486 Clouds 10 1024 75 10000 3.77 21 15:52 23.04.2022
2487 Clouds 14 1020 69 10000 2.05 354 13:33 23.04.2022
2488 Clouds 15 1020 66 10000 1.56 317 11:30 23.04.2022
2489 Clouds 16 1020 65 10000 1.72 289 10:32 23.04.2022
2490 Clear 16 1021 65 10000 0.53 313 08:18 23.04.2022
2491 Clear 9 1024 64 10000 4.5 27 03:57 23.04.2022
2492 Clear 5 1027 64 10000 5.82 28 03:27 23.04.2022
2493 Clear 6 1025 68 10000 5.54 27 23:37 22.04.2022
2494 Clear 7 1025 69 10000 5.31 26 23:18 22.04.2022
2495 Clear 7 1025 71 10000 5.21 26 21:58 22.04.2022
2496 Clear 7 1025 71 10000 5.21 26 21:39 22.04.2022
2497 Clear 8 1025 74 10000 4.59 24 20:34 22.04.2022
2498 Clouds 9 1025 77 10000 4.33 24 19:26 22.04.2022
2499 Clouds 9 1025 77 10000 4.33 24 18:56 22.04.2022
2500 Clouds 9 1025 79 10000 4.1 24 18:26 22.04.2022
2501 Clouds 9 1024 81 10000 3.81 23 16:57 22.04.2022
2502 Clouds 9 1024 83 10000 3.42 29 15:59 22.04.2022
2503 Clouds 11 1021 85 10000 1.9 48 15:24 22.04.2022
2504 Clouds 11 1021 85 10000 1.9 48 14:38 22.04.2022
2505 Clouds 13 1020 87 3201 1.58 56 13:41 22.04.2022
2506 Clouds 14 1019 84 2581 0.77 39 12:47 22.04.2022
2507 Clouds 15 1019 79 5267 1.19 272 11:23 22.04.2022
2508 Clouds 15 1019 79 5267 1.19 272 10:56 22.04.2022
2509 Clouds 15 1019 79 5267 1.19 272 10:34 22.04.2022
2510 Clouds 17 1018 77 4279 1.64 215 09:57 22.04.2022
2511 Clouds 16 1019 77 4328 1.17 192 09:22 22.04.2022
2512 Clouds 16 1019 77 4328 1.17 192 08:48 22.04.2022
2513 Clouds 15 1020 80 9949 0.7 277 06:42 22.04.2022
2514 Clouds 8 1023 72 10000 4.43 27 01:24 22.04.2022
2515 Clouds 8 1023 72 10000 4.59 31 23:33 21.04.2022
2516 Clouds 8 1023 72 10000 4.61 28 22:43 21.04.2022
2517 Clouds 8 1024 72 10000 4.79 27 21:42 21.04.2022
2518 Clouds 8 1024 74 10000 4.69 27 20:31 21.04.2022
2519 Clouds 11 1022 93 7454 1.35 68 18:49 21.04.2022
2520 Clouds 11 1022 95 3753 0.58 67 18:28 21.04.2022
2521 Rain 11 1021 95 3308 1.03 92 17:19 21.04.2022
2522 Rain 11 1020 95 2330 0.85 350 16:19 21.04.2022
2523 Clouds 11 1020 96 2028 1.54 61 15:19 21.04.2022
2524 Clouds 12 1019 96 916 1.05 43 14:28 21.04.2022
2525 Clouds 13 1019 83 6125 3.24 29 13:21 21.04.2022
2526 Clouds 15 1018 74 6332 3.46 287 12:25 21.04.2022
2527 Clouds 20 1016 44 10000 2.19 145 09:36 21.04.2022
2528 Clouds 19 1018 47 10000 1.46 149 08:47 21.04.2022
2529 Clouds 19 1019 42 10000 1.34 201 06:44 21.04.2022
2530 Clouds 14 1021 62 10000 3.11 30 03:42 21.04.2022
2531 Clouds 11 1023 66 10000 4.5 30 03:22 21.04.2022
2532 Clouds 11 1023 66 10000 4.5 30 02:44 21.04.2022
2533 Clouds 11 1023 66 10000 4.5 30 02:44 21.04.2022
2534 Clouds 10 1023 66 10000 4.96 29 00:35 21.04.2022
2535 Clouds 10 1023 69 10000 4.53 29 23:40 20.04.2022
2536 Clouds 11 1023 67 10000 4.69 30 23:18 20.04.2022
2537 Clouds 11 1023 67 10000 4.69 30 22:36 20.04.2022
2538 Clouds 11 1023 68 10000 4.66 29 21:47 20.04.2022
2539 Clouds 11 1023 68 10000 4.79 29 20:45 20.04.2022
2540 Clouds 12 1022 67 10000 4.31 28 20:21 20.04.2022
2541 Clouds 12 1022 67 10000 4.31 28 19:46 20.04.2022
2542 Clouds 12 1023 66 10000 4.47 30 18:52 20.04.2022
2543 Clouds 12 1022 68 10000 3.69 33 17:52 20.04.2022
2544 Clouds 12 1022 67 10000 4.32 34 16:39 20.04.2022
2545 Clouds 13 1020 65 10000 3.21 30 15:33 20.04.2022
2546 Clouds 20 1016 53 10000 0.46 126 12:46 20.04.2022
2547 Clouds 19 1017 56 10000 0.01 196 11:42 20.04.2022
2548 Clouds 21 1016 45 9540 2.07 224 10:51 20.04.2022
2549 Clear 21 1017 43 10000 1.13 179 09:34 20.04.2022
2550 Clear 20 1018 47 10000 0.65 177 08:51 20.04.2022
2551 Clear 21 1018 45 10000 0.54 263 08:19 20.04.2022
2552 Clear 18 1020 54 10000 1.18 3 06:23 20.04.2022
2553 Clear 11 1023 62 10000 5.1 28 02:58 20.04.2022
2554 Clear 10 1023 61 10000 5.39 28 00:22 20.04.2022
2555 Clear 10 1023 62 10000 5.39 29 23:19 19.04.2022
2556 Clear 10 1024 63 10000 5.33 29 22:24 19.04.2022
2557 Clear 10 1024 63 10000 5.33 29 21:55 19.04.2022
2558 Clear 11 1024 64 10000 5.18 27 20:59 19.04.2022
2559 Clear 11 1024 64 10000 5.18 27 20:37 19.04.2022
2560 Clouds 11 1025 66 10000 5.29 23 19:41 19.04.2022
2561 Clouds 12 1025 67 10000 5.1 25 18:37 19.04.2022
2562 Clouds 13 1024 67 10000 4.42 27 17:24 19.04.2022
2563 Clouds 13 1024 67 10000 4.42 27 16:42 19.04.2022
2564 Clouds 13 1024 67 10000 4.42 27 16:42 19.04.2022
2565 Clouds 14 1023 68 10000 3.57 22 16:20 19.04.2022
2566 Clouds 15 1021 67 10000 3.2 18 14:46 19.04.2022
2567 Clouds 17 1021 71 10000 4.15 5 13:22 19.04.2022
2568 Clouds 17 1021 71 10000 4.15 5 12:49 19.04.2022
2569 Clouds 16 1022 77 10000 3.43 24 11:38 19.04.2022
2570 Clouds 20 1020 51 8556 2.23 258 09:57 19.04.2022
2571 Clouds 21 1020 44 10000 0.5 239 08:43 19.04.2022
2572 Clear 18 1022 49 10000 1.97 27 04:41 19.04.2022
2573 Clear 12 1025 61 10000 4.96 28 03:19 19.04.2022
2574 Clouds 11 1024 61 10000 5.13 29 00:24 19.04.2022
2575 Clouds 11 1024 62 10000 5.08 29 22:58 18.04.2022
2576 Clouds 12 1025 63 10000 5.06 29 21:29 18.04.2022
2577 Clouds 12 1025 63 10000 5.06 29 20:46 18.04.2022
2578 Clouds 12 1025 63 10000 5.08 29 20:25 18.04.2022
2579 Clouds 12 1025 64 10000 5.15 30 19:41 18.04.2022
2580 Clouds 12 1025 65 10000 5.01 31 18:53 18.04.2022
2581 Clouds 12 1025 66 10000 5.02 30 17:53 18.04.2022
2582 Clouds 13 1024 68 10000 4.57 30 17:28 18.04.2022
2583 Clouds 13 1024 68 10000 4.57 30 16:40 18.04.2022
2584 Clouds 14 1022 68 10000 3.45 26 15:54 18.04.2022
2585 Clouds 15 1020 70 10000 1.46 29 14:42 18.04.2022
2586 Clouds 15 1020 70 10000 1.46 29 14:42 18.04.2022
2587 Clouds 17 1019 68 10000 1.42 353 13:34 18.04.2022
2588 Clouds 17 1019 68 10000 1.42 353 13:34 18.04.2022
2589 Clouds 18 1018 62 10000 1.92 214 12:29 18.04.2022
2590 Clouds 21 1017 47 10000 2.26 252 11:27 18.04.2022
2591 Clear 21 1017 38 10000 1.42 275 10:29 18.04.2022
2592 Clear 21 1017 38 10000 1.42 275 09:30 18.04.2022
2593 Clear 22 1017 32 10000 1.22 227 07:35 18.04.2022
2594 Clear 20 1018 38 10000 1.15 2 05:35 18.04.2022
2595 Clouds 11 1021 52 10000 5.15 26 23:51 17.04.2022
2596 Clouds 10 1021 53 10000 5.2 26 22:40 17.04.2022
2597 Clouds 11 1022 55 10000 5.16 27 21:42 17.04.2022
2598 Clouds 11 1022 56 10000 4.97 27 21:21 17.04.2022
2599 Clouds 11 1022 56 10000 4.97 27 20:33 17.04.2022
2600 Clouds 11 1022 58 10000 4.9 28 19:23 17.04.2022
2601 Clouds 12 1021 61 10000 4.62 30 17:43 17.04.2022
2602 Clouds 14 1019 67 10000 3.43 44 15:39 17.04.2022
2603 Clouds 15 1017 70 10000 0.82 93 14:54 17.04.2022
2604 Clouds 18 1015 62 10000 1.6 218 13:47 17.04.2022
2605 Clouds 20 1014 44 10000 1.8 211 12:58 17.04.2022
2606 Clouds 21 1013 40 10000 1.18 209 12:18 17.04.2022
2607 Clouds 20 1014 36 10000 1.1 203 10:46 17.04.2022
2608 Clouds 20 1014 38 10000 1.15 210 10:27 17.04.2022
2609 Clouds 20 1015 41 10000 1.44 215 09:28 17.04.2022
2610 Clouds 20 1015 41 10000 1.44 215 08:42 17.04.2022
2611 Clear 20 1015 35 10000 0.92 203 07:26 17.04.2022
2612 Clear 13 1018 47 10000 4.7 26 03:53 17.04.2022
2613 Clear 8 1021 55 10000 5.78 25 00:55 17.04.2022
2614 Clear 8 1021 58 10000 5.72 24 23:50 16.04.2022
2615 Clear 8 1022 62 10000 5.46 26 22:29 16.04.2022
2616 Clear 8 1022 62 10000 5.46 26 21:31 16.04.2022
2617 Clouds 9 1022 64 10000 5.06 26 20:18 16.04.2022
2618 Clouds 9 1021 64 10000 4.78 24 18:55 16.04.2022
2619 Clouds 10 1021 67 10000 4.6 24 17:46 16.04.2022
2620 Clouds 10 1020 71 10000 4.24 21 16:38 16.04.2022
2621 Clouds 11 1018 74 10000 3.41 24 15:45 16.04.2022
2622 Clouds 13 1016 73 10000 2.36 29 14:56 16.04.2022
2623 Clouds 14 1015 73 8719 1.91 24 13:58 16.04.2022
2624 Clouds 14 1015 73 8719 1.91 24 13:32 16.04.2022
2625 Clouds 17 1013 53 8674 2.76 244 12:22 16.04.2022
2626 Clouds 19 1012 41 10000 2.24 221 10:49 16.04.2022
2627 Clouds 19 1013 39 10000 1.65 211 09:56 16.04.2022
2628 Clouds 18 1014 38 10000 1.25 201 08:57 16.04.2022
2629 Clear 17 1015 41 10000 0.95 219 07:52 16.04.2022
2630 Clear 17 1015 39 10000 1.09 236 06:58 16.04.2022
2631 Clear 8 1020 59 10000 5.38 26 02:46 16.04.2022
2632 Clouds 7 1019 63 10000 5.65 26 00:30 16.04.2022
2633 Clouds 7 1020 66 10000 5.27 30 22:58 15.04.2022
2634 Clouds 7 1020 66 10000 5.27 30 22:32 15.04.2022
2635 Clouds 8 1020 67 10000 5.09 32 21:50 15.04.2022
2636 Clouds 8 1021 68 10000 4.85 31 21:18 15.04.2022
2637 Clouds 8 1021 68 10000 4.57 29 20:21 15.04.2022
2638 Clouds 8 1021 65 10000 4.65 29 19:39 15.04.2022
2639 Clouds 9 1021 66 10000 4.25 30 18:53 15.04.2022
2640 Clouds 10 1020 68 10000 4.02 25 18:25 15.04.2022
2641 Clouds 10 1020 68 10000 4.02 25 17:34 15.04.2022
2642 Clouds 10 1019 72 10000 3.85 25 16:48 15.04.2022
2643 Clouds 11 1018 76 10000 3.23 26 16:18 15.04.2022
2644 Clouds 12 1016 79 10000 0.73 73 14:51 15.04.2022
2645 Clouds 14 1015 68 10000 0.15 241 13:40 15.04.2022
2646 Clouds 15 1014 65 10000 0.82 323 12:40 15.04.2022
2647 Clouds 15 1014 64 10000 1.55 342 11:56 15.04.2022
2648 Clouds 15 1014 64 10000 1.55 342 11:34 15.04.2022
2649 Clouds 15 1016 66 10000 1.53 293 10:43 15.04.2022
2650 Clouds 16 1015 56 10000 2.47 268 09:46 15.04.2022
2651 Clouds 17 1014 37 10000 1.28 287 09:21 15.04.2022
2652 Clouds 18 1015 40 10000 1.67 312 07:32 15.04.2022
2653 Clear 17 1016 43 10000 1.33 340 06:36 15.04.2022
2654 Clear 7 1021 58 10000 5.65 28 02:48 15.04.2022
2655 Clouds 7 1021 61 10000 5.5 28 23:31 14.04.2022
2656 Clouds 7 1021 62 10000 5.48 27 22:49 14.04.2022
2657 Clouds 7 1021 62 10000 5.48 27 22:30 14.04.2022
2658 Clouds 8 1021 63 10000 5.39 29 21:59 14.04.2022
2659 Clouds 8 1021 63 10000 5.08 27 20:57 14.04.2022
2660 Clouds 8 1021 63 10000 4.79 29 19:23 14.04.2022
2661 Clouds 8 1021 63 10000 4.79 29 18:30 14.04.2022
2662 Clouds 9 1020 65 10000 4.41 28 17:44 14.04.2022
2663 Clouds 9 1019 70 10000 4.45 22 16:46 14.04.2022
2664 Clouds 12 1017 77 10000 2.7 47 15:26 14.04.2022
2665 Clouds 14 1016 72 9881 0.49 29 13:47 14.04.2022
2666 Clouds 15 1014 65 10000 0.43 120 12:58 14.04.2022
2667 Clouds 15 1014 65 10000 0.43 120 12:31 14.04.2022
2668 Clouds 15 1015 72 10000 2.02 10 11:30 14.04.2022
2669 Clouds 14 1017 79 7832 2.6 351 10:54 14.04.2022
2670 Clouds 14 1017 78 6822 2.49 322 10:27 14.04.2022
2671 Clouds 17 1015 60 6391 2.23 266 09:26 14.04.2022
2672 Clouds 18 1015 47 8104 2.04 234 07:36 14.04.2022
2673 Clouds 15 1017 53 10000 2.23 23 04:35 14.04.2022
2674 Clouds 9 1020 62 10000 4.91 29 23:45 13.04.2022
2675 Clouds 10 1021 62 10000 4.79 29 22:29 13.04.2022
2676 Clouds 10 1021 62 10000 4.79 29 21:42 13.04.2022
2677 Clouds 10 1021 65 10000 4.84 27 20:27 13.04.2022
2678 Clouds 10 1021 66 10000 5.02 28 19:46 13.04.2022
2679 Clouds 10 1021 68 10000 4.85 27 18:36 13.04.2022
2680 Clouds 11 1022 74 10000 4.07 28 17:24 13.04.2022
2681 Clouds 11 1022 74 10000 4.07 28 16:44 13.04.2022
2682 Rain 11 1020 79 10000 3.67 31 15:44 13.04.2022
2683 Clouds 13 1019 81 10000 2.45 38 15:19 13.04.2022
2684 Clouds 13 1019 81 10000 2.45 38 14:34 13.04.2022
2685 Clouds 13 1019 85 6753 1.33 78 13:37 13.04.2022
2686 Clouds 14 1019 82 10000 1.61 102 12:41 13.04.2022
2687 Clouds 14 1018 86 6990 0.35 217 11:25 13.04.2022
2688 Clouds 19 1014 46 10000 2.41 204 09:53 13.04.2022
2689 Clouds 20 1015 45 10000 1.27 167 08:44 13.04.2022
2690 Clouds 21 1016 34 10000 1.59 192 07:38 13.04.2022
2691 Clouds 20 1017 39 10000 0.7 191 06:46 13.04.2022
2692 Clouds 19 1018 43 10000 0.51 56 06:23 13.04.2022
2693 Clouds 12 1021 67 10000 4.26 19 00:52 13.04.2022
2694 Clouds 12 1020 66 10000 3.76 14 00:19 13.04.2022
2695 Clouds 13 1020 61 10000 3.21 14 22:33 12.04.2022
2696 Clouds 12 1021 56 10000 4.24 29 21:47 12.04.2022
2697 Clouds 12 1022 56 10000 4.76 30 20:44 12.04.2022
2698 Clouds 12 1022 55 10000 4.65 31 20:18 12.04.2022
2699 Clouds 12 1022 60 10000 4.37 35 19:39 12.04.2022
2700 Clouds 12 1022 59 10000 4.17 32 18:53 12.04.2022
2701 Clouds 13 1022 57 10000 4.15 32 17:38 12.04.2022
2702 Clouds 13 1021 55 10000 4.03 36 16:38 12.04.2022
2703 Clouds 14 1019 55 10000 3.1 44 15:34 12.04.2022
2704 Clouds 16 1017 57 10000 1.47 92 14:41 12.04.2022
2705 Clouds 20 1015 50 10000 2.02 175 13:45 12.04.2022
2706 Clouds 21 1014 41 10000 2.22 175 13:23 12.04.2022
2707 Clouds 21 1014 41 10000 2.42 182 11:57 12.04.2022
2708 Clouds 21 1014 41 10000 2.42 182 11:32 12.04.2022
2709 Clouds 21 1016 43 10000 1.97 180 09:47 12.04.2022
2710 Clouds 21 1017 44 10000 1.67 186 08:38 12.04.2022
2711 Clouds 21 1017 37 10000 1.99 197 06:46 12.04.2022
2712 Clouds 20 1017 40 10000 0.31 152 05:38 12.04.2022
2713 Clouds 14 1020 53 10000 4.45 31 02:36 12.04.2022
2714 Clouds 13 1021 53 10000 4.92 32 23:20 11.04.2022
2715 Clouds 13 1021 53 10000 4.98 31 21:59 11.04.2022
2716 Clouds 13 1021 54 10000 4.98 31 21:18 11.04.2022
2717 Clouds 13 1021 54 10000 4.98 31 20:34 11.04.2022
2718 Clouds 13 1022 54 10000 5.02 31 19:58 11.04.2022
2719 Clouds 13 1022 55 10000 4.97 31 19:26 11.04.2022
2720 Clouds 13 1022 55 10000 4.97 31 18:53 11.04.2022
2721 Clouds 13 1022 55 10000 4.95 34 17:58 11.04.2022
2722 Clouds 13 1022 55 10000 4.95 34 17:38 11.04.2022
2723 Clouds 14 1020 55 10000 3.87 36 16:26 11.04.2022
2724 Clouds 16 1017 54 10000 1.33 67 14:49 11.04.2022
2725 Clouds 21 1014 48 10000 0.99 151 13:34 11.04.2022
2726 Clouds 23 1014 37 10000 1.23 174 12:38 11.04.2022
2727 Clouds 23 1014 34 10000 1.13 149 12:19 11.04.2022
2728 Clouds 23 1014 32 10000 0.98 146 10:37 11.04.2022
2729 Clouds 23 1015 32 10000 1 157 09:49 11.04.2022
2730 Clouds 23 1016 28 10000 0.87 203 07:58 11.04.2022
2731 Clear 14 1022 39 10000 5.14 28 04:18 11.04.2022
2732 Clear 11 1023 46 10000 6.05 29 23:30 10.04.2022
2733 Clear 11 1023 47 10000 5.79 29 22:27 10.04.2022
2734 Clear 11 1023 47 10000 5.79 29 21:49 10.04.2022
2735 Clear 11 1024 48 10000 5.8 29 20:50 10.04.2022
2736 Clear 11 1024 48 10000 5.8 29 19:56 10.04.2022
2737 Clear 11 1024 48 10000 5.8 29 19:34 10.04.2022
2738 Clear 11 1024 49 10000 5.69 30 18:48 10.04.2022
2739 Clear 12 1024 49 10000 5.46 32 18:24 10.04.2022
2740 Clear 12 1024 49 10000 5.46 32 17:42 10.04.2022
2741 Clear 12 1023 50 10000 5.16 31 16:51 10.04.2022
2742 Clear 13 1022 49 10000 4.79 33 15:38 10.04.2022
2743 Clouds 15 1019 50 10000 3.07 35 14:40 10.04.2022
2744 Clear 22 1016 40 10000 0.35 125 12:58 10.04.2022
2745 Clear 22 1015 41 10000 0.56 111 12:26 10.04.2022
2746 Clear 22 1015 41 10000 0.56 111 11:35 10.04.2022
2747 Clear 22 1016 42 10000 0.65 102 10:58 10.04.2022
2748 Clear 22 1017 43 10000 0.57 94 10:23 10.04.2022
2749 Clear 22 1017 43 10000 0.57 94 09:41 10.04.2022
2750 Clear 20 1018 48 9434 0.49 15 08:26 10.04.2022
2751 Clear 21 1018 42 9430 0.35 24 07:47 10.04.2022
2752 Clear 20 1019 43 10000 1.2 17 06:48 10.04.2022
2753 Clear 12 1023 55 10000 5.34 27 03:36 10.04.2022
2754 Clear 9 1024 56 10000 6.07 28 01:29 10.04.2022
2755 Clear 9 1024 58 10000 6.04 28 23:52 09.04.2022
2756 Clear 9 1024 60 10000 5.94 28 22:52 09.04.2022
2757 Clear 10 1024 61 10000 5.85 27 21:48 09.04.2022
2758 Clear 10 1025 63 10000 5.75 25 20:58 09.04.2022
2759 Clouds 10 1025 65 10000 5.54 26 20:26 09.04.2022
2760 Clouds 11 1024 62 10000 5.75 27 19:43 09.04.2022
2761 Clouds 11 1025 64 10000 5.37 27 19:21 09.04.2022
2762 Clouds 12 1024 68 10000 4.71 28 18:22 09.04.2022
2763 Clouds 12 1024 68 10000 4.71 28 17:42 09.04.2022
2764 Clouds 12 1024 71 10000 4.33 33 16:55 09.04.2022
2765 Clouds 13 1023 74 10000 3.63 38 16:28 09.04.2022
2766 Clouds 13 1023 74 10000 3.63 38 15:48 09.04.2022
2767 Clouds 13 1023 74 10000 3.63 38 15:48 09.04.2022
2768 Clouds 13 1022 78 10000 2.6 46 14:45 09.04.2022
2769 Clouds 15 1022 79 8629 1.9 72 14:25 09.04.2022
2770 Clouds 14 1021 79 8157 2.53 29 13:24 09.04.2022
2771 Clouds 14 1021 79 8157 2.53 29 12:53 09.04.2022
2772 Clouds 18 1018 62 9895 1.25 352 11:44 09.04.2022
2773 Clouds 20 1018 52 8985 1.57 203 10:22 09.04.2022
2774 Clouds 20 1018 52 8985 1.57 203 09:53 09.04.2022
2775 Clear 20 1018 52 10000 0.31 164 09:21 09.04.2022
2776 Clear 21 1018 37 10000 0.74 217 07:49 09.04.2022
2777 Clear 10 1023 55 10000 5.47 27 03:22 09.04.2022
2778 Clear 10 1024 55 10000 5.81 27 00:33 09.04.2022
2779 Clear 10 1024 56 10000 5.62 27 23:20 08.04.2022
2780 Clear 10 1024 56 10000 5.52 27 21:42 08.04.2022
2781 Clear 10 1025 57 10000 5.47 28 20:41 08.04.2022
2782 Clouds 11 1025 59 10000 5.43 28 19:41 08.04.2022
2783 Clouds 11 1025 61 10000 5.36 26 18:42 08.04.2022
2784 Clouds 11 1026 63 10000 5.29 26 18:18 08.04.2022
2785 Clouds 12 1025 69 10000 5.03 23 17:27 08.04.2022
2786 Clouds 12 1025 69 10000 5.03 23 16:52 08.04.2022
2787 Clouds 12 1024 75 10000 4.49 18 16:22 08.04.2022
2788 Clouds 14 1023 78 10000 3.29 5 15:28 08.04.2022
2789 Clouds 14 1023 78 10000 3.29 5 14:45 08.04.2022
2790 Rain 17 1019 65 10000 1.51 292 13:59 08.04.2022
2791 Rain 17 1019 65 10000 1.51 292 13:30 08.04.2022
2792 Rain 19 1018 58 10000 0.9 244 12:45 08.04.2022
2793 Clouds 21 1017 44 10000 1.28 241 10:56 08.04.2022
2794 Clear 21 1018 47 10000 0.51 158 09:57 08.04.2022
2795 Clear 20 1019 50 10000 0.27 145 08:59 08.04.2022
2796 Clear 21 1019 27 10000 0.72 191 07:43 08.04.2022
2797 Clear 21 1020 29 10000 0.16 34 06:45 08.04.2022
2798 Clear 10 1025 45 10000 5.66 29 02:53 08.04.2022
2799 Clear 10 1024 48 10000 5.58 29 00:30 08.04.2022
2800 Clear 10 1024 49 10000 5.55 29 23:43 07.04.2022
2801 Clear 10 1025 50 10000 5.44 29 22:44 07.04.2022
2802 Clear 10 1025 51 10000 5.39 29 22:23 07.04.2022
2803 Clear 10 1025 51 10000 5.39 29 21:58 07.04.2022
2804 Clear 10 1025 51 10000 5.39 29 21:30 07.04.2022
2805 Clear 10 1026 52 10000 5.33 29 20:46 07.04.2022
2806 Clear 11 1026 52 10000 5.27 30 20:20 07.04.2022
2807 Clouds 11 1027 56 10000 5.06 30 17:43 07.04.2022
2808 Clouds 12 1026 58 10000 4.79 29 17:22 07.04.2022
2809 Clouds 12 1026 58 10000 4.79 29 16:34 07.04.2022
2810 Clouds 12 1025 62 10000 4.25 28 15:52 07.04.2022
2811 Clouds 17 1021 62 10000 0.95 318 13:59 07.04.2022
2812 Clouds 20 1019 44 10000 2.19 218 13:24 07.04.2022
2813 Clouds 20 1019 44 10000 2.19 218 13:24 07.04.2022
2814 Clear 21 1018 37 10000 1.63 175 11:54 07.04.2022
2815 Clear 21 1019 34 10000 1.31 168 10:55 07.04.2022
2816 Clear 21 1021 42 10000 0.87 180 09:28 07.04.2022
2817 Clear 21 1021 23 10000 1.04 186 07:38 07.04.2022
2818 Clear 19 1022 28 10000 1.64 24 05:32 07.04.2022
2819 Clear 9 1026 40 10000 5.82 30 02:37 07.04.2022
2820 Clear 9 1026 44 10000 5.85 30 00:47 07.04.2022
2821 Clear 9 1026 46 10000 5.87 30 23:39 06.04.2022
2822 Clear 10 1026 48 10000 5.8 29 22:45 06.04.2022
2823 Clear 10 1027 50 10000 5.78 29 22:21 06.04.2022
2824 Clear 10 1027 51 10000 5.67 29 20:54 06.04.2022
2825 Clear 10 1027 52 10000 5.59 29 20:27 06.04.2022
2826 Clear 10 1028 52 10000 5.56 30 19:52 06.04.2022
2827 Clear 10 1028 52 10000 5.32 30 18:49 06.04.2022
2828 Clear 11 1028 52 10000 5.09 32 17:51 06.04.2022
2829 Clear 11 1027 53 10000 4.97 33 17:21 06.04.2022
2830 Clear 11 1027 53 10000 4.97 33 16:34 06.04.2022
2831 Clear 12 1025 54 10000 3.99 37 15:46 06.04.2022
2832 Clear 19 1019 47 10000 1.92 169 14:20 06.04.2022
2833 Clear 21 1018 37 10000 2.5 174 12:37 06.04.2022
2834 Clear 21 1018 32 10000 2.31 174 11:48 06.04.2022
2835 Clear 22 1019 32 10000 2.08 178 10:43 06.04.2022
2836 Clear 22 1020 33 10000 2.01 177 10:19 06.04.2022
2837 Clear 21 1020 30 10000 1.68 189 09:26 06.04.2022
2838 Clear 20 1021 41 10000 0.27 252 08:26 06.04.2022
2839 Clear 22 1021 22 10000 1.11 191 07:37 06.04.2022
2840 Clear 9 1027 41 10000 6.24 29 02:57 06.04.2022
2841 Clear 9 1027 46 10000 6.07 28 23:51 05.04.2022
2842 Clear 9 1028 48 10000 5.92 29 22:28 05.04.2022
2843 Clear 9 1029 48 10000 5.83 28 21:18 05.04.2022
2844 Clear 10 1029 49 10000 5.82 29 20:25 05.04.2022
2845 Clear 10 1029 49 10000 5.54 30 18:56 05.04.2022
2846 Clear 10 1029 48 10000 5.3 31 17:52 05.04.2022
2847 Clear 11 1028 49 10000 5.2 31 16:51 05.04.2022
2848 Clear 11 1027 50 10000 4.39 35 15:53 05.04.2022
2849 Clear 11 1027 50 10000 4.39 35 15:33 05.04.2022
2850 Clear 18 1021 47 10000 1.62 160 14:22 05.04.2022
2851 Clear 20 1019 38 10000 1.78 172 12:56 05.04.2022
2852 Clear 21 1019 36 10000 1.84 172 11:50 05.04.2022
2853 Clear 21 1019 36 10000 1.84 172 11:32 05.04.2022
2854 Clear 21 1020 35 10000 1.56 180 09:52 05.04.2022
2855 Clear 20 1021 38 10000 0.97 190 08:52 05.04.2022
2856 Clouds 20 1021 22 10000 0.35 20 06:52 05.04.2022
2857 Clouds 8 1026 40 10000 6.2 29 00:41 05.04.2022
2858 Clouds 9 1026 45 10000 5.97 29 22:41 04.04.2022
2859 Clouds 9 1027 47 10000 5.81 29 22:22 04.04.2022
2860 Clouds 9 1027 49 10000 5.67 28 21:21 04.04.2022
2861 Clouds 9 1027 49 10000 5.67 28 21:21 04.04.2022
2862 Clouds 9 1027 49 10000 5.67 28 20:49 04.04.2022
2863 Clouds 10 1027 50 10000 5.56 28 19:45 04.04.2022
2864 Clouds 10 1027 49 10000 5.36 29 19:25 04.04.2022
2865 Clouds 11 1027 50 10000 5.13 31 18:20 04.04.2022
2866 Clear 11 1026 51 10000 4.96 31 16:36 04.04.2022
2867 Clear 12 1024 51 10000 3.96 38 15:43 04.04.2022
2868 Clear 13 1021 54 10000 1.8 77 15:25 04.04.2022
2869 Clear 13 1021 54 10000 1.8 77 14:46 04.04.2022
2870 Clouds 18 1018 46 10000 1.75 164 13:30 04.04.2022
2871 Clouds 21 1016 34 10000 1.86 175 11:55 04.04.2022
2872 Clouds 21 1016 32 10000 1.72 168 11:29 04.04.2022
2873 Clouds 20 1018 35 10000 1.21 178 08:54 04.04.2022
2874 Clear 15 1020 34 10000 3.69 22 04:45 04.04.2022
2875 Clear 8 1025 48 10000 5.91 28 01:28 04.04.2022
2876 Clear 8 1025 49 10000 5.84 29 22:43 03.04.2022
2877 Clear 8 1026 49 10000 5.71 30 21:46 03.04.2022
2878 Clear 8 1026 50 10000 5.59 29 20:56 03.04.2022
2879 Clear 9 1026 50 10000 5.48 29 19:50 03.04.2022
2880 Clear 9 1026 50 10000 5.31 30 18:33 03.04.2022
2881 Clear 9 1026 50 10000 5.19 30 17:48 03.04.2022
2882 Clear 10 1025 50 10000 4.94 29 16:59 03.04.2022
2883 Clear 10 1025 50 10000 4.94 29 16:41 03.04.2022
2884 Clouds 12 1021 49 10000 2.64 41 14:52 03.04.2022
2885 Clear 17 1019 46 10000 0.47 66 13:55 03.04.2022
2886 Clear 19 1018 37 10000 0.38 153 12:46 03.04.2022
2887 Clear 19 1018 34 10000 0.55 124 11:33 03.04.2022
2888 Clear 19 1020 34 10000 0.72 58 09:39 03.04.2022
2889 Clear 19 1021 34 10000 0.82 29 08:40 03.04.2022
2890 Clear 17 1022 27 10000 1.63 10 05:42 03.04.2022
2891 Clear 8 1026 48 10000 5.21 29 02:54 03.04.2022
2892 Clear 9 1026 55 10000 4.59 30 23:22 02.04.2022
2893 Clear 9 1026 55 10000 4.59 30 22:38 02.04.2022
2894 Clear 9 1026 56 10000 4.33 33 21:49 02.04.2022
2895 Clear 10 1026 58 10000 3.85 35 21:19 02.04.2022
2896 Clear 10 1026 58 10000 3.85 35 20:35 02.04.2022
2897 Clear 10 1026 58 10000 3.49 37 18:27 02.04.2022
2898 Clear 10 1026 58 10000 3.49 37 17:54 02.04.2022
2899 Clear 11 1024 58 10000 3.03 41 16:39 02.04.2022
2900 Clear 13 1021 60 10000 1.5 149 15:23 02.04.2022
2901 Clear 13 1021 60 10000 1.5 149 14:51 02.04.2022
2902 Clear 17 1018 51 10000 3.27 193 13:57 02.04.2022
2903 Clear 19 1017 44 10000 3.98 193 13:23 02.04.2022
2904 Clear 20 1017 39 10000 4.33 192 11:54 02.04.2022
2905 Clear 21 1017 37 10000 3.84 189 09:57 02.04.2022
2906 Clear 21 1018 28 10000 3.64 196 07:33 02.04.2022
2907 Clear 13 1022 40 10000 4.14 29 03:59 02.04.2022
2908 Clear 10 1022 41 10000 5.44 28 00:27 02.04.2022
2909 Clear 10 1022 41 10000 5.44 28 23:53 01.04.2022
2910 Clear 10 1022 42 10000 5.44 28 22:34 01.04.2022
2911 Clear 11 1023 44 10000 5.46 29 20:54 01.04.2022
2912 Clear 11 1023 44 10000 5.46 29 20:32 01.04.2022
2913 Clear 11 1024 45 10000 5.47 30 19:41 01.04.2022
2914 Clear 11 1024 46 10000 5.5 29 19:23 01.04.2022
2915 Clear 11 1024 46 10000 5.5 29 18:36 01.04.2022
2916 Clear 12 1024 47 10000 5.44 30 17:36 01.04.2022
2917 Clear 12 1022 49 10000 4.93 31 15:46 01.04.2022
2918 Clear 14 1019 49 10000 2.82 44 14:51 01.04.2022
2919 Clear 19 1016 45 10000 0.63 143 13:39 01.04.2022
2920 Clear 22 1015 42 10000 1.53 179 12:34 01.04.2022
2921 Clear 23 1014 34 10000 1.74 179 11:47 01.04.2022
2922 Clear 23 1015 33 10000 1.57 177 10:50 01.04.2022
2923 Clear 23 1015 33 10000 1.62 181 09:39 01.04.2022
2924 Clear 22 1017 31 10000 1.03 184 07:31 01.04.2022
2925 Clear 16 1020 34 10000 4.18 24 04:59 01.04.2022
2926 Clear 16 1020 34 10000 4.18 24 04:39 01.04.2022
2927 Clear 9 1023 34 10000 6.56 28 03:18 01.04.2022
2928 Clear 8 1024 36 10000 6.47 28 01:34 01.04.2022
2929 Clear 8 1024 44 10000 6.29 28 22:31 31.03.2022
2930 Clear 8 1025 46 10000 6.15 29 21:40 31.03.2022
2931 Clear 8 1026 49 10000 6.05 29 20:51 31.03.2022
2932 Clear 8 1026 50 10000 5.94 29 20:28 31.03.2022
2933 Clear 9 1026 51 10000 5.77 30 19:29 31.03.2022
2934 Clear 9 1026 51 10000 5.77 30 18:34 31.03.2022
2935 Clear 10 1025 51 10000 5.2 31 16:53 31.03.2022
2936 Clear 10 1024 51 10000 4.92 32 15:56 31.03.2022
2937 Clear 12 1022 50 10000 3.51 37 15:29 31.03.2022
2938 Clear 12 1022 50 10000 3.51 37 14:48 31.03.2022
2939 Clear 17 1019 50 10000 1.23 52 13:53 31.03.2022
2940 Clear 19 1018 41 10000 0.87 90 11:31 31.03.2022
2941 Clear 19 1019 45 10000 0.53 58 10:27 31.03.2022
2942 Clear 19 1019 45 10000 0.53 58 09:40 31.03.2022
2943 Clear 18 1021 51 10000 0.62 342 07:49 31.03.2022
2944 Clear 10 1024 35 10000 5.23 28 03:48 31.03.2022
2945 Clear 7 1026 42 10000 5.75 30 23:25 30.03.2022
2946 Clear 8 1026 44 10000 5.57 30 22:19 30.03.2022
2947 Clear 8 1026 44 10000 5.57 30 21:31 30.03.2022
2948 Clear 8 1026 45 10000 5.39 31 20:44 30.03.2022
2949 Clear 8 1026 46 10000 5.2 32 19:54 30.03.2022
2950 Clear 9 1026 46 10000 5.07 32 18:50 30.03.2022
2951 Clear 9 1026 47 10000 4.83 34 17:52 30.03.2022
2952 Clear 10 1025 48 10000 4.6 33 17:29 30.03.2022
2953 Clear 10 1025 48 10000 4.6 33 16:41 30.03.2022
2954 Clear 10 1023 47 10000 3.82 36 16:18 30.03.2022
2955 Clear 12 1020 45 10000 1.69 69 14:42 30.03.2022
2956 Clear 19 1016 36 10000 2.95 181 13:26 30.03.2022
2957 Clear 19 1016 36 10000 2.95 181 12:32 30.03.2022
2958 Clear 20 1016 30 10000 2.98 182 10:48 30.03.2022
2959 Clear 20 1017 30 10000 2.71 183 09:58 30.03.2022
2960 Clear 19 1018 39 10000 2.26 193 08:28 30.03.2022
2961 Clear 19 1018 20 10000 2.26 203 07:29 30.03.2022
2962 Clear 18 1019 23 10000 0.38 243 05:40 30.03.2022
2963 Clear 9 1022 33 10000 5.18 29 02:40 30.03.2022
2964 Clear 10 1022 42 10000 5.01 29 22:43 29.03.2022
2965 Clear 10 1022 44 10000 4.87 28 21:58 29.03.2022
2966 Clear 10 1022 44 10000 4.87 28 21:37 29.03.2022
2967 Clear 10 1023 46 10000 4.86 30 20:30 29.03.2022
2968 Clear 10 1023 50 10000 4.67 29 19:34 29.03.2022
2969 Clear 11 1023 52 10000 4.53 33 18:54 29.03.2022
2970 Clear 11 1023 53 10000 4.5 34 17:52 29.03.2022
2971 Clear 11 1023 54 10000 4.47 37 17:19 29.03.2022
2972 Clear 11 1023 54 10000 4.47 37 16:53 29.03.2022
2973 Clear 12 1021 54 10000 3.7 44 15:41 29.03.2022
2974 Clear 13 1019 58 10000 1.82 76 14:43 29.03.2022
2975 Clear 13 1019 58 10000 1.82 76 14:43 29.03.2022
2976 Clear 18 1016 50 10000 2.05 171 13:36 29.03.2022
2977 Clear 20 1015 43 10000 2.77 181 12:39 29.03.2022
2978 Clear 22 1015 32 10000 2.41 180 11:24 29.03.2022
2979 Clear 21 1016 32 10000 2.06 176 10:20 29.03.2022
2980 Clear 21 1017 36 10000 1.75 185 08:52 29.03.2022
2981 Clear 20 1018 24 10000 0.6 228 06:53 29.03.2022
2982 Clear 9 1023 43 10000 5.48 27 02:55 29.03.2022
2983 Clear 9 1023 52 10000 5.23 27 23:40 28.03.2022
2984 Clear 10 1023 55 10000 5.22 28 22:57 28.03.2022
2985 Clear 10 1023 55 10000 5.22 28 22:33 28.03.2022
2986 Clear 10 1024 56 10000 5.12 30 21:43 28.03.2022
2987 Clear 10 1024 58 10000 5.02 29 20:37 28.03.2022
2988 Clear 10 1025 59 10000 4.79 31 19:48 28.03.2022
2989 Clear 10 1025 59 10000 4.79 31 19:48 28.03.2022
2990 Clear 10 1025 59 10000 4.79 31 19:30 28.03.2022
2991 Clear 11 1025 60 10000 4.73 31 18:51 28.03.2022
2992 Clear 11 1025 60 10000 4.62 31 17:41 28.03.2022
2993 Clear 11 1024 60 10000 4.45 33 16:56 28.03.2022
2994 Clear 13 1021 59 10000 2.46 44 15:22 28.03.2022
2995 Clear 17 1018 55 10000 0.68 111 14:24 28.03.2022
2996 Clear 19 1017 46 10000 0.97 131 13:19 28.03.2022
2997 Clear 20 1017 39 10000 1.03 135 11:52 28.03.2022
2998 Clear 19 1018 38 10000 0.78 157 09:58 28.03.2022
2999 Clear 19 1019 40 10000 0.6 169 09:21 28.03.2022
3000 Clear 19 1019 40 10000 0.6 169 08:40 28.03.2022
3001 Clear 20 1019 25 10000 0.99 205 08:20 28.03.2022
3002 Clear 19 1020 25 10000 0.43 226 06:55 28.03.2022
3003 Clear 9 1023 48 10000 5.22 28 02:20 28.03.2022
3004 Clear 9 1024 54 10000 4.92 30 22:36 27.03.2022
3005 Clear 10 1025 55 10000 4.78 30 21:47 27.03.2022
3006 Clear 10 1025 56 10000 4.71 30 21:26 27.03.2022
3007 Clear 10 1025 56 10000 4.71 30 20:41 27.03.2022
3008 Clear 10 1025 56 10000 4.8 30 19:37 27.03.2022
3009 Clear 10 1025 55 10000 4.82 30 18:45 27.03.2022
3010 Clear 10 1025 55 10000 4.75 29 18:23 27.03.2022
3011 Clear 10 1025 55 10000 4.75 29 18:23 27.03.2022
3012 Clear 10 1025 55 10000 4.75 29 17:36 27.03.2022
3013 Clear 11 1023 54 10000 4.44 33 15:51 27.03.2022
3014 Clear 17 1017 51 10000 0.33 147 13:59 27.03.2022
3015 Clear 19 1016 40 10000 1.49 182 13:21 27.03.2022
3016 Clear 20 1016 33 10000 1.83 180 11:41 27.03.2022
3017 Clear 20 1017 32 10000 1.9 184 09:49 27.03.2022
3018 Clear 20 1018 22 10000 1.77 204 07:39 27.03.2022
3019 Clear 11 1022 37 10000 4.85 28 04:25 27.03.2022
3020 Clear 8 1023 39 10000 5.74 27 00:26 27.03.2022
3021 Clear 8 1023 40 10000 5.83 27 22:52 26.03.2022
3022 Clear 8 1024 42 10000 5.88 26 22:22 26.03.2022
3023 Clear 8 1024 42 10000 5.88 26 21:30 26.03.2022
3024 Clear 8 1025 45 10000 5.88 27 19:38 26.03.2022
3025 Clear 8 1025 46 10000 6 27 18:44 26.03.2022
3026 Clear 9 1025 49 10000 5.95 27 17:41 26.03.2022
3027 Clear 9 1025 50 10000 5.78 27 16:46 26.03.2022
3028 Clear 9 1024 52 10000 5.42 27 15:43 26.03.2022
3029 Clear 11 1021 56 10000 3.37 30 13:57 26.03.2022
3030 Clear 11 1021 56 10000 3.37 30 13:36 26.03.2022
3031 Clear 18 1015 46 10000 0.95 290 12:18 26.03.2022
3032 Clear 19 1016 39 10000 0.82 328 10:49 26.03.2022
3033 Clear 18 1017 41 10000 0.96 335 09:19 26.03.2022
3034 Clear 17 1018 44 10000 1.33 358 07:34 26.03.2022
3035 Clear 15 1020 38 10000 2.41 24 05:49 26.03.2022
3036 Clear 7 1024 53 10000 5.77 27 02:34 26.03.2022
3037 Clear 5 1023 55 10000 5.95 28 22:47 25.03.2022
3038 Clear 6 1024 58 10000 5.66 27 20:58 25.03.2022
3039 Clear 6 1024 59 10000 5.46 27 20:26 25.03.2022
3040 Clear 6 1024 59 10000 5.46 27 20:26 25.03.2022
3041 Clouds 6 1025 61 10000 5.47 27 19:20 25.03.2022
3042 Clouds 6 1025 61 10000 5.47 27 18:36 25.03.2022
3043 Clouds 6 1025 64 10000 5.26 29 17:34 25.03.2022
3044 Clouds 8 1023 70 10000 4.13 32 16:29 25.03.2022
3045 Clouds 8 1023 70 10000 4.13 32 15:37 25.03.2022
3046 Clouds 11 1019 74 10000 1.45 17 13:32 25.03.2022
3047 Clouds 15 1015 50 10000 0.77 203 11:25 25.03.2022
3048 Clouds 15 1016 50 10000 0.98 234 09:43 25.03.2022
3049 Clouds 15 1016 50 10000 0.75 238 08:56 25.03.2022
3050 Clear 15 1017 51 10000 0.25 229 07:46 25.03.2022
3051 Clear 15 1017 40 10000 0.51 287 07:19 25.03.2022
3052 Clear 10 1019 56 10000 3.2 25 03:45 25.03.2022
3053 Clear 5 1021 63 10000 5.29 28 23:49 24.03.2022
3054 Clear 6 1021 65 10000 4.87 25 22:24 24.03.2022
3055 Clear 6 1021 67 10000 4.59 24 20:58 24.03.2022
3056 Clear 7 1022 70 10000 4.42 25 19:49 24.03.2022
3057 Clouds 7 1022 71 10000 4.33 29 18:45 24.03.2022
3058 Clouds 8 1022 74 10000 4.02 27 17:36 24.03.2022
3059 Clouds 8 1021 77 10000 3.62 25 16:33 24.03.2022
3060 Clouds 9 1019 80 6800 2.11 28 14:52 24.03.2022
3061 Clouds 11 1017 79 7563 0.88 19 14:22 24.03.2022
3062 Clouds 11 1017 80 5630 0.63 14 13:34 24.03.2022
3063 Clouds 13 1015 66 10000 0.93 297 12:29 24.03.2022
3064 Clouds 14 1015 64 10000 1.19 281 11:27 24.03.2022
3065 Clouds 15 1016 61 10000 1.42 275 09:28 24.03.2022
3066 Clouds 15 1016 61 10000 1.42 275 08:38 24.03.2022
3067 Clouds 15 1018 40 10000 1.4 9 05:36 24.03.2022
3068 Clear 6 1021 58 10000 5.35 29 00:38 24.03.2022
3069 Clear 7 1021 61 10000 4.78 27 22:21 23.03.2022
3070 Clear 7 1022 63 10000 4.6 28 21:24 23.03.2022
3071 Clear 7 1022 63 10000 4.6 28 20:36 23.03.2022
3072 Clear 7 1022 64 10000 4.54 28 19:33 23.03.2022
3073 Clear 8 1023 66 10000 4.48 31 18:18 23.03.2022
3074 Clear 8 1023 67 10000 4.14 32 17:25 23.03.2022
3075 Clear 8 1022 67 10000 3.64 35 15:56 23.03.2022
3076 Clear 9 1021 67 10000 2.93 39 14:48 23.03.2022
3077 Clear 10 1018 67 10000 1.1 81 13:34 23.03.2022
3078 Clear 16 1014 55 10000 3.29 198 11:33 23.03.2022
3079 Clear 18 1016 57 10000 2.84 191 08:49 23.03.2022
3080 Clear 17 1018 37 10000 1.66 223 06:25 23.03.2022
3081 Clear 14 1019 47 10000 2.65 19 03:44 23.03.2022
3082 Clear 8 1021 58 10000 5.01 29 00:27 23.03.2022
3083 Clear 9 1022 58 10000 5.02 28 21:53 22.03.2022
3084 Clear 9 1023 58 10000 4.96 29 21:23 22.03.2022
3085 Clear 9 1023 58 10000 4.86 29 20:29 22.03.2022
3086 Clear 9 1023 58 10000 4.97 30 19:27 22.03.2022
3087 Clear 10 1023 59 10000 4.87 31 18:49 22.03.2022
3088 Clear 10 1023 58 10000 4.86 30 17:44 22.03.2022
3089 Clear 10 1023 58 10000 4.73 31 16:58 22.03.2022
3090 Clear 10 1023 59 10000 4.62 32 15:48 22.03.2022
3091 Clear 11 1021 61 10000 4.11 33 15:21 22.03.2022
3092 Clear 11 1021 61 10000 4.11 33 14:45 22.03.2022
3093 Clear 12 1019 65 10000 2.42 44 13:52 22.03.2022
3094 Clear 17 1016 61 10000 1 155 12:40 22.03.2022
3095 Clear 19 1015 42 10000 1.77 180 11:26 22.03.2022
3096 Clear 19 1015 42 10000 1.68 186 09:52 22.03.2022
3097 Clear 19 1016 48 10000 1.08 221 07:44 22.03.2022
3098 Clear 17 1018 32 10000 2.44 19 04:36 22.03.2022
3099 Clear 10 1022 42 10000 5.38 29 02:54 22.03.2022
3100 Clear 8 1022 50 10000 5.66 28 23:21 21.03.2022
3101 Clear 8 1023 51 10000 5.73 28 21:47 21.03.2022
3102 Clear 8 1023 52 10000 5.78 27 20:45 21.03.2022
3103 Clear 8 1024 53 10000 5.78 27 20:26 21.03.2022
3104 Clear 8 1024 53 10000 5.78 27 19:53 21.03.2022
3105 Clear 8 1025 55 10000 5.73 27 19:23 21.03.2022
3106 Clear 8 1025 55 10000 5.59 28 17:43 21.03.2022
3107 Clear 9 1025 55 10000 5.36 29 17:00 21.03.2022
3108 Clear 9 1025 55 10000 5.36 29 16:37 21.03.2022
3109 Clear 9 1024 55 10000 5.13 32 15:46 21.03.2022
3110 Clear 10 1023 57 10000 4.73 33 14:48 21.03.2022
3111 Clear 11 1020 60 10000 2.91 34 13:43 21.03.2022
3112 Clouds 16 1017 56 10000 0.48 326 12:33 21.03.2022
3113 Clouds 17 1016 45 10000 1.09 318 11:44 21.03.2022
3114 Clear 18 1017 38 10000 0.75 16 10:20 21.03.2022
3115 Clear 17 1019 39 10000 1.31 8 08:29 21.03.2022
3116 Clear 17 1019 27 10000 1.62 8 06:36 21.03.2022
3117 Clear 8 1023 50 10000 5.26 29 02:40 21.03.2022
3118 Clear 7 1022 60 10000 5.56 27 23:40 20.03.2022
3119 Clear 7 1022 61 10000 5.43 28 22:43 20.03.2022
3120 Clouds 8 1022 61 10000 5.31 29 21:50 20.03.2022
3121 Clouds 8 1022 61 10000 5.1 30 21:20 20.03.2022
3122 Clouds 8 1022 61 10000 5.1 30 20:43 20.03.2022
3123 Clear 8 1023 61 10000 5.02 29 19:57 20.03.2022
3124 Clouds 9 1022 63 10000 4.93 31 19:26 20.03.2022
3125 Clouds 9 1022 67 10000 4.33 33 18:19 20.03.2022
3126 Clouds 9 1022 67 10000 4.33 33 17:33 20.03.2022
3127 Clouds 10 1021 69 10000 3.89 36 16:57 20.03.2022
3128 Clouds 10 1020 71 10000 3.41 37 15:34 20.03.2022
3129 Clouds 10 1020 74 10000 2.95 39 14:34 20.03.2022
3130 Clouds 15 1015 63 10000 3.02 190 12:30 20.03.2022
3131 Clouds 18 1013 47 10000 2.94 206 11:23 20.03.2022
3132 Clouds 18 1014 45 10000 2.18 198 09:26 20.03.2022
3133 Clear 17 1017 50 10000 1.41 214 07:28 20.03.2022
3134 Clear 18 1017 32 10000 1.21 226 05:40 20.03.2022
3135 Clear 8 1020 51 10000 5.2 25 01:50 20.03.2022
3136 Clear 8 1019 55 10000 5.12 27 00:45 20.03.2022
3137 Clear 9 1020 56 10000 5.13 27 23:19 19.03.2022
3138 Clear 9 1021 59 10000 5.15 27 21:27 19.03.2022
3139 Clear 9 1021 59 10000 5.15 27 20:49 19.03.2022
3140 Clear 10 1022 64 10000 5.02 29 18:58 19.03.2022
3141 Clear 10 1022 67 10000 4.6 30 18:23 19.03.2022
3142 Clear 10 1022 67 10000 4.6 30 17:35 19.03.2022
3143 Clear 11 1021 73 10000 3.71 34 15:44 19.03.2022
3144 Clear 11 1020 77 10000 2.82 38 14:57 19.03.2022
3145 Clouds 17 1015 65 10000 2.49 193 13:19 19.03.2022
3146 Clouds 17 1015 65 10000 2.49 193 13:19 19.03.2022
3147 Clouds 17 1015 67 10000 2.15 193 12:40 19.03.2022
3148 Clouds 19 1014 58 10000 3.02 206 11:54 19.03.2022
3149 Clouds 19 1014 58 10000 3.02 206 11:54 19.03.2022
3150 Clouds 19 1014 58 10000 3.02 206 11:54 19.03.2022
3151 Clouds 20 1013 54 10000 3.67 207 10:53 19.03.2022
3152 Clear 19 1017 58 10000 1.66 201 07:33 19.03.2022
3153 Clear 16 1020 53 10000 2.39 22 03:49 19.03.2022
3154 Clear 10 1022 58 10000 4.92 26 02:29 19.03.2022
3155 Clear 10 1022 53 10000 5.56 27 23:45 18.03.2022
3156 Clear 10 1023 56 10000 5.23 27 22:28 18.03.2022
3157 Clear 10 1023 56 10000 5.23 27 21:46 18.03.2022
3158 Clear 11 1024 61 10000 4.87 28 19:52 18.03.2022
3159 Clear 11 1024 61 10000 4.87 28 19:52 18.03.2022
3160 Clear 11 1024 64 10000 4.73 30 19:21 18.03.2022
3161 Clear 11 1024 66 10000 4.6 29 18:18 18.03.2022
3162 Clear 12 1024 67 10000 4.56 29 16:51 18.03.2022
3163 Clear 12 1023 67 10000 4.34 34 15:43 18.03.2022
3164 Clear 14 1020 74 10000 2.25 38 14:24 18.03.2022
3165 Clouds 18 1017 67 10000 0.96 171 12:39 18.03.2022
3166 Clouds 21 1016 46 10000 1.67 182 10:58 18.03.2022
3167 Clouds 21 1017 46 10000 1.6 185 09:30 18.03.2022
3168 Clouds 20 1018 49 10000 1.77 188 08:42 18.03.2022
3169 Clouds 21 1018 34 10000 2.92 200 06:37 18.03.2022
3170 Clouds 13 1022 41 10000 4.88 30 03:19 18.03.2022
3171 Clouds 11 1021 39 10000 5.68 30 00:39 18.03.2022
3172 Clouds 11 1021 39 10000 5.69 30 23:44 17.03.2022
3173 Clouds 12 1022 39 10000 5.74 30 22:25 17.03.2022
3174 Clouds 12 1022 39 10000 5.74 30 21:48 17.03.2022
3175 Clouds 12 1022 39 10000 5.74 30 21:48 17.03.2022
3176 Clear 12 1023 39 10000 5.97 30 21:27 17.03.2022
3177 Clear 12 1023 39 10000 5.97 30 20:51 17.03.2022
3178 Clear 12 1023 40 10000 5.98 30 19:53 17.03.2022
3179 Clear 12 1023 40 10000 5.98 30 19:33 17.03.2022
3180 Clear 12 1024 42 10000 6.01 30 18:51 17.03.2022
3181 Clouds 12 1024 45 10000 5.89 29 17:26 17.03.2022
3182 Clouds 12 1024 47 10000 5.64 30 15:57 17.03.2022
3183 Clouds 12 1024 47 10000 5.64 30 15:36 17.03.2022
3184 Clouds 13 1023 51 10000 5.32 31 14:55 17.03.2022
3185 Clouds 18 1017 62 10000 1.08 75 13:22 17.03.2022
3186 Clouds 19 1017 61 10000 1.13 70 12:38 17.03.2022
3187 Clouds 21 1015 55 10000 0.76 162 11:30 17.03.2022
3188 Clouds 23 1015 46 10000 0.71 216 10:34 17.03.2022
3189 Clouds 23 1015 48 10000 0.51 309 08:41 17.03.2022
3190 Clouds 22 1016 61 10000 0.76 349 07:57 17.03.2022
3191 Clouds 21 1017 34 10000 2.18 19 05:48 17.03.2022
3192 Clouds 16 1020 39 10000 4.96 26 03:45 17.03.2022
3193 Clouds 11 1021 39 10000 6.4 29 00:21 17.03.2022
3194 Clouds 11 1021 40 10000 6.31 30 22:52 16.03.2022
3195 Clouds 11 1021 40 10000 6.31 30 22:33 16.03.2022
3196 Clear 11 1021 41 10000 6.26 30 21:52 16.03.2022
3197 Clear 11 1022 41 10000 6.17 30 20:32 16.03.2022
3198 Clear 11 1022 41 10000 6.19 30 19:22 16.03.2022
3199 Clear 11 1022 40 10000 6.3 29 18:40 16.03.2022
3200 Clear 11 1023 41 10000 6.27 29 17:44 16.03.2022
3201 Clear 11 1023 43 10000 6.11 29 17:26 16.03.2022
3202 Clear 11 1022 46 10000 5.91 30 15:56 16.03.2022
3203 Clear 12 1021 50 10000 5.52 31 14:35 16.03.2022
3204 Clear 13 1019 55 10000 4.33 34 13:34 16.03.2022
3205 Clear 20 1014 63 10000 0.75 95 11:59 16.03.2022
3206 Clear 21 1013 57 9611 0.39 162 11:22 16.03.2022
3207 Clear 22 1013 56 10000 0.49 229 10:28 16.03.2022
3208 Clear 22 1013 56 10000 0.49 229 09:55 16.03.2022
3209 Clear 19 1016 68 10000 1.36 13 06:47 16.03.2022
3210 Clear 9 1021 32 10000 6.39 28 02:29 16.03.2022
3211 Clear 9 1021 46 10000 6.2 25 22:54 15.03.2022
3212 Clear 9 1021 46 10000 6.2 25 22:33 15.03.2022
3213 Clear 9 1022 53 10000 6.17 27 20:51 15.03.2022
3214 Clear 10 1022 56 10000 5.97 27 19:34 15.03.2022
3215 Clear 10 1023 60 10000 5.52 28 17:41 15.03.2022
3216 Clear 10 1023 62 10000 5.32 28 16:35 15.03.2022
3217 Clear 11 1021 67 10000 4.38 31 15:28 15.03.2022
3218 Clear 11 1021 67 10000 4.38 31 14:52 15.03.2022
3219 Clear 13 1019 71 10000 2.77 37 13:55 15.03.2022
3220 Clear 13 1019 71 10000 2.77 37 13:55 15.03.2022
3221 Clouds 16 1017 69 10000 0.31 119 13:20 15.03.2022
3222 Clouds 18 1016 60 10000 1.51 203 11:32 15.03.2022
3223 Clear 19 1015 46 10000 0.99 214 10:22 15.03.2022
3224 Clear 20 1016 50 10000 0.58 219 08:53 15.03.2022
3225 Clear 19 1017 53 10000 0.89 258 07:53 15.03.2022
3226 Clear 19 1017 53 10000 0.89 258 07:35 15.03.2022
3227 Clear 19 1018 44 10000 0.93 345 05:45 15.03.2022
3228 Clear 10 1022 53 10000 5.26 28 00:25 15.03.2022
3229 Clear 10 1023 54 10000 5.18 28 23:27 14.03.2022
3230 Clear 10 1023 54 10000 5.18 28 22:44 14.03.2022
3231 Clear 10 1023 54 10000 5.08 28 21:51 14.03.2022
3232 Clouds 10 1024 54 10000 5.1 29 20:55 14.03.2022
3233 Clouds 10 1025 54 10000 5.08 29 20:24 14.03.2022
3234 Clouds 10 1025 55 10000 5.12 29 19:22 14.03.2022
3235 Clouds 10 1026 56 10000 4.97 27 17:55 14.03.2022
3236 Clouds 10 1026 56 10000 4.97 27 17:33 14.03.2022
3237 Clouds 11 1025 56 10000 4.94 30 16:28 14.03.2022
3238 Clouds 11 1024 59 10000 4.88 30 14:47 14.03.2022
3239 Clear 16 1019 64 10000 0.65 83 13:20 14.03.2022
3240 Clear 20 1017 45 10000 1.32 176 10:59 14.03.2022
3241 Clear 20 1017 43 10000 1.47 177 09:57 14.03.2022
3242 Clear 20 1018 44 10000 1.76 187 09:24 14.03.2022
3243 Clear 20 1018 44 10000 1.76 187 08:57 14.03.2022
3244 Clear 20 1019 45 10000 1.89 209 08:26 14.03.2022
3245 Clouds 20 1019 36 10000 0.61 31 06:19 14.03.2022
3246 Clear 10 1024 32 10000 6.01 28 02:58 14.03.2022
3247 Clouds 9 1024 31 10000 6.33 28 01:36 14.03.2022
3248 Clear 8 1025 36 10000 6.4 29 23:29 13.03.2022
3249 Clear 8 1025 38 10000 6.34 27 21:46 13.03.2022
3250 Clear 8 1026 39 10000 6.43 28 21:21 13.03.2022
3251 Clear 8 1026 39 10000 6.43 28 20:46 13.03.2022
3252 Clear 9 1026 40 10000 6.38 29 20:21 13.03.2022
3253 Clear 9 1026 40 10000 6.38 29 19:41 13.03.2022
3254 Clear 9 1027 42 10000 6.33 29 19:21 13.03.2022
3255 Clear 9 1027 42 10000 6.33 29 18:41 13.03.2022
3256 Clear 9 1026 45 10000 6.04 30 18:22 13.03.2022
3257 Clear 9 1026 45 10000 6.04 30 17:36 13.03.2022
3258 Clear 9 1026 48 10000 6.08 29 16:44 13.03.2022
3259 Clear 10 1025 51 10000 5.78 28 16:21 13.03.2022
3260 Clear 10 1025 51 10000 5.78 28 15:36 13.03.2022
3261 Clear 12 1022 65 10000 4.03 30 14:20 13.03.2022
3262 Clear 15 1020 68 10000 1.57 20 13:27 13.03.2022
3263 Clouds 18 1018 60 10000 0.48 27 12:21 13.03.2022
3264 Clouds 18 1018 60 10000 0.48 27 11:36 13.03.2022
3265 Clouds 19 1017 52 10000 1.64 209 10:49 13.03.2022
3266 Clouds 19 1017 49 10000 1.7 208 10:25 13.03.2022
3267 Clouds 19 1017 49 10000 1.7 208 09:42 13.03.2022
3268 Clouds 19 1018 49 10000 1.59 211 08:49 13.03.2022
3269 Clouds 19 1018 51 10000 0.87 209 08:23 13.03.2022
3270 Clear 19 1019 45 10000 0.25 192 06:40 13.03.2022
3271 Clear 13 1021 45 10000 4.55 29 03:56 13.03.2022
3272 Clear 8 1023 45 10000 5.81 29 01:46 13.03.2022
3273 Clouds 8 1023 47 10000 5.49 27 22:51 12.03.2022
3274 Clouds 8 1024 48 10000 5.69 28 21:29 12.03.2022
3275 Clear 8 1024 48 10000 5.74 29 20:18 12.03.2022
3276 Clear 8 1024 48 10000 5.74 29 19:43 12.03.2022
3277 Clouds 8 1025 49 10000 5.44 27 18:37 12.03.2022
3278 Clouds 8 1025 49 10000 5.38 28 17:48 12.03.2022
3279 Clouds 9 1024 51 10000 5.22 29 16:28 12.03.2022
3280 Clouds 9 1024 51 10000 5.22 29 15:40 12.03.2022
3281 Clouds 9 1024 52 10000 5.17 28 15:18 12.03.2022
3282 Clear 10 1022 54 10000 3.91 31 13:53 12.03.2022
3283 Clouds 17 1017 48 10000 0.62 165 12:27 12.03.2022
3284 Clouds 17 1017 48 10000 0.62 165 11:52 12.03.2022
3285 Clear 17 1017 41 10000 0.69 163 11:21 12.03.2022
3286 Clear 18 1017 41 10000 1.22 192 10:18 12.03.2022
3287 Clear 18 1017 41 10000 1.22 192 09:41 12.03.2022
3288 Clear 17 1019 46 10000 1.03 184 07:52 12.03.2022
3289 Clear 16 1019 39 10000 1.14 18 05:46 12.03.2022
3290 Clear 5 1026 34 10000 7.04 27 00:27 12.03.2022
3291 Clear 5 1026 34 10000 7.04 27 23:38 11.03.2022
3292 Clear 5 1027 36 10000 6.79 27 22:29 11.03.2022
3293 Clear 5 1027 38 10000 6.64 26 21:23 11.03.2022
3294 Clear 5 1027 38 10000 6.64 26 20:42 11.03.2022
3295 Clear 5 1028 40 10000 6.73 28 20:22 11.03.2022
3296 Clear 5 1028 43 10000 6.66 27 19:29 11.03.2022
3297 Clear 5 1028 47 10000 6.34 25 17:53 11.03.2022
3298 Clear 5 1028 49 10000 6.21 26 17:24 11.03.2022
3299 Clear 6 1027 50 10000 5.54 24 15:58 11.03.2022
3300 Clear 6 1025 54 10000 5.12 26 15:29 11.03.2022
3301 Clear 12 1019 57 10000 1.22 51 13:28 11.03.2022
3302 Clear 12 1019 57 10000 1.27 56 12:37 11.03.2022
3303 Clear 15 1018 49 10000 0.28 142 11:57 11.03.2022
3304 Clear 16 1018 42 10000 0.19 148 10:30 11.03.2022
3305 Clear 16 1018 43 10000 0.42 242 09:33 11.03.2022
3306 Clear 15 1020 45 10000 0.79 262 08:28 11.03.2022
3307 Clear 15 1020 45 10000 0.79 262 07:48 11.03.2022
3308 Clear 14 1021 37 10000 1.41 8 06:26 11.03.2022
3309 Clouds 9 1024 48 10000 4.44 26 04:28 11.03.2022
3310 Clear 4 1027 51 10000 5.79 26 01:20 11.03.2022
3311 Clear 5 1026 52 10000 5.62 27 22:32 10.03.2022
3312 Clear 5 1027 52 10000 5.49 26 21:53 10.03.2022
3313 Clear 5 1027 53 10000 5.51 26 21:24 10.03.2022
3314 Clear 5 1027 53 10000 5.51 26 21:24 10.03.2022
3315 Clear 5 1027 53 10000 5.51 26 20:34 10.03.2022
3316 Clouds 5 1027 54 10000 5.52 27 19:20 10.03.2022
3317 Clear 5 1027 55 10000 5.59 27 17:50 10.03.2022
3318 Clouds 6 1027 56 10000 5.42 28 16:52 10.03.2022
3319 Clouds 7 1025 61 10000 4.59 26 15:28 10.03.2022
3320 Clouds 8 1022 66 10000 3.11 32 13:42 10.03.2022
3321 Clouds 12 1019 61 10000 0.56 118 12:41 10.03.2022
3322 Clear 15 1017 40 10000 1.59 199 11:28 10.03.2022
3323 Clear 15 1018 39 10000 1.3 202 09:42 10.03.2022
3324 Clear 15 1019 43 10000 0.93 267 08:23 10.03.2022
3325 Clear 14 1020 37 10000 1.63 17 05:32 10.03.2022
3326 Clear 5 1026 50 10000 5.79 27 02:33 10.03.2022
3327 Clouds 3 1026 49 10000 5.97 28 23:37 09.03.2022
3328 Clouds 4 1027 50 10000 5.91 27 22:28 09.03.2022
3329 Clouds 4 1027 50 10000 5.91 27 21:47 09.03.2022
3330 Clouds 4 1027 51 10000 5.88 27 20:44 09.03.2022
3331 Clouds 5 1026 50 10000 5.34 28 18:58 09.03.2022
3332 Clouds 6 1026 55 10000 5.11 29 17:28 09.03.2022
3333 Clouds 6 1026 55 10000 5.11 29 16:45 09.03.2022
3334 Clouds 6 1025 58 10000 4.98 31 15:37 09.03.2022
3335 Clouds 7 1022 64 10000 3.25 39 14:23 09.03.2022
3336 Clouds 11 1019 63 10000 1.02 139 13:25 09.03.2022
3337 Clouds 14 1018 51 10000 2.17 182 12:20 09.03.2022
3338 Clouds 14 1018 51 10000 2.17 182 11:45 09.03.2022
3339 Clouds 15 1018 39 10000 2.4 187 10:54 09.03.2022
3340 Clouds 15 1019 37 10000 2 198 09:25 09.03.2022
3341 Clouds 15 1019 37 10000 2 198 08:43 09.03.2022
3342 Clouds 13 1022 41 10000 1.71 8 05:36 09.03.2022
3343 Clouds 3 1028 49 10000 5.91 27 00:58 09.03.2022
3344 Clouds 3 1028 49 10000 5.98 28 23:46 08.03.2022
3345 Clouds 3 1029 49 10000 6.06 28 22:45 08.03.2022
3346 Clouds 3 1029 49 10000 6.28 29 21:46 08.03.2022
3347 Clear 3 1030 51 10000 6.36 29 21:19 08.03.2022
3348 Clear 3 1030 53 10000 6.25 27 20:19 08.03.2022
3349 Clear 3 1030 56 10000 6.27 29 18:55 08.03.2022
3350 Clouds 4 1030 57 10000 6.14 29 17:58 08.03.2022
3351 Clouds 4 1029 58 10000 5.76 27 16:40 08.03.2022
3352 Clear 5 1026 61 10000 5.16 29 14:36 08.03.2022
3353 Clouds 11 1020 62 10000 0.53 99 13:23 08.03.2022
3354 Clear 14 1019 55 10000 1.03 190 12:20 08.03.2022
3355 Clear 14 1019 55 10000 1.03 190 11:41 08.03.2022
3356 Clear 14 1020 47 10000 1.16 197 10:28 08.03.2022
3357 Clear 14 1021 47 10000 1.2 225 08:54 08.03.2022
3358 Clear 12 1024 44 10000 2.64 22 05:49 08.03.2022
3359 Clear 2 1032 57 10000 6.47 28 01:49 08.03.2022
3360 Clear 2 1031 60 10000 6.14 27 22:41 07.03.2022
3361 Clear 3 1031 61 10000 5.94 26 21:36 07.03.2022
3362 Clear 3 1031 62 10000 5.91 25 20:55 07.03.2022
3363 Clear 3 1031 62 10000 5.54 23 20:29 07.03.2022
3364 Clear 3 1031 62 10000 5.54 23 19:48 07.03.2022
3365 Clouds 3 1031 63 10000 5.4 24 18:50 07.03.2022
3366 Clouds 4 1031 65 10000 5.06 25 18:28 07.03.2022
3367 Clouds 4 1030 67 10000 4.61 24 16:56 07.03.2022
3368 Clouds 4 1030 67 10000 4.61 24 16:37 07.03.2022
3369 Clouds 6 1027 74 10000 3.76 46 14:49 07.03.2022
3370 Clouds 10 1022 71 6255 0.43 261 12:34 07.03.2022
3371 Clouds 12 1020 63 7618 2.24 210 11:21 07.03.2022
3372 Clouds 12 1020 60 10000 2.49 218 10:26 07.03.2022
3373 Clouds 12 1023 59 7786 2.81 206 08:19 07.03.2022
3374 Clouds 7 1024 86 5090 2 34 01:23 07.03.2022
3375 Clouds 7 1023 80 8895 2.25 24 00:20 07.03.2022
3376 Clouds 7 1023 78 10000 2.14 26 23:22 06.03.2022
3377 Clouds 7 1023 79 9660 2.42 38 22:26 06.03.2022
3378 Clouds 8 1024 79 10000 2.71 22 21:24 06.03.2022
3379 Clouds 8 1024 82 10000 2.59 27 20:29 06.03.2022
3380 Rain 8 1024 82 10000 2.59 27 19:39 06.03.2022
3381 Clouds 8 1024 79 5958 2.13 23 18:49 06.03.2022
3382 Clouds 8 1023 71 10000 2.53 24 17:46 06.03.2022
3383 Clouds 9 1023 70 10000 2.7 22 17:19 06.03.2022
3384 Clouds 9 1023 72 10000 2.71 33 16:28 06.03.2022
3385 Clouds 8 1022 73 9266 1.81 41 15:25 06.03.2022
3386 Clouds 8 1022 73 9266 1.81 41 14:42 06.03.2022
3387 Clouds 9 1021 73 10000 1.21 40 13:49 06.03.2022
3388 Clouds 11 1019 73 10000 0.9 76 12:40 06.03.2022
3389 Clouds 12 1019 69 10000 0.28 85 11:45 06.03.2022
3390 Clouds 13 1019 67 9046 0.83 251 10:39 06.03.2022
3391 Clouds 12 1020 71 10000 0.49 239 09:18 06.03.2022
3392 Clouds 13 1020 66 10000 0.27 42 08:28 06.03.2022
3393 Clouds 13 1020 67 10000 0.37 231 07:25 06.03.2022
3394 Clouds 9 1020 61 10000 3.88 29 02:22 06.03.2022
3395 Clouds 9 1018 60 10000 4.14 32 00:36 06.03.2022
3396 Clouds 10 1018 59 10000 4.09 31 00:18 06.03.2022
3397 Clouds 9 1019 58 10000 4.27 26 23:19 05.03.2022
3398 Clouds 9 1019 58 10000 4.27 26 22:34 05.03.2022
3399 Clouds 9 1021 57 10000 5.09 27 21:29 05.03.2022
3400 Clouds 9 1021 57 10000 5.09 27 20:32 05.03.2022
3401 Clouds 7 1024 56 10000 5.55 27 19:19 05.03.2022
3402 Clouds 7 1023 57 10000 5.53 27 18:37 05.03.2022
3403 Clouds 7 1024 57 10000 5.53 28 17:34 05.03.2022
3404 Clouds 7 1024 57 10000 5.53 28 17:34 05.03.2022
3405 Clouds 7 1024 58 10000 5.05 25 16:19 05.03.2022
3406 Clouds 6 1023 60 10000 4.87 26 15:20 05.03.2022
3407 Clouds 6 1023 60 10000 4.87 26 14:36 05.03.2022
3408 Clouds 7 1022 60 10000 4.03 25 13:42 05.03.2022
3409 Clouds 10 1019 62 10000 1.58 22 12:40 05.03.2022
3410 Clouds 13 1019 57 10000 0.5 142 11:20 05.03.2022
3411 Clouds 13 1019 57 10000 0.5 142 10:52 05.03.2022
3412 Clouds 13 1019 57 10000 1.19 183 09:33 05.03.2022
3413 Clouds 14 1019 57 10000 1.76 190 08:31 05.03.2022
3414 Clear 14 1020 54 10000 0.61 153 07:22 05.03.2022
3415 Clear 13 1020 46 10000 1.24 21 05:39 05.03.2022
3416 Clear 1 1028 42 10000 6.98 26 00:49 05.03.2022
3417 Clear 0 1029 46 10000 7.05 26 22:58 04.03.2022
3418 Clear 0 1029 46 10000 7.05 26 22:38 04.03.2022
3419 Clear 0 1030 47 10000 6.87 26 21:43 04.03.2022
3420 Clear 0 1031 50 10000 6.72 25 20:45 04.03.2022
3421 Clear 0 1031 52 10000 7.02 27 19:38 04.03.2022
3422 Clear 0 1031 55 10000 6.79 26 18:58 04.03.2022
3423 Clear 0 1031 56 10000 6.73 27 18:36 04.03.2022
3424 Clear 1 1031 61 10000 6.3 24 17:29 04.03.2022
3425 Clear 1 1030 66 10000 5.84 27 16:26 04.03.2022
3426 Clouds 2 1028 72 10000 5.17 29 15:27 04.03.2022
3427 Clouds 3 1025 77 10000 3.63 33 13:36 04.03.2022
3428 Clouds 8 1020 72 10000 0.14 195 12:48 04.03.2022
3429 Clouds 10 1019 61 10000 1.9 200 11:37 04.03.2022
3430 Clouds 10 1019 54 10000 2.39 192 10:30 04.03.2022
3431 Clouds 11 1020 55 10000 2.33 194 09:28 04.03.2022
3432 Clouds 10 1021 53 10000 2.22 206 08:20 04.03.2022
3433 Clouds 10 1022 49 10000 1.26 220 06:55 04.03.2022
3434 Clouds 0 1031 66 10000 5.78 27 02:52 04.03.2022
3435 Clouds 1 1029 75 10000 4.82 28 00:19 04.03.2022
3436 Rain 2 1028 79 10000 3.1 42 22:19 03.03.2022
3437 Rain 2 1028 79 10000 3.1 42 21:37 03.03.2022
3438 Clouds 4 1026 83 9615 2.42 46 20:56 03.03.2022
3439 Rain 4 1027 87 7450 2.66 49 19:48 03.03.2022
3440 Rain 4 1026 86 7453 2.83 39 18:49 03.03.2022
3441 Clouds 3 1028 78 10000 3.24 41 17:46 03.03.2022
3442 Clouds 2 1029 76 10000 3.81 36 17:26 03.03.2022
3443 Clouds 2 1027 79 10000 3.74 35 15:47 03.03.2022
3444 Rain 2 1026 84 10000 3.9 30 14:59 03.03.2022
3445 Rain 2 1026 84 10000 3.9 30 14:33 03.03.2022
3446 Rain 6 1021 92 4024 0.5 194 13:18 03.03.2022
3447 Rain 6 1021 92 4024 0.5 194 13:18 03.03.2022
3448 Clouds 7 1020 97 410 3.37 192 11:45 03.03.2022
3449 Rain 8 1019 98 390 3.72 201 10:40 03.03.2022
3450 Clouds 9 1020 79 3694 2.9 208 08:52 03.03.2022
3451 Clouds 9 1022 71 8440 1.46 227 07:25 03.03.2022
3452 Clouds 9 1022 75 5581 1.6 220 06:34 03.03.2022
3453 Clouds 4 1024 78 10000 2.71 36 01:52 03.03.2022
3454 Clouds 4 1024 68 10000 3.41 25 23:29 02.03.2022
3455 Clouds 4 1024 68 10000 3.41 25 22:52 02.03.2022
3456 Clouds 4 1025 67 10000 3.81 23 21:30 02.03.2022
3457 Clouds 3 1027 66 10000 3.88 26 20:45 02.03.2022
3458 Clouds 3 1027 65 10000 4.01 30 20:24 02.03.2022
3459 Clouds 3 1027 65 10000 4.01 30 19:35 02.03.2022
3460 Clouds 1 1030 61 10000 5.09 28 18:44 02.03.2022
3461 Clouds 1 1031 62 10000 5.34 27 17:59 02.03.2022
3462 Clouds 1 1030 66 10000 5.17 27 17:28 02.03.2022
3463 Clouds 1 1030 66 10000 5.17 27 16:51 02.03.2022
3464 Clouds 2 1028 73 10000 4.65 29 14:45 02.03.2022
3465 Clouds 8 1020 73 10000 1.04 149 13:25 02.03.2022
3466 Clouds 8 1020 73 10000 1.04 149 12:44 02.03.2022
3467 Clouds 10 1019 63 10000 2.09 190 11:51 02.03.2022
3468 Clouds 11 1019 54 10000 2.31 189 11:24 02.03.2022
3469 Clouds 11 1019 54 10000 2.31 189 11:24 02.03.2022
3470 Clouds 11 1020 53 10000 2.43 193 09:47 02.03.2022
3471 Clouds 11 1020 52 10000 2.65 199 09:23 02.03.2022
3472 Clouds 11 1021 49 10000 2.17 211 07:51 02.03.2022
3473 Clouds 10 1022 45 10000 0.27 316 06:54 02.03.2022
3474 Clear 0 1032 62 10000 5.79 26 02:54 02.03.2022
3475 Clouds 0 1030 67 10000 5.57 29 00:33 02.03.2022
3476 Clouds 1 1029 70 10000 5.49 28 22:50 01.03.2022
3477 Clouds 1 1029 70 10000 5.49 28 22:31 01.03.2022
3478 Clouds 1 1029 73 10000 4.93 27 21:25 01.03.2022
3479 Clouds 1 1029 73 10000 4.93 27 20:32 01.03.2022
3480 Clouds 1 1030 73 10000 4.6 27 19:50 01.03.2022
3481 Clouds 1 1030 73 10000 4.63 28 18:51 01.03.2022
3482 Clouds 1 1030 73 10000 4.65 30 18:21 01.03.2022
3483 Clouds 1 1030 73 10000 4.65 30 17:37 01.03.2022
3484 Clouds 2 1029 75 10000 4.47 29 16:35 01.03.2022
3485 Clouds 2 1028 79 10000 4.23 27 15:47 01.03.2022
3486 Clouds 3 1027 83 10000 3.92 29 14:41 01.03.2022
3487 Clouds 3 1025 85 10000 2.46 34 14:23 01.03.2022
3488 Clouds 8 1021 83 10000 1.54 192 13:26 01.03.2022
3489 Clouds 7 1021 83 9011 1.89 177 12:35 01.03.2022
3490 Clouds 9 1020 80 6467 2.5 193 10:57 01.03.2022
3491 Clouds 9 1021 81 5872 2.48 191 09:43 01.03.2022
3492 Clouds 8 1023 84 2393 2.19 182 08:20 01.03.2022
3493 Clouds 7 1024 80 1771 1.85 230 06:47 01.03.2022
3494 Clouds 3 1027 64 10000 4.74 31 02:58 01.03.2022
3495 Clouds 2 1026 66 10000 5.25 26 00:48 01.03.2022
3496 Clouds 3 1025 69 10000 4.85 23 23:39 28.02.2022
3497 Clouds 4 1024 71 10000 4.12 21 22:38 28.02.2022
3498 Clouds 4 1024 70 10000 3.74 23 21:47 28.02.2022
3499 Clouds 5 1023 67 10000 3.72 26 20:46 28.02.2022
3500 Clouds 5 1024 65 10000 3.28 29 19:51 28.02.2022
3501 Clouds 6 1023 64 10000 3.19 26 18:50 28.02.2022
3502 Clouds 6 1023 67 10000 3.28 26 17:43 28.02.2022
3503 Clouds 5 1024 68 10000 3.22 23 17:21 28.02.2022
3504 Clouds 6 1023 69 10000 3.45 24 16:25 28.02.2022
3505 Clouds 6 1023 71 10000 3.54 27 14:33 28.02.2022
3506 Clouds 6 1022 73 10000 2.7 30 13:56 28.02.2022
3507 Clouds 8 1020 73 10000 0.39 208 13:24 28.02.2022
3508 Clouds 10 1018 64 10000 1.45 198 12:25 28.02.2022
3509 Clouds 11 1018 55 10000 1.79 195 11:20 28.02.2022
3510 Clouds 11 1019 55 10000 2.36 200 10:23 28.02.2022
3511 Clouds 11 1019 55 10000 2.36 200 09:51 28.02.2022
3512 Clouds 11 1019 53 10000 2.67 201 09:23 28.02.2022
3513 Clouds 11 1019 51 10000 2.21 205 08:21 28.02.2022
3514 Clouds 11 1020 43 10000 0.6 217 06:31 28.02.2022
3515 Clear 8 1022 52 10000 3.44 23 04:31 28.02.2022
3516 Clear -1 1031 44 10000 6.67 27 01:24 28.02.2022
3517 Clear -1 1031 47 10000 6.43 26 22:57 27.02.2022
3518 Clear -1 1031 47 10000 6.43 26 22:32 27.02.2022
3519 Clear -1 1032 49 10000 6.47 27 21:42 27.02.2022
3520 Clear -1 1032 51 10000 6.43 27 20:51 27.02.2022
3521 Clear -2 1032 53 10000 6.27 27 20:22 27.02.2022
3522 Clear -2 1032 53 10000 6.27 27 19:50 27.02.2022
3523 Clear -1 1033 55 10000 6.23 26 19:24 27.02.2022
3524 Clear -2 1033 55 10000 6.2 26 18:37 27.02.2022
3525 Clear -1 1033 57 10000 6.16 26 17:53 27.02.2022
3526 Clear -1 1033 58 10000 6.11 25 16:31 27.02.2022
3527 Clear -1 1033 60 10000 5.98 26 15:39 27.02.2022
3528 Clouds 5 1022 76 10000 0.78 95 12:43 27.02.2022
3529 Clouds 8 1020 66 10000 1.39 182 12:25 27.02.2022
3530 Clouds 8 1020 55 10000 1.69 190 10:37 27.02.2022
3531 Clouds 8 1020 50 10000 1.97 200 09:58 27.02.2022
3532 Clear 8 1021 47 10000 1.82 205 09:24 27.02.2022
3533 Clear 8 1021 47 10000 1.82 205 08:54 27.02.2022
3534 Clouds 7 1022 39 10000 0.25 295 06:42 27.02.2022
3535 Clear 0 1032 68 10000 4.99 24 04:26 27.02.2022
3536 Snow 0 1027 93 3333 2.36 2 00:34 27.02.2022
3537 Snow 2 1025 95 1412 1.1 303 22:50 26.02.2022
3538 Snow 2 1026 95 2036 1.07 281 21:34 26.02.2022
3539 Snow 2 1026 95 1155 0.94 246 20:48 26.02.2022
3540 Clouds 2 1026 95 2214 0.99 195 19:59 26.02.2022
3541 Clouds 2 1026 95 2214 0.99 195 19:34 26.02.2022
3542 Rain 2 1027 97 149 0.36 184 18:46 26.02.2022
3543 Clouds 2 1027 96 463 0.91 155 17:40 26.02.2022
3544 Snow 2 1027 94 1626 1.54 88 16:48 26.02.2022
3545 Snow 2 1027 88 7285 1.77 63 15:48 26.02.2022
3546 Snow 1 1027 90 8849 2.24 50 15:20 26.02.2022
3547 Snow 1 1027 90 8849 2.24 50 14:52 26.02.2022
3548 Snow 0 1026 97 6872 1.98 71 14:25 26.02.2022
3549 Rain 4 1021 95 2668 2.33 172 13:19 26.02.2022
3550 Rain 5 1019 93 2843 2.81 170 12:20 26.02.2022
3551 Rain 6 1019 91 1469 3.38 183 11:28 26.02.2022
3552 Clouds 6 1019 91 1469 3.38 183 10:39 26.02.2022
3553 Rain 5 1020 95 585 3.77 192 08:48 26.02.2022
3554 Rain 5 1021 96 202 3.52 204 06:51 26.02.2022
3555 Clouds 3 1023 92 2300 0.72 38 00:50 26.02.2022
3556 Clouds 2 1023 93 1279 1.08 58 22:47 25.02.2022
3557 Clouds 2 1024 91 1487 1.97 65 21:43 25.02.2022
3558 Snow 2 1026 90 1533 2.41 44 21:23 25.02.2022
3559 Snow 2 1026 90 1533 2.41 44 20:32 25.02.2022
3560 Clouds 2 1026 79 10000 2.55 28 18:59 25.02.2022
3561 Clouds 1 1028 72 10000 4.55 25 17:27 25.02.2022
3562 Clouds 1 1028 72 10000 4.55 25 16:32 25.02.2022
3563 Clouds -1 1030 75 10000 4.63 30 15:47 25.02.2022
3564 Clouds 0 1029 80 10000 4.51 31 15:21 25.02.2022
3565 Clouds 0 1029 80 10000 4.51 31 14:42 25.02.2022
3566 Snow 1 1026 85 10000 3.25 35 13:51 25.02.2022
3567 Clouds 4 1021 83 5966 1.04 201 13:18 25.02.2022
3568 Clouds 7 1019 68 6958 3.08 195 11:28 25.02.2022
3569 Clouds 7 1019 68 6958 3.08 195 10:43 25.02.2022
3570 Rain 7 1019 67 7290 3.01 192 10:22 25.02.2022
3571 Clouds 7 1019 67 7290 3.01 192 09:30 25.02.2022
3572 Clouds 7 1022 68 9186 2.72 198 07:44 25.02.2022
3573 Clouds 6 1023 77 10000 1.52 204 05:58 25.02.2022
3574 Clouds 6 1023 77 10000 1.52 204 05:31 25.02.2022
3575 Snow 1 1025 86 4240 2.99 19 00:27 25.02.2022
3576 Clouds 2 1024 91 861 2.21 10 22:20 24.02.2022
3577 Clouds 2 1024 91 861 2.21 10 21:42 24.02.2022
3578 Clouds 3 1024 93 661 1.98 2 21:20 24.02.2022
3579 Clouds 3 1024 93 661 1.98 2 20:30 24.02.2022
3580 Clouds 3 1024 90 2522 1.72 343 19:19 24.02.2022
3581 Clouds 3 1024 90 2165 1.59 6 18:20 24.02.2022
3582 Clouds 3 1024 90 2165 1.59 6 17:46 24.02.2022
3583 Clouds 3 1023 92 3882 1.84 23 16:57 24.02.2022
3584 Clouds 2 1024 97 285 1.21 342 16:25 24.02.2022
3585 Clouds 2 1024 97 285 1.21 342 15:31 24.02.2022
3586 Clouds 3 1022 96 6971 1.04 1 14:43 24.02.2022
3587 Clouds 3 1021 98 1021 0.59 243 13:51 24.02.2022
3588 Clouds 3 1021 98 1021 0.59 243 13:30 24.02.2022
3589 Clouds 7 1018 86 970 2.69 200 10:50 24.02.2022
3590 Rain 7 1019 83 1105 2.7 213 09:42 24.02.2022
3591 Rain 7 1020 86 1018 2.95 220 08:43 24.02.2022
3592 Clouds 6 1022 82 2343 1.29 247 06:28 24.02.2022
3593 Rain 6 1022 82 2343 1.29 247 05:37 24.02.2022
3594 Clouds 4 1023 92 2381 1.83 4 00:30 24.02.2022
3595 Clouds 3 1024 85 7116 2.68 19 21:56 23.02.2022
3596 Clouds 2 1026 82 9100 3.46 23 20:44 23.02.2022
3597 Clouds 2 1027 82 10000 3.38 26 20:23 23.02.2022
3598 Clouds 2 1027 82 10000 3.38 26 19:34 23.02.2022
3599 Clouds 3 1026 90 4231 2.11 49 18:22 23.02.2022
3600 Clouds 5 1022 95 3833 0.98 169 16:27 23.02.2022
3601 Rain 6 1021 98 211 1.07 260 13:45 23.02.2022
3602 Rain 6 1020 96 313 0.38 226 12:31 23.02.2022
3603 Rain 9 1018 75 7401 1.44 205 10:58 23.02.2022
3604 Clouds 9 1019 75 10000 2.29 214 09:49 23.02.2022
3605 Clouds 9 1019 79 10000 2.13 209 08:54 23.02.2022
3606 Rain 9 1021 80 8383 1.35 198 07:53 23.02.2022
3607 Clouds 5 1021 94 2096 0.2 223 02:58 23.02.2022
3608 Clouds 6 1018 98 547 2.39 243 00:18 23.02.2022
3609 Clouds 6 1018 98 547 2.39 243 23:33 22.02.2022
3610 Rain 7 1016 98 75 4.38 193 22:28 22.02.2022
3611 Rain 7 1016 98 75 4.38 193 22:28 22.02.2022
3612 Rain 7 1016 98 75 4.38 193 21:45 22.02.2022
3613 Rain 7 1015 98 231 2.94 173 21:21 22.02.2022
3614 Rain 7 1015 98 231 2.94 173 20:43 22.02.2022
3615 Clouds 6 1017 98 425 1.55 160 20:25 22.02.2022
3616 Rain 6 1017 98 425 1.55 160 19:34 22.02.2022
3617 Clouds 6 1017 97 287 1.39 163 18:50 22.02.2022
3618 Clouds 7 1018 94 2482 1.97 194 17:36 22.02.2022
3619 Clouds 7 1018 93 3207 1.65 205 16:58 22.02.2022
3620 Clouds 7 1018 93 2212 1.28 236 16:26 22.02.2022
3621 Clouds 7 1018 93 2212 1.28 236 15:36 22.02.2022
3622 Clouds 7 1017 92 1197 1.52 231 14:37 22.02.2022
3623 Clouds 10 1013 82 4141 3.84 208 11:41 22.02.2022
3624 Clouds 10 1015 85 4787 2.14 183 10:22 22.02.2022
3625 Clouds 9 1017 76 4591 1.81 194 07:41 22.02.2022
3626 Clouds 9 1018 72 4384 1.42 181 07:23 22.02.2022
3627 Clouds 6 1018 69 10000 2.74 28 02:51 22.02.2022
3628 Clouds 5 1017 65 5658 3.5 14 00:44 22.02.2022
3629 Clouds 6 1016 54 6943 3.51 28 22:38 21.02.2022
3630 Clouds 4 1019 51 9527 3.93 30 21:24 21.02.2022
3631 Clouds 4 1019 50 10000 4.07 34 20:19 21.02.2022
3632 Clouds 2 1022 47 10000 4.9 29 18:40 21.02.2022
3633 Clouds 2 1022 50 10000 5.11 27 16:40 21.02.2022
3634 Clouds 3 1019 54 10000 4.45 32 14:24 21.02.2022
3635 Clouds 3 1019 54 10000 4.45 32 13:56 21.02.2022
3636 Clouds 6 1013 54 10000 1.41 45 12:58 21.02.2022
3637 Clear 9 1011 46 10000 0.73 171 12:22 21.02.2022
3638 Clear 10 1010 34 10000 0.96 211 10:35 21.02.2022
3639 Clear 10 1010 30 10000 0.55 320 08:31 21.02.2022
3640 Clear -4 1024 44 10000 7.58 27 00:56 21.02.2022
3641 Clear -4 1024 45 10000 7.19 27 22:45 20.02.2022
3642 Clear -4 1024 47 10000 7.15 27 22:18 20.02.2022
3643 Clear -4 1024 47 10000 7.15 27 21:41 20.02.2022
3644 Clear -4 1024 48 10000 6.95 27 20:51 20.02.2022
3645 Clear -3 1025 48 10000 6.69 27 20:21 20.02.2022
3646 Clear -3 1025 48 10000 6.56 28 19:29 20.02.2022
3647 Clear -3 1025 48 10000 6.56 28 18:49 20.02.2022
3648 Clear -3 1025 48 10000 6.57 28 18:30 20.02.2022
3649 Clear -3 1025 49 10000 6.58 26 17:30 20.02.2022
3650 Clouds -3 1024 53 10000 6.55 24 15:30 20.02.2022
3651 Clouds -2 1022 55 10000 5.98 25 14:33 20.02.2022
3652 Clouds 3 1011 68 10000 0.83 65 13:22 20.02.2022
3653 Clouds 3 1011 68 10000 0.83 65 13:22 20.02.2022
3654 Clouds 3 1011 68 10000 0.83 65 13:22 20.02.2022
3655 Clouds 7 1007 56 10000 1.44 202 11:56 20.02.2022
3656 Clouds 7 1007 56 10000 1.44 202 11:55 20.02.2022
3657 Clouds 8 1007 34 10000 1.16 209 10:21 20.02.2022
3658 Clouds 8 1007 34 10000 1.16 209 09:35 20.02.2022
3659 Clear 5 1012 44 10000 2.05 21 06:29 20.02.2022
3660 Clouds -3 1021 63 10000 4.88 29 00:32 20.02.2022
3661 Clouds -3 1021 63 10000 4.88 29 00:32 20.02.2022
3662 Clouds -2 1021 65 10000 4.44 26 23:33 19.02.2022
3663 Clouds 0 1020 73 10000 3.87 27 22:24 19.02.2022
3664 Clouds 0 1020 73 10000 3.87 27 21:47 19.02.2022
3665 Clouds 1 1021 75 10000 3.61 30 20:28 19.02.2022
3666 Clouds 1 1021 75 10000 3.61 30 19:35 19.02.2022
3667 Clouds 1 1021 75 10000 3.72 34 18:41 19.02.2022
3668 Snow 2 1021 75 10000 3.39 35 17:57 19.02.2022
3669 Clouds 2 1021 76 9357 3.22 38 17:21 19.02.2022
3670 Clouds 2 1022 77 9343 3.17 41 15:59 19.02.2022
3671 Clouds 2 1021 74 10000 2.8 51 14:55 19.02.2022
3672 Clouds 2 1020 74 10000 2.04 63 13:58 19.02.2022
3673 Clouds 7 1014 58 10000 2.51 209 11:53 19.02.2022
3674 Clouds 8 1015 44 10000 2.31 198 10:54 19.02.2022
3675 Clear 8 1016 30 10000 1.27 214 08:59 19.02.2022
3676 Clear 7 1018 36 10000 1.33 1 06:48 19.02.2022
3677 Clouds -3 1029 56 10000 5.67 25 00:42 19.02.2022
3678 Clouds -2 1027 60 10000 5.29 22 22:28 18.02.2022
3679 Clouds -2 1028 60 10000 5.06 23 21:22 18.02.2022
3680 Clouds -2 1028 61 10000 4.75 23 20:24 18.02.2022
3681 Clouds -2 1028 59 10000 4.82 27 19:25 18.02.2022
3682 Clouds -2 1028 58 10000 4.89 27 18:37 18.02.2022
3683 Clouds -2 1028 60 10000 4.89 28 18:18 18.02.2022
3684 Clouds -1 1027 63 10000 4.64 28 17:18 18.02.2022
3685 Clouds -1 1025 68 10000 4.34 31 14:30 18.02.2022
3686 Clouds 0 1023 70 10000 2.85 38 13:46 18.02.2022
3687 Clouds 3 1017 64 10000 1.44 165 12:50 18.02.2022
3688 Clouds 7 1014 54 10000 3.05 196 11:57 18.02.2022
3689 Clouds 8 1014 44 10000 3.66 198 10:42 18.02.2022
3690 Clouds 8 1017 30 10000 1.39 248 07:22 18.02.2022
3691 Clouds 8 1017 30 10000 1.39 248 06:35 18.02.2022
3692 Clouds 7 1017 37 10000 1.49 356 05:34 18.02.2022
3693 Clear -3 1029 45 10000 6.15 27 22:20 17.02.2022
3694 Clear -3 1029 45 10000 6.15 27 21:38 17.02.2022
3695 Clear -3 1029 47 10000 6.13 26 20:43 17.02.2022
3696 Clear -3 1029 48 10000 5.99 27 19:55 17.02.2022
3697 Clear -3 1030 50 10000 5.79 27 19:26 17.02.2022
3698 Clear -3 1029 52 10000 5.69 27 18:29 17.02.2022
3699 Clear -3 1029 52 10000 5.69 27 17:42 17.02.2022
3700 Clear -2 1028 59 10000 5.29 28 15:58 17.02.2022
3701 Clear -2 1027 61 10000 4.91 31 14:30 17.02.2022
3702 Clear -2 1027 61 10000 4.91 31 14:30 17.02.2022
3703 Clear -1 1024 63 10000 3.57 36 13:47 17.02.2022
3704 Clouds 7 1013 49 10000 2.83 192 11:52 17.02.2022
3705 Clear 8 1013 34 10000 2.98 197 10:20 17.02.2022
3706 Clear 8 1015 32 10000 2.19 217 07:56 17.02.2022
3707 Clear -4 1027 48 10000 5.85 26 23:50 16.02.2022
3708 Clear -4 1027 49 10000 5.78 27 22:36 16.02.2022
3709 Clear -3 1027 56 10000 5.59 27 20:22 16.02.2022
3710 Clouds -3 1027 60 10000 5.44 26 19:23 16.02.2022
3711 Clouds -3 1027 58 10000 5.46 26 18:34 16.02.2022
3712 Clouds -2 1026 68 10000 5.16 28 17:24 16.02.2022
3713 Clouds -1 1024 76 10000 4.02 36 15:23 16.02.2022
3714 Clouds 0 1020 76 10000 2.16 57 13:47 16.02.2022
3715 Clouds 7 1013 58 10000 3.27 197 12:27 16.02.2022
3716 Clouds 7 1013 58 10000 3.27 197 11:46 16.02.2022
3717 Clouds 8 1013 52 10000 3.87 195 10:35 16.02.2022
3718 Clouds 8 1013 47 10000 3.74 190 09:39 16.02.2022
3719 Clear 7 1016 42 10000 2.06 218 06:44 16.02.2022
3720 Clear -3 1027 56 10000 5.71 27 02:48 16.02.2022
3721 Clear -2 1026 57 10000 5.55 26 22:34 15.02.2022
3722 Clear -2 1026 59 10000 5.49 26 21:51 15.02.2022
3723 Clear -2 1026 59 10000 5.49 26 21:31 15.02.2022
3724 Clear -2 1027 60 10000 5.41 26 20:58 15.02.2022
3725 Clear -2 1027 60 10000 5.41 26 20:38 15.02.2022
3726 Clear -1 1027 63 10000 5.19 26 19:48 15.02.2022
3727 Clouds -1 1027 70 10000 4.98 26 18:28 15.02.2022
3728 Clouds -1 1027 70 10000 4.98 26 17:57 15.02.2022
3729 Clouds -1 1027 70 10000 4.98 26 17:38 15.02.2022
3730 Clouds 0 1025 79 10000 4.17 35 16:20 15.02.2022
3731 Clouds 0 1024 86 10000 3.26 40 14:35 15.02.2022
3732 Clouds 6 1016 83 6375 1.94 186 13:26 15.02.2022
3733 Clouds 7 1015 76 6116 2.87 196 11:43 15.02.2022
3734 Clouds 7 1015 72 5657 3.32 196 10:39 15.02.2022
3735 Clouds 9 1015 60 8007 3.21 194 09:23 15.02.2022
3736 Clouds 8 1017 53 10000 1.59 222 06:47 15.02.2022
3737 Clouds 1 1022 68 10000 4.32 26 00:26 15.02.2022
3738 Clouds 1 1023 68 10000 4.25 26 21:59 14.02.2022
3739 Clouds 1 1023 67 10000 4.13 28 21:19 14.02.2022
3740 Clouds 1 1023 66 10000 4.17 27 20:19 14.02.2022
3741 Clouds 1 1023 66 10000 4.17 27 19:30 14.02.2022
3742 Clouds 1 1024 62 10000 4.2 31 18:24 14.02.2022
3743 Clouds 1 1024 62 10000 4.2 31 17:43 14.02.2022
3744 Clouds 1 1023 64 10000 4.26 31 17:23 14.02.2022
3745 Clouds 1 1023 68 10000 4.21 30 15:58 14.02.2022
3746 Clouds 2 1021 78 10000 3.3 34 13:37 14.02.2022
3747 Clouds 5 1016 77 10000 0.87 138 13:18 14.02.2022
3748 Clouds 5 1016 76 10000 0.87 136 12:32 14.02.2022
3749 Clouds 8 1014 66 10000 2.32 192 11:43 14.02.2022
3750 Clouds 10 1013 53 10000 3.08 195 10:25 14.02.2022
3751 Clouds 10 1014 52 10000 3.25 195 08:34 14.02.2022
3752 Clouds 10 1015 45 10000 1.87 209 07:26 14.02.2022
3753 Clouds 1 1023 51 10000 5.38 27 23:37 13.02.2022
3754 Clouds 1 1023 52 10000 5.47 26 22:41 13.02.2022
3755 Clouds 1 1024 52 10000 5.44 26 22:23 13.02.2022
3756 Clouds 0 1025 51 10000 5.55 28 21:28 13.02.2022
3757 Clouds 0 1025 51 10000 5.55 28 20:32 13.02.2022
3758 Clouds 1 1025 52 10000 5.38 28 19:24 13.02.2022
3759 Clouds 1 1025 52 10000 5.48 28 18:42 13.02.2022
3760 Clouds 1 1025 54 10000 5.49 27 17:54 13.02.2022
3761 Clouds 1 1025 63 10000 5.18 28 15:54 13.02.2022
3762 Clouds 1 1025 63 10000 5.18 28 15:54 13.02.2022
3763 Clouds 1 1023 66 10000 4.9 29 14:58 13.02.2022
3764 Clouds 2 1022 69 10000 4.32 29 13:59 13.02.2022
3765 Clouds 5 1016 68 10000 1.18 59 12:50 13.02.2022
3766 Clouds 10 1014 51 10000 2.54 193 11:26 13.02.2022
3767 Clouds 10 1014 51 10000 2.54 193 10:30 13.02.2022
3768 Clouds 10 1014 45 10000 2.62 194 09:41 13.02.2022
3769 Clouds 10 1015 38 10000 1.22 226 07:21 13.02.2022
3770 Clear -1 1024 42 10000 6.22 28 00:35 13.02.2022
3771 Clear -1 1025 42 10000 6.14 27 23:39 12.02.2022
3772 Clear -1 1025 42 10000 5.95 26 22:33 12.02.2022
3773 Clear -1 1026 44 10000 5.99 27 21:20 12.02.2022
3774 Clear -1 1026 44 10000 5.99 27 20:32 12.02.2022
3775 Clear 0 1026 47 10000 6.03 27 19:27 12.02.2022
3776 Clear 0 1026 47 10000 6.03 27 18:53 12.02.2022
3777 Clear 0 1027 47 10000 5.97 28 18:35 12.02.2022
3778 Clear 1 1026 56 10000 5.77 28 16:58 12.02.2022
3779 Clear 1 1025 62 10000 5.53 28 16:25 12.02.2022
3780 Clear 1 1025 62 10000 5.53 28 15:51 12.02.2022
3781 Clear 2 1024 65 10000 5.15 26 14:31 12.02.2022
3782 Clear 5 1018 68 10000 1.48 48 13:19 12.02.2022
3783 Clear 11 1014 50 10000 1.9 197 10:42 12.02.2022
3784 Clear 11 1015 47 10000 2.13 195 09:49 12.02.2022
3785 Clear 11 1015 47 10000 2.39 200 09:26 12.02.2022
3786 Clear 11 1015 47 10000 2.39 200 08:44 12.02.2022
3787 Clear 10 1017 47 10000 1.25 14 05:40 12.02.2022
3788 Clear 7 1019 51 10000 3.3 25 04:30 12.02.2022
3789 Clear 0 1026 40 10000 6.18 27 02:18 12.02.2022
3790 Clear 0 1026 40 10000 6.2 27 22:37 11.02.2022
3791 Clear 0 1026 40 10000 6.26 27 22:18 11.02.2022
3792 Clear -1 1027 40 10000 6.31 27 20:43 11.02.2022
3793 Clear -1 1028 40 10000 6.42 27 19:48 11.02.2022
3794 Clear -1 1029 40 10000 6.44 27 19:27 11.02.2022
3795 Clear -1 1030 41 10000 6.56 27 18:26 11.02.2022
3796 Clear -2 1030 42 10000 6.67 28 17:26 11.02.2022
3797 Clear -2 1030 44 10000 6.66 24 16:26 11.02.2022
3798 Clear -2 1029 49 10000 6.5 24 14:57 11.02.2022
3799 Clear -2 1029 49 10000 6.5 24 14:36 11.02.2022
3800 Clear -1 1027 53 10000 5.64 25 14:18 11.02.2022
3801 Clear -1 1027 53 10000 5.64 25 13:39 11.02.2022
3802 Clear 7 1016 60 10000 0.46 4 12:20 11.02.2022
3803 Clear 9 1015 39 10000 0.31 331 10:28 11.02.2022
3804 Clear 9 1015 38 10000 0.99 358 09:19 11.02.2022
3805 Clear 8 1016 38 10000 1.64 13 08:28 11.02.2022
3806 Clear 8 1016 38 10000 1.64 13 07:39 11.02.2022
3807 Clear -6 1033 53 10000 7.31 26 02:40 11.02.2022
3808 Clear -6 1033 54 10000 7.16 26 02:20 11.02.2022
3809 Clear -6 1033 54 10000 7.16 26 02:20 11.02.2022
3810 Clear -5 1032 56 10000 6.43 26 23:40 10.02.2022
3811 Clear -5 1032 62 10000 6.21 26 21:55 10.02.2022
3812 Clear -5 1033 64 10000 6.28 26 21:26 10.02.2022
3813 Clear -5 1033 64 10000 6.28 26 20:48 10.02.2022
3814 Clear -5 1033 65 10000 6.05 24 19:37 10.02.2022
3815 Clouds -4 1032 66 10000 5.61 26 19:18 10.02.2022
3816 Clouds -4 1032 68 10000 5.37 26 17:43 10.02.2022
3817 Clouds -3 1030 74 10000 4.74 29 17:20 10.02.2022
3818 Clouds -3 1029 79 10000 4.37 33 16:23 10.02.2022
3819 Clouds -3 1029 79 10000 4.37 33 15:34 10.02.2022
3820 Clouds -2 1028 85 10000 3.77 41 14:49 10.02.2022
3821 Clouds -2 1028 85 10000 3.77 41 14:30 10.02.2022
3822 Clouds -2 1027 90 10000 2.72 60 13:33 10.02.2022
3823 Clouds -2 1027 90 10000 2.72 60 13:33 10.02.2022
3824 Snow 1 1021 87 10000 1.65 133 12:53 10.02.2022
3825 Clouds 5 1017 75 10000 2.97 182 11:48 10.02.2022
3826 Clouds 6 1016 65 10000 3.31 184 11:28 10.02.2022
3827 Clouds 6 1016 61 10000 3.14 187 10:21 10.02.2022
3828 Clouds 6 1017 58 10000 3 196 09:27 10.02.2022
3829 Clear 6 1018 58 10000 2.88 199 07:57 10.02.2022
3830 Clear 5 1019 49 10000 0.21 4 06:19 10.02.2022
3831 Clear -5 1031 59 10000 6.03 26 02:28 10.02.2022
3832 Clear -5 1030 61 10000 6.06 27 00:51 10.02.2022
3833 Clear -5 1030 61 10000 6.06 27 00:30 10.02.2022
3834 Clear -4 1031 66 10000 5.77 26 23:49 09.02.2022
3835 Clear -4 1031 69 10000 5.67 25 22:51 09.02.2022
3836 Clear -4 1031 69 10000 5.67 25 22:30 09.02.2022
3837 Clouds -4 1032 71 10000 5.58 25 21:45 09.02.2022
3838 Clouds -4 1032 72 10000 5.35 26 21:24 09.02.2022
3839 Clouds -4 1032 72 10000 5.35 26 20:41 09.02.2022
3840 Clouds -4 1032 73 10000 5.26 25 20:21 09.02.2022
3841 Clouds -4 1032 73 10000 5.26 25 20:21 09.02.2022
3842 Clouds -4 1032 73 10000 5.26 25 19:39 09.02.2022
3843 Clouds -4 1032 73 10000 5.04 28 17:50 09.02.2022
3844 Clouds -3 1031 74 10000 4.8 27 16:54 09.02.2022
3845 Clouds -3 1030 79 10000 4.48 29 15:56 09.02.2022
3846 Clouds -2 1028 86 10000 3.84 33 15:22 09.02.2022
3847 Snow 1 1020 96 3702 0.85 148 12:42 09.02.2022
3848 Clouds 4 1016 94 579 3.65 196 11:23 09.02.2022
3849 Clouds 4 1016 94 579 3.65 196 10:33 09.02.2022
3850 Clouds 4 1016 94 406 3.83 197 09:47 09.02.2022
3851 Clouds 4 1016 92 229 4.1 203 09:20 09.02.2022
3852 Clouds 4 1016 92 229 4.1 203 08:43 09.02.2022
3853 Clouds 3 1019 90 582 2.87 207 05:55 09.02.2022
3854 Clouds 2 1020 90 2254 1.01 235 03:51 09.02.2022
3855 Snow 1 1020 95 1285 0.56 189 01:55 09.02.2022
3856 Snow 1 1020 95 568 0.53 107 23:45 08.02.2022
3857 Snow 1 1020 96 546 0.5 215 23:18 08.02.2022
3858 Snow 1 1020 96 546 0.5 215 22:38 08.02.2022
3859 Snow 1 1021 96 315 1.35 260 22:18 08.02.2022
3860 Snow 2 1020 96 334 0.99 262 21:22 08.02.2022
3861 Snow 2 1020 96 334 0.99 262 21:22 08.02.2022
3862 Snow 2 1020 96 334 0.99 262 21:22 08.02.2022
3863 Snow 2 1020 96 334 0.99 262 20:57 08.02.2022
3864 Snow 2 1020 96 334 0.99 262 20:34 08.02.2022
3865 Snow 2 1021 93 288 0.71 347 19:18 08.02.2022
3866 Clouds 0 1024 84 4825 2.05 16 17:58 08.02.2022
3867 Clouds -1 1025 79 10000 3.14 33 16:56 08.02.2022
3868 Clouds -2 1026 78 10000 3.76 30 15:46 08.02.2022
3869 Clouds -1 1025 80 10000 3.9 34 14:58 08.02.2022
3870 Clouds -1 1024 81 10000 3.41 31 13:48 08.02.2022
3871 Clouds 6 1014 68 10000 2.01 193 12:24 08.02.2022
3872 Clear 7 1014 54 10000 2.21 194 10:48 08.02.2022
3873 Clear 7 1015 52 10000 2.36 194 09:48 08.02.2022
3874 Clear 7 1015 52 10000 2.71 196 08:38 08.02.2022
3875 Clear 6 1018 47 10000 0.89 17 06:24 08.02.2022
3876 Clear 3 1022 53 10000 3.09 19 04:40 08.02.2022
3877 Clear -1 1027 52 10000 5.15 22 04:22 08.02.2022
3878 Clear -1 1027 52 10000 5.15 22 03:36 08.02.2022
3879 Clear -4 1031 50 10000 6.08 27 03:18 08.02.2022
3880 Clear -4 1031 50 10000 6.08 27 02:59 08.02.2022
3881 Clear -4 1031 50 10000 6.08 27 02:36 08.02.2022
3882 Clear -4 1031 52 10000 6.17 26 02:18 08.02.2022
3883 Clear -4 1031 52 10000 6.17 26 01:44 08.02.2022
3884 Clear -4 1030 53 10000 6.13 27 01:25 08.02.2022
3885 Clear -4 1030 55 10000 6.04 28 00:55 08.02.2022
3886 Clear -4 1030 58 10000 6.11 26 00:21 08.02.2022
3887 Clear -4 1030 58 10000 6.11 26 23:44 07.02.2022
3888 Clear -4 1030 61 10000 6.01 26 23:18 07.02.2022
3889 Clear -4 1030 61 10000 6.01 26 22:59 07.02.2022
3890 Clear -3 1030 63 10000 5.92 26 22:19 07.02.2022
3891 Clear -3 1030 63 10000 5.92 26 21:50 07.02.2022
3892 Clear -3 1030 65 10000 5.84 25 21:27 07.02.2022
3893 Clear -3 1030 65 10000 5.84 25 20:45 07.02.2022
3894 Clear -3 1030 65 10000 5.64 25 20:27 07.02.2022
3895 Clear -3 1030 65 10000 5.64 25 19:47 07.02.2022
3896 Clouds -2 1030 67 10000 5.55 25 18:35 07.02.2022
3897 Clouds -1 1028 76 10000 4.76 31 17:23 07.02.2022
3898 Clouds -1 1028 76 10000 4.76 31 16:52 07.02.2022
3899 Clouds 0 1026 81 10000 4.01 37 15:48 07.02.2022
3900 Clouds 0 1023 93 8696 2.27 35 13:58 07.02.2022
3901 Clouds 3 1018 93 4260 1.07 208 13:27 07.02.2022
3902 Clouds 7 1016 83 4218 2.77 196 12:18 07.02.2022
3903 Clouds 7 1016 83 4218 2.77 196 11:40 07.02.2022
3904 Clouds 7 1016 78 5672 3.27 195 11:22 07.02.2022
3905 Clouds 7 1016 78 5672 3.27 195 10:41 07.02.2022
3906 Clouds 8 1016 76 3934 3.6 196 10:22 07.02.2022
3907 Clouds 8 1016 76 3934 3.6 196 09:51 07.02.2022
3908 Clouds 8 1016 77 2911 3.8 195 09:18 07.02.2022
3909 Clouds 8 1017 79 4245 3.2 197 07:53 07.02.2022
3910 Clouds 7 1018 76 10000 2.09 201 06:34 07.02.2022
3911 Clouds 5 1019 75 10000 0.34 135 04:49 07.02.2022
3912 Clouds 2 1022 86 9968 2.65 32 02:37 07.02.2022
3913 Clouds 2 1022 91 2385 1.56 30 00:20 07.02.2022
3914 Clouds 3 1022 91 1296 1.52 29 23:20 06.02.2022
3915 Clouds 3 1022 91 1296 1.52 29 22:42 06.02.2022
3916 Clouds 3 1022 89 2424 1.63 34 21:46 06.02.2022
3917 Clouds 3 1022 87 6925 1.54 40 21:21 06.02.2022
3918 Clouds 3 1022 87 6925 1.54 40 20:48 06.02.2022
3919 Clouds 3 1023 86 8079 1.98 39 20:24 06.02.2022
3920 Clouds 3 1023 84 8671 2.01 31 19:22 06.02.2022
3921 Clouds 3 1023 85 6246 1.78 44 18:33 06.02.2022
3922 Clouds 3 1023 84 8871 2.11 39 17:38 06.02.2022
3923 Clouds 3 1023 84 8379 2.43 37 16:52 06.02.2022
3924 Clouds 2 1023 81 10000 2.53 38 16:29 06.02.2022
3925 Clouds 2 1023 81 10000 2.53 38 15:47 06.02.2022
3926 Clouds 2 1023 81 10000 2.53 38 15:47 06.02.2022
3927 Clouds 2 1022 85 10000 2.7 46 15:25 06.02.2022
3928 Clouds 3 1020 87 8805 1.86 56 14:23 06.02.2022
3929 Clouds 7 1016 86 7312 1.99 157 13:23 06.02.2022
3930 Clouds 6 1016 86 9617 1.68 145 12:33 06.02.2022
3931 Clouds 9 1014 74 10000 3.25 189 10:37 06.02.2022
3932 Clouds 10 1015 73 10000 3.3 185 09:48 06.02.2022
3933 Clouds 10 1015 72 10000 3.41 192 08:41 06.02.2022
3934 Clouds 10 1016 71 10000 3.26 202 07:36 06.02.2022
3935 Clouds 9 1017 65 10000 1.73 356 05:28 06.02.2022
3936 Clouds 4 1018 66 10000 4.1 19 02:25 06.02.2022
3937 Clouds 4 1018 64 5683 3.26 7 00:51 06.02.2022
3938 Clouds 4 1018 58 6982 4.06 23 00:24 06.02.2022
3939 Clouds 3 1020 56 10000 3.76 26 21:59 05.02.2022
3940 Clouds 2 1023 55 10000 4.39 32 20:48 05.02.2022
3941 Clouds 1 1023 53 10000 4.7 28 20:23 05.02.2022
3942 Clouds 1 1023 53 10000 4.7 28 19:44 05.02.2022
3943 Clear -1 1025 50 10000 5.46 30 18:45 05.02.2022
3944 Clear -2 1027 51 10000 5.78 25 17:36 05.02.2022
3945 Clear -2 1027 56 10000 5.65 28 16:24 05.02.2022
3946 Clear -2 1027 56 10000 5.65 28 15:31 05.02.2022
3947 Clear -1 1023 65 10000 4.59 24 13:57 05.02.2022
3948 Clear 1 1018 72 10000 2.27 36 12:46 05.02.2022
3949 Clear 5 1013 74 10000 1.21 177 11:47 05.02.2022
3950 Clear 7 1012 60 10000 2.3 192 10:44 05.02.2022
3951 Clear 7 1012 53 10000 2.49 192 09:51 05.02.2022
3952 Clear 7 1012 46 10000 2.2 199 08:51 05.02.2022
3953 Clear 7 1012 41 10000 0.91 201 07:32 05.02.2022
3954 Clear 6 1013 43 10000 0.72 7 06:55 05.02.2022
3955 Clear -5 1026 57 10000 6.36 27 02:43 05.02.2022
3956 Clear -5 1024 61 10000 6.19 27 01:18 05.02.2022
3957 Clear -5 1025 61 10000 6.27 27 00:39 05.02.2022
3958 Clear -5 1024 63 10000 6.16 27 23:33 04.02.2022
3959 Clear -5 1025 65 10000 6 28 22:55 04.02.2022
3960 Clear -5 1025 67 10000 5.84 28 21:36 04.02.2022
3961 Clear -5 1024 69 10000 5.6 27 21:18 04.02.2022
3962 Clear -5 1024 69 10000 5.6 27 20:40 04.02.2022
3963 Clouds -4 1023 74 10000 4.85 25 19:29 04.02.2022
3964 Clouds -3 1022 80 10000 4.63 23 16:50 04.02.2022
3965 Clouds -3 1020 85 10000 4 24 15:34 04.02.2022
3966 Clouds -2 1018 93 10000 2.84 23 14:51 04.02.2022
3967 Clouds 2 1011 97 786 1.86 208 12:43 04.02.2022
3968 Clouds 3 1010 93 1828 2.31 201 11:46 04.02.2022
3969 Clouds 4 1009 93 1086 2.74 199 10:59 04.02.2022
3970 Clouds 4 1009 94 408 2.83 195 10:22 04.02.2022
3971 Rain 4 1010 95 342 2.67 193 08:33 04.02.2022
3972 Rain 2 1012 93 538 0.15 288 04:53 04.02.2022
3973 Snow 0 1013 89 5149 2.46 33 02:38 04.02.2022
3974 Snow 0 1012 89 7557 2.6 29 00:18 04.02.2022
3975 Snow -1 1014 85 10000 2.86 31 22:52 03.02.2022
3976 Clouds -3 1015 83 10000 2.79 27 22:22 03.02.2022
3977 Snow -3 1015 83 10000 2.79 27 21:41 03.02.2022
3978 Snow 0 1013 90 7497 2.86 10 20:22 03.02.2022
3979 Snow 0 1013 90 7497 2.86 10 19:49 03.02.2022
3980 Snow 1 1012 93 3832 1.58 1 19:23 03.02.2022
3981 Rain 2 1010 95 2200 1.29 357 18:24 03.02.2022
3982 Rain 2 1010 97 652 0.53 214 17:26 03.02.2022
3983 Rain 2 1009 98 85 1.08 203 15:44 03.02.2022
3984 Clouds 3 1008 98 84 1.29 179 14:22 03.02.2022
3985 Rain 4 1006 98 99 1.58 230 12:32 03.02.2022
3986 Rain 5 1006 97 110 2.81 201 08:59 03.02.2022
3987 Rain 5 1007 97 135 2.56 201 08:18 03.02.2022
3988 Snow 2 1013 94 459 2.21 34 02:56 03.02.2022
3989 Snow 1 1014 88 10000 1.67 29 00:29 03.02.2022
3990 Clouds 2 1014 93 2641 1.65 63 22:41 02.02.2022
3991 Rain 2 1016 96 912 0.76 171 21:52 02.02.2022
3992 Clouds 2 1016 96 429 1.82 207 21:29 02.02.2022
3993 Clouds 3 1016 95 3639 1.34 158 20:28 02.02.2022
3994 Clouds 3 1016 95 3639 1.34 158 19:49 02.02.2022
3995 Clouds 3 1016 97 559 1.63 182 19:20 02.02.2022
3996 Clouds 2 1017 98 103 1.79 191 18:25 02.02.2022
3997 Clouds 3 1015 95 356 0.36 160 17:23 02.02.2022
3998 Clouds 3 1015 95 356 0.36 160 16:59 02.02.2022
3999 Clouds 3 1016 94 510 0.74 221 16:20 02.02.2022
4000 Clouds 4 1013 86 1337 1.98 225 12:50 02.02.2022
4001 Clouds 5 1013 83 5409 1.56 199 11:51 02.02.2022
4002 Clouds 5 1013 83 5409 1.56 199 11:31 02.02.2022
4003 Clouds 9 1011 50 10000 3.62 199 09:22 02.02.2022
4004 Clouds 9 1013 48 10000 0.68 78 05:29 02.02.2022
4005 Clouds 1 1018 45 10000 4.93 27 22:44 01.02.2022
4006 Clouds 1 1019 44 10000 5.08 28 21:30 01.02.2022
4007 Clear 0 1020 42 10000 5.17 26 19:56 01.02.2022
4008 Clear 0 1021 45 10000 5.59 26 17:38 01.02.2022
4009 Clear -1 1022 47 10000 5.65 23 16:33 01.02.2022
4010 Clear 1 1017 61 10000 2.7 19 13:28 01.02.2022
4011 Clear 5 1011 54 10000 0.64 23 12:28 01.02.2022
4012 Clear 7 1011 43 10000 0.57 27 10:44 01.02.2022
4013 Clouds -5 1028 66 10000 5.45 23 02:30 01.02.2022
4014 Clouds -2 1023 74 10000 4.44 26 23:40 31.01.2022
4015 Snow -1 1022 81 10000 3.95 31 22:48 31.01.2022
4016 Snow -1 1023 82 10000 3.46 35 21:38 31.01.2022
4017 Snow -1 1023 84 8818 3.16 43 20:45 31.01.2022
4018 Snow 0 1022 84 5005 2.48 54 20:26 31.01.2022
4019 Snow 0 1022 86 4039 2.03 69 18:55 31.01.2022
4020 Snow 1 1022 87 4286 2.11 75 18:20 31.01.2022
4021 Clouds -1 1024 78 10000 3.1 38 17:25 31.01.2022
4022 Clouds -1 1023 77 10000 3.11 38 16:26 31.01.2022
4023 Clouds -1 1023 81 10000 3.35 34 14:54 31.01.2022
4024 Clouds -1 1022 83 10000 2.54 43 13:51 31.01.2022
4025 Clouds 2 1017 81 10000 1.3 154 12:38 31.01.2022
4026 Clouds 6 1013 66 10000 3.09 199 11:47 31.01.2022
4027 Clouds 7 1012 55 10000 3.34 192 10:50 31.01.2022
4028 Clouds 8 1012 49 10000 3.33 194 09:59 31.01.2022
4029 Clouds 8 1013 46 10000 3.09 198 09:23 31.01.2022
4030 Clouds 8 1013 46 10000 3.09 198 08:47 31.01.2022
4031 Clouds 8 1014 46 10000 2.93 203 08:20 31.01.2022
4032 Clear 7 1016 45 10000 0.68 277 06:18 31.01.2022
4033 Clouds 0 1019 54 10000 4.02 29 00:46 31.01.2022
4034 Clouds 1 1020 57 10000 3.69 26 22:40 30.01.2022
4035 Clouds 1 1020 59 10000 3.81 26 22:22 30.01.2022
4036 Clouds 1 1020 59 10000 3.81 26 21:38 30.01.2022
4037 Clouds 0 1021 59 10000 4 32 21:18 30.01.2022
4038 Clouds 0 1021 59 10000 4 32 20:45 30.01.2022
4039 Clouds 1 1021 60 10000 3.92 38 20:27 30.01.2022
4040 Clouds 1 1021 62 10000 3.79 41 19:24 30.01.2022
4041 Clouds 1 1021 62 10000 3.79 41 18:43 30.01.2022
4042 Clouds 2 1020 64 10000 3.78 39 18:18 30.01.2022
4043 Clouds 3 1019 66 10000 3.68 37 17:22 30.01.2022
4044 Clouds 3 1019 66 10000 3.68 37 16:39 30.01.2022
4045 Clouds 3 1018 69 10000 3.76 36 16:21 30.01.2022
4046 Clouds 3 1018 69 10000 3.76 36 15:50 30.01.2022
4047 Clouds 3 1018 69 10000 3.76 36 15:31 30.01.2022
4048 Clouds 5 1016 72 10000 3.32 34 14:46 30.01.2022
4049 Clouds 6 1014 74 10000 0.57 132 12:47 30.01.2022
4050 Clouds 9 1012 64 10000 1.51 184 11:57 30.01.2022
4051 Clouds 10 1012 55 10000 2 188 10:32 30.01.2022
4052 Clouds 10 1012 49 10000 2.53 196 09:50 30.01.2022
4053 Clear 11 1013 45 10000 2.39 199 08:55 30.01.2022
4054 Clear 10 1015 42 10000 0.82 348 07:28 30.01.2022
4055 Clear -2 1026 46 10000 6.28 25 01:56 30.01.2022
4056 Clear -2 1026 46 10000 6.28 25 01:56 30.01.2022
4057 Clear -2 1028 56 10000 6 24 00:23 30.01.2022
4058 Clear -2 1029 61 10000 5.84 26 23:20 29.01.2022
4059 Clear -2 1029 65 10000 5.52 26 21:50 29.01.2022
4060 Clear -1 1029 68 10000 5.39 26 21:24 29.01.2022
4061 Clear -1 1029 68 10000 5.39 26 20:32 29.01.2022
4062 Clouds -1 1029 70 10000 5.1 25 19:34 29.01.2022
4063 Clouds 0 1029 71 10000 5.08 28 18:52 29.01.2022
4064 Clouds 0 1028 69 10000 5.34 29 18:24 29.01.2022
4065 Clouds 0 1028 69 10000 5.34 29 17:31 29.01.2022
4066 Clouds 1 1026 74 10000 4.74 27 16:25 29.01.2022
4067 Clouds 1 1024 79 10000 4.1 32 14:23 29.01.2022
4068 Clouds 1 1024 79 10000 4.1 32 13:45 29.01.2022
4069 Clouds 3 1020 80 10000 1.57 65 13:24 29.01.2022
4070 Clouds 8 1017 73 10000 2.06 188 11:50 29.01.2022
4071 Clear 9 1016 65 10000 2.89 190 11:24 29.01.2022
4072 Clear 10 1017 59 10000 2.92 195 08:57 29.01.2022
4073 Clear 9 1019 50 10000 1.28 212 06:55 29.01.2022
4074 Clear 1 1025 59 10000 5.33 27 00:36 29.01.2022
4075 Clear 1 1025 58 10000 5.3 28 23:59 28.01.2022
4076 Clear 1 1025 58 10000 5.32 27 22:51 28.01.2022
4077 Clear 1 1026 57 10000 5.21 27 22:22 28.01.2022
4078 Clear 1 1026 57 10000 5.21 27 21:37 28.01.2022
4079 Clear 1 1025 56 10000 5.34 27 20:30 28.01.2022
4080 Clear 1 1026 56 10000 5.31 28 19:42 28.01.2022
4081 Clear 1 1026 56 10000 5.24 27 18:47 28.01.2022
4082 Clear 1 1026 56 10000 5.23 28 17:42 28.01.2022
4083 Clear 2 1024 57 10000 4.98 29 15:21 28.01.2022
4084 Clear 2 1023 60 10000 4.72 27 13:57 28.01.2022
4085 Clear 3 1020 65 10000 3.24 31 12:32 28.01.2022
4086 Clear 8 1016 68 10000 0.6 148 11:36 28.01.2022
4087 Clear 10 1014 44 10000 1.35 197 09:53 28.01.2022
4088 Clear 10 1014 40 10000 0.51 220 08:41 28.01.2022
4089 Clear 10 1015 42 10000 1.29 357 07:36 28.01.2022
4090 Clear 3 1022 46 10000 5.37 24 05:23 28.01.2022
4091 Clear -1 1027 43 10000 6.67 27 03:45 28.01.2022
4092 Clear -4 1029 41 10000 6.97 26 02:22 28.01.2022
4093 Clear -4 1029 41 10000 6.97 26 01:33 28.01.2022
4094 Clear -5 1029 44 10000 6.85 26 23:30 27.01.2022
4095 Clear -5 1030 47 10000 6.63 26 21:49 27.01.2022
4096 Clear -5 1030 49 10000 6.25 26 21:29 27.01.2022
4097 Clear -5 1030 49 10000 6.25 26 20:44 27.01.2022
4098 Clear -5 1030 52 10000 5.99 26 19:21 27.01.2022
4099 Clear -5 1030 55 10000 5.73 26 17:56 27.01.2022
4100 Clouds -4 1029 65 10000 4.98 27 15:18 27.01.2022
4101 Clouds -3 1027 70 10000 4.46 31 13:37 27.01.2022
4102 Clouds -1 1022 76 10000 2.31 46 12:45 27.01.2022
4103 Clouds 4 1016 56 10000 2.06 185 10:24 27.01.2022
4104 Clouds 4 1016 52 10000 2.15 194 08:57 27.01.2022
4105 Clouds 4 1016 52 10000 2.15 194 08:34 27.01.2022
4106 Clear 2 1020 50 10000 1.42 23 05:59 27.01.2022
4107 Clear -7 1030 58 10000 6.06 27 02:57 27.01.2022
4108 Clear -6 1030 63 10000 5.83 27 23:33 26.01.2022
4109 Clear -6 1030 64 10000 5.62 26 22:25 26.01.2022
4110 Clear -6 1030 64 10000 5.62 26 21:36 26.01.2022
4111 Clear -6 1030 64 10000 5.51 28 20:41 26.01.2022
4112 Clear -6 1030 64 10000 5.33 28 20:22 26.01.2022
4113 Clouds -6 1030 64 10000 5.16 28 19:23 26.01.2022
4114 Clouds -6 1030 64 10000 5.16 28 18:45 26.01.2022
4115 Clouds -5 1029 65 10000 5.19 28 17:51 26.01.2022
4116 Clouds -5 1029 69 10000 5.07 26 17:23 26.01.2022
4117 Clouds -5 1029 69 10000 5.07 26 16:33 26.01.2022
4118 Clouds -5 1028 76 10000 4.85 25 15:49 26.01.2022
4119 Clouds -3 1025 93 9747 3.55 36 14:20 26.01.2022
4120 Clouds 3 1016 89 9228 2.35 187 11:52 26.01.2022
4121 Clouds 4 1015 82 5818 3.29 188 10:28 26.01.2022
4122 Clouds 4 1015 82 5818 3.29 188 09:48 26.01.2022
4123 Clouds 4 1015 75 5048 2.79 198 08:27 26.01.2022
4124 Clouds -2 1023 74 10000 3.41 30 04:24 26.01.2022
4125 Snow -1 1020 86 5033 2.91 15 23:58 25.01.2022
4126 Snow -1 1021 84 1675 2.91 12 23:20 25.01.2022
4127 Snow -1 1021 81 1576 2.71 10 22:26 25.01.2022
4128 Snow -1 1021 81 1576 2.71 10 21:59 25.01.2022
4129 Snow -1 1022 78 1938 2.86 13 20:59 25.01.2022
4130 Snow -1 1022 78 1938 2.86 13 20:40 25.01.2022
4131 Clouds -2 1024 75 2565 3.43 17 19:53 25.01.2022
4132 Snow -1 1024 76 2216 3.59 19 18:38 25.01.2022
4133 Snow -3 1025 70 10000 3.98 22 17:45 25.01.2022
4134 Snow -4 1027 71 10000 4.29 26 16:47 25.01.2022
4135 Snow -3 1026 74 10000 4.37 31 16:21 25.01.2022
4136 Clouds -3 1026 74 10000 4.37 31 15:38 25.01.2022
4137 Clouds -3 1025 79 10000 4.18 33 14:58 25.01.2022
4138 Clouds -3 1023 86 10000 3.82 34 13:46 25.01.2022
4139 Clouds 4 1013 68 10000 2.66 190 10:58 25.01.2022
4140 Clouds 5 1013 64 10000 3 198 08:38 25.01.2022
4141 Clouds 5 1014 61 10000 2.74 205 07:30 25.01.2022
4142 Clear 4 1015 55 10000 0.84 237 06:50 25.01.2022
4143 Clear 0 1021 64 10000 3.8 27 05:22 25.01.2022
4144 Clouds -5 1027 72 10000 5.59 26 23:37 24.01.2022
4145 Clouds -5 1027 73 10000 5.39 25 23:19 24.01.2022
4146 Clouds -5 1027 73 10000 5.39 25 22:59 24.01.2022
4147 Clouds -5 1027 73 10000 5.39 25 22:41 24.01.2022
4148 Clouds -5 1027 73 10000 5.37 25 21:55 24.01.2022
4149 Clouds -4 1027 74 10000 5.17 25 21:29 24.01.2022
4150 Clouds -4 1027 74 10000 5.17 25 20:33 24.01.2022
4151 Clouds -4 1027 74 10000 5.29 26 19:52 24.01.2022
4152 Clouds -4 1027 74 10000 5.29 26 19:30 24.01.2022
4153 Clouds -4 1027 74 10000 5.24 25 18:19 24.01.2022
4154 Clouds -3 1026 76 10000 4.88 25 17:24 24.01.2022
4155 Clouds -3 1026 76 10000 4.88 25 16:55 24.01.2022
4156 Clouds -2 1024 81 10000 4.13 28 16:21 24.01.2022
4157 Clouds -1 1021 89 10000 3.11 30 14:44 24.01.2022
4158 Clouds 2 1015 99 789 0.57 179 13:26 24.01.2022
4159 Clouds 2 1015 95 561 0.89 200 12:30 24.01.2022
4160 Clouds 4 1012 95 412 2.65 200 10:46 24.01.2022
4161 Clouds 5 1011 92 577 2.84 206 09:49 24.01.2022
4162 Clouds 5 1012 90 1720 3.17 210 08:54 24.01.2022
4163 Clouds 5 1014 95 466 2.87 198 07:19 24.01.2022
4164 Clouds 5 1014 95 671 2.48 190 07:19 24.01.2022
4165 Snow 0 1016 93 1810 2.13 4 01:32 24.01.2022
4166 Snow 1 1014 95 394 1.73 54 00:45 24.01.2022
4167 Snow 1 1014 94 1948 1.64 63 00:26 24.01.2022
4168 Snow 0 1016 93 6286 2.01 26 22:43 23.01.2022
4169 Clouds 2 1014 96 2691 0.2 357 21:50 23.01.2022
4170 Clouds 2 1014 97 105 0.55 216 21:26 23.01.2022
4171 Clouds 2 1014 97 105 0.55 216 20:54 23.01.2022
4172 Clouds 2 1014 97 102 0.43 196 19:55 23.01.2022
4173 Snow 2 1015 97 101 0.3 40 18:52 23.01.2022
4174 Clouds 2 1015 95 735 1.05 30 17:52 23.01.2022
4175 Snow 1 1016 97 737 0.84 16 16:48 23.01.2022
4176 Clouds 3 1013 98 104 2.06 222 15:18 23.01.2022
4177 Rain 3 1013 98 104 2.06 222 14:32 23.01.2022
4178 Rain 4 1010 98 74 2.33 193 13:27 23.01.2022
4179 Rain 4 1011 98 97 2.3 210 12:36 23.01.2022
4180 Rain 4 1009 98 100 2.56 209 12:18 23.01.2022
4181 Rain 5 1009 98 68 2.95 198 11:24 23.01.2022
4182 Rain 5 1009 98 68 2.95 198 10:57 23.01.2022
4183 Rain 5 1008 99 55 3.71 190 10:21 23.01.2022
4184 Clouds 5 1008 98 60 3.68 194 09:22 23.01.2022
4185 Clouds 5 1010 97 102 2.68 203 05:59 23.01.2022
4186 Clouds 3 1009 97 111 0.62 253 02:25 23.01.2022
4187 Clouds 3 1009 97 111 0.62 253 01:35 23.01.2022
4188 Rain 2 1010 93 2632 1.89 52 00:41 23.01.2022
4189 Rain 3 1009 92 7170 1.79 33 23:57 22.01.2022
4190 Clouds 3 1010 95 1676 1.16 49 22:48 22.01.2022
4191 Clouds 2 1010 96 217 0.88 50 21:58 22.01.2022
4192 Clouds 3 1010 97 262 0.98 279 20:26 22.01.2022
4193 Clouds 3 1010 97 262 0.98 279 19:34 22.01.2022
4194 Rain 3 1011 96 548 0.59 302 18:36 22.01.2022
4195 Clouds 3 1011 97 459 0.3 265 17:42 22.01.2022
4196 Rain 3 1010 95 1837 0.57 349 17:18 22.01.2022
4197 Clouds 3 1010 97 409 0.52 142 16:22 22.01.2022
4198 Clouds 3 1010 97 409 0.52 142 15:44 22.01.2022
4199 Clouds 2 1009 96 238 1.09 56 14:22 22.01.2022
4200 Clouds 2 1008 90 4205 0.55 86 13:28 22.01.2022
4201 Clouds 2 1008 90 4205 0.55 86 12:37 22.01.2022
4202 Clouds 4 1007 91 966 0.24 339 12:18 22.01.2022
4203 Clouds 4 1008 89 2420 0.49 22 10:39 22.01.2022
4204 Clouds 5 1008 88 848 1.87 199 10:20 22.01.2022
4205 Clouds 5 1007 75 3016 2.16 209 08:55 22.01.2022
4206 Clouds 5 1007 75 3016 2.16 209 08:31 22.01.2022
4207 Clouds 6 1009 54 10000 1.74 200 06:46 22.01.2022
4208 Clouds -1 1019 69 10000 5.03 26 02:39 22.01.2022
4209 Clouds -1 1018 76 10000 3.72 38 23:50 21.01.2022
4210 Clouds -1 1017 79 10000 3.68 26 23:20 21.01.2022
4211 Snow 1 1016 87 9908 3 26 21:34 21.01.2022
4212 Snow 0 1019 87 1572 2.66 46 19:35 21.01.2022
4213 Snow 0 1020 84 6225 3.16 34 17:51 21.01.2022
4214 Snow 0 1020 88 2419 3.14 33 15:56 21.01.2022
4215 Snow 0 1020 89 1736 3.15 32 15:23 21.01.2022
4216 Rain 1 1017 89 3447 1.55 68 12:48 21.01.2022
4217 Clouds 6 1012 66 10000 2.27 193 11:29 21.01.2022
4218 Clouds 6 1012 66 10000 2.27 193 10:47 21.01.2022
4219 Clouds 6 1013 68 10000 2.83 202 09:24 21.01.2022
4220 Clouds 6 1014 69 10000 2.68 204 08:20 21.01.2022
4221 Clouds -2 1021 71 10000 4.7 26 01:55 21.01.2022
4222 Clouds -2 1022 72 10000 4.57 26 22:52 20.01.2022
4223 Clouds -2 1022 72 10000 4.52 28 21:49 20.01.2022
4224 Clouds -2 1022 72 10000 4.58 27 21:27 20.01.2022
4225 Clouds -1 1022 72 10000 4.6 30 19:55 20.01.2022
4226 Clouds -1 1022 73 10000 4.37 28 19:18 20.01.2022
4227 Clouds -1 1021 73 10000 4.6 28 17:37 20.01.2022
4228 Clouds -1 1021 76 10000 4.34 28 16:32 20.01.2022
4229 Clouds 0 1019 82 10000 3.77 34 15:32 20.01.2022
4230 Clouds 2 1016 90 10000 2.44 46 14:37 20.01.2022
4231 Clouds 4 1011 97 817 1.5 181 13:18 20.01.2022
4232 Clouds 4 1011 96 1569 1.37 171 12:30 20.01.2022
4233 Clouds 6 1010 92 841 2.66 196 11:20 20.01.2022
4234 Clouds 7 1010 91 732 2.82 196 10:19 20.01.2022
4235 Clouds 7 1010 90 671 2.88 201 09:18 20.01.2022
4236 Clouds 7 1012 83 3407 2.38 200 07:24 20.01.2022
4237 Snow 2 1016 77 4731 2.97 23 00:41 20.01.2022
4238 Snow 2 1016 76 9577 2.8 22 22:40 19.01.2022
4239 Clouds 1 1018 75 10000 3.06 21 21:41 19.01.2022
4240 Clouds 1 1019 73 10000 3.48 23 21:21 19.01.2022
4241 Snow 1 1019 73 10000 3.48 23 20:45 19.01.2022
4242 Clouds 1 1020 72 10000 4.03 27 19:26 19.01.2022
4243 Clouds 1 1021 70 10000 3.97 27 17:51 19.01.2022
4244 Snow 1 1021 71 10000 3.72 26 17:28 19.01.2022
4245 Clouds 1 1021 71 10000 3.62 29 15:36 19.01.2022
4246 Clouds 2 1019 74 10000 3.71 32 13:38 19.01.2022
4247 Clouds 6 1015 75 4152 0.71 107 12:24 19.01.2022
4248 Clouds 6 1015 75 4152 0.71 107 11:38 19.01.2022
4249 Clouds 8 1015 61 10000 2.31 193 10:19 19.01.2022
4250 Clouds 8 1015 61 10000 2.31 193 09:33 19.01.2022
4251 Clouds 10 1016 48 10000 2.57 212 06:34 19.01.2022
4252 Clouds 3 1022 50 10000 5.09 28 01:40 19.01.2022
4253 Clouds 0 1027 55 10000 5.75 28 23:18 18.01.2022
4254 Clear 0 1028 55 10000 5.91 27 21:56 18.01.2022
4255 Clear 0 1028 56 10000 5.74 27 20:47 18.01.2022
4256 Clear 0 1028 57 10000 5.57 25 19:54 18.01.2022
4257 Clear 0 1028 59 10000 5.68 25 19:35 18.01.2022
4258 Clear 0 1028 62 10000 5.76 24 18:36 18.01.2022
4259 Clear 0 1029 63 10000 5.66 26 17:51 18.01.2022
4260 Clear 0 1029 64 10000 5.42 28 16:35 18.01.2022
4261 Clouds 0 1027 67 10000 5.43 28 15:39 18.01.2022
4262 Clouds 1 1027 69 10000 5.14 27 15:19 18.01.2022
4263 Clouds 7 1017 79 10000 0.77 153 11:53 18.01.2022
4264 Clouds 9 1017 70 10000 1.51 192 10:43 18.01.2022
4265 Clouds 10 1017 62 10000 1.74 207 08:49 18.01.2022
4266 Clouds 10 1018 59 10000 1.2 226 07:46 18.01.2022
4267 Clouds 1 1028 67 10000 4.91 25 02:31 18.01.2022
4268 Clouds 2 1027 73 10000 4.64 25 23:22 17.01.2022
4269 Clouds 2 1027 76 10000 4.08 25 22:19 17.01.2022
4270 Clouds 2 1027 76 10000 4.08 25 21:32 17.01.2022
4271 Clouds 3 1026 82 10000 3.34 17 19:56 17.01.2022
4272 Clouds 4 1025 91 4962 2.09 27 18:29 17.01.2022
4273 Clouds 5 1024 92 5051 1.45 53 17:24 17.01.2022
4274 Clouds 6 1024 94 4272 0.65 89 16:27 17.01.2022
4275 Clouds 6 1023 95 1340 0.69 169 14:59 17.01.2022
4276 Clouds 6 1023 95 1340 0.69 169 14:33 17.01.2022
4277 Clouds 7 1021 95 934 1.34 173 13:20 17.01.2022
4278 Clouds 7 1021 95 934 1.34 173 12:55 17.01.2022
4279 Clouds 8 1021 91 2915 0.99 173 11:48 17.01.2022
4280 Clouds 9 1020 78 10000 1.09 198 10:21 17.01.2022
4281 Clouds 9 1020 78 10000 1.09 198 10:21 17.01.2022
4282 Clouds 9 1020 78 10000 1.09 198 09:33 17.01.2022
4283 Clouds 12 1020 67 10000 0.85 222 07:22 17.01.2022
4284 Clouds 4 1026 59 10000 4.86 28 02:54 17.01.2022
4285 Clouds 3 1027 58 10000 5.59 28 00:54 17.01.2022
4286 Clouds 4 1027 58 10000 5.49 29 22:18 16.01.2022
4287 Clouds 3 1028 58 10000 5.67 28 20:34 16.01.2022
4288 Clouds 3 1029 62 10000 5.48 27 18:51 16.01.2022
4289 Clouds 3 1029 61 10000 5.41 26 17:57 16.01.2022
4290 Clouds 3 1028 64 10000 5.03 22 16:59 16.01.2022
4291 Clouds 4 1027 66 10000 5.42 28 16:29 16.01.2022
4292 Clouds 4 1026 67 10000 4.79 30 14:30 16.01.2022
4293 Clouds 4 1026 67 10000 4.79 30 14:30 16.01.2022
4294 Clouds 5 1025 71 10000 4.41 31 13:33 16.01.2022
4295 Clouds 9 1020 72 10000 0.59 199 12:26 16.01.2022
4296 Clouds 9 1020 72 10000 0.59 199 11:38 16.01.2022
4297 Clouds 11 1019 64 10000 1.16 220 10:46 16.01.2022
4298 Clouds 11 1019 56 10000 0.87 184 09:59 16.01.2022
4299 Clouds 11 1019 56 10000 0.87 184 09:40 16.01.2022
4300 Clouds 11 1020 57 10000 1.1 218 09:21 16.01.2022
4301 Clouds 11 1022 51 10000 1.26 21 07:23 16.01.2022
4302 Clouds 1 1029 44 10000 6.44 27 00:36 16.01.2022
4303 Clouds 1 1029 45 10000 6.39 26 23:22 15.01.2022
4304 Clouds 2 1028 50 10000 5.39 29 21:23 15.01.2022
4305 Clouds 2 1028 50 10000 5.39 29 20:48 15.01.2022
4306 Clouds 2 1029 51 10000 5.45 28 20:29 15.01.2022
4307 Clouds 1 1030 51 10000 5.53 28 19:27 15.01.2022
4308 Clouds 0 1032 50 10000 5.85 29 18:23 15.01.2022
4309 Clouds 0 1032 51 10000 5.79 26 16:49 15.01.2022
4310 Clouds -1 1032 53 10000 5.65 27 14:48 15.01.2022
4311 Clear 1 1027 58 10000 4.23 26 13:29 15.01.2022
4312 Clear 6 1021 62 10000 0.78 65 11:32 15.01.2022
4313 Clear 9 1019 41 10000 0.06 49 09:46 15.01.2022
4314 Clear 2 1028 50 10000 4.84 25 05:18 15.01.2022
4315 Clear -4 1033 45 10000 6.74 27 23:32 14.01.2022
4316 Clear -4 1034 48 10000 6.55 28 21:19 14.01.2022
4317 Clear -4 1034 48 10000 6.55 28 20:37 14.01.2022
4318 Clear -4 1034 50 10000 6.3 27 19:55 14.01.2022
4319 Clear -4 1034 53 10000 6.26 27 18:42 14.01.2022
4320 Clear -4 1034 56 10000 6.29 27 17:39 14.01.2022
4321 Clear -4 1034 58 10000 6.17 27 16:43 14.01.2022
4322 Clear -3 1033 61 10000 5.91 27 15:33 14.01.2022
4323 Clear -3 1031 67 10000 5.1 27 14:28 14.01.2022
4324 Clouds -1 1027 71 10000 3.45 30 12:58 14.01.2022
4325 Clouds 4 1019 69 10000 0.83 161 11:53 14.01.2022
4326 Clouds 6 1018 57 10000 1.78 193 10:40 14.01.2022
4327 Clouds 7 1018 41 10000 1.69 214 08:53 14.01.2022
4328 Clouds 7 1019 39 10000 1.06 252 07:32 14.01.2022
4329 Clear -4 1032 49 10000 6.15 27 02:28 14.01.2022
4330 Clear -4 1031 50 10000 6.04 26 00:33 14.01.2022
4331 Clear -4 1031 54 10000 5.67 25 21:52 13.01.2022
4332 Clear -3 1031 55 10000 5.62 26 21:29 13.01.2022
4333 Clear -3 1031 56 10000 5.61 26 19:58 13.01.2022
4334 Clear -3 1032 59 10000 5.52 26 19:29 13.01.2022
4335 Clear -3 1032 59 10000 5.52 26 18:49 13.01.2022
4336 Clear -3 1031 62 10000 5.31 27 16:57 13.01.2022
4337 Clear -3 1030 66 10000 5.17 27 15:45 13.01.2022
4338 Clear -2 1029 71 10000 4.99 28 15:26 13.01.2022
4339 Clear -2 1028 76 10000 4.59 29 13:36 13.01.2022
4340 Clouds 4 1018 76 10000 1.33 166 11:38 13.01.2022
4341 Clear 7 1017 53 10000 2.6 198 09:24 13.01.2022
4342 Clear 7 1017 53 10000 2.6 198 08:52 13.01.2022
4343 Clear 7 1018 50 10000 2.26 205 08:18 13.01.2022
4344 Clouds 6 1019 44 10000 1.13 217 07:20 13.01.2022
4345 Clouds 3 1023 58 10000 2.69 30 05:21 13.01.2022
4346 Clouds 3 1023 58 10000 2.69 30 04:55 13.01.2022
4347 Clouds 0 1024 56 10000 4.15 27 01:41 13.01.2022
4348 Clouds 1 1023 60 10000 4.01 25 23:54 12.01.2022
4349 Clouds 1 1023 60 10000 4.01 25 23:34 12.01.2022
4350 Clouds 1 1024 61 10000 4.05 26 22:49 12.01.2022
4351 Clouds 1 1025 61 10000 4.4 26 21:54 12.01.2022
4352 Clouds 0 1026 61 10000 4.72 29 21:21 12.01.2022
4353 Clouds 0 1026 61 10000 4.72 29 20:53 12.01.2022
4354 Clouds -1 1029 61 10000 5.01 27 19:24 12.01.2022
4355 Clouds -1 1029 61 10000 5.05 27 18:28 12.01.2022
4356 Clouds -1 1029 61 10000 5.19 27 16:59 12.01.2022
4357 Clouds -1 1029 62 10000 5.23 29 15:53 12.01.2022
4358 Clouds -1 1028 64 10000 5.07 27 14:46 12.01.2022
4359 Clouds 0 1024 73 10000 3.53 36 12:58 12.01.2022
4360 Clouds 0 1024 73 10000 3.53 36 12:58 12.01.2022
4361 Clouds 7 1016 50 10000 1.74 195 09:59 12.01.2022
4362 Clouds 7 1017 45 10000 0.93 214 08:34 12.01.2022
4363 Clouds 7 1018 46 10000 0.45 308 07:34 12.01.2022
4364 Clear 5 1022 55 10000 2.72 14 06:21 12.01.2022
4365 Clear -4 1030 52 10000 6.26 26 23:30 11.01.2022
4366 Clear -4 1031 53 10000 6.3 26 22:41 11.01.2022
4367 Clear -4 1031 54 10000 6.2 26 22:21 11.01.2022
4368 Clear -4 1031 54 10000 6.11 26 20:51 11.01.2022
4369 Clear -4 1031 54 10000 6.19 26 19:45 11.01.2022
4370 Clouds -4 1032 52 10000 6.26 26 18:31 11.01.2022
4371 Clouds -4 1032 55 10000 6.19 27 17:19 11.01.2022
4372 Clouds -4 1032 55 10000 6.19 27 16:37 11.01.2022
4373 Clouds -3 1031 56 10000 6.09 27 15:34 11.01.2022
4374 Clouds -3 1031 57 10000 5.91 27 14:41 11.01.2022
4375 Clouds -3 1030 59 10000 5.55 26 13:54 11.01.2022
4376 Clouds -3 1030 59 10000 5.55 26 13:32 11.01.2022
4377 Clear -1 1027 62 10000 4.24 27 12:41 11.01.2022
4378 Clear 7 1018 58 10000 0.88 188 10:59 11.01.2022
4379 Clear 7 1019 42 10000 1.23 220 08:58 11.01.2022
4380 Clear 5 1022 53 10000 1.95 7 06:36 11.01.2022
4381 Clear -5 1035 59 10000 6.57 27 00:30 11.01.2022
4382 Clear -5 1034 61 10000 6.48 26 23:41 10.01.2022
4383 Clear -5 1034 62 10000 6.34 26 22:51 10.01.2022
4384 Clear -5 1034 62 10000 6.34 26 22:51 10.01.2022
4385 Clear -4 1034 63 10000 6.11 26 22:18 10.01.2022
4386 Clear -4 1034 63 10000 6.11 26 21:52 10.01.2022
4387 Clear -4 1034 64 10000 5.89 26 21:19 10.01.2022
4388 Clear -4 1034 64 10000 5.89 26 20:56 10.01.2022
4389 Clear -4 1034 65 10000 5.67 27 20:27 10.01.2022
4390 Clear -4 1034 65 10000 5.67 27 19:41 10.01.2022
4391 Clouds -3 1031 72 10000 4.89 29 19:20 10.01.2022
4392 Clouds -3 1031 72 10000 4.89 29 18:48 10.01.2022
4393 Clouds -2 1031 74 10000 4.64 29 17:40 10.01.2022
4394 Clouds -2 1029 77 10000 4.37 24 16:41 10.01.2022
4395 Snow 0 1026 79 8828 2.95 12 15:20 10.01.2022
4396 Snow 0 1025 81 8734 2.75 8 14:26 10.01.2022
4397 Clouds 4 1019 85 3528 1.2 229 11:58 10.01.2022
4398 Clouds 5 1018 78 4894 1.81 221 11:25 10.01.2022
4399 Clouds 5 1018 79 1228 3.17 224 09:48 10.01.2022
4400 Clouds 4 1020 94 2821 1.88 247 06:47 10.01.2022
4401 Clouds 4 1020 95 123 1.86 172 05:49 10.01.2022
4402 Clouds 2 1018 88 4698 1.81 54 01:30 10.01.2022
4403 Rain 3 1017 93 2101 2.06 45 00:24 10.01.2022
4404 Rain 3 1017 93 2101 2.06 45 23:33 09.01.2022
4405 Rain 2 1018 91 2328 1.79 28 22:37 09.01.2022
4406 Rain 3 1017 91 7143 2.06 27 21:46 09.01.2022
4407 Clouds 3 1018 92 5073 1.16 73 21:23 09.01.2022
4408 Clouds 3 1018 92 5073 1.16 73 20:51 09.01.2022
4409 Rain 3 1018 92 5073 1.16 73 20:33 09.01.2022
4410 Rain 4 1017 92 7657 0.95 25 19:44 09.01.2022
4411 Rain 4 1018 95 2286 1 163 19:23 09.01.2022
4412 Rain 3 1018 91 3152 1.62 86 18:56 09.01.2022
4413 Rain 3 1018 91 3152 1.62 86 18:34 09.01.2022
4414 Rain 4 1018 90 5448 2.13 55 17:40 09.01.2022
4415 Rain 3 1018 91 7146 1.61 65 17:20 09.01.2022
4416 Clouds 3 1018 93 5034 1.05 60 15:59 09.01.2022
4417 Clouds 3 1018 93 5034 1.05 60 15:36 09.01.2022
4418 Clouds 4 1017 96 4458 0.17 68 14:41 09.01.2022
4419 Clouds 3 1017 98 1914 0.48 236 13:51 09.01.2022
4420 Clouds 4 1015 99 577 1.39 213 13:25 09.01.2022
4421 Clouds 6 1014 98 274 2.51 217 11:55 09.01.2022
4422 Clouds 7 1014 92 436 2.76 201 11:19 09.01.2022
4423 Rain 7 1014 89 1291 2.33 199 09:51 09.01.2022
4424 Clouds 7 1015 91 1742 1.84 208 08:54 09.01.2022
4425 Clouds 5 1017 97 201 2.29 194 05:54 09.01.2022
4426 Clouds 4 1016 93 5033 1.14 86 01:25 09.01.2022
4427 Clouds 4 1016 90 7564 1.76 42 00:37 09.01.2022
4428 Clouds 4 1017 95 2170 1.34 146 23:27 08.01.2022
4429 Clouds 4 1017 95 2170 1.34 146 22:35 08.01.2022
4430 Clouds 4 1018 92 2693 1.52 58 21:26 08.01.2022
4431 Clouds 4 1018 92 2693 1.52 58 20:43 08.01.2022
4432 Clouds 5 1019 94 2078 1.65 132 20:21 08.01.2022
4433 Rain 5 1019 91 8203 1 99 18:46 08.01.2022
4434 Clouds 4 1019 96 473 1.53 101 17:24 08.01.2022
4435 Rain 4 1019 96 473 1.53 101 16:40 08.01.2022
4436 Rain 5 1018 94 4358 1.27 90 14:50 08.01.2022
4437 Rain 5 1018 95 1589 1.07 172 13:56 08.01.2022
4438 Clouds 7 1017 91 4662 1.91 204 11:30 08.01.2022
4439 Clouds 7 1017 90 4392 2.76 182 10:33 08.01.2022
4440 Clouds 7 1017 90 5095 2.16 163 09:57 08.01.2022
4441 Clouds 7 1017 90 5095 2.16 163 09:30 08.01.2022
4442 Clouds 6 1021 81 3876 2.26 33 05:39 08.01.2022
4443 Rain 4 1019 77 5341 4.33 27 00:59 08.01.2022
4444 Clouds 4 1019 77 10000 3.66 26 23:30 07.01.2022
4445 Clouds 4 1023 82 8712 2.92 34 21:46 07.01.2022
4446 Clouds 4 1023 81 5292 2.27 27 20:23 07.01.2022
4447 Clouds 4 1023 80 8727 2.93 29 19:26 07.01.2022
4448 Clouds 4 1022 75 10000 3.1 28 18:46 07.01.2022
4449 Clouds 4 1023 76 10000 3.35 29 18:18 07.01.2022
4450 Clouds 3 1025 78 10000 2.99 33 17:23 07.01.2022
4451 Clouds 4 1023 87 6375 1.69 50 14:55 07.01.2022
4452 Clouds 4 1023 87 3825 1.71 26 13:52 07.01.2022
4453 Clouds 5 1021 87 5302 1.24 2 12:51 07.01.2022
4454 Clouds 7 1018 71 8642 1.31 197 10:21 07.01.2022
4455 Clouds -1 1030 69 10000 5.66 27 02:59 07.01.2022
4456 Clouds -1 1030 69 10000 5.66 27 02:59 07.01.2022
4457 Clouds -2 1030 67 10000 5.47 26 02:22 07.01.2022
4458 Clouds -2 1030 67 10000 5.47 26 01:48 07.01.2022
4459 Clouds -3 1031 67 10000 5.5 28 01:25 07.01.2022
4460 Clouds -2 1030 68 10000 5.79 27 00:30 07.01.2022
4461 Clouds -2 1030 68 10000 5.67 27 22:33 06.01.2022
4462 Clear -2 1030 68 10000 5.48 28 20:43 06.01.2022
4463 Clear -2 1029 68 10000 5.48 30 19:58 06.01.2022
4464 Clear -2 1029 68 10000 5.48 30 19:36 06.01.2022
4465 Clouds -1 1029 69 10000 5.67 29 17:51 06.01.2022
4466 Clouds -1 1029 73 10000 5.46 27 17:21 06.01.2022
4467 Clouds -1 1029 73 10000 5.46 27 16:32 06.01.2022
4468 Clouds 0 1028 75 10000 5.07 26 15:44 06.01.2022
4469 Clouds 1 1026 80 10000 4.35 26 15:21 06.01.2022
4470 Clouds 3 1022 89 10000 2.87 29 14:20 06.01.2022
4471 Clouds 3 1022 89 10000 2.87 29 13:33 06.01.2022
4472 Clouds 6 1017 95 2148 0.18 196 12:20 06.01.2022
4473 Rain 6 1017 95 2148 0.18 196 11:30 06.01.2022
4474 Clouds 7 1017 93 1718 1.66 199 10:50 06.01.2022
4475 Clouds 7 1019 85 10000 1.38 186 06:38 06.01.2022
4476 Rain 5 1018 98 92 0.78 261 00:34 06.01.2022
4477 Clouds 5 1018 99 201 1.61 227 23:33 05.01.2022
4478 Rain 5 1017 98 72 1.86 222 22:48 05.01.2022
4479 Clouds 5 1017 99 81 1.4 199 22:26 05.01.2022
4480 Clouds 5 1017 99 378 2.82 180 21:28 05.01.2022
4481 Rain 5 1017 99 378 2.82 180 20:44 05.01.2022
4482 Clouds 6 1016 98 129 2.94 188 19:42 05.01.2022
4483 Rain 5 1016 98 61 2.8 196 18:22 05.01.2022
4484 Clouds 5 1015 98 64 2.38 211 16:57 05.01.2022
4485 Rain 5 1016 98 124 1.93 197 16:19 05.01.2022
4486 Rain 5 1016 98 68 1.78 175 15:20 05.01.2022
4487 Clouds 6 1016 98 78 2.82 204 13:35 05.01.2022
4488 Rain 6 1014 98 90 1.85 198 12:30 05.01.2022
4489 Rain 7 1015 98 79 2.32 195 08:47 05.01.2022
4490 Rain 7 1017 99 49 3.35 202 07:19 05.01.2022
4491 Rain 6 1019 98 451 0.84 160 01:58 05.01.2022
4492 Rain 6 1019 97 1377 0.69 261 23:44 04.01.2022
4493 Rain 6 1020 97 962 0.69 230 23:26 04.01.2022
4494 Rain 5 1021 96 1495 0.2 312 22:19 04.01.2022
4495 Clouds 6 1020 96 4537 0.55 112 20:46 04.01.2022
4496 Clouds 6 1021 97 444 0.38 229 18:44 04.01.2022
4497 Clouds 6 1022 97 289 0.57 93 17:34 04.01.2022
4498 Rain 5 1022 97 378 0.27 281 16:39 04.01.2022
4499 Rain 5 1020 96 534 0.93 45 16:20 04.01.2022
4500 Rain 4 1022 96 252 1.62 35 14:46 04.01.2022
4501 Clouds 3 1021 89 4997 2.63 44 14:23 04.01.2022
4502 Clouds 6 1019 98 112 0.58 176 12:37 04.01.2022
4503 Clouds 7 1018 98 64 2.58 198 10:29 04.01.2022
4504 Rain 7 1019 98 68 2.57 193 08:59 04.01.2022
4505 Rain 7 1021 96 321 1.91 190 06:46 04.01.2022
4506 Rain 5 1022 88 2596 1.56 26 00:50 04.01.2022
4507 Clouds 5 1022 88 2596 1.56 26 00:31 04.01.2022
4508 Clouds 5 1023 91 1416 1.97 16 22:41 03.01.2022
4509 Clouds 5 1024 90 1777 1.97 19 21:41 03.01.2022
4510 Clouds 5 1023 88 2770 0.85 40 21:23 03.01.2022
4511 Clouds 5 1024 86 2391 2.01 30 19:46 03.01.2022
4512 Clouds 5 1025 82 2698 1.91 7 18:33 03.01.2022
4513 Clouds 6 1024 72 8706 2.63 29 17:40 03.01.2022
4514 Clouds 6 1024 72 8706 2.63 29 17:40 03.01.2022
4515 Clouds 5 1024 68 10000 2.95 23 16:57 03.01.2022
4516 Clouds 5 1025 64 10000 3.72 23 14:54 03.01.2022
4517 Clouds 4 1025 64 10000 4.03 30 14:29 03.01.2022
4518 Clouds 5 1023 64 10000 2.92 37 12:35 03.01.2022
4519 Clouds 7 1021 62 10000 0.61 172 11:33 03.01.2022
4520 Clouds 10 1019 45 10000 1.36 182 09:49 03.01.2022
4521 Clouds 10 1020 43 10000 1.78 198 08:46 03.01.2022
4522 Clouds 9 1021 41 10000 0.68 211 06:48 03.01.2022
4523 Clouds 0 1029 63 10000 5.13 27 23:54 02.01.2022
4524 Clouds 0 1030 64 10000 4.92 27 23:18 02.01.2022
4525 Clouds 0 1030 64 10000 4.92 27 22:43 02.01.2022
4526 Clouds 1 1030 67 10000 4.99 27 21:38 02.01.2022
4527 Clouds 1 1030 70 10000 4.62 28 20:31 02.01.2022
4528 Clouds 1 1030 74 10000 4.54 30 19:52 02.01.2022
4529 Clouds 1 1030 78 10000 3.88 35 19:25 02.01.2022
4530 Clouds 1 1030 79 10000 3.95 37 18:33 02.01.2022
4531 Clouds 3 1028 84 10000 2.48 48 17:43 02.01.2022
4532 Clouds 4 1027 86 8463 1.56 66 17:21 02.01.2022
4533 Clouds 4 1027 86 8463 1.56 66 16:33 02.01.2022
4534 Clouds 4 1026 87 5882 1.13 99 15:51 02.01.2022
4535 Clouds 3 1025 88 5530 1.01 87 14:19 02.01.2022
4536 Clouds 4 1023 88 5442 1.13 136 12:34 02.01.2022
4537 Clouds 6 1020 83 4941 2.29 185 11:56 02.01.2022
4538 Clouds 7 1020 76 5659 2.69 185 11:20 02.01.2022
4539 Clouds 7 1020 76 5659 2.69 185 10:37 02.01.2022
4540 Clouds 8 1022 77 4989 2.37 203 08:27 02.01.2022
4541 Clouds 4 1026 86 4280 1.47 43 03:22 02.01.2022
4542 Clouds 4 1025 84 5383 1.97 45 23:58 01.01.2022
4543 Clouds 4 1025 84 5383 1.97 45 23:39 01.01.2022
4544 Clouds 4 1026 83 4962 2.03 38 22:45 01.01.2022
4545 Clouds 4 1026 80 7142 2.15 37 22:19 01.01.2022
4546 Clouds 4 1026 80 7142 2.15 37 21:43 01.01.2022
4547 Clouds 4 1026 73 9077 2.25 29 20:52 01.01.2022
4548 Clouds 4 1026 67 10000 2.17 28 19:55 01.01.2022
4549 Clouds 4 1026 64 10000 2.5 31 18:58 01.01.2022
4550 Clouds 5 1026 64 10000 2.78 29 17:57 01.01.2022
4551 Clouds 5 1026 63 10000 3.11 28 16:35 01.01.2022
4552 Clouds 4 1026 63 10000 3.47 30 15:57 01.01.2022
4553 Clouds 4 1027 63 10000 3.87 30 15:22 01.01.2022
4554 Clouds 3 1028 63 10000 4.15 28 13:42 01.01.2022
4555 Clouds 3 1026 64 10000 3.36 33 12:49 01.01.2022
4556 Clouds 6 1022 61 10000 0.74 100 11:51 01.01.2022
4557 Clouds 9 1021 54 10000 1.47 190 11:22 01.01.2022
4558 Clouds 10 1021 43 10000 1.66 195 10:26 01.01.2022
4559 Clouds 10 1021 43 10000 1.66 195 09:41 01.01.2022
4560 Clouds 10 1022 42 10000 0.58 238 08:25 01.01.2022
4561 Clouds 10 1022 42 10000 0.58 238 07:43 01.01.2022
4562 Clouds 9 1024 46 10000 1.51 11 06:47 01.01.2022
4563 Clouds 4 1029 55 10000 4.02 27 05:26 01.01.2022
4564 Clouds 4 1029 55 10000 4.02 27 04:37 01.01.2022
4565 Clouds -1 1033 51 10000 5.82 27 01:28 01.01.2022
4566 Clouds 0 1032 50 10000 5.49 27 23:35 31.12.2021
4567 Clouds 1 1031 53 10000 4.96 26 21:53 31.12.2021
4568 Clouds 1 1031 54 10000 4.91 27 20:37 31.12.2021
4569 Clouds 1 1032 55 10000 5.03 28 19:30 31.12.2021
4570 Clouds 1 1031 55 10000 4.92 26 18:37 31.12.2021
4571 Clouds 1 1032 55 10000 5.39 30 17:40 31.12.2021
4572 Clouds 1 1032 56 10000 5.07 28 17:18 31.12.2021
4573 Clouds 1 1032 57 10000 5.02 24 16:25 31.12.2021
4574 Clouds 1 1032 57 10000 5.02 24 15:57 31.12.2021
4575 Clouds 1 1032 57 10000 5.2 25 15:28 31.12.2021
4576 Clouds 1 1032 57 10000 5.2 25 14:56 31.12.2021
4577 Clouds 1 1032 57 10000 5.2 25 14:30 31.12.2021
4578 Clouds 1 1032 57 10000 4.95 27 13:36 31.12.2021
4579 Clouds 2 1029 57 10000 4.02 26 12:45 31.12.2021
4580 Clouds 5 1024 56 10000 1.14 46 11:52 31.12.2021
4581 Clouds 5 1024 56 10000 1.14 46 11:33 31.12.2021
4582 Clouds 8 1022 50 10000 0.52 161 10:38 31.12.2021
4583 Clear 9 1022 37 10000 1.12 209 10:20 31.12.2021
4584 Clear 9 1022 37 10000 1.12 209 09:33 31.12.2021
4585 Clear 9 1022 34 10000 0.82 218 08:43 31.12.2021
4586 Clear 9 1023 34 10000 0.24 239 07:31 31.12.2021
4587 Clouds -2 1035 43 10000 5.86 28 23:35 30.12.2021
4588 Clouds -2 1036 42 10000 5.79 27 22:38 30.12.2021
4589 Clouds -2 1036 43 10000 5.83 27 22:20 30.12.2021
4590 Clouds -2 1036 43 10000 5.83 27 21:37 30.12.2021
4591 Clouds -2 1036 44 10000 5.82 27 20:48 30.12.2021
4592 Clouds -2 1037 46 10000 5.85 28 20:28 30.12.2021
4593 Clouds -2 1037 46 10000 5.85 28 19:48 30.12.2021
4594 Clouds -2 1037 46 10000 5.81 28 18:51 30.12.2021
4595 Clouds -2 1037 48 10000 5.95 27 18:20 30.12.2021
4596 Clouds -3 1038 50 10000 5.92 27 16:34 30.12.2021
4597 Clouds -2 1037 52 10000 5.68 27 15:52 30.12.2021
4598 Clouds -3 1037 53 10000 5.47 27 14:41 30.12.2021
4599 Clouds -2 1036 55 10000 5.21 26 14:19 30.12.2021
4600 Clouds -1 1033 57 10000 4.12 27 13:23 30.12.2021
4601 Clouds 3 1026 53 10000 0.96 63 11:34 30.12.2021
4602 Clouds 7 1023 37 10000 1.73 198 10:27 30.12.2021
4603 Clouds 7 1024 34 10000 1.86 204 09:27 30.12.2021
4604 Clouds 6 1026 37 10000 1.16 25 06:55 30.12.2021
4605 Clouds 1 1032 47 10000 3.99 27 04:42 30.12.2021
4606 Clouds -3 1036 45 10000 5.36 28 03:40 30.12.2021
4607 Clouds -5 1038 44 10000 6.09 26 01:56 30.12.2021
4608 Clear -5 1037 44 10000 6.12 26 23:36 29.12.2021
4609 Clear -5 1037 47 10000 6.21 27 22:32 29.12.2021
4610 Clear -5 1037 49 10000 6.09 26 21:54 29.12.2021
4611 Clear -5 1037 50 10000 6.11 27 20:56 29.12.2021
4612 Clear -4 1036 50 10000 6.21 26 20:25 29.12.2021
4613 Clear -4 1036 50 10000 6.21 26 19:31 29.12.2021
4614 Clear -4 1036 50 10000 6.22 26 18:35 29.12.2021
4615 Clear -4 1036 51 10000 6.31 26 17:41 29.12.2021
4616 Clear -4 1036 52 10000 6.33 25 17:20 29.12.2021
4617 Clear -4 1036 54 10000 6.24 24 16:19 29.12.2021
4618 Clear -4 1034 56 10000 5.92 26 15:21 29.12.2021
4619 Clouds -2 1029 61 10000 4.06 28 12:57 29.12.2021
4620 Clear -2 1029 60 10000 4.25 26 12:32 29.12.2021
4621 Clouds 5 1019 52 10000 0.06 12 11:22 29.12.2021
4622 Clouds 6 1019 43 10000 0.46 193 09:30 29.12.2021
4623 Clear 5 1020 42 10000 0.19 192 07:30 29.12.2021
4624 Clear 5 1022 43 10000 0.96 355 06:32 29.12.2021
4625 Clear 3 1024 47 10000 2.25 9 05:55 29.12.2021
4626 Clear 0 1027 55 10000 3.72 20 04:58 29.12.2021
4627 Clear -5 1032 56 10000 5.77 27 00:43 29.12.2021
4628 Clear -5 1033 57 10000 5.64 26 23:58 28.12.2021
4629 Clear -5 1033 58 10000 5.7 27 22:57 28.12.2021
4630 Clear -5 1034 59 10000 5.66 26 22:25 28.12.2021
4631 Clear -5 1034 59 10000 5.66 26 22:25 28.12.2021
4632 Clear -5 1034 59 10000 5.66 26 22:25 28.12.2021
4633 Clear -5 1034 59 10000 5.66 26 21:54 28.12.2021
4634 Clear -5 1034 59 10000 5.66 26 21:35 28.12.2021
4635 Clear -5 1034 60 10000 5.46 26 20:25 28.12.2021
4636 Clear -5 1034 58 10000 5.43 26 18:54 28.12.2021
4637 Clear -5 1034 59 10000 5.47 26 18:28 28.12.2021
4638 Clear -5 1034 59 10000 5.47 26 17:39 28.12.2021
4639 Clouds -4 1033 64 10000 5.25 28 16:21 28.12.2021
4640 Clouds -4 1033 64 10000 5.25 28 15:41 28.12.2021
4641 Clouds -4 1032 66 10000 5.01 28 14:56 28.12.2021
4642 Clouds -4 1032 66 10000 5.01 28 14:56 28.12.2021
4643 Clouds -4 1032 66 10000 5.01 28 14:38 28.12.2021
4644 Clouds -4 1032 66 10000 5.01 28 14:38 28.12.2021
4645 Clouds -3 1031 68 10000 4.76 28 14:19 28.12.2021
4646 Clouds -3 1031 68 10000 4.76 28 13:37 28.12.2021
4647 Clouds -2 1028 69 10000 3.27 33 12:56 28.12.2021
4648 Clouds 2 1021 62 10000 0.69 124 12:29 28.12.2021
4649 Clouds 5 1018 52 10000 1.78 187 10:51 28.12.2021
4650 Clouds 6 1020 41 10000 0.95 242 07:39 28.12.2021
4651 Clouds 5 1022 44 10000 1.36 356 06:40 28.12.2021
4652 Clear -5 1035 57 10000 5.89 27 23:42 27.12.2021
4653 Clear -5 1035 58 10000 5.89 26 22:31 27.12.2021
4654 Clear -5 1036 58 10000 5.91 27 21:32 27.12.2021
4655 Clear -5 1036 58 10000 5.74 28 20:45 27.12.2021
4656 Clear -4 1036 59 10000 5.75 26 19:56 27.12.2021
4657 Clear -4 1036 59 10000 5.75 26 19:38 27.12.2021
4658 Clouds -4 1036 62 10000 5.74 27 17:55 27.12.2021
4659 Clouds -4 1036 65 10000 5.48 27 17:29 27.12.2021
4660 Clouds -4 1036 65 10000 5.48 27 16:36 27.12.2021
4661 Clouds -4 1035 69 10000 5.33 27 15:51 27.12.2021
4662 Clouds -3 1033 72 10000 5.1 28 14:30 27.12.2021
4663 Clouds -2 1032 77 10000 4.84 30 13:38 27.12.2021
4664 Clouds 3 1023 74 10000 1.09 129 11:41 27.12.2021
4665 Clouds 6 1020 58 10000 2.21 187 10:28 27.12.2021
4666 Clouds 6 1020 58 10000 2.21 187 09:39 27.12.2021
4667 Clouds 5 1022 54 10000 1.58 203 07:35 27.12.2021
4668 Clouds 5 1023 55 10000 0.43 347 06:38 27.12.2021
4669 Clouds -3 1033 71 10000 4.94 28 01:59 27.12.2021
4670 Clouds -3 1031 74 10000 4.15 25 23:57 26.12.2021
4671 Clouds -3 1031 74 10000 4.15 25 23:34 26.12.2021
4672 Clouds -2 1030 82 10000 3.51 24 21:53 26.12.2021
4673 Clouds -1 1029 87 4027 2.76 24 20:54 26.12.2021
4674 Snow -1 1029 90 2137 2.56 22 19:46 26.12.2021
4675 Clouds 0 1029 90 2256 2.34 22 18:23 26.12.2021
4676 Rain 2 1026 94 640 0.47 64 15:57 26.12.2021
4677 Clouds 2 1024 90 701 0.7 153 14:27 26.12.2021
4678 Clouds 2 1024 90 701 0.7 153 13:40 26.12.2021
4679 Clouds 2 1023 90 819 0.68 199 13:19 26.12.2021
4680 Clouds 2 1024 89 1154 0.78 178 12:32 26.12.2021
4681 Clouds 4 1021 67 5501 2.28 208 10:32 26.12.2021
4682 Clouds 5 1021 53 10000 2.08 191 09:19 26.12.2021
4683 Clouds 5 1021 53 10000 2.08 191 08:43 26.12.2021
4684 Clouds 6 1021 47 10000 2.52 199 07:34 26.12.2021
4685 Clouds -1 1027 53 10000 4.95 29 01:27 26.12.2021
4686 Clouds -1 1029 54 10000 5.13 30 23:54 25.12.2021
4687 Clouds -1 1029 55 10000 5.14 29 23:27 25.12.2021
4688 Clouds -1 1029 57 10000 5.02 28 22:26 25.12.2021
4689 Clouds -1 1030 57 10000 5.31 27 20:59 25.12.2021
4690 Clouds -2 1031 60 10000 5.28 29 19:26 25.12.2021
4691 Clouds -2 1031 60 10000 5.35 29 18:55 25.12.2021
4692 Clouds -2 1031 62 10000 5.2 29 17:37 25.12.2021
4693 Clouds -1 1030 63 10000 5.16 29 16:41 25.12.2021
4694 Clouds 0 1028 64 10000 4.63 31 15:24 25.12.2021
4695 Clouds 0 1027 66 10000 4.2 34 13:31 25.12.2021
4696 Clouds 5 1019 65 10000 0.7 147 11:53 25.12.2021
4697 Clouds 7 1017 47 10000 2.31 191 09:57 25.12.2021
4698 Clouds 7 1017 47 10000 2.31 191 09:37 25.12.2021
4699 Clouds 3 1024 50 10000 3.55 20 04:34 25.12.2021
4700 Clouds -3 1030 54 10000 5.76 24 01:27 25.12.2021
4701 Clouds -3 1031 55 10000 5.94 28 23:47 24.12.2021
4702 Clouds -2 1031 64 10000 5.61 25 19:50 24.12.2021
4703 Clouds -2 1031 67 10000 5.33 26 19:24 24.12.2021
4704 Clouds -2 1031 68 10000 5.16 28 18:23 24.12.2021
4705 Clouds -1 1029 72 10000 4.69 31 16:29 24.12.2021
4706 Clouds -1 1029 72 10000 4.69 31 15:49 24.12.2021
4707 Clouds -1 1028 74 10000 4.51 32 15:20 24.12.2021
4708 Clouds -1 1028 74 10000 4.51 32 14:31 24.12.2021
4709 Clouds 0 1026 76 10000 3.94 35 13:44 24.12.2021
4710 Clouds 1 1023 78 10000 2.34 57 12:55 24.12.2021
4711 Clouds 1 1023 76 10000 2.46 57 12:34 24.12.2021
4712 Clouds 5 1018 68 10000 1.68 159 11:42 24.12.2021
4713 Clouds 8 1016 59 10000 2.59 187 11:19 24.12.2021
4714 Clouds 8 1016 59 10000 2.59 187 10:33 24.12.2021
4715 Clouds 9 1016 51 10000 2.25 191 08:40 24.12.2021
4716 Clouds 8 1017 49 10000 1.69 212 07:58 24.12.2021
4717 Clear 8 1019 49 10000 0.36 313 06:44 24.12.2021
4718 Clouds -1 1028 64 10000 5.77 28 00:21 24.12.2021
4719 Clouds -1 1028 64 10000 5.77 28 23:39 23.12.2021
4720 Clouds -1 1028 65 10000 5.65 28 22:51 23.12.2021
4721 Clouds 0 1027 66 10000 5.45 29 22:24 23.12.2021
4722 Clouds 0 1027 66 10000 5.45 29 21:39 23.12.2021
4723 Clouds 0 1027 67 10000 5.43 28 20:30 23.12.2021
4724 Clouds 0 1028 67 10000 5.06 28 19:28 23.12.2021
4725 Clouds 0 1028 67 10000 5.29 30 18:18 23.12.2021
4726 Clouds 0 1028 67 10000 5.29 30 17:45 23.12.2021
4727 Clouds 2 1026 72 10000 4.74 33 16:27 23.12.2021
4728 Clouds 2 1026 72 10000 4.74 33 15:40 23.12.2021
4729 Clouds 2 1024 75 10000 4.25 37 15:22 23.12.2021
4730 Clouds 2 1024 75 10000 4.25 37 14:40 23.12.2021
4731 Clouds 2 1023 78 10000 3.72 43 13:43 23.12.2021
4732 Clouds 7 1017 76 10000 1.62 181 11:52 23.12.2021
4733 Clouds 9 1016 63 10000 2.73 194 09:53 23.12.2021
4734 Clouds 9 1016 63 10000 2.73 194 09:34 23.12.2021
4735 Clouds 10 1016 60 10000 2.52 194 08:38 23.12.2021
4736 Clouds 9 1019 59 10000 0.35 20 05:43 23.12.2021
4737 Clouds 2 1024 69 10000 4.55 28 02:56 23.12.2021
4738 Clouds 2 1023 66 10000 4.18 29 22:53 22.12.2021
4739 Clouds 3 1022 66 10000 4.25 32 22:22 22.12.2021
4740 Clouds 3 1022 66 10000 4.25 32 21:37 22.12.2021
4741 Clouds 3 1022 63 10000 4.01 32 21:19 22.12.2021
4742 Clouds 3 1022 63 10000 4.01 32 20:40 22.12.2021
4743 Clouds 3 1023 61 10000 4.23 29 19:57 22.12.2021
4744 Clear 2 1025 60 10000 4.84 28 18:56 22.12.2021
4745 Clear 2 1025 60 10000 4.75 30 17:38 22.12.2021
4746 Clear 2 1025 60 10000 4.76 30 16:32 22.12.2021
4747 Clear 2 1024 61 10000 4.72 28 15:21 22.12.2021
4748 Clouds 3 1021 64 10000 3.72 30 12:59 22.12.2021
4749 Clouds 6 1017 62 10000 0.82 73 11:58 22.12.2021
4750 Clouds 10 1015 48 10000 1.65 181 09:53 22.12.2021
4751 Clouds 10 1016 46 10000 2.47 192 08:58 22.12.2021
4752 Clouds 10 1017 43 10000 0.14 83 07:21 22.12.2021
4753 Clear 9 1019 48 10000 1.83 20 05:39 22.12.2021
4754 Clear 6 1021 51 10000 3.33 23 05:20 22.12.2021
4755 Clear 6 1021 51 10000 3.33 23 04:42 22.12.2021
4756 Clouds 2 1025 49 10000 4.92 27 03:56 22.12.2021
4757 Clouds 2 1025 49 10000 4.92 27 03:31 22.12.2021
4758 Clouds 1 1026 51 10000 5.74 27 23:57 21.12.2021
4759 Clouds 1 1026 53 10000 5.62 26 22:44 21.12.2021
4760 Clouds 0 1027 55 10000 5.7 25 22:24 21.12.2021
4761 Clouds 0 1027 55 10000 5.7 25 21:42 21.12.2021
4762 Clouds 0 1028 56 10000 5.87 27 20:44 21.12.2021
4763 Clouds 0 1029 57 10000 5.76 27 20:20 21.12.2021
4764 Clouds 0 1029 57 10000 5.76 27 20:20 21.12.2021
4765 Clouds 0 1029 57 10000 5.76 27 19:40 21.12.2021
4766 Clouds 0 1029 59 10000 5.76 27 18:36 21.12.2021
4767 Clear 0 1029 60 10000 5.69 27 17:59 21.12.2021
4768 Clear 0 1029 60 10000 5.69 27 17:40 21.12.2021
4769 Clear 0 1029 64 10000 5.33 27 15:46 21.12.2021
4770 Clear 1 1027 68 10000 4.77 27 14:29 21.12.2021
4771 Clear 1 1027 68 10000 4.77 27 13:42 21.12.2021
4772 Clouds 2 1024 69 10000 4.02 30 12:39 21.12.2021
4773 Clouds 8 1017 61 10000 1.48 181 10:53 21.12.2021
4774 Clouds 9 1016 50 10000 2.04 198 09:57 21.12.2021
4775 Clouds 10 1017 46 10000 1.06 178 09:18 21.12.2021
4776 Clouds 9 1018 45 10000 1.23 185 07:45 21.12.2021
4777 Clouds 9 1019 48 10000 0.55 212 07:24 21.12.2021
4778 Clouds 6 1022 55 10000 2.72 22 04:37 21.12.2021
4779 Clouds 1 1026 52 10000 5.27 29 02:31 21.12.2021
4780 Clouds 1 1026 52 10000 4.91 29 23:57 20.12.2021
4781 Clouds 1 1026 53 10000 4.89 29 22:48 20.12.2021
4782 Clouds 1 1026 54 10000 4.87 28 22:27 20.12.2021
4783 Clouds 1 1026 55 10000 4.77 29 21:28 20.12.2021
4784 Clouds 1 1026 55 10000 4.77 29 20:57 20.12.2021
4785 Clouds 1 1026 55 10000 4.77 29 20:32 20.12.2021
4786 Clouds 2 1027 56 10000 4.66 29 19:39 20.12.2021
4787 Clouds 2 1027 56 10000 4.61 29 19:20 20.12.2021
4788 Clouds 2 1027 56 10000 4.71 28 18:35 20.12.2021
4789 Clouds 2 1027 55 10000 4.73 29 17:52 20.12.2021
4790 Clouds 2 1026 54 10000 4.66 31 16:53 20.12.2021
4791 Clouds 2 1026 54 10000 4.66 31 16:35 20.12.2021
4792 Clouds 3 1026 55 10000 4.58 27 15:43 20.12.2021
4793 Clouds 3 1025 55 10000 4.33 29 14:40 20.12.2021
4794 Clouds 4 1022 58 10000 3.73 24 12:41 20.12.2021
4795 Clouds 10 1017 54 10000 1.27 170 10:55 20.12.2021
4796 Clouds 11 1017 44 10000 1.76 193 09:47 20.12.2021
4797 Clouds 12 1017 42 10000 1.99 200 08:56 20.12.2021
4798 Clouds 12 1017 42 10000 1.99 200 08:38 20.12.2021
4799 Clouds 12 1018 39 10000 1.53 202 07:44 20.12.2021
4800 Clear 12 1019 38 10000 0.19 327 06:40 20.12.2021
4801 Clear 2 1027 39 10000 5.83 29 02:32 20.12.2021
4802 Clear 1 1027 37 10000 5.92 28 23:37 19.12.2021
4803 Clear 1 1027 37 10000 5.86 28 22:44 19.12.2021
4804 Clear 1 1028 37 10000 5.78 26 21:49 19.12.2021
4805 Clear 1 1028 37 10000 5.82 29 21:25 19.12.2021
4806 Clear 1 1029 38 10000 5.89 29 20:29 19.12.2021
4807 Clear 1 1029 38 10000 5.89 29 19:45 19.12.2021
4808 Clear 1 1030 38 10000 5.75 28 18:54 19.12.2021
4809 Clear 0 1030 40 10000 5.97 24 18:24 19.12.2021
4810 Clear 0 1030 40 10000 5.97 24 17:46 19.12.2021
4811 Clear 0 1031 41 10000 6.38 33 16:55 19.12.2021
4812 Clear 0 1032 43 10000 6.09 27 15:58 19.12.2021
4813 Clear 0 1030 46 10000 6.11 27 15:26 19.12.2021
4814 Clear 0 1030 46 10000 6.11 27 14:49 19.12.2021
4815 Clear 0 1030 48 10000 5.87 27 13:46 19.12.2021
4816 Clear 1 1028 51 10000 5.16 29 13:21 19.12.2021
4817 Clear 1 1028 51 10000 5.16 29 12:33 19.12.2021
4818 Clear 5 1022 52 10000 2.19 40 11:40 19.12.2021
4819 Clear 8 1020 48 10000 0.61 122 10:52 19.12.2021
4820 Clear 10 1019 41 10000 0.65 147 10:23 19.12.2021
4821 Clear 10 1019 37 10000 0.55 204 09:26 19.12.2021
4822 Clear 10 1020 36 10000 0.89 35 07:47 19.12.2021
4823 Clear -3 1034 33 10000 7.53 27 02:35 19.12.2021
4824 Clear -4 1034 33 10000 7.09 25 00:55 19.12.2021
4825 Clear -4 1035 34 10000 7.34 29 23:31 18.12.2021
4826 Clear -4 1035 34 10000 7.34 27 22:31 18.12.2021
4827 Clear -5 1036 35 10000 7.31 27 21:54 18.12.2021
4828 Clear -5 1036 35 10000 7.31 27 21:33 18.12.2021
4829 Clear -5 1037 36 10000 7.26 28 20:44 18.12.2021
4830 Clear -5 1037 36 10000 7.33 28 19:50 18.12.2021
4831 Clear -5 1038 37 10000 7.31 27 19:19 18.12.2021
4832 Clear -6 1039 38 10000 7.54 27 18:19 18.12.2021
4833 Clear -6 1039 38 10000 7.54 27 17:47 18.12.2021
4834 Clear -6 1041 42 10000 7.79 26 16:25 18.12.2021
4835 Clear -6 1040 44 10000 7.73 27 15:26 18.12.2021
4836 Clear -6 1039 47 10000 7.54 26 14:22 18.12.2021
4837 Clear -4 1036 51 10000 6.7 26 13:18 18.12.2021
4838 Clear 4 1024 47 10000 3.43 29 10:52 18.12.2021
4839 Clear 5 1023 40 10000 3.24 28 09:37 18.12.2021
4840 Clear 5 1023 35 10000 3.41 29 08:43 18.12.2021
4841 Clear 5 1024 36 10000 3.62 29 08:18 18.12.2021
4842 Clear -7 1039 48 10000 7.4 26 01:48 18.12.2021
4843 Clouds -7 1037 48 10000 7.32 27 00:27 18.12.2021
4844 Clouds -7 1037 48 10000 7.32 27 23:37 17.12.2021
4845 Clouds -6 1037 49 10000 7.09 27 21:56 17.12.2021
4846 Clouds -6 1037 50 10000 6.96 26 20:51 17.12.2021
4847 Clouds -6 1037 50 10000 6.96 26 20:31 17.12.2021
4848 Clouds -6 1037 52 10000 6.86 26 18:58 17.12.2021
4849 Clouds -6 1037 52 10000 6.86 26 18:38 17.12.2021
4850 Clouds -5 1036 56 10000 6.31 24 17:26 17.12.2021
4851 Clouds -5 1036 56 10000 6.31 24 16:44 17.12.2021
4852 Clouds -5 1035 59 10000 5.75 24 16:19 17.12.2021
4853 Clouds -4 1033 61 10000 5.31 23 15:20 17.12.2021
4854 Clouds -4 1033 61 10000 5.31 23 14:38 17.12.2021
4855 Clouds -3 1029 67 10000 4.03 26 12:46 17.12.2021
4856 Clouds 4 1019 55 10000 0.82 141 11:27 17.12.2021
4857 Clouds 5 1019 44 10000 0.63 127 09:59 17.12.2021
4858 Clouds 5 1020 42 10000 0.71 49 08:58 17.12.2021
4859 Clouds 4 1021 43 10000 1.26 33 08:29 17.12.2021
4860 Clouds 2 1026 49 10000 3.14 28 05:41 17.12.2021
4861 Clouds -6 1037 59 10000 6.09 30 02:52 17.12.2021
4862 Clouds -5 1033 63 10000 5.18 29 23:20 16.12.2021
4863 Clouds -5 1033 64 10000 4.94 28 22:24 16.12.2021
4864 Clouds -5 1033 64 10000 4.94 28 22:24 16.12.2021
4865 Clouds -5 1033 64 10000 4.94 28 22:24 16.12.2021
4866 Clouds -5 1033 64 10000 4.94 28 21:47 16.12.2021
4867 Clouds -4 1033 64 10000 4.8 30 21:20 16.12.2021
4868 Clouds -4 1033 63 10000 4.77 29 20:27 16.12.2021
4869 Clouds -4 1033 63 10000 4.77 29 19:36 16.12.2021
4870 Clouds -5 1035 63 10000 4.86 29 18:38 16.12.2021
4871 Clouds -5 1035 64 10000 4.94 29 17:49 16.12.2021
4872 Clouds -5 1035 64 10000 4.85 30 17:28 16.12.2021
4873 Clouds -5 1034 65 10000 4.88 31 16:21 16.12.2021
4874 Clouds -4 1033 66 10000 4.7 32 14:50 16.12.2021
4875 Clear -4 1030 67 10000 3.57 36 12:57 16.12.2021
4876 Clear 4 1020 50 10000 2.52 181 11:20 16.12.2021
4877 Clear 4 1020 50 10000 2.52 181 10:48 16.12.2021
4878 Clear 5 1020 41 10000 3.16 186 09:59 16.12.2021
4879 Clear 5 1020 33 10000 3.17 194 07:31 16.12.2021
4880 Clear 4 1023 39 10000 0.46 347 06:19 16.12.2021
4881 Clear -5 1033 43 10000 5.6 29 00:54 16.12.2021
4882 Clear -5 1034 45 10000 5.58 28 23:22 15.12.2021
4883 Clear -5 1034 45 10000 5.62 28 22:29 15.12.2021
4884 Clear -5 1034 45 10000 5.62 28 21:52 15.12.2021
4885 Clear -5 1034 45 10000 5.68 29 21:26 15.12.2021
4886 Clear -5 1034 47 10000 5.79 29 19:55 15.12.2021
4887 Clear -5 1034 47 10000 5.79 29 19:36 15.12.2021
4888 Clear -5 1035 46 10000 5.99 30 18:37 15.12.2021
4889 Clear -4 1035 46 10000 6.03 29 17:51 15.12.2021
4890 Clear -4 1035 46 10000 6.03 29 17:51 15.12.2021
4891 Clear -4 1035 46 10000 6.03 29 17:32 15.12.2021
4892 Clear -4 1033 49 10000 5.75 30 16:27 15.12.2021
4893 Clear -4 1033 49 10000 5.75 30 15:46 15.12.2021
4894 Clear -3 1033 51 10000 5.58 30 15:27 15.12.2021
4895 Clear -3 1031 53 10000 5.46 31 14:18 15.12.2021
4896 Clear -2 1030 57 10000 4.47 32 12:32 15.12.2021
4897 Clear 6 1020 37 10000 2.28 189 10:27 15.12.2021
4898 Clear 6 1020 36 10000 1.98 195 08:55 15.12.2021
4899 Clear 6 1023 40 10000 0.71 320 06:54 15.12.2021
4900 Clear -4 1033 63 10000 5.13 29 01:20 15.12.2021
4901 Clear -3 1033 63 10000 5.11 29 23:42 14.12.2021
4902 Clear -3 1032 64 10000 4.98 29 22:48 14.12.2021
4903 Clear -3 1032 65 10000 4.83 30 22:19 14.12.2021
4904 Clear -2 1032 65 10000 4.54 32 20:28 14.12.2021
4905 Clear -2 1032 65 10000 4.54 32 19:40 14.12.2021
4906 Clouds -2 1032 66 10000 4.42 33 18:53 14.12.2021
4907 Clouds -2 1031 66 10000 4.31 33 18:25 14.12.2021
4908 Clouds -2 1031 66 10000 4.31 33 17:30 14.12.2021
4909 Clouds -2 1030 68 10000 4.15 33 16:39 14.12.2021
4910 Clouds -1 1029 69 10000 3.82 32 15:35 14.12.2021
4911 Clouds 0 1027 70 10000 3.5 33 13:31 14.12.2021
4912 Clouds 3 1022 66 10000 1.44 146 11:59 14.12.2021
4913 Clouds 6 1018 56 10000 2.99 189 11:24 14.12.2021
4914 Clouds 7 1018 47 10000 3.74 193 10:23 14.12.2021
4915 Clouds 7 1018 47 10000 3.74 193 09:43 14.12.2021
4916 Clouds 7 1019 44 10000 3.5 195 08:28 14.12.2021
4917 Clouds 7 1019 44 10000 3.5 195 07:43 14.12.2021
4918 Clear 6 1021 47 10000 0.58 243 05:35 14.12.2021
4919 Clouds -1 1028 56 10000 4.62 31 22:56 13.12.2021
4920 Clouds -1 1028 57 10000 4.62 31 21:53 13.12.2021
4921 Clouds -1 1028 57 10000 4.62 31 21:33 13.12.2021
4922 Clouds -1 1028 56 10000 4.61 31 20:43 13.12.2021
4923 Clouds 0 1029 56 10000 4.58 32 19:53 13.12.2021
4924 Clouds 0 1029 55 10000 4.73 33 18:33 13.12.2021
4925 Clouds 1 1028 56 10000 4.41 32 17:26 13.12.2021
4926 Clouds 1 1027 57 10000 4.21 32 15:56 13.12.2021
4927 Clouds 1 1027 57 10000 4.21 32 15:38 13.12.2021
4928 Clouds 3 1024 62 10000 3.45 35 13:47 13.12.2021
4929 Clouds 3 1023 64 10000 3.1 38 13:18 13.12.2021
4930 Clouds 5 1021 64 10000 1.3 93 12:19 13.12.2021
4931 Clouds 5 1021 64 10000 1.3 93 11:35 13.12.2021
4932 Clouds 8 1019 56 10000 2.15 177 10:53 13.12.2021
4933 Clear 10 1019 47 10000 2.77 184 10:21 13.12.2021
4934 Clear 10 1020 39 10000 2.68 201 07:57 13.12.2021
4935 Clear 9 1022 44 10000 1.06 7 05:37 13.12.2021
4936 Clear 2 1029 46 10000 4.75 27 03:31 13.12.2021
4937 Clouds 1 1029 46 10000 5.39 28 23:27 12.12.2021
4938 Clouds 1 1028 48 10000 5.14 28 21:50 12.12.2021
4939 Clouds 2 1029 48 10000 5.02 29 20:45 12.12.2021
4940 Clouds 2 1029 49 10000 4.84 27 19:30 12.12.2021
4941 Clouds 2 1029 49 10000 4.81 29 17:46 12.12.2021
4942 Clouds 3 1028 53 10000 4.94 29 16:28 12.12.2021
4943 Clouds 3 1028 53 10000 4.94 29 15:51 12.12.2021
4944 Clouds 3 1028 56 10000 4.65 30 15:26 12.12.2021
4945 Clouds 3 1028 56 10000 4.65 30 14:37 12.12.2021
4946 Clouds 3 1027 58 10000 4.6 29 13:43 12.12.2021
4947 Clouds 3 1025 59 10000 4.05 29 12:37 12.12.2021
4948 Clouds 7 1022 60 10000 0.91 45 11:45 12.12.2021
4949 Clouds 10 1020 54 10000 0.44 179 11:25 12.12.2021
4950 Clouds 10 1020 54 10000 0.44 179 10:39 12.12.2021
4951 Clouds 11 1020 42 10000 0.69 166 09:45 12.12.2021
4952 Clouds 11 1021 41 10000 1.71 191 08:38 12.12.2021
4953 Clouds 11 1022 35 10000 0.72 225 06:34 12.12.2021
4954 Clouds 8 1024 48 10000 2.48 20 05:27 12.12.2021
4955 Clouds 5 1026 45 10000 4.54 30 03:58 12.12.2021
4956 Clouds 3 1028 42 10000 5.35 27 00:42 12.12.2021
4957 Clouds 2 1030 40 10000 5.74 28 22:42 11.12.2021
4958 Clouds 2 1030 39 10000 5.91 27 22:19 11.12.2021
4959 Clouds 1 1031 40 10000 6 28 21:22 11.12.2021
4960 Clouds 1 1032 41 10000 5.99 28 19:46 11.12.2021
4961 Clouds 1 1032 43 10000 6.01 28 19:20 11.12.2021
4962 Clouds 1 1032 43 10000 6.01 28 18:39 11.12.2021
4963 Clear 1 1033 45 10000 6.07 28 17:41 11.12.2021
4964 Clear 1 1033 51 10000 5.91 28 15:57 11.12.2021
4965 Clear 1 1033 51 10000 5.91 28 15:37 11.12.2021
4966 Clear 1 1032 53 10000 5.75 27 14:33 11.12.2021
4967 Clear 6 1023 60 10000 1.8 42 12:20 11.12.2021
4968 Clear 10 1021 54 10000 0.99 168 10:43 11.12.2021
4969 Clear 11 1021 46 10000 1.87 188 09:38 11.12.2021
4970 Clear 0 1031 36 10000 6.49 28 03:26 11.12.2021
4971 Clear -1 1031 37 10000 6.52 27 00:47 11.12.2021
4972 Clear -1 1031 38 10000 6.5 27 23:42 10.12.2021
4973 Clear -1 1032 39 10000 6.55 27 22:33 10.12.2021
4974 Clear -1 1033 39 10000 6.51 26 21:40 10.12.2021
4975 Clear -1 1034 40 10000 6.56 27 20:22 10.12.2021
4976 Clear -1 1035 41 10000 6.6 27 19:18 10.12.2021
4977 Clear -1 1035 42 10000 6.65 27 17:46 10.12.2021
4978 Clear -1 1036 43 10000 6.75 27 16:35 10.12.2021
4979 Clear -1 1036 45 10000 6.7 27 15:43 10.12.2021
4980 Clear -1 1036 48 10000 6.57 26 15:25 10.12.2021
4981 Clear -1 1035 51 10000 6.3 26 14:29 10.12.2021
4982 Clear -1 1035 51 10000 6.3 26 13:48 10.12.2021
4983 Clear 0 1032 54 10000 5.49 26 12:55 10.12.2021
4984 Clear 0 1032 54 10000 5.49 26 12:55 10.12.2021
4985 Clear 4 1026 54 10000 2.91 32 11:41 10.12.2021
4986 Clear 9 1023 50 10000 0.95 22 10:56 10.12.2021
4987 Clear 10 1022 46 10000 0.44 352 09:36 10.12.2021
4988 Clear 8 1025 42 10000 2.46 22 07:28 10.12.2021
4989 Clear 4 1031 44 10000 4.74 27 04:57 10.12.2021
4990 Clear -2 1038 39 10000 6.9 27 02:39 10.12.2021
4991 Clear -2 1036 42 10000 6.55 27 23:40 09.12.2021
4992 Clear -2 1037 43 10000 6.46 27 22:41 09.12.2021
4993 Clear -2 1037 43 10000 6.46 27 22:41 09.12.2021
4994 Clear -2 1037 44 10000 6.3 26 22:21 09.12.2021
4995 Clear -2 1037 44 10000 6.3 26 21:40 09.12.2021
4996 Clear -1 1037 45 10000 6.24 26 20:35 09.12.2021
4997 Clear -1 1037 46 10000 6.09 26 19:43 09.12.2021
4998 Clear -1 1037 46 10000 5.93 27 19:20 09.12.2021
4999 Clear -1 1036 47 10000 5.65 28 18:19 09.12.2021
5000 Clear -1 1036 47 10000 5.65 28 17:48 09.12.2021
5001 Clear 0 1036 49 10000 5.4 30 17:24 09.12.2021
5002 Clear 0 1036 49 10000 5.4 30 16:41 09.12.2021
5003 Clear 0 1035 54 10000 5.2 31 15:19 09.12.2021
5004 Clear 0 1034 56 10000 5.15 31 14:36 09.12.2021
5005 Clear 1 1031 64 10000 4.17 32 12:48 09.12.2021
5006 Clear 5 1025 64 10000 1.19 81 11:51 09.12.2021
5007 Clear 10 1023 48 10000 2.54 185 10:28 09.12.2021
5008 Clear 11 1024 39 10000 2.23 207 07:53 09.12.2021
5009 Clear 2 1031 47 10000 5 27 03:58 09.12.2021
5010 Clear 0 1032 45 10000 5.76 27 00:26 09.12.2021
5011 Clear 0 1032 45 10000 5.76 27 23:37 08.12.2021
5012 Clear 0 1032 45 10000 5.69 27 22:57 08.12.2021
5013 Clear 0 1032 45 10000 5.69 27 22:36 08.12.2021
5014 Clear 0 1032 46 10000 5.68 27 21:38 08.12.2021
5015 Clear 0 1033 47 10000 5.63 27 20:58 08.12.2021
5016 Clear 0 1033 48 10000 5.61 28 19:57 08.12.2021
5017 Clear 1 1033 48 10000 5.63 28 19:29 08.12.2021
5018 Clear 1 1032 49 10000 5.54 28 18:22 08.12.2021
5019 Clouds 1 1032 52 10000 5.54 28 16:55 08.12.2021
5020 Clouds 1 1031 56 10000 5.36 30 15:45 08.12.2021
5021 Clouds 2 1030 62 10000 5.18 29 15:23 08.12.2021
5022 Clouds 3 1026 71 10000 3.9 33 13:27 08.12.2021
5023 Clouds 10 1021 62 10000 1.83 178 10:45 08.12.2021
5024 Clouds 11 1020 52 10000 2.26 187 10:23 08.12.2021
5025 Clouds 11 1021 49 10000 2.39 189 08:54 08.12.2021
5026 Clouds 12 1021 47 10000 1.66 202 06:52 08.12.2021
5027 Clouds 7 1022 60 10000 4.04 30 01:21 08.12.2021
5028 Clouds 7 1022 55 10000 3.93 26 23:29 07.12.2021
5029 Clouds 6 1024 52 10000 4.03 23 21:26 07.12.2021
5030 Clouds 5 1026 51 10000 4.43 28 20:26 07.12.2021
5031 Clouds 5 1026 51 10000 4.43 28 20:26 07.12.2021
5032 Clear 2 1030 48 10000 5.51 31 19:23 07.12.2021
5033 Clear 2 1030 48 10000 5.51 31 18:37 07.12.2021
5034 Clear 2 1031 54 10000 5.67 30 17:27 07.12.2021
5035 Clear 2 1031 54 10000 5.67 30 16:57 07.12.2021
5036 Clear 2 1030 55 10000 5.53 30 16:27 07.12.2021
5037 Clear 2 1029 56 10000 5.31 30 14:47 07.12.2021
5038 Clear 3 1028 57 10000 5.05 30 13:45 07.12.2021
5039 Clear 6 1023 59 10000 2.1 38 12:27 07.12.2021
5040 Clear 10 1020 52 10000 0.62 156 11:23 07.12.2021
5041 Clear 11 1020 46 10000 0.98 188 09:43 07.12.2021
5042 Clear 11 1021 42 10000 0.3 4 07:52 07.12.2021
5043 Clear 8 1024 51 10000 2.9 21 05:54 07.12.2021
5044 Clear 5 1027 53 10000 4.42 25 05:26 07.12.2021
5045 Clear -1 1031 56 10000 6.44 28 23:41 06.12.2021
5046 Clear -1 1031 58 10000 6.27 27 22:44 06.12.2021
5047 Clear -1 1031 59 10000 6.21 27 22:18 06.12.2021
5048 Clear -1 1031 59 10000 6.21 27 21:37 06.12.2021
5049 Clear -1 1031 62 10000 5.97 27 20:33 06.12.2021
5050 Clouds 0 1032 66 10000 5.68 27 19:25 06.12.2021
5051 Clouds 0 1032 66 10000 5.68 27 18:57 06.12.2021
5052 Clouds 0 1032 69 10000 5.59 26 17:55 06.12.2021
5053 Clouds 0 1032 69 10000 5.59 26 17:34 06.12.2021
5054 Clouds 1 1030 76 10000 4.32 24 16:21 06.12.2021
5055 Clouds 2 1028 83 10000 3.83 22 14:51 06.12.2021
5056 Clouds 3 1025 89 10000 3.01 20 13:45 06.12.2021
5057 Clouds 3 1024 93 5994 1.85 10 12:39 06.12.2021
5058 Clouds 7 1020 84 3248 2.11 201 10:31 06.12.2021
5059 Clouds 8 1020 82 1248 2.86 206 07:59 06.12.2021
5060 Clouds 6 1022 89 2663 0.87 352 03:52 06.12.2021
5061 Clouds 4 1023 87 5816 2.49 16 22:30 05.12.2021
5062 Clouds 5 1023 91 1362 0.98 339 21:26 05.12.2021
5063 Clouds 5 1023 91 1362 0.98 339 20:59 05.12.2021
5064 Rain 5 1024 89 1467 1.68 360 20:18 05.12.2021
5065 Clouds 5 1024 89 1467 1.68 360 19:33 05.12.2021
5066 Clouds 5 1024 83 4723 2.04 12 18:41 05.12.2021
5067 Clouds 5 1024 83 6219 2.23 8 18:19 05.12.2021
5068 Clouds 5 1024 83 6219 2.23 8 17:47 05.12.2021
5069 Clouds 5 1024 85 4620 1.9 349 16:45 05.12.2021
5070 Clouds 6 1024 88 5285 1.59 328 16:24 05.12.2021
5071 Clouds 6 1023 93 3933 0.87 283 14:49 05.12.2021
5072 Clouds 6 1023 93 3933 0.87 283 14:30 05.12.2021
5073 Rain 7 1022 95 1730 1.75 182 13:43 05.12.2021
5074 Clouds 8 1020 98 425 2.91 199 13:22 05.12.2021
5075 Rain 8 1020 98 263 2.36 194 12:31 05.12.2021
5076 Clouds 8 1020 96 351 3.79 203 11:56 05.12.2021
5077 Clouds 9 1020 93 754 3.93 206 10:52 05.12.2021
5078 Clouds 10 1019 79 3250 4.07 193 09:58 05.12.2021
5079 Clouds 11 1020 60 10000 3.07 198 07:55 05.12.2021
5080 Clouds 5 1025 64 10000 4.04 30 02:28 05.12.2021
5081 Clouds 4 1026 60 10000 4.55 30 23:31 04.12.2021
5082 Clear 4 1026 61 10000 4.74 30 21:54 04.12.2021
5083 Clear 5 1026 62 10000 4.79 30 20:55 04.12.2021
5084 Clear 5 1027 62 10000 4.69 29 19:55 04.12.2021
5085 Clear 5 1027 62 10000 4.69 29 19:31 04.12.2021
5086 Clear 5 1026 64 10000 4.7 28 18:20 04.12.2021
5087 Clear 5 1026 64 10000 4.7 28 17:38 04.12.2021
5088 Clear 5 1026 66 10000 4.71 28 16:49 04.12.2021
5089 Clear 5 1026 66 10000 4.71 28 16:30 04.12.2021
5090 Clear 6 1025 68 10000 4.47 29 15:22 04.12.2021
5091 Clear 11 1020 71 10000 1.18 53 11:51 04.12.2021
5092 Clear 11 1020 71 10000 1.18 53 11:32 04.12.2021
5093 Clear 14 1019 65 10000 1.23 172 10:44 04.12.2021
5094 Clear 15 1019 61 10000 1.3 207 08:48 04.12.2021
5095 Clear 13 1023 55 10000 2.11 14 06:28 04.12.2021
5096 Clear 10 1025 59 10000 3.64 24 04:42 04.12.2021
5097 Clear 5 1027 66 10000 5.57 26 00:24 04.12.2021
5098 Clear 5 1027 67 10000 5.42 27 23:26 03.12.2021
5099 Clear 5 1027 67 10000 5.42 27 23:26 03.12.2021
5100 Clear 5 1027 67 10000 5.42 27 22:46 03.12.2021
5101 Clouds 5 1028 68 10000 4.96 28 21:26 03.12.2021
5102 Clouds 5 1028 68 10000 4.96 28 20:54 03.12.2021
5103 Clouds 6 1028 68 10000 4.98 26 19:53 03.12.2021
5104 Clouds 6 1028 68 10000 4.77 27 18:34 03.12.2021
5105 Clouds 6 1028 69 10000 4.82 24 17:59 03.12.2021
5106 Clouds 6 1028 72 10000 4.87 24 16:33 03.12.2021
5107 Clouds 10 1023 92 7284 0.98 2 12:59 03.12.2021
5108 Clouds 11 1022 92 2927 0.43 229 12:20 03.12.2021
5109 Clouds 12 1022 92 4447 1.58 219 10:56 03.12.2021
5110 Clouds 13 1022 86 4597 2.1 213 08:29 03.12.2021
5111 Clouds 13 1022 86 4597 2.1 213 07:43 03.12.2021
5112 Clouds 13 1022 86 4597 2.1 213 07:43 03.12.2021
5113 Clouds 11 1023 77 10000 1.32 25 04:44 03.12.2021
5114 Clouds 8 1022 90 4758 2.89 18 00:48 03.12.2021
5115 Clouds 8 1022 91 2997 2.59 17 23:47 02.12.2021
5116 Clouds 7 1023 91 564 1.25 357 22:38 02.12.2021
5117 Clouds 8 1022 80 3973 2.59 11 21:41 02.12.2021
5118 Clouds 7 1023 70 6324 2.43 50 20:44 02.12.2021
5119 Clouds 8 1023 66 10000 2.94 23 20:22 02.12.2021
5120 Clouds 8 1024 84 6249 2.84 18 18:36 02.12.2021
5121 Clouds 8 1024 71 10000 2.47 28 16:35 02.12.2021
5122 Clouds 9 1023 72 10000 1.95 34 15:41 02.12.2021
5123 Clouds 9 1023 72 10000 1.95 34 15:41 02.12.2021
5124 Clouds 9 1023 73 10000 2.13 16 14:52 02.12.2021
5125 Clouds 10 1022 76 10000 1.97 4 13:36 02.12.2021
5126 Clouds 11 1022 80 10000 0.91 27 12:24 02.12.2021
5127 Clouds 11 1022 80 9298 0.29 238 10:42 02.12.2021
5128 Clouds 11 1023 78 5234 0.98 220 09:26 02.12.2021
5129 Clouds 11 1026 70 7983 0.87 3 07:19 02.12.2021
5130 Clouds 9 1024 77 10000 4.16 21 01:26 02.12.2021
5131 Clouds 9 1024 78 7559 3.72 18 00:26 02.12.2021
5132 Clouds 9 1024 68 6863 3.14 26 22:31 01.12.2021
5133 Clouds 10 1023 62 10000 3.13 29 21:44 01.12.2021
5134 Clouds 10 1023 49 10000 3.05 40 20:24 01.12.2021
5135 Clouds 10 1023 49 10000 3.05 40 19:43 01.12.2021
5136 Clouds 10 1024 47 10000 3.34 27 18:55 01.12.2021
5137 Clouds 9 1024 45 10000 3.53 31 17:31 01.12.2021
5138 Clouds 9 1025 43 10000 4.03 30 16:34 01.12.2021
5139 Clouds 9 1024 40 10000 4.11 35 14:35 01.12.2021
5140 Clouds 9 1024 41 10000 3.56 25 13:37 01.12.2021
5141 Clouds 12 1020 40 10000 1.03 41 10:45 01.12.2021
5142 Clouds 14 1020 37 10000 0.65 105 10:27 01.12.2021
5143 Clouds 14 1021 27 10000 1.14 181 08:53 01.12.2021
5144 Clouds 14 1022 30 10000 1.91 197 08:26 01.12.2021
5145 Clouds 14 1022 30 10000 1.91 197 07:31 01.12.2021
5146 Clouds 8 1026 35 10000 3.82 23 03:59 01.12.2021
5147 Clouds 8 1026 35 10000 3.82 23 03:32 01.12.2021
5148 Clouds 6 1026 33 10000 5.56 25 00:45 01.12.2021
5149 Clouds 5 1026 33 10000 5.77 27 23:33 30.11.2021
5150 Clouds 5 1027 34 10000 5.43 27 22:39 30.11.2021
5151 Clouds 5 1028 34 10000 5.68 27 20:48 30.11.2021
5152 Clouds 5 1028 35 10000 5.67 27 20:27 30.11.2021
5153 Clouds 5 1028 35 10000 5.67 27 19:47 30.11.2021
5154 Clouds 5 1028 36 10000 5.75 28 19:24 30.11.2021
5155 Clouds 5 1029 37 10000 5.78 28 17:57 30.11.2021
5156 Clouds 5 1028 39 10000 5.66 30 16:25 30.11.2021
5157 Clear 5 1027 39 10000 5.5 32 14:35 30.11.2021
5158 Clear 6 1026 41 10000 5.32 30 13:48 30.11.2021
5159 Clear 6 1024 43 10000 4.71 31 13:23 30.11.2021
5160 Clear 6 1024 43 10000 4.71 31 12:44 30.11.2021
5161 Clear 13 1019 39 10000 1.2 165 11:26 30.11.2021
5162 Clear 13 1019 39 10000 1.2 165 10:37 30.11.2021
5163 Clouds 15 1018 36 10000 1.38 190 09:44 30.11.2021
5164 Clouds 15 1019 32 10000 0.89 200 08:48 30.11.2021
5165 Clouds 15 1020 33 10000 0.51 282 08:19 30.11.2021
5166 Clouds 15 1020 33 10000 0.51 282 07:35 30.11.2021
5167 Clear 4 1027 32 10000 5.76 29 01:52 30.11.2021
5168 Clear 4 1027 32 10000 5.76 29 01:31 30.11.2021
5169 Clouds 5 1025 35 10000 5.19 28 23:56 29.11.2021
5170 Clouds 6 1025 35 10000 5.05 27 23:20 29.11.2021
5171 Clouds 6 1025 35 10000 5.05 27 22:44 29.11.2021
5172 Clouds 6 1026 35 10000 5.14 27 22:25 29.11.2021
5173 Clouds 5 1027 35 10000 5.32 26 21:21 29.11.2021
5174 Clouds 5 1027 35 10000 5.32 26 20:56 29.11.2021
5175 Clouds 5 1028 36 10000 5.6 26 20:22 29.11.2021
5176 Clouds 5 1028 36 10000 5.6 26 19:44 29.11.2021
5177 Clouds 5 1028 36 10000 5.6 26 19:44 29.11.2021
5178 Clouds 4 1029 35 10000 5.88 29 19:26 29.11.2021
5179 Clouds 4 1029 36 10000 5.94 28 18:47 29.11.2021
5180 Clouds 5 1029 41 10000 5.75 28 17:22 29.11.2021
5181 Clouds 5 1029 41 10000 5.75 28 16:56 29.11.2021
5182 Clouds 4 1029 42 10000 5.67 29 16:25 29.11.2021
5183 Clouds 4 1029 42 10000 5.68 28 15:27 29.11.2021
5184 Clouds 4 1029 42 10000 5.68 28 14:42 29.11.2021
5185 Clouds 5 1026 48 10000 4.79 28 13:28 29.11.2021
5186 Clouds 9 1023 47 10000 2.25 37 12:22 29.11.2021
5187 Clouds 9 1023 47 10000 2.25 37 11:31 29.11.2021
5188 Clear 13 1021 35 10000 0.74 181 10:27 29.11.2021
5189 Clear 14 1021 30 10000 0.91 208 08:45 29.11.2021
5190 Clear 12 1025 33 10000 1.64 11 05:58 29.11.2021
5191 Clear 2 1030 40 10000 5.47 27 01:35 29.11.2021
5192 Clear 3 1029 41 10000 5.35 27 00:36 29.11.2021
5193 Clear 3 1029 42 10000 5.33 27 23:42 28.11.2021
5194 Clear 3 1029 42 10000 5.26 27 22:42 28.11.2021
5195 Clear 3 1029 43 10000 5.25 28 21:41 28.11.2021
5196 Clear 3 1029 43 10000 5.16 27 20:58 28.11.2021
5197 Clear 3 1029 44 10000 5.23 28 19:55 28.11.2021
5198 Clear 3 1030 44 10000 5.27 28 18:45 28.11.2021
5199 Clear 3 1030 45 10000 5.26 28 18:26 28.11.2021
5200 Clear 3 1030 45 10000 5.26 28 17:49 28.11.2021
5201 Clear 3 1030 45 10000 5.26 28 17:30 28.11.2021
5202 Clear 4 1029 47 10000 5.54 29 16:28 28.11.2021
5203 Clear 4 1029 47 10000 5.54 29 15:53 28.11.2021
5204 Clear 4 1029 48 10000 5.48 29 14:56 28.11.2021
5205 Clear 4 1029 48 10000 5.48 29 14:35 28.11.2021
5206 Clouds 5 1025 51 10000 4.36 29 12:58 28.11.2021
5207 Clouds 9 1022 49 10000 1.65 43 12:29 28.11.2021
5208 Clouds 12 1020 43 10000 0.43 161 10:53 28.11.2021
5209 Clouds 13 1020 35 10000 1.18 179 10:20 28.11.2021
5210 Clouds 13 1020 35 10000 1.18 179 09:36 28.11.2021
5211 Clear 11 1024 32 10000 1.08 15 06:29 28.11.2021
5212 Clear 3 1028 44 10000 5.25 27 23:37 27.11.2021
5213 Clear 3 1028 48 10000 4.87 27 20:44 27.11.2021
5214 Clear 3 1028 50 10000 4.82 28 18:57 27.11.2021
5215 Clear 4 1027 52 10000 4.67 30 16:52 27.11.2021
5216 Clear 4 1027 55 10000 4.78 27 15:55 27.11.2021
5217 Clear 4 1025 60 10000 4.32 29 13:47 27.11.2021
5218 Clear 5 1023 64 10000 2.96 40 12:31 27.11.2021
5219 Clear 12 1018 48 10000 1.72 174 10:42 27.11.2021
5220 Clear 13 1018 41 10000 2.29 180 09:51 27.11.2021
5221 Clear 13 1018 38 10000 2.52 186 08:40 27.11.2021
5222 Clouds 10 1021 41 10000 1.28 34 04:58 27.11.2021
5223 Clouds 5 1023 44 10000 4.17 30 01:55 27.11.2021
5224 Clouds 5 1023 44 10000 4.82 29 23:35 26.11.2021
5225 Clear 4 1024 45 10000 4.94 28 22:25 26.11.2021
5226 Clear 4 1024 45 10000 4.94 28 21:36 26.11.2021
5227 Clear 4 1024 45 10000 4.94 26 20:53 26.11.2021
5228 Clear 4 1025 46 10000 5.08 27 20:19 26.11.2021
5229 Clear 4 1025 46 10000 5.08 27 19:47 26.11.2021
5230 Clear 4 1026 47 10000 5.15 28 18:33 26.11.2021
5231 Clear 4 1027 50 10000 5.1 28 17:23 26.11.2021
5232 Clear 4 1026 50 10000 4.98 28 15:57 26.11.2021
5233 Clear 5 1024 55 10000 4.57 27 13:36 26.11.2021
5234 Clear 5 1022 57 10000 3.45 31 12:40 26.11.2021
5235 Clear 12 1017 45 10000 1.55 179 10:38 26.11.2021
5236 Clear 13 1017 34 10000 1.53 197 08:59 26.11.2021
5237 Clear 13 1018 33 10000 1.06 200 08:21 26.11.2021
5238 Clear 13 1018 33 10000 1.06 200 07:33 26.11.2021
5239 Clear 12 1020 35 10000 0.91 29 06:28 26.11.2021
5240 Clear 12 1020 35 10000 0.91 29 06:28 26.11.2021
5241 Clear 9 1021 40 10000 2.58 24 04:52 26.11.2021
5242 Clear 3 1025 43 10000 5.41 27 03:26 26.11.2021
5243 Clear 3 1024 47 10000 5.5 27 23:27 25.11.2021
5244 Clear 3 1024 48 10000 5.48 27 21:51 25.11.2021
5245 Clear 3 1024 49 10000 5.46 27 20:40 25.11.2021
5246 Clear 4 1025 52 10000 5.3 27 18:49 25.11.2021
5247 Clear 4 1026 53 10000 5.42 27 17:59 25.11.2021
5248 Clear 4 1026 54 10000 5.41 27 17:26 25.11.2021
5249 Clear 4 1026 54 10000 5.41 27 16:41 25.11.2021
5250 Clear 4 1026 56 10000 5.28 27 15:58 25.11.2021
5251 Clear 5 1024 58 10000 4.76 29 14:21 25.11.2021
5252 Clouds 6 1022 61 10000 3.25 37 12:48 25.11.2021
5253 Clouds 10 1019 54 10000 0.86 134 11:55 25.11.2021
5254 Clouds 12 1018 47 10000 1.8 192 10:31 25.11.2021
5255 Clear 13 1020 35 10000 0.25 328 06:36 25.11.2021
5256 Clear 4 1026 49 10000 5.09 28 02:56 25.11.2021
5257 Clear 4 1024 48 10000 5.1 27 23:40 24.11.2021
5258 Clear 4 1024 47 10000 4.93 27 22:29 24.11.2021
5259 Clear 4 1024 47 10000 4.93 27 21:48 24.11.2021
5260 Clear 5 1025 47 10000 4.9 27 21:21 24.11.2021
5261 Clear 5 1025 47 10000 4.86 27 20:26 24.11.2021
5262 Clear 5 1025 47 10000 4.86 27 19:36 24.11.2021
5263 Clear 5 1026 49 10000 4.8 29 18:19 24.11.2021
5264 Clear 5 1025 51 10000 4.63 28 16:21 24.11.2021
5265 Clear 6 1024 51 10000 4.62 28 14:57 24.11.2021
5266 Clear 6 1024 53 10000 4.33 32 14:21 24.11.2021
5267 Clear 6 1024 52 10000 4.38 31 13:34 24.11.2021
5268 Clear 13 1017 41 10000 2.38 185 11:26 24.11.2021
5269 Clear 13 1017 41 10000 2.38 185 10:58 24.11.2021
5270 Clear 13 1017 41 10000 2.38 185 10:36 24.11.2021
5271 Clear 15 1017 36 10000 2.57 187 09:33 24.11.2021
5272 Clear 15 1018 29 10000 2.33 196 07:41 24.11.2021
5273 Clear 14 1019 31 10000 0.29 17 05:38 24.11.2021
5274 Clear 8 1022 38 10000 3.93 26 03:44 24.11.2021
5275 Clear 5 1023 39 10000 5.19 27 23:33 23.11.2021
5276 Clear 5 1023 40 10000 5.05 27 22:39 23.11.2021
5277 Clear 5 1023 41 10000 5.03 26 21:45 23.11.2021
5278 Clear 5 1024 43 10000 5.03 29 20:23 23.11.2021
5279 Clear 5 1024 43 10000 5.03 29 19:34 23.11.2021
5280 Clear 5 1025 42 10000 5.18 29 18:34 23.11.2021
5281 Clear 5 1025 42 10000 5.35 29 17:41 23.11.2021
5282 Clear 5 1025 42 10000 5.35 29 17:41 23.11.2021
5283 Clear 5 1025 43 10000 5.4 29 16:37 23.11.2021
5284 Clear 6 1024 43 10000 5.27 29 15:27 23.11.2021
5285 Clear 6 1024 43 10000 5.27 29 14:56 23.11.2021
5286 Clear 7 1021 47 10000 4.59 33 13:29 23.11.2021
5287 Clear 15 1015 39 10000 1.26 179 10:28 23.11.2021
5288 Clear 15 1015 39 10000 1.26 179 09:48 23.11.2021
5289 Clear 16 1015 34 10000 1.06 204 08:41 23.11.2021
5290 Clear 12 1019 35 10000 3.23 29 05:25 23.11.2021
5291 Clear 8 1021 35 10000 4.81 26 03:37 23.11.2021
5292 Clear 5 1021 34 10000 5.99 28 23:42 22.11.2021
5293 Clear 5 1022 34 10000 5.96 28 23:20 22.11.2021
5294 Clear 5 1022 34 10000 5.96 28 22:31 22.11.2021
5295 Clear 5 1022 35 10000 5.98 27 21:45 22.11.2021
5296 Clear 5 1023 36 10000 6 27 21:21 22.11.2021
5297 Clear 5 1023 36 10000 6 27 20:43 22.11.2021
5298 Clear 5 1024 38 10000 5.85 28 19:24 22.11.2021
5299 Clear 5 1024 39 10000 5.77 28 18:50 22.11.2021
5300 Clear 5 1024 39 10000 5.77 28 18:31 22.11.2021
5301 Clear 5 1024 40 10000 5.74 28 16:50 22.11.2021
5302 Clear 5 1024 40 10000 5.91 28 15:39 22.11.2021
5303 Clear 6 1021 47 10000 4.82 28 12:52 22.11.2021
5304 Clear 10 1018 47 10000 1.96 40 11:39 22.11.2021
5305 Clear 14 1016 40 10000 0.44 86 10:36 22.11.2021
5306 Clear 15 1016 33 10000 0.15 360 08:46 22.11.2021
5307 Clear 15 1017 30 10000 0.16 292 08:25 22.11.2021
5308 Clear 4 1026 34 10000 5.94 28 02:31 22.11.2021
5309 Clear 4 1026 34 10000 5.77 26 23:23 21.11.2021
5310 Clear 4 1026 34 10000 5.77 26 22:46 21.11.2021
5311 Clear 4 1026 35 10000 5.81 26 21:40 21.11.2021
5312 Clear 4 1026 37 10000 5.88 26 20:41 21.11.2021
5313 Clear 4 1026 39 10000 6.03 27 19:45 21.11.2021
5314 Clear 4 1027 44 10000 6.04 28 17:59 21.11.2021
5315 Clear 4 1027 44 10000 6.04 28 17:37 21.11.2021
5316 Clear 5 1026 47 10000 5.53 27 15:25 21.11.2021
5317 Clear 5 1026 47 10000 5.53 27 14:44 21.11.2021
5318 Clear 5 1025 49 10000 5.21 28 13:40 21.11.2021
5319 Clear 6 1023 51 10000 4.11 32 12:35 21.11.2021
5320 Clear 10 1020 48 10000 1.57 48 11:42 21.11.2021
5321 Clear 13 1018 41 10000 0.46 52 10:55 21.11.2021
5322 Clear 15 1018 38 10000 0.24 36 10:18 21.11.2021
5323 Clear 15 1018 26 10000 0.33 194 08:42 21.11.2021
5324 Clear 15 1019 28 10000 0.03 22 08:22 21.11.2021
5325 Clear 15 1019 28 10000 0.03 22 07:43 21.11.2021
5326 Clear 13 1021 32 10000 2.2 22 05:49 21.11.2021
5327 Clear 10 1023 37 10000 3.55 26 05:19 21.11.2021
5328 Clear 4 1027 41 10000 5.95 28 03:18 21.11.2021
5329 Clear 4 1027 41 10000 5.95 28 02:50 21.11.2021
5330 Clear 4 1026 43 10000 5.81 27 00:56 21.11.2021
5331 Clear 4 1026 44 10000 5.65 28 23:43 20.11.2021
5332 Clear 4 1026 43 10000 5.45 26 21:41 20.11.2021
5333 Clear 4 1026 43 10000 5.34 26 21:23 20.11.2021
5334 Clear 5 1026 44 10000 5.35 27 18:46 20.11.2021
5335 Clear 5 1026 44 10000 5.35 27 18:26 20.11.2021
5336 Clear 5 1026 44 10000 5.21 29 17:26 20.11.2021
5337 Clear 5 1026 44 10000 5.21 29 16:46 20.11.2021
5338 Clear 5 1024 45 10000 5.04 31 14:47 20.11.2021
5339 Clear 6 1023 47 10000 4.78 31 14:25 20.11.2021
5340 Clear 11 1018 43 10000 1.03 118 12:22 20.11.2021
5341 Clear 14 1016 37 10000 1.95 179 10:52 20.11.2021
5342 Clear 16 1016 34 10000 2.08 182 09:39 20.11.2021
5343 Clear 15 1017 28 10000 2.07 195 07:37 20.11.2021
5344 Clear 12 1020 34 10000 2.37 22 05:28 20.11.2021
5345 Clear 12 1020 34 10000 2.37 22 04:50 20.11.2021
5346 Clear 6 1023 35 10000 5.2 26 03:24 20.11.2021
5347 Clear 5 1022 36 10000 5.38 26 00:41 20.11.2021
5348 Clear 5 1022 37 10000 5.35 28 23:43 19.11.2021
5349 Clear 5 1022 38 10000 5.29 27 22:39 19.11.2021
5350 Clear 6 1023 39 10000 5.14 26 21:21 19.11.2021
5351 Clear 6 1023 39 10000 5.14 26 20:37 19.11.2021
5352 Clear 6 1023 39 10000 5.11 27 19:56 19.11.2021
5353 Clear 6 1023 39 10000 5.23 26 19:27 19.11.2021
5354 Clear 6 1023 39 10000 5.23 26 18:43 19.11.2021
5355 Clear 6 1023 38 10000 5.34 27 17:37 19.11.2021
5356 Clear 6 1023 39 10000 5.46 29 15:58 19.11.2021
5357 Clear 7 1021 41 10000 5.22 30 13:57 19.11.2021
5358 Clear 15 1015 37 10000 1.23 169 10:34 19.11.2021
5359 Clear 16 1015 32 10000 1.51 181 09:58 19.11.2021
5360 Clear 16 1015 27 10000 1.51 188 08:32 19.11.2021
5361 Clear 12 1020 34 10000 2.66 25 04:55 19.11.2021
5362 Clear 6 1024 37 10000 5.26 28 02:59 19.11.2021
5363 Clear 5 1023 39 10000 5.19 28 23:53 18.11.2021
5364 Clear 5 1023 40 10000 5.06 30 22:38 18.11.2021
5365 Clear 6 1023 40 10000 4.81 30 20:56 18.11.2021
5366 Clear 6 1023 40 10000 4.81 30 20:37 18.11.2021
5367 Clear 6 1024 40 10000 4.75 32 20:18 18.11.2021
5368 Clear 6 1024 40 10000 4.75 32 19:36 18.11.2021
5369 Clouds 6 1024 40 10000 4.7 31 18:35 18.11.2021
5370 Clouds 6 1024 40 10000 4.7 31 17:52 18.11.2021
5371 Clouds 6 1024 40 10000 4.68 33 16:46 18.11.2021
5372 Clouds 6 1024 40 10000 4.62 35 15:52 18.11.2021
5373 Clouds 7 1023 42 10000 4.44 35 14:40 18.11.2021
5374 Clouds 8 1021 46 10000 3.13 43 12:55 18.11.2021
5375 Clouds 11 1018 46 10000 1.39 131 11:44 18.11.2021
5376 Clouds 14 1016 38 10000 2.72 183 11:25 18.11.2021
5377 Clouds 16 1016 34 10000 3.17 190 10:24 18.11.2021
5378 Clouds 16 1016 32 10000 2.96 188 08:30 18.11.2021
5379 Clouds 16 1019 23 10000 1.81 205 06:40 18.11.2021
5380 Clouds 15 1020 27 10000 0.06 284 05:44 18.11.2021
5381 Clouds 6 1024 33 10000 4.78 32 01:26 18.11.2021
5382 Clouds 6 1024 33 10000 4.78 32 01:26 18.11.2021
5383 Clouds 7 1023 33 10000 4.6 33 23:35 17.11.2021
5384 Clouds 7 1023 33 10000 4.56 29 22:40 17.11.2021
5385 Clouds 7 1024 33 10000 4.64 30 22:19 17.11.2021
5386 Clouds 7 1024 33 10000 4.64 30 22:19 17.11.2021
5387 Clouds 7 1024 33 10000 4.64 30 21:35 17.11.2021
5388 Clouds 6 1025 33 10000 5.03 32 19:51 17.11.2021
5389 Clear 6 1026 33 10000 5.05 28 17:35 17.11.2021
5390 Clear 6 1026 35 10000 5.18 32 15:56 17.11.2021
5391 Clear 7 1026 41 10000 4.97 29 13:41 17.11.2021
5392 Clear 7 1024 43 10000 4.11 35 12:38 17.11.2021
5393 Clear 14 1019 36 10000 1.83 175 10:54 17.11.2021
5394 Clear 16 1019 34 10000 2.54 185 09:44 17.11.2021
5395 Clear 16 1019 30 10000 2.66 187 08:30 17.11.2021
5396 Clear 16 1020 28 10000 2.45 192 07:41 17.11.2021
5397 Clear 7 1025 28 10000 5.41 27 02:56 17.11.2021
5398 Clear 6 1024 27 10000 5.83 28 00:42 17.11.2021
5399 Clear 6 1024 28 10000 5.9 26 22:37 16.11.2021
5400 Clear 6 1026 31 10000 5.7 26 20:19 16.11.2021
5401 Clear 6 1026 31 10000 5.7 26 19:55 16.11.2021
5402 Clear 6 1026 33 10000 5.83 28 18:52 16.11.2021
5403 Clear 6 1026 35 10000 5.96 28 18:29 16.11.2021
5404 Clear 6 1026 37 10000 6.07 28 17:29 16.11.2021
5405 Clear 6 1026 37 10000 6.07 28 16:31 16.11.2021
5406 Clear 6 1026 38 10000 6.01 27 15:48 16.11.2021
5407 Clear 6 1025 42 10000 5.64 26 13:49 16.11.2021
5408 Clear 14 1017 35 10000 0.27 143 10:52 16.11.2021
5409 Clear 15 1017 28 10000 0.95 193 09:44 16.11.2021
5410 Clear 15 1018 25 10000 0.78 202 08:25 16.11.2021
5411 Clear 15 1018 25 10000 0.69 200 07:31 16.11.2021
5412 Clear 3 1025 33 10000 6.35 28 01:20 16.11.2021
5413 Clear 3 1025 36 10000 6.14 27 22:48 15.11.2021
5414 Clear 3 1025 38 10000 6.07 27 22:21 15.11.2021
5415 Clear 3 1025 38 10000 6.07 27 21:52 15.11.2021
5416 Clear 3 1025 41 10000 6.04 28 21:26 15.11.2021
5417 Clear 3 1025 43 10000 5.92 28 19:41 15.11.2021
5418 Clear 3 1025 46 10000 5.76 28 18:30 15.11.2021
5419 Clear 3 1024 48 10000 5.37 27 16:20 15.11.2021
5420 Clear 3 1024 48 10000 5.37 27 15:40 15.11.2021
5421 Clear 4 1023 49 10000 5.22 28 15:21 15.11.2021
5422 Clear 5 1020 55 10000 3.85 30 13:29 15.11.2021
5423 Clear 12 1016 42 10000 0.59 187 10:57 15.11.2021
5424 Clear 13 1016 30 10000 0.97 207 09:27 15.11.2021
5425 Clear 13 1016 29 10000 0.74 224 07:52 15.11.2021
5426 Clear 10 1019 34 10000 2.75 23 05:19 15.11.2021
5427 Clear 3 1022 45 10000 5.08 24 23:54 14.11.2021
5428 Clear 4 1022 46 10000 4.95 25 22:35 14.11.2021
5429 Clear 4 1023 48 10000 4.36 28 19:57 14.11.2021
5430 Clear 4 1023 49 10000 4.37 28 19:18 14.11.2021
5431 Clear 4 1023 49 10000 4.37 28 18:54 14.11.2021
5432 Clear 4 1023 49 10000 4.37 28 18:36 14.11.2021
5433 Clear 4 1023 50 10000 4.2 31 18:18 14.11.2021
5434 Clear 4 1023 50 10000 4.2 31 17:56 14.11.2021
5435 Clear 4 1023 50 10000 4.2 31 17:38 14.11.2021
5436 Clear 5 1023 50 10000 4.06 34 17:20 14.11.2021
5437 Clear 5 1023 50 10000 4.06 34 16:47 14.11.2021
5438 Clear 5 1022 50 10000 4.01 34 16:20 14.11.2021
5439 Clear 5 1022 52 10000 3.98 34 15:23 14.11.2021
5440 Clear 5 1022 52 10000 3.98 34 14:49 14.11.2021
5441 Clear 5 1021 55 10000 3.85 36 14:29 14.11.2021
5442 Clear 5 1021 55 10000 3.85 36 13:54 14.11.2021
5443 Clear 5 1021 55 10000 3.85 36 13:35 14.11.2021
5444 Clouds 10 1017 48 10000 1.58 162 12:27 14.11.2021
5445 Clouds 10 1017 48 10000 1.58 162 11:41 14.11.2021
5446 Clouds 13 1016 40 10000 2.93 184 10:42 14.11.2021
5447 Clouds 15 1015 34 10000 3.53 189 09:52 14.11.2021
5448 Clouds 15 1016 29 10000 3.35 188 08:55 14.11.2021
5449 Clear 15 1018 27 10000 2.4 206 07:23 14.11.2021
5450 Clear 6 1023 28 10000 5.46 28 00:26 14.11.2021
5451 Clear 6 1023 29 10000 5.49 26 22:26 13.11.2021
5452 Clear 6 1023 29 10000 5.49 26 21:57 13.11.2021
5453 Clear 6 1023 30 10000 5.56 27 21:23 13.11.2021
5454 Clear 6 1024 30 10000 5.83 27 19:47 13.11.2021
5455 Clear 6 1024 32 10000 5.95 29 18:33 13.11.2021
5456 Clear 6 1025 33 10000 6.13 29 17:56 13.11.2021
5457 Clear 6 1025 35 10000 6.12 28 16:38 13.11.2021
5458 Clear 6 1024 37 10000 6.03 27 15:34 13.11.2021
5459 Clear 7 1024 37 10000 5.9 27 14:30 13.11.2021
5460 Clear 7 1024 38 10000 5.77 26 13:38 13.11.2021
5461 Clear 12 1019 44 10000 2.12 45 12:28 13.11.2021
5462 Clear 12 1019 44 10000 2.12 45 11:38 13.11.2021
5463 Clear 16 1018 39 10000 0.82 119 10:45 13.11.2021
5464 Clear 17 1017 34 10000 1.22 179 10:22 13.11.2021
5465 Clear 17 1017 34 10000 1.22 179 09:38 13.11.2021
5466 Clear 17 1018 30 10000 1.18 192 08:56 13.11.2021
5467 Clear 17 1018 30 10000 1.18 192 08:31 13.11.2021
5468 Clear 16 1021 27 10000 1.44 20 05:59 13.11.2021
5469 Clear 13 1022 29 10000 3.04 23 04:30 13.11.2021
5470 Clear 5 1026 27 10000 6.16 28 01:38 13.11.2021
5471 Clear 5 1025 28 10000 6.17 28 22:58 12.11.2021
5472 Clear 5 1026 29 10000 6.1 28 21:49 12.11.2021
5473 Clear 6 1026 30 10000 6.02 29 20:18 12.11.2021
5474 Clear 6 1027 32 10000 5.95 29 19:28 12.11.2021
5475 Clear 6 1027 32 10000 5.97 29 18:46 12.11.2021
5476 Clear 6 1027 36 10000 6.04 29 16:39 12.11.2021
5477 Clear 6 1026 38 10000 6.01 29 15:33 12.11.2021
5478 Clear 8 1023 47 10000 4.34 31 12:54 12.11.2021
5479 Clear 8 1023 47 10000 4.34 31 12:54 12.11.2021
5480 Clear 16 1017 40 10000 1.4 164 10:51 12.11.2021
5481 Clear 17 1017 34 10000 1.95 182 09:45 12.11.2021
5482 Clear 17 1017 30 10000 2.09 188 08:39 12.11.2021
5483 Clear 7 1024 28 10000 5.39 27 03:27 12.11.2021
5484 Clear 6 1024 29 10000 5.56 27 23:42 11.11.2021
5485 Clear 6 1024 29 10000 5.33 28 22:40 11.11.2021
5486 Clear 6 1024 30 10000 5.59 26 21:29 11.11.2021
5487 Clear 6 1024 30 10000 5.59 26 20:48 11.11.2021
5488 Clear 6 1025 33 10000 5.58 27 19:24 11.11.2021
5489 Clear 6 1025 35 10000 5.59 28 18:22 11.11.2021
5490 Clear 6 1025 35 10000 5.59 28 17:37 11.11.2021
5491 Clear 6 1024 44 10000 5.28 29 15:19 11.11.2021
5492 Clear 6 1024 44 10000 5.28 29 14:30 11.11.2021
5493 Clear 7 1023 47 10000 5.11 26 13:41 11.11.2021
5494 Clear 8 1022 50 10000 3.83 30 12:52 11.11.2021
5495 Clear 12 1018 47 10000 1.02 76 11:57 11.11.2021
5496 Clear 16 1016 30 10000 2.02 187 09:54 11.11.2021
5497 Clear 16 1018 26 10000 1.65 198 08:21 11.11.2021
5498 Clear 15 1020 25 10000 0.62 1 06:19 11.11.2021
5499 Clear 5 1025 30 10000 5.75 27 00:37 11.11.2021
5500 Clear 5 1025 31 10000 5.64 28 22:38 10.11.2021
5501 Clear 5 1025 32 10000 5.65 27 21:46 10.11.2021
5502 Clear 5 1025 33 10000 5.67 27 20:53 10.11.2021
5503 Clear 6 1025 35 10000 5.68 28 19:50 10.11.2021
5504 Clear 6 1025 35 10000 5.68 28 19:32 10.11.2021
5505 Clear 6 1026 44 10000 5.45 29 16:50 10.11.2021
5506 Clear 7 1025 46 10000 5.37 28 15:46 10.11.2021
5507 Clear 7 1024 50 10000 4.88 28 14:23 10.11.2021
5508 Clear 7 1024 50 10000 4.88 28 13:31 10.11.2021
5509 Clear 13 1019 52 10000 0.9 68 11:40 10.11.2021
5510 Clear 17 1018 31 10000 1.16 191 09:18 10.11.2021
5511 Clear 17 1018 31 10000 1.16 191 08:40 10.11.2021
5512 Clear 17 1019 27 10000 0.49 224 06:45 10.11.2021
5513 Clear 16 1020 29 10000 1 9 05:58 10.11.2021
5514 Clear 5 1026 37 10000 5.28 27 01:56 10.11.2021
5515 Clear 6 1025 39 10000 5.63 26 21:59 09.11.2021
5516 Clear 6 1026 40 10000 5.5 28 20:39 09.11.2021
5517 Clear 6 1026 42 10000 5.65 28 19:29 09.11.2021
5518 Clear 6 1026 42 10000 5.65 28 18:48 09.11.2021
5519 Clear 7 1026 44 10000 5.41 28 16:53 09.11.2021
5520 Clear 7 1025 47 10000 5.42 28 15:20 09.11.2021
5521 Clear 8 1025 52 10000 5.17 26 13:31 09.11.2021
5522 Clear 9 1023 59 10000 3.6 29 12:47 09.11.2021
5523 Clear 16 1018 49 10000 1.51 181 10:58 09.11.2021
5524 Clear 17 1018 39 10000 1.92 188 09:59 09.11.2021
5525 Clear 17 1018 35 10000 1.98 200 08:54 09.11.2021
5526 Clear 17 1018 35 10000 1.06 207 07:52 09.11.2021
5527 Clear 7 1025 38 10000 5.45 26 02:37 09.11.2021
5528 Clear 6 1026 39 10000 5.62 26 01:51 09.11.2021
5529 Clear 6 1026 40 10000 5.76 26 00:39 09.11.2021
5530 Clear 6 1026 41 10000 5.7 26 23:31 08.11.2021
5531 Clear 6 1026 42 10000 5.72 26 22:45 08.11.2021
5532 Clear 6 1026 43 10000 5.83 27 21:45 08.11.2021
5533 Clear 6 1027 45 10000 5.8 27 20:34 08.11.2021
5534 Clear 6 1027 45 10000 5.6 28 19:40 08.11.2021
5535 Clear 6 1027 44 10000 5.61 28 17:44 08.11.2021
5536 Clear 6 1027 43 10000 5.4 29 15:56 08.11.2021
5537 Clear 6 1026 44 10000 5.44 26 14:56 08.11.2021
5538 Clear 6 1026 44 10000 5.44 26 14:33 08.11.2021
5539 Clear 8 1023 56 10000 3.64 31 13:18 08.11.2021
5540 Clear 12 1020 51 10000 0.81 60 11:55 08.11.2021
5541 Clear 15 1018 43 10000 0.38 179 10:50 08.11.2021
5542 Clear 16 1018 28 10000 0.26 330 09:26 08.11.2021
5543 Clear 16 1018 28 10000 0.26 330 08:42 08.11.2021
5544 Clear 16 1020 26 10000 0.65 5 06:56 08.11.2021
5545 Clear 9 1024 35 10000 4.28 26 03:35 08.11.2021
5546 Clear 4 1027 36 10000 5.92 28 01:35 08.11.2021
5547 Clear 5 1026 39 10000 5.6 27 23:25 07.11.2021
5548 Clear 5 1027 41 10000 5.49 27 21:26 07.11.2021
5549 Clear 5 1027 43 10000 5.56 27 20:28 07.11.2021
5550 Clear 5 1027 45 10000 5.52 28 19:19 07.11.2021
5551 Clear 5 1027 48 10000 5.37 29 17:44 07.11.2021
5552 Clear 5 1026 50 10000 5.37 29 16:42 07.11.2021
5553 Clear 6 1026 51 10000 5.15 29 15:41 07.11.2021
5554 Clear 7 1024 55 10000 4.5 28 14:27 07.11.2021
5555 Clear 8 1021 57 10000 3.14 34 12:55 07.11.2021
5556 Clear 12 1018 50 10000 0.84 133 11:42 07.11.2021
5557 Clear 16 1016 29 10000 1.72 189 09:21 07.11.2021
5558 Clear 9 1021 38 10000 4.16 25 03:40 07.11.2021
5559 Clear 4 1024 38 10000 5.68 27 02:28 07.11.2021
5560 Clear 4 1023 42 10000 5.54 26 22:57 06.11.2021
5561 Clear 4 1023 44 10000 5.49 26 22:29 06.11.2021
5562 Clear 5 1023 46 10000 5.45 27 21:27 06.11.2021
5563 Clear 5 1023 46 10000 5.45 27 20:30 06.11.2021
5564 Clear 5 1024 55 10000 5.28 29 17:50 06.11.2021
5565 Clear 5 1024 56 10000 5.13 30 16:38 06.11.2021
5566 Clear 6 1023 59 10000 4.83 29 14:31 06.11.2021
5567 Clear 6 1022 64 10000 4.48 29 13:38 06.11.2021
5568 Clear 14 1016 47 10000 1.42 184 11:25 06.11.2021
5569 Clear 15 1017 38 10000 1.12 202 09:21 06.11.2021
5570 Clear 12 1021 41 10000 2.03 19 04:55 06.11.2021
5571 Clear 4 1024 50 10000 5.36 27 01:27 06.11.2021
5572 Clear 4 1024 51 10000 5.16 26 23:34 05.11.2021
5573 Clear 5 1024 51 10000 5.13 27 22:33 05.11.2021
5574 Clear 5 1024 51 10000 5.13 27 22:33 05.11.2021
5575 Clear 5 1025 52 10000 4.96 28 20:42 05.11.2021
5576 Clear 5 1025 53 10000 4.94 29 20:19 05.11.2021
5577 Clear 5 1025 53 10000 5.15 28 19:32 05.11.2021
5578 Clouds 5 1025 55 10000 5.01 29 18:38 05.11.2021
5579 Clouds 6 1025 59 10000 4.64 29 17:25 05.11.2021
5580 Clouds 6 1024 65 10000 4.27 30 14:54 05.11.2021
5581 Clouds 7 1023 67 10000 3.77 31 13:33 05.11.2021
5582 Clouds 14 1018 42 10000 3.15 194 10:29 05.11.2021
5583 Clouds 14 1018 38 10000 2.76 193 08:39 05.11.2021
5584 Clear 14 1020 31 10000 1.62 210 07:21 05.11.2021
5585 Clear 12 1022 37 10000 1.16 8 04:43 05.11.2021
5586 Clear 4 1025 46 10000 4.75 25 02:24 05.11.2021
5587 Clear 4 1025 46 10000 4.79 25 00:30 05.11.2021
5588 Clear 4 1025 48 10000 4.65 24 22:59 04.11.2021
5589 Clear 4 1025 49 10000 4.65 26 22:18 04.11.2021
5590 Clear 4 1025 49 10000 4.65 26 21:31 04.11.2021
5591 Clear 4 1026 50 10000 4.83 25 20:40 04.11.2021
5592 Clear 5 1026 51 10000 4.79 24 20:19 04.11.2021
5593 Clear 5 1026 51 10000 4.79 24 19:40 04.11.2021
5594 Clouds 5 1026 53 10000 4.78 27 18:43 04.11.2021
5595 Clouds 5 1026 54 10000 4.75 27 17:36 04.11.2021
5596 Clouds 5 1026 56 10000 4.66 26 16:29 04.11.2021
5597 Clouds 6 1024 60 10000 4.33 28 14:20 04.11.2021
5598 Clouds 11 1019 52 10000 0.71 135 11:43 04.11.2021
5599 Clouds 13 1019 35 10000 1.34 198 09:29 04.11.2021
5600 Clouds 13 1020 33 10000 1.16 208 08:29 04.11.2021
5601 Clouds 13 1020 33 10000 1.16 208 07:34 04.11.2021
5602 Clear 3 1026 54 10000 4.91 27 23:54 03.11.2021
5603 Clear 3 1026 55 10000 4.87 26 22:50 03.11.2021
5604 Clear 3 1027 55 10000 4.77 26 21:47 03.11.2021
5605 Clear 3 1027 57 10000 4.86 26 21:25 03.11.2021
5606 Clear 3 1027 58 10000 4.74 26 20:34 03.11.2021
5607 Clear 3 1027 59 10000 4.81 26 19:40 03.11.2021
5608 Clouds 3 1027 61 10000 4.74 25 18:51 03.11.2021
5609 Clouds 4 1028 62 10000 4.8 26 18:18 03.11.2021
5610 Clouds 4 1028 64 10000 4.66 26 17:20 03.11.2021
5611 Clouds 4 1027 67 10000 4.42 26 16:18 03.11.2021
5612 Clouds 4 1027 67 10000 4.42 26 15:42 03.11.2021
5613 Clouds 7 1024 75 10000 3 37 13:49 03.11.2021
5614 Clouds 10 1020 65 9808 1.63 209 11:39 03.11.2021
5615 Clouds 11 1020 56 10000 2.15 208 10:53 03.11.2021
5616 Clouds 12 1020 51 10000 2.61 206 10:28 03.11.2021
5617 Clouds 12 1021 45 10000 2.54 203 09:29 03.11.2021
5618 Clouds 12 1022 45 10000 1.25 206 08:22 03.11.2021
5619 Clouds 12 1022 45 10000 1.25 206 07:39 03.11.2021
5620 Clear 7 1027 53 10000 3.55 25 04:26 03.11.2021
5621 Clear 2 1031 60 10000 5.19 26 01:49 03.11.2021
5622 Clear 2 1031 60 10000 5.19 26 01:49 03.11.2021
5623 Clouds 4 1028 61 10000 4.58 26 23:33 02.11.2021
5624 Clouds 4 1028 62 10000 4.59 25 22:29 02.11.2021
5625 Clouds 4 1029 62 10000 4.62 26 20:54 02.11.2021
5626 Clouds 4 1029 62 10000 4.62 26 20:32 02.11.2021
5627 Clouds 4 1029 63 10000 4.77 27 19:47 02.11.2021
5628 Clouds 4 1028 66 10000 4.32 28 18:51 02.11.2021
5629 Clouds 5 1028 66 10000 4.05 31 17:58 02.11.2021
5630 Clouds 5 1028 66 10000 4.05 31 17:32 02.11.2021
5631 Clouds 5 1028 70 10000 3.77 35 16:29 02.11.2021
5632 Clouds 6 1027 75 10000 3.4 37 15:26 02.11.2021
5633 Clouds 7 1026 78 10000 2.64 39 14:22 02.11.2021
5634 Clouds 9 1024 65 10000 1.15 359 13:27 02.11.2021
5635 Clouds 9 1024 65 10000 1.15 359 12:33 02.11.2021
5636 Clouds 10 1023 56 10000 0.76 255 11:32 02.11.2021
5637 Clouds 11 1022 51 10000 1.87 215 10:51 02.11.2021
5638 Clouds 12 1022 46 10000 2.59 209 10:25 02.11.2021
5639 Clouds 12 1022 41 10000 2.33 214 08:43 02.11.2021
5640 Clouds 12 1024 37 10000 2.25 211 06:50 02.11.2021
5641 Clouds 8 1026 41 10000 3 30 03:34 02.11.2021
5642 Clouds 4 1029 45 10000 4.55 29 02:18 02.11.2021
5643 Clouds 4 1028 45 10000 5.26 27 22:44 01.11.2021
5644 Clear 4 1029 49 10000 5.31 26 20:52 01.11.2021
5645 Clear 4 1029 49 10000 5.31 26 20:33 01.11.2021
5646 Clear 4 1029 52 10000 5.12 28 19:52 01.11.2021
5647 Clear 4 1028 56 10000 4.95 28 19:25 01.11.2021
5648 Clear 4 1028 61 10000 4.83 27 18:21 01.11.2021
5649 Clear 5 1028 65 10000 4.58 28 17:21 01.11.2021
5650 Clear 5 1028 65 10000 4.58 28 16:45 01.11.2021
5651 Clear 5 1027 67 10000 4.32 29 15:47 01.11.2021
5652 Clear 5 1026 69 10000 3.93 32 15:21 01.11.2021
5653 Clear 5 1026 69 10000 3.93 32 14:42 01.11.2021
5654 Clear 6 1024 72 10000 3.01 44 14:20 01.11.2021
5655 Clouds 7 1022 70 10000 0.94 92 13:25 01.11.2021
5656 Clouds 11 1020 57 10000 2.2 191 12:25 01.11.2021
5657 Clouds 13 1019 49 10000 2.89 194 10:33 01.11.2021
5658 Clouds 14 1019 43 10000 3.11 192 08:53 01.11.2021
5659 Clouds 14 1020 42 10000 2.74 192 07:48 01.11.2021
5660 Clouds 13 1021 38 10000 1.66 207 05:56 01.11.2021
5661 Clouds 9 1023 47 10000 2.35 28 03:42 01.11.2021
5662 Clear 5 1023 53 10000 4.55 29 00:27 01.11.2021
5663 Clear 6 1023 56 10000 4.59 29 21:55 31.10.2021
5664 Clear 6 1024 56 10000 4.55 28 20:36 31.10.2021
5665 Clear 6 1025 55 10000 4.61 28 18:54 31.10.2021
5666 Clear 6 1025 55 10000 4.61 28 18:32 31.10.2021
5667 Clear 6 1025 53 10000 4.82 30 16:49 31.10.2021
5668 Clear 7 1024 53 10000 4.82 28 15:29 31.10.2021
5669 Clear 7 1024 59 10000 4.47 27 13:38 31.10.2021
5670 Clear 8 1022 63 10000 2.7 37 12:37 31.10.2021
5671 Clear 15 1018 41 10000 1.53 199 10:57 31.10.2021
5672 Clear 15 1018 41 10000 1.53 199 10:36 31.10.2021
5673 Clear 16 1018 33 10000 0.68 198 09:19 31.10.2021
5674 Clear 13 1022 36 10000 2.53 24 04:55 31.10.2021
5675 Clear 5 1024 43 10000 5.13 27 00:48 31.10.2021
5676 Clear 6 1025 44 10000 4.98 28 22:33 30.10.2021
5677 Clear 6 1025 45 10000 4.85 27 21:33 30.10.2021
5678 Clear 6 1026 47 10000 5.3 26 20:19 30.10.2021
5679 Clear 6 1027 49 10000 5.29 28 18:33 30.10.2021
5680 Clear 6 1027 51 10000 5.19 27 16:42 30.10.2021
5681 Clear 6 1026 54 10000 4.87 25 14:36 30.10.2021
5682 Clear 8 1024 59 10000 2.87 33 13:39 30.10.2021
5683 Clear 12 1021 50 10000 0.69 117 13:20 30.10.2021
5684 Clear 15 1020 38 10000 0.97 181 11:51 30.10.2021
5685 Clear 15 1020 38 10000 0.97 181 11:31 30.10.2021
5686 Clear 15 1021 28 10000 1.02 196 10:24 30.10.2021
5687 Clear 15 1022 29 10000 0.59 194 08:48 30.10.2021
5688 Clear 12 1025 30 10000 2.58 22 06:26 30.10.2021
5689 Clear 12 1025 30 10000 2.58 22 05:38 30.10.2021
5690 Clear 4 1029 37 10000 5.8 25 23:52 29.10.2021
5691 Clear 5 1030 38 10000 5.79 26 22:37 29.10.2021
5692 Clear 5 1030 41 10000 5.72 25 21:52 29.10.2021
5693 Clear 5 1030 44 10000 5.64 25 20:44 29.10.2021
5694 Clear 5 1030 46 10000 5.43 26 19:49 29.10.2021
5695 Clear 6 1030 55 10000 5 27 18:27 29.10.2021
5696 Clear 6 1029 57 10000 4.85 28 16:51 29.10.2021
5697 Clear 7 1028 63 10000 4.28 29 14:33 29.10.2021
5698 Clear 15 1022 45 10000 2.11 181 11:43 29.10.2021
5699 Clear 16 1021 37 10000 2.24 185 10:35 29.10.2021
5700 Clear 16 1024 31 10000 1.58 203 08:19 29.10.2021
5701 Clear 5 1028 41 10000 5.37 26 00:36 29.10.2021
5702 Clear 6 1028 43 10000 5.43 26 22:59 28.10.2021
5703 Clear 6 1028 45 10000 5.48 26 21:55 28.10.2021
5704 Clear 6 1029 47 10000 5.54 27 20:32 28.10.2021
5705 Clear 6 1029 49 10000 5.55 27 19:48 28.10.2021
5706 Clear 6 1029 51 10000 5.33 27 18:20 28.10.2021
5707 Clear 6 1028 51 10000 5.4 27 16:58 28.10.2021
5708 Clear 7 1028 54 10000 4.67 27 15:20 28.10.2021
5709 Clear 9 1025 56 10000 2.81 33 13:46 28.10.2021
5710 Clear 13 1022 48 10000 0.54 95 13:22 28.10.2021
5711 Clear 13 1022 48 10000 0.54 95 12:41 28.10.2021
5712 Clear 16 1021 31 10000 1.48 187 10:57 28.10.2021
5713 Clear 16 1021 29 10000 1.61 195 09:38 28.10.2021
5714 Clear 16 1022 30 10000 1.23 201 08:58 28.10.2021
5715 Clear 16 1022 30 10000 1.23 201 08:34 28.10.2021
5716 Clear 10 1026 35 10000 4 25 04:48 28.10.2021
5717 Clear 4 1028 40 10000 6.02 27 23:50 27.10.2021
5718 Clear 4 1028 40 10000 6.02 27 22:31 27.10.2021
5719 Clear 4 1029 41 10000 6.02 28 21:33 27.10.2021
5720 Clear 4 1029 43 10000 5.95 28 20:53 27.10.2021
5721 Clear 4 1029 43 10000 5.95 28 20:33 27.10.2021
5722 Clear 4 1030 44 10000 5.89 28 19:40 27.10.2021
5723 Clear 4 1030 45 10000 5.91 26 18:52 27.10.2021
5724 Clear 5 1028 49 10000 5.91 27 16:27 27.10.2021
5725 Clear 5 1028 49 10000 5.91 27 15:32 27.10.2021
5726 Clear 5 1027 53 10000 5.12 26 14:40 27.10.2021
5727 Clear 12 1021 52 10000 0.68 94 12:33 27.10.2021
5728 Clear 14 1020 36 10000 0.23 122 10:58 27.10.2021
5729 Clear 14 1021 37 10000 0.25 281 09:51 27.10.2021
5730 Clear 14 1022 39 10000 0.37 256 08:36 27.10.2021
5731 Clouds 14 1022 34 10000 0.19 150 07:31 27.10.2021
5732 Clouds 5 1027 61 10000 4.83 28 02:30 27.10.2021
5733 Clear 5 1026 60 10000 4.68 25 00:57 27.10.2021
5734 Clear 5 1026 60 10000 4.68 25 00:30 27.10.2021
5735 Clear 5 1026 60 10000 4.3 26 23:43 26.10.2021
5736 Clear 5 1026 59 10000 4.27 26 22:39 26.10.2021
5737 Clear 5 1026 59 10000 4.19 25 21:59 26.10.2021
5738 Clear 6 1026 58 10000 4.19 26 20:40 26.10.2021
5739 Clear 6 1026 58 10000 4.5 26 19:32 26.10.2021
5740 Clear 6 1027 58 10000 4.56 28 18:41 26.10.2021
5741 Clear 6 1026 62 10000 4.56 27 16:42 26.10.2021
5742 Clear 7 1024 67 10000 3.78 33 14:56 26.10.2021
5743 Clear 14 1017 45 10000 3 186 11:47 26.10.2021
5744 Clear 15 1017 37 10000 3.32 187 10:33 26.10.2021
5745 Clear 15 1019 28 10000 2.4 194 07:47 26.10.2021
5746 Clear 14 1020 34 10000 0.23 173 07:20 26.10.2021
5747 Clear 4 1025 44 10000 5.5 28 23:51 25.10.2021
5748 Clear 4 1025 44 10000 5.5 28 23:51 25.10.2021
5749 Clear 4 1025 44 10000 5.5 28 23:51 25.10.2021
5750 Clear 4 1025 44 10000 5.58 28 22:55 25.10.2021
5751 Clear 4 1025 46 10000 5.72 28 22:20 25.10.2021
5752 Clear 4 1025 46 10000 5.72 28 21:39 25.10.2021
5753 Clear 5 1026 52 10000 5.74 27 20:18 25.10.2021
5754 Clear 5 1027 56 10000 5.7 27 19:26 25.10.2021
5755 Clear 5 1027 56 10000 5.7 27 18:59 25.10.2021
5756 Clear 5 1027 58 10000 5.61 27 18:20 25.10.2021
5757 Clear 6 1025 63 10000 5.18 26 16:20 25.10.2021
5758 Clear 7 1024 69 10000 4.53 29 14:36 25.10.2021
5759 Clear 13 1019 64 10000 1.64 172 12:30 25.10.2021
5760 Clear 15 1019 44 10000 2.15 187 10:23 25.10.2021
5761 Clear 15 1020 43 10000 2 191 08:37 25.10.2021
5762 Clear 12 1023 53 10000 1.9 16 06:26 25.10.2021
5763 Clear 4 1028 63 10000 5.44 26 02:31 25.10.2021
5764 Clouds 4 1027 66 10000 5.19 27 00:46 25.10.2021
5765 Clouds 5 1027 68 10000 4.95 27 23:47 24.10.2021
5766 Clouds 5 1026 70 10000 4.65 28 22:56 24.10.2021
5767 Clouds 5 1026 70 10000 4.65 28 22:36 24.10.2021
5768 Clouds 6 1027 72 10000 4.4 28 22:18 24.10.2021
5769 Clouds 6 1027 74 10000 3.9 30 20:46 24.10.2021
5770 Clouds 6 1027 76 10000 3.72 26 20:27 24.10.2021
5771 Clouds 6 1028 73 10000 4.12 30 18:53 24.10.2021
5772 Clouds 6 1027 74 10000 3.94 29 17:58 24.10.2021
5773 Clouds 7 1026 77 10000 3.7 29 17:18 24.10.2021
5774 Clouds 9 1025 87 8906 2.31 7 15:47 24.10.2021
5775 Rain 9 1024 92 4308 0.72 339 13:52 24.10.2021
5776 Rain 10 1023 90 2703 0.87 302 12:41 24.10.2021
5777 Rain 10 1023 90 2703 0.87 302 12:41 24.10.2021
5778 Clouds 10 1023 88 1988 1.39 279 11:43 24.10.2021
5779 Rain 10 1022 86 1465 1.34 271 10:47 24.10.2021
5780 Clouds 12 1022 72 3041 1.68 253 09:54 24.10.2021
5781 Clouds 12 1023 63 10000 2.43 2 05:35 24.10.2021
5782 Clouds 9 1022 80 10000 3.44 10 00:53 24.10.2021
5783 Clouds 9 1022 82 10000 3.63 9 23:34 23.10.2021
5784 Rain 9 1024 91 7778 1.91 352 21:56 23.10.2021
5785 Clouds 10 1024 93 4527 0.42 321 19:54 23.10.2021
5786 Rain 10 1024 90 3421 1.03 9 18:59 23.10.2021
5787 Rain 10 1023 86 1764 1.7 25 18:21 23.10.2021
5788 Rain 10 1023 86 1764 1.7 25 17:43 23.10.2021
5789 Rain 10 1023 86 1764 1.7 25 17:43 23.10.2021
5790 Clouds 11 1022 74 10000 2.49 42 16:22 23.10.2021
5791 Clouds 12 1021 72 10000 1.14 354 14:22 23.10.2021
5792 Clouds 13 1021 51 10000 1.45 17 03:33 23.10.2021
5793 Clouds 12 1019 50 10000 1.07 40 23:59 22.10.2021
5794 Clouds 12 1020 51 10000 1.53 48 22:53 22.10.2021
5795 Clouds 12 1022 55 10000 2.22 42 19:53 22.10.2021
5796 Clouds 11 1023 58 10000 2.65 41 18:41 22.10.2021
5797 Clouds 11 1023 61 10000 3.07 39 17:40 22.10.2021
5798 Clouds 12 1021 67 10000 1.87 69 15:25 22.10.2021
5799 Clouds 13 1020 67 10000 1.41 155 13:48 22.10.2021
5800 Clouds 18 1017 45 10000 3.92 191 11:24 22.10.2021
5801 Clouds 18 1017 45 10000 3.92 191 10:41 22.10.2021
5802 Clouds 19 1017 42 10000 3.78 188 09:56 22.10.2021
5803 Clouds 19 1017 38 10000 3.3 190 08:36 22.10.2021
5804 Clouds 18 1018 29 10000 1.76 201 07:22 22.10.2021
5805 Clouds 18 1018 29 10000 1.76 201 07:22 22.10.2021
5806 Clouds 10 1021 41 10000 4.36 30 02:57 22.10.2021
5807 Clear 11 1021 47 10000 4.43 29 23:55 21.10.2021
5808 Clear 11 1021 47 10000 4.43 29 23:35 21.10.2021
5809 Clear 11 1022 51 10000 4.22 29 21:50 21.10.2021
5810 Clear 11 1022 55 10000 4.32 29 20:40 21.10.2021
5811 Clear 11 1023 59 10000 4.29 29 20:18 21.10.2021
5812 Clear 12 1022 61 10000 4.18 32 19:29 21.10.2021
5813 Clear 12 1022 61 10000 4.18 32 18:45 21.10.2021
5814 Clear 12 1022 64 10000 4.01 31 17:56 21.10.2021
5815 Clear 12 1022 64 10000 4.01 31 17:37 21.10.2021
5816 Clear 13 1021 73 10000 3.41 32 15:49 21.10.2021
5817 Clear 13 1020 80 10000 2.22 47 15:20 21.10.2021
5818 Clear 13 1020 80 10000 2.22 47 14:38 21.10.2021
5819 Clear 18 1016 68 10000 2.34 189 13:19 21.10.2021
5820 Clear 20 1015 48 10000 2.99 189 11:24 21.10.2021
5821 Clear 21 1017 39 10000 2.66 190 08:34 21.10.2021
5822 Clear 20 1018 31 10000 1.44 181 07:28 21.10.2021
5823 Clear 11 1022 44 10000 4.65 30 03:29 21.10.2021
5824 Clear 12 1022 50 10000 4.35 33 23:25 20.10.2021
5825 Clear 12 1023 49 10000 4.31 34 21:51 20.10.2021
5826 Clear 12 1023 49 10000 4.31 34 21:30 20.10.2021
5827 Clear 12 1023 50 10000 4.18 37 20:54 20.10.2021
5828 Clear 12 1023 51 10000 4.14 37 20:28 20.10.2021
5829 Clear 12 1023 51 10000 4.12 38 19:51 20.10.2021
5830 Clear 12 1023 53 10000 4.23 36 18:54 20.10.2021
5831 Clear 12 1023 54 10000 4.3 34 17:45 20.10.2021
5832 Clear 13 1021 63 10000 3.42 36 15:26 20.10.2021
5833 Clear 21 1017 37 10000 2.43 188 10:25 20.10.2021
5834 Clear 21 1018 35 10000 2.29 191 08:53 20.10.2021
5835 Clear 10 1024 36 10000 4.78 32 03:21 20.10.2021
5836 Clear 10 1022 39 10000 4.62 33 00:47 20.10.2021
5837 Clear 11 1022 40 10000 4.55 33 23:59 19.10.2021
5838 Clear 11 1022 40 10000 4.47 34 21:43 19.10.2021
5839 Clear 11 1022 41 10000 4.52 34 20:54 19.10.2021
5840 Clear 11 1022 42 10000 4.6 34 20:25 19.10.2021
5841 Clear 11 1023 42 10000 4.5 35 19:41 19.10.2021
5842 Clear 11 1022 44 10000 4.57 34 19:19 19.10.2021
5843 Clear 11 1022 46 10000 4.58 34 17:58 19.10.2021
5844 Clear 12 1020 52 10000 4.28 35 15:48 19.10.2021
5845 Clear 12 1019 58 10000 3.65 42 15:20 19.10.2021
5846 Clear 14 1017 66 10000 1.64 75 14:26 19.10.2021
5847 Clear 14 1017 66 10000 1.53 77 13:35 19.10.2021
5848 Clear 19 1014 49 10000 2.14 175 11:36 19.10.2021
5849 Clear 20 1013 45 10000 2.38 177 10:36 19.10.2021
5850 Clear 20 1014 40 10000 2.34 176 08:58 19.10.2021
5851 Clear 17 1016 67 10000 0.76 341 07:20 19.10.2021
5852 Clear 7 1020 56 10000 5.83 27 00:26 19.10.2021
5853 Clear 7 1020 56 10000 5.83 27 23:51 18.10.2021
5854 Clear 7 1020 59 10000 5.63 27 23:20 18.10.2021
5855 Clear 7 1020 59 10000 5.63 27 22:54 18.10.2021
5856 Clear 8 1020 62 10000 5.58 27 21:54 18.10.2021
5857 Clear 8 1021 64 10000 5.44 27 20:42 18.10.2021
5858 Clouds 8 1021 68 10000 5.13 25 20:19 18.10.2021
5859 Clouds 8 1020 71 10000 5.05 26 19:30 18.10.2021
5860 Clouds 9 1020 72 10000 4.54 27 18:58 18.10.2021
5861 Clouds 10 1017 79 10000 3.56 24 15:56 18.10.2021
5862 Clouds 12 1017 92 10000 2.8 21 14:30 18.10.2021
5863 Clouds 14 1014 92 4994 1.74 48 11:20 18.10.2021
5864 Rain 14 1015 92 3696 1.87 21 09:37 18.10.2021
5865 Clouds 13 1017 94 2140 0.84 21 05:32 18.10.2021
5866 Clouds 14 1016 88 6829 1.85 22 23:51 17.10.2021
5867 Clouds 15 1016 83 8948 2.3 22 21:59 17.10.2021
5868 Clouds 15 1016 83 8948 2.3 22 21:40 17.10.2021
5869 Clouds 15 1016 82 10000 2.48 19 20:42 17.10.2021
5870 Clouds 14 1019 89 5624 2.27 37 19:56 17.10.2021
5871 Clouds 14 1019 89 5624 2.27 37 19:37 17.10.2021
5872 Clouds 14 1019 88 5134 2.96 21 18:28 17.10.2021
5873 Clouds 15 1019 85 7653 2.56 26 15:57 17.10.2021
5874 Clouds 14 1020 91 3993 2.3 48 14:38 17.10.2021
5875 Clouds 14 1020 92 2891 1.68 63 13:56 17.10.2021
5876 Clouds 14 1020 92 2891 1.68 63 13:30 17.10.2021
5877 Clouds 18 1018 66 10000 3.62 177 11:27 17.10.2021
5878 Clouds 20 1017 50 10000 4.56 189 09:56 17.10.2021
5879 Clouds 20 1019 36 10000 2.89 208 07:43 17.10.2021
5880 Clouds 15 1020 37 10000 3.27 30 02:57 17.10.2021
5881 Clear 14 1020 40 10000 3.84 28 00:30 17.10.2021
5882 Clouds 14 1020 41 10000 3.56 28 22:47 16.10.2021
5883 Clear 15 1021 41 10000 3.39 30 20:45 16.10.2021
5884 Clear 15 1021 42 10000 3.44 30 20:26 16.10.2021
5885 Clear 15 1021 42 10000 3.44 30 19:40 16.10.2021
5886 Clear 15 1021 43 10000 3.51 30 19:19 16.10.2021
5887 Clear 15 1021 43 10000 3.51 30 19:18 16.10.2021
5888 Clear 15 1021 43 10000 3.51 30 18:44 16.10.2021
5889 Clear 15 1021 45 10000 3.83 29 18:22 16.10.2021
5890 Clear 15 1021 45 10000 3.83 29 17:31 16.10.2021
5891 Clear 15 1020 52 10000 3.69 29 16:20 16.10.2021
5892 Clear 21 1015 38 10000 2.56 190 13:26 16.10.2021
5893 Clear 23 1014 28 10000 3.72 195 11:24 16.10.2021
5894 Clear 23 1015 26 10000 3.69 197 09:35 16.10.2021
5895 Clear 19 1018 29 10000 1.95 32 04:33 16.10.2021
5896 Clear 13 1019 39 10000 3.92 29 01:22 16.10.2021
5897 Clear 13 1018 36 10000 3.87 30 23:27 15.10.2021
5898 Clear 14 1019 35 10000 3.81 29 22:21 15.10.2021
5899 Clear 14 1019 35 10000 3.81 29 21:41 15.10.2021
5900 Clear 14 1019 35 10000 3.7 31 20:54 15.10.2021
5901 Clear 14 1019 35 10000 3.7 31 20:35 15.10.2021
5902 Clear 14 1019 39 10000 4 31 19:20 15.10.2021
5903 Clear 14 1019 40 10000 4.18 29 18:25 15.10.2021
5904 Clear 15 1018 43 10000 4.02 28 16:19 15.10.2021
5905 Clear 15 1018 43 10000 4.02 28 16:19 15.10.2021
5906 Clear 15 1016 46 10000 2.82 34 14:37 15.10.2021
5907 Clear 22 1013 28 10000 2.63 191 12:27 15.10.2021
5908 Clear 23 1013 24 10000 3.23 191 11:20 15.10.2021
5909 Clear 23 1013 24 10000 3.23 191 10:32 15.10.2021
5910 Clear 24 1014 19 10000 3.08 201 08:36 15.10.2021
5911 Clear 21 1016 17 10000 0.47 194 05:31 15.10.2021
5912 Clear 21 1016 17 10000 0.47 194 05:31 15.10.2021
5913 Clear 13 1018 24 10000 4.3 25 00:30 15.10.2021
5914 Clear 13 1018 25 10000 4.1 25 23:34 14.10.2021
5915 Clear 13 1018 25 10000 4.1 25 23:34 14.10.2021
5916 Clear 14 1018 26 10000 4.05 25 22:44 14.10.2021
5917 Clear 14 1019 28 10000 4.12 25 21:41 14.10.2021
5918 Clear 14 1019 32 10000 4.29 27 20:22 14.10.2021
5919 Clear 14 1019 32 10000 4.29 27 19:50 14.10.2021
5920 Clear 14 1019 34 10000 4.39 27 18:45 14.10.2021
5921 Clear 15 1020 35 10000 4.21 23 17:25 14.10.2021
5922 Clear 15 1020 35 10000 4.21 23 16:46 14.10.2021
5923 Clear 15 1019 43 10000 3.42 27 15:22 14.10.2021
5924 Clear 15 1019 42 10000 3.6 27 14:40 14.10.2021
5925 Clear 17 1017 51 10000 0.66 61 13:35 14.10.2021
5926 Clear 22 1015 24 10000 2.9 196 11:40 14.10.2021
5927 Clear 23 1015 18 10000 2.78 203 09:50 14.10.2021
5928 Clear 22 1017 14 10000 0.59 248 06:46 14.10.2021
5929 Clear 12 1021 25 10000 4.84 25 00:52 14.10.2021
5930 Clear 12 1020 31 10000 4.56 25 22:47 13.10.2021
5931 Clear 13 1020 33 10000 4.4 25 21:37 13.10.2021
5932 Clear 13 1020 36 10000 4.21 25 20:46 13.10.2021
5933 Clear 13 1020 37 10000 4.15 25 19:47 13.10.2021
5934 Clear 13 1020 38 10000 4.05 24 18:49 13.10.2021
5935 Clear 13 1020 38 10000 4.05 24 18:49 13.10.2021
5936 Clear 13 1020 41 10000 3.97 23 17:35 13.10.2021
5937 Clear 14 1017 61 10000 1.87 40 15:23 13.10.2021
5938 Clear 14 1017 61 10000 1.87 40 14:44 13.10.2021
5939 Clear 19 1014 37 10000 2.76 199 12:54 13.10.2021
5940 Clear 20 1014 29 10000 3.31 200 11:55 13.10.2021
5941 Clear 21 1014 23 10000 3.79 203 10:21 13.10.2021
5942 Clear 21 1016 22 10000 3.16 204 07:56 13.10.2021
5943 Clear 20 1017 21 10000 2.3 204 06:33 13.10.2021
5944 Clear 12 1019 27 10000 4.03 26 02:24 13.10.2021
5945 Clear 12 1019 33 10000 3.79 25 23:55 12.10.2021
5946 Clear 12 1019 37 10000 3.78 25 23:29 12.10.2021
5947 Clear 12 1019 37 10000 3.78 25 22:43 12.10.2021
5948 Clear 13 1020 43 10000 3.58 26 21:19 12.10.2021
5949 Clear 13 1020 43 10000 3.56 26 20:33 12.10.2021
5950 Clear 13 1020 45 10000 3.57 23 19:51 12.10.2021
5951 Clear 13 1020 50 10000 3.58 24 18:27 12.10.2021
5952 Clear 13 1020 50 10000 3.58 24 17:38 12.10.2021
5953 Clear 13 1020 55 10000 3.56 23 16:36 12.10.2021
5954 Clear 14 1019 61 10000 3.13 29 15:44 12.10.2021
5955 Clear 14 1018 66 10000 1.58 38 14:30 12.10.2021
5956 Clear 16 1016 59 10000 1.26 192 13:42 12.10.2021
5957 Clear 20 1015 32 10000 3.58 198 11:36 12.10.2021
5958 Clear 21 1015 27 10000 4.01 201 09:41 12.10.2021
5959 Clear 21 1016 25 10000 4.16 201 08:42 12.10.2021
5960 Clear 20 1017 23 10000 2.44 207 06:53 12.10.2021
5961 Clear 17 1019 28 10000 1.72 12 05:29 12.10.2021
5962 Clear 17 1019 28 10000 1.72 12 04:31 12.10.2021
5963 Clear 12 1019 51 10000 3.82 24 00:27 12.10.2021
5964 Clear 12 1019 51 10000 3.82 24 23:40 11.10.2021
5965 Clear 12 1019 53 10000 3.75 23 22:56 11.10.2021
5966 Clear 12 1020 54 10000 3.69 22 21:45 11.10.2021
5967 Clear 12 1020 55 10000 3.63 21 20:35 11.10.2021
5968 Clear 13 1020 58 10000 3.43 20 19:38 11.10.2021
5969 Clear 13 1020 64 10000 3.21 21 18:25 11.10.2021
5970 Clear 13 1020 69 10000 2.93 25 16:51 11.10.2021
5971 Clear 13 1020 69 10000 2.93 25 16:31 11.10.2021
5972 Clear 13 1019 73 10000 2.1 33 15:47 11.10.2021
5973 Clear 14 1018 76 10000 0.42 78 14:54 11.10.2021
5974 Clear 16 1017 62 10000 2.01 200 14:22 11.10.2021
5975 Clear 16 1017 62 10000 2.01 200 13:36 11.10.2021
5976 Clear 16 1017 62 10000 2.01 200 13:36 11.10.2021
5977 Clear 19 1015 39 10000 3.94 196 11:38 11.10.2021
5978 Clear 20 1014 35 10000 4.34 197 10:31 11.10.2021
5979 Clear 21 1015 29 10000 4.29 202 09:19 11.10.2021
5980 Clear 17 1018 25 10000 0.32 355 04:55 11.10.2021
5981 Clear 12 1019 30 10000 3.36 22 01:37 11.10.2021
5982 Clear 12 1019 31 10000 3.44 22 00:45 11.10.2021
5983 Clear 12 1019 34 10000 3.61 21 23:57 10.10.2021
5984 Clear 13 1019 43 10000 3.58 21 21:51 10.10.2021
5985 Clear 13 1020 48 10000 3.41 18 21:29 10.10.2021
5986 Clear 13 1020 49 10000 3.29 20 20:42 10.10.2021
5987 Clear 13 1020 53 10000 3.1 22 20:21 10.10.2021
5988 Clear 13 1020 53 10000 3.1 22 19:53 10.10.2021
5989 Clear 13 1020 53 10000 3.1 22 19:34 10.10.2021
5990 Clear 13 1020 58 10000 3.14 22 18:33 10.10.2021
5991 Clouds 14 1020 68 10000 2.4 31 16:45 10.10.2021
5992 Clouds 14 1019 71 10000 1.48 56 15:41 10.10.2021
5993 Clouds 17 1016 63 10000 2.33 196 13:43 10.10.2021
5994 Clouds 19 1015 50 10000 3.36 198 12:51 10.10.2021
5995 Clouds 19 1015 50 10000 3.36 198 12:33 10.10.2021
5996 Clouds 21 1014 44 10000 4.23 196 10:43 10.10.2021
5997 Clear 21 1015 40 10000 3.83 196 09:29 10.10.2021
5998 Clear 21 1015 40 10000 3.83 196 08:53 10.10.2021
5999 Clear 20 1017 41 10000 2.48 205 06:54 10.10.2021
6000 Clear 13 1019 56 10000 3.19 26 02:38 10.10.2021
6001 Clear 13 1017 57 10000 3.19 25 00:55 10.10.2021
6002 Clear 14 1017 58 10000 3.11 26 23:52 09.10.2021
6003 Clear 14 1018 58 10000 2.97 25 22:45 09.10.2021
6004 Clear 14 1018 58 10000 2.87 24 21:38 09.10.2021
6005 Clear 14 1018 58 10000 2.8 23 21:19 09.10.2021
6006 Clouds 14 1019 60 10000 2.87 21 19:44 09.10.2021
6007 Clouds 15 1019 61 10000 2.97 20 18:57 09.10.2021
6008 Clouds 15 1019 61 10000 2.97 20 18:32 09.10.2021
6009 Clouds 15 1019 70 10000 2.79 25 16:36 09.10.2021
6010 Clouds 15 1018 80 10000 2.22 33 15:32 09.10.2021
6011 Clouds 17 1016 79 10000 1.97 202 13:43 09.10.2021
6012 Clouds 19 1015 61 10000 3.2 201 12:38 09.10.2021
6013 Clouds 20 1014 51 10000 3.74 201 11:47 09.10.2021
6014 Clouds 21 1014 44 10000 3.89 201 10:42 09.10.2021
6015 Clear 22 1014 39 10000 3.89 197 09:36 09.10.2021
6016 Clear 22 1015 34 10000 3.1 197 08:29 09.10.2021
6017 Clear 22 1015 34 10000 3.1 197 07:46 09.10.2021
6018 Clear 18 1016 36 10000 1.27 33 05:28 09.10.2021
6019 Clear 13 1018 46 10000 3.38 25 02:57 09.10.2021
6020 Clear 13 1018 46 10000 3.38 25 02:38 09.10.2021
6021 Clear 14 1017 53 10000 3.19 30 23:41 08.10.2021
6022 Clear 14 1016 56 10000 3 29 22:54 08.10.2021
6023 Clear 14 1016 58 10000 2.87 29 22:23 08.10.2021
6024 Clear 15 1016 61 10000 2.77 31 20:53 08.10.2021
6025 Clouds 15 1017 69 10000 2.47 26 18:53 08.10.2021
6026 Clouds 16 1016 80 10000 2.2 29 17:28 08.10.2021
6027 Clouds 16 1016 80 10000 2.2 29 16:50 08.10.2021
6028 Clouds 17 1016 87 10000 1.64 41 16:23 08.10.2021
6029 Clear 19 1014 85 10000 1.89 201 13:57 08.10.2021
6030 Clear 20 1013 70 10000 2.92 201 12:48 08.10.2021
6031 Clear 22 1012 60 10000 3.5 200 11:31 08.10.2021
6032 Clear 23 1012 53 10000 3.8 198 10:40 08.10.2021
6033 Clear 23 1013 43 10000 3.52 199 09:18 08.10.2021
6034 Clear 16 1014 39 10000 3.35 22 23:55 07.10.2021
6035 Clear 16 1014 42 10000 3.18 21 23:18 07.10.2021
6036 Clear 16 1014 46 10000 3.2 20 21:45 07.10.2021
6037 Clear 16 1015 50 10000 3.11 19 21:20 07.10.2021
6038 Clear 16 1015 53 10000 2.79 21 20:20 07.10.2021
6039 Clear 17 1016 57 10000 2.7 21 19:29 07.10.2021
6040 Clear 17 1016 60 10000 2.52 21 18:22 07.10.2021
6041 Clear 17 1016 64 10000 2.41 20 17:18 07.10.2021
6042 Clear 17 1016 70 10000 2.2 23 15:34 07.10.2021
6043 Clear 19 1015 74 10000 1.28 198 13:47 07.10.2021
6044 Clear 21 1013 58 10000 2.48 197 13:28 07.10.2021
6045 Clear 21 1013 58 10000 2.48 197 12:40 07.10.2021
6046 Clear 23 1013 46 10000 3.21 198 10:52 07.10.2021
6047 Clear 23 1013 42 10000 3.32 198 10:19 07.10.2021
6048 Clear 23 1013 42 10000 3.32 198 10:19 07.10.2021
6049 Clear 23 1013 42 10000 3.32 198 09:32 07.10.2021
6050 Clear 23 1014 38 10000 3.2 198 08:41 07.10.2021
6051 Clear 23 1014 36 10000 3.06 195 07:42 07.10.2021
6052 Clear 23 1015 32 10000 2.49 195 06:59 07.10.2021
6053 Clear 15 1016 37 10000 3.33 18 02:26 07.10.2021
6054 Clear 15 1016 42 10000 3.21 19 23:55 06.10.2021
6055 Clear 15 1016 44 10000 2.88 20 22:50 06.10.2021
6056 Clear 16 1016 46 10000 2.67 21 21:53 06.10.2021
6057 Clear 16 1016 47 10000 2.68 26 20:35 06.10.2021
6058 Clear 16 1017 49 10000 2.42 28 19:53 06.10.2021
6059 Clear 16 1017 50 10000 2.31 27 18:40 06.10.2021
6060 Clear 17 1018 55 10000 2.56 20 16:56 06.10.2021
6061 Clear 17 1017 72 10000 1.68 26 15:27 06.10.2021
6062 Clear 19 1016 74 10000 0.79 199 13:55 06.10.2021
6063 Clear 21 1015 56 10000 2.47 203 12:59 06.10.2021
6064 Clear 21 1015 56 10000 2.47 203 12:41 06.10.2021
6065 Clear 22 1014 48 10000 3.02 200 12:21 06.10.2021
6066 Clear 23 1015 38 10000 3.29 194 10:18 06.10.2021
6067 Clear 23 1015 38 10000 3.29 194 09:39 06.10.2021
6068 Clear 23 1016 35 10000 3.08 195 08:42 06.10.2021
6069 Clear 23 1017 35 10000 2.76 197 07:48 06.10.2021
6070 Clear 19 1020 38 10000 0.9 6 05:26 06.10.2021
6071 Clear 14 1020 53 10000 2.92 24 00:28 06.10.2021
6072 Clear 14 1020 53 10000 2.92 24 23:57 05.10.2021
6073 Clear 14 1020 53 10000 2.92 24 23:38 05.10.2021
6074 Clear 14 1020 54 10000 2.75 23 23:20 05.10.2021
6075 Clear 15 1020 55 10000 2.54 25 22:27 05.10.2021
6076 Clear 15 1020 55 10000 2.54 25 22:27 05.10.2021
6077 Clear 15 1020 55 10000 2.54 25 21:47 05.10.2021
6078 Clear 15 1021 56 10000 2.51 22 20:42 05.10.2021
6079 Clouds 15 1020 57 10000 2.6 22 20:24 05.10.2021
6080 Clouds 15 1020 57 10000 2.6 22 19:43 05.10.2021
6081 Clouds 16 1021 58 10000 2.85 22 18:54 05.10.2021
6082 Clouds 16 1021 66 10000 2.84 28 16:38 05.10.2021
6083 Clouds 16 1019 83 10000 0.93 24 14:36 05.10.2021
6084 Clouds 18 1018 73 10000 1.62 208 13:34 05.10.2021
6085 Clouds 20 1017 58 10000 2.61 205 12:46 05.10.2021
6086 Clouds 21 1016 52 10000 3.19 202 12:18 05.10.2021
6087 Clouds 21 1016 49 10000 3.51 200 10:59 05.10.2021
6088 Clouds 22 1018 44 10000 3.22 197 09:25 05.10.2021
6089 Clear 18 1020 52 10000 1.01 21 04:47 05.10.2021
6090 Clear 14 1019 70 10000 2.81 29 23:53 04.10.2021
6091 Clear 14 1019 70 10000 2.64 25 22:38 04.10.2021
6092 Clear 15 1019 71 10000 2.52 23 19:59 04.10.2021
6093 Clear 15 1019 72 10000 3.04 22 18:34 04.10.2021
6094 Clouds 16 1017 82 10000 1.54 22 16:24 04.10.2021
6095 Clear 16 1017 85 10000 1.77 28 15:31 04.10.2021
6096 Clear 16 1016 85 10000 0.28 156 14:42 04.10.2021
6097 Clouds 18 1015 76 10000 1.75 197 13:57 04.10.2021
6098 Clouds 20 1014 66 10000 3.05 199 13:25 04.10.2021
6099 Clouds 20 1013 62 10000 3.54 200 12:27 04.10.2021
6100 Clouds 20 1013 62 10000 3.54 200 11:31 04.10.2021
6101 Clouds 22 1013 52 10000 4.41 202 10:18 04.10.2021
6102 Clouds 22 1014 52 10000 3.82 202 08:41 04.10.2021
6103 Clear 22 1015 55 10000 3.56 198 07:36 04.10.2021
6104 Clouds 15 1015 82 10000 0.42 15 00:40 04.10.2021
6105 Clouds 15 1015 85 10000 0.36 74 22:37 03.10.2021
6106 Clouds 15 1016 86 10000 0.37 78 21:39 03.10.2021
6107 Clear 16 1016 87 10000 0.51 62 21:19 03.10.2021
6108 Clouds 16 1016 88 10000 0.29 57 19:59 03.10.2021
6109 Clouds 16 1016 88 10000 0.29 57 19:30 03.10.2021
6110 Clouds 17 1016 89 10000 0.87 52 18:27 03.10.2021
6111 Clouds 17 1016 90 10000 0.68 39 17:24 03.10.2021
6112 Clouds 17 1014 93 10000 0.3 255 14:47 03.10.2021
6113 Clouds 19 1013 87 9973 1.74 200 14:18 03.10.2021
6114 Clouds 19 1013 87 9973 1.74 200 13:34 03.10.2021
6115 Clouds 21 1012 72 10000 3.29 202 12:29 03.10.2021
6116 Clouds 22 1011 66 10000 3.72 201 10:37 03.10.2021
6117 Clear 23 1013 58 10000 3.42 200 08:43 03.10.2021
6118 Clouds 16 1016 73 10000 2.08 29 01:51 03.10.2021
6119 Clouds 16 1017 81 10000 2.14 23 22:40 02.10.2021
6120 Clouds 16 1018 87 10000 1.64 37 20:57 02.10.2021
6121 Clouds 16 1018 91 10000 1.16 51 19:50 02.10.2021
6122 Clouds 16 1018 91 10000 1.11 39 18:54 02.10.2021
6123 Clouds 17 1018 93 10000 0.58 9 17:57 02.10.2021
6124 Clouds 17 1017 93 10000 0.36 9 17:21 02.10.2021
6125 Clouds 18 1016 94 10000 0.28 137 15:29 02.10.2021
6126 Clouds 20 1018 86 10000 0.45 190 16:35 30.09.2021
6127 Clouds 20 1017 85 10000 0.27 196 15:36 30.09.2021
6128 Clouds 22 1016 86 5986 2.26 201 13:20 30.09.2021
6129 Clouds 23 1015 80 4428 3.08 200 11:37 30.09.2021
6130 Clouds 24 1015 75 5163 3.2 200 10:42 30.09.2021
6131 Clouds 24 1016 70 10000 3.33 202 09:32 30.09.2021
6132 Clear 24 1017 62 10000 2.88 196 08:29 30.09.2021
6133 Clear 24 1018 61 10000 2.67 198 07:23 30.09.2021
6134 Clear 22 1019 59 10000 0.37 198 04:52 30.09.2021
6135 Clear 17 1019 73 10000 2.05 31 01:19 30.09.2021
6136 Clear 18 1019 75 10000 1.87 30 23:49 29.09.2021
6137 Clear 18 1019 77 10000 1.72 36 22:28 29.09.2021
6138 Clear 18 1020 77 10000 1.58 39 21:24 29.09.2021
6139 Clouds 18 1019 79 10000 1.14 51 20:24 29.09.2021
6140 Clouds 18 1019 79 10000 1.14 51 19:43 29.09.2021
6141 Clouds 19 1019 83 10000 1.3 56 18:28 29.09.2021
6142 Clouds 19 1019 83 10000 1.3 56 17:33 29.09.2021
6143 Clouds 20 1018 84 10000 0.9 62 16:46 29.09.2021
6144 Clouds 20 1018 86 10000 0.39 96 15:49 29.09.2021
6145 Clouds 20 1017 90 10000 0.54 150 14:39 29.09.2021
6146 Clouds 21 1016 89 10000 0.89 196 13:41 29.09.2021
6147 Clouds 22 1016 86 3098 2.23 204 12:47 29.09.2021
6148 Clouds 23 1015 77 4739 3.1 196 11:54 29.09.2021
6149 Clouds 24 1015 68 10000 3.25 199 10:44 29.09.2021
6150 Clouds 24 1015 64 10000 3.29 199 09:49 29.09.2021
6151 Clouds 24 1016 62 10000 3.19 198 08:49 29.09.2021
6152 Clear 24 1017 60 10000 3.09 197 07:31 29.09.2021
6153 Clear 17 1020 71 10000 2.47 25 03:29 29.09.2021
6154 Clear 17 1019 73 10000 2.2 27 23:26 28.09.2021
6155 Clear 18 1020 73 10000 1.99 29 22:23 28.09.2021
6156 Clear 18 1020 73 10000 1.99 29 21:35 28.09.2021
6157 Clear 18 1020 74 10000 1.71 35 20:35 28.09.2021
6158 Clouds 18 1019 75 10000 1.9 35 19:42 28.09.2021
6159 Clouds 18 1019 76 10000 1.66 28 18:44 28.09.2021
6160 Clouds 19 1019 78 10000 1.67 23 17:53 28.09.2021
6161 Clouds 19 1018 87 10000 1.88 27 15:44 28.09.2021
6162 Clouds 20 1017 88 9457 0.79 191 13:44 28.09.2021
6163 Clouds 21 1016 85 10000 2.01 200 12:47 28.09.2021
6164 Clouds 22 1016 82 10000 3.01 201 12:19 28.09.2021
6165 Clouds 22 1016 82 10000 3.01 201 11:45 28.09.2021
6166 Clouds 23 1015 77 6037 3.32 199 10:55 28.09.2021
6167 Clouds 23 1016 73 7898 3.37 200 09:53 28.09.2021
6168 Clouds 24 1016 69 10000 3.49 202 08:58 28.09.2021
6169 Clouds 24 1016 69 10000 3.49 202 08:37 28.09.2021
6170 Clear 24 1016 67 10000 3.22 198 07:31 28.09.2021
6171 Clear 22 1018 61 10000 0.14 168 05:28 28.09.2021
6172 Clear 17 1018 75 10000 2.29 23 01:23 28.09.2021
6173 Clear 18 1018 76 10000 2.18 26 00:25 28.09.2021
6174 Clear 18 1018 76 10000 2.18 26 23:32 27.09.2021
6175 Clear 18 1018 77 10000 1.97 28 22:55 27.09.2021
6176 Clear 18 1018 77 10000 1.77 28 21:44 27.09.2021
6177 Clear 18 1018 79 10000 1.61 33 20:44 27.09.2021
6178 Clouds 18 1018 80 10000 1.46 41 19:55 27.09.2021
6179 Clouds 19 1017 82 10000 1.17 51 19:27 27.09.2021
6180 Clouds 19 1017 82 10000 1.17 51 18:49 27.09.2021
6181 Clouds 20 1017 87 10000 0.6 51 17:29 27.09.2021
6182 Clouds 20 1017 87 10000 0.6 51 16:49 27.09.2021
6183 Clouds 20 1016 87 10000 0.44 48 15:44 27.09.2021
6184 Clouds 20 1016 89 10000 0.17 196 15:18 27.09.2021
6185 Clouds 21 1015 85 10000 1.35 202 13:32 27.09.2021
6186 Clear 24 1014 68 10000 3.2 202 11:40 27.09.2021
6187 Clear 25 1013 60 10000 3.37 201 10:36 27.09.2021
6188 Clear 25 1014 52 10000 3.16 200 08:51 27.09.2021
6189 Clear 22 1017 50 10000 0.31 2 05:22 27.09.2021
6190 Clear 17 1018 66 10000 3.24 21 03:21 27.09.2021
6191 Clear 17 1018 73 10000 2.47 28 22:38 26.09.2021
6192 Clear 17 1018 75 10000 1.73 33 21:53 26.09.2021
6193 Clear 18 1017 75 10000 1.5 39 21:25 26.09.2021
6194 Clouds 18 1017 76 10000 1.32 43 20:22 26.09.2021
6195 Clouds 18 1017 76 10000 1.32 43 19:52 26.09.2021
6196 Clouds 18 1017 76 10000 1.23 48 18:47 26.09.2021
6197 Clouds 18 1017 78 10000 1.28 48 17:57 26.09.2021
6198 Clouds 19 1017 81 10000 1.54 43 17:24 26.09.2021
6199 Clouds 19 1017 81 10000 1.54 43 16:57 26.09.2021
6200 Clouds 19 1016 88 10000 1.67 34 16:20 26.09.2021
6201 Clouds 19 1016 93 10000 0.33 4 15:22 26.09.2021
6202 Clear 21 1015 83 10000 1.84 201 13:57 26.09.2021
6203 Clear 22 1013 72 10000 2.76 201 13:29 26.09.2021
6204 Clear 24 1012 62 10000 3.44 200 12:25 26.09.2021
6205 Clear 24 1012 62 10000 3.44 200 11:51 26.09.2021
6206 Clear 25 1012 54 10000 3.42 199 10:37 26.09.2021
6207 Clear 25 1014 43 10000 3.17 199 09:21 26.09.2021
6208 Clear 24 1014 42 10000 2.89 201 07:57 26.09.2021
6209 Clear 16 1016 60 10000 2.87 27 00:28 26.09.2021
6210 Clear 16 1016 60 10000 2.87 27 23:40 25.09.2021
6211 Clear 16 1017 62 10000 2.74 25 22:38 25.09.2021
6212 Clear 17 1017 65 10000 2.92 25 21:56 25.09.2021
6213 Clear 17 1017 65 10000 2.92 25 21:33 25.09.2021
6214 Clear 17 1017 65 10000 2.92 25 21:33 25.09.2021
6215 Clear 17 1017 67 10000 2.66 26 20:51 25.09.2021
6216 Clouds 17 1017 69 10000 2.84 25 19:32 25.09.2021
6217 Clouds 18 1016 79 10000 2.26 27 18:26 25.09.2021
6218 Clouds 19 1016 85 10000 2.23 20 16:51 25.09.2021
6219 Clouds 21 1014 83 10000 1.98 204 14:24 25.09.2021
6220 Clouds 21 1014 83 10000 1.98 204 13:46 25.09.2021
6221 Clear 23 1012 63 10000 3.47 200 12:29 25.09.2021
6222 Clear 24 1012 56 10000 3.59 200 10:36 25.09.2021
6223 Clear 25 1013 50 10000 3.4 201 09:56 25.09.2021
6224 Clear 25 1014 47 10000 3.14 201 08:45 25.09.2021
6225 Clear 24 1014 44 10000 2.89 202 07:46 25.09.2021
6226 Clear 16 1018 64 10000 3.44 24 00:50 25.09.2021
6227 Clear 16 1018 64 10000 3.44 24 00:50 25.09.2021
6228 Clear 17 1019 71 10000 2.72 21 21:57 24.09.2021
6229 Clear 17 1019 73 10000 2.28 20 21:25 24.09.2021
6230 Clouds 17 1019 75 10000 1.87 18 20:19 24.09.2021
6231 Clouds 17 1019 77 10000 1.77 20 18:36 24.09.2021
6232 Clouds 18 1018 81 10000 1.67 35 17:56 24.09.2021
6233 Clouds 18 1018 81 10000 1.67 35 17:38 24.09.2021
6234 Clouds 18 1018 86 10000 1.59 36 17:19 24.09.2021
6235 Clouds 18 1017 92 10000 1.32 28 15:38 24.09.2021
6236 Clouds 22 1014 78 10000 2.38 199 13:20 24.09.2021
6237 Clouds 22 1014 78 10000 2.38 199 12:42 24.09.2021
6238 Clouds 22 1014 74 10000 3.03 199 12:24 24.09.2021
6239 Clouds 23 1014 70 10000 3.53 198 10:38 24.09.2021
6240 Clouds 24 1016 66 10000 3.29 203 08:59 24.09.2021
6241 Clouds 23 1016 64 10000 2.67 200 07:55 24.09.2021
6242 Clouds 22 1017 66 10000 2.33 197 06:57 24.09.2021
6243 Clear 21 1018 61 10000 0.1 301 05:22 24.09.2021
6244 Clouds 17 1018 83 10000 2.26 32 01:24 24.09.2021
6245 Clouds 17 1018 85 10000 0.38 19 22:37 23.09.2021
6246 Clouds 18 1018 85 10000 0.34 23 21:58 23.09.2021
6247 Clouds 18 1018 86 10000 0.22 348 20:52 23.09.2021
6248 Clouds 18 1018 88 10000 0.48 44 20:26 23.09.2021
6249 Clouds 18 1018 90 6245 0.36 53 18:27 23.09.2021
6250 Clouds 18 1017 91 10000 0.44 100 15:37 23.09.2021
6251 Clouds 18 1016 92 3934 0.21 159 15:18 23.09.2021
6252 Clouds 19 1015 88 10000 0.86 190 13:57 23.09.2021
6253 Clouds 20 1015 86 10000 1.66 194 13:23 23.09.2021
6254 Clouds 20 1015 86 10000 1.66 194 12:54 23.09.2021
6255 Clouds 20 1014 84 7206 2.61 198 12:24 23.09.2021
6256 Rain 20 1014 84 7206 2.61 198 11:56 23.09.2021
6257 Clouds 21 1015 79 4992 2.86 198 10:29 23.09.2021
6258 Clouds 21 1015 79 4992 2.86 198 09:53 23.09.2021
6259 Clouds 21 1015 78 10000 2.86 195 08:42 23.09.2021
6260 Clouds 20 1016 70 10000 0.91 166 05:29 23.09.2021
6261 Clouds 17 1015 86 10000 1.38 7 23:48 22.09.2021
6262 Clouds 17 1015 88 10000 1.07 10 22:49 22.09.2021
6263 Clouds 17 1016 89 10000 0.81 11 22:18 22.09.2021
6264 Clouds 17 1016 89 10000 0.81 11 21:41 22.09.2021
6265 Clouds 17 1016 89 10000 0.46 15 20:57 22.09.2021
6266 Clouds 18 1016 87 10000 0.52 153 19:34 22.09.2021
6267 Clouds 18 1016 86 10000 0.61 175 18:47 22.09.2021
6268 Clouds 18 1015 86 10000 0.53 51 18:25 22.09.2021
6269 Clouds 18 1015 87 10000 0.69 59 16:57 22.09.2021
6270 Clouds 18 1015 87 10000 0.46 81 15:38 22.09.2021
6271 Clouds 20 1013 85 10000 1.27 187 14:25 22.09.2021
6272 Clouds 21 1012 83 10000 2.14 198 12:55 22.09.2021
6273 Clouds 22 1012 77 7435 3.23 201 10:59 22.09.2021
6274 Clouds 22 1013 74 6979 3.38 203 09:30 22.09.2021
6275 Clouds 23 1013 71 10000 3.3 203 08:36 22.09.2021
6276 Clouds 23 1013 67 10000 3 204 07:30 22.09.2021
6277 Clouds 21 1014 70 10000 2.07 199 06:23 22.09.2021
6278 Clouds 21 1014 70 10000 2.07 199 05:45 22.09.2021
6279 Clouds 19 1014 78 10000 0.22 55 03:58 22.09.2021
6280 Clouds 17 1014 84 10000 0.74 88 02:55 22.09.2021
6281 Clouds 17 1014 83 10000 1.56 27 23:31 21.09.2021
6282 Clouds 17 1015 84 10000 1.18 30 21:49 21.09.2021
6283 Clouds 17 1015 84 10000 1.38 29 20:31 21.09.2021
6284 Clouds 18 1015 85 10000 1.42 18 19:25 21.09.2021
6285 Clouds 18 1015 85 10000 1.42 18 18:35 21.09.2021
6286 Clouds 19 1014 86 10000 1.23 6 16:47 21.09.2021
6287 Clouds 19 1014 90 10000 0.67 18 15:56 21.09.2021
6288 Clouds 19 1014 92 10000 0.45 190 14:59 21.09.2021
6289 Clouds 20 1013 89 10000 1.71 194 14:20 21.09.2021
6290 Clouds 20 1013 87 10000 1.51 190 13:39 21.09.2021
6291 Clouds 21 1013 85 10000 2.49 200 12:44 21.09.2021
6292 Clouds 22 1012 78 7198 3.18 201 10:42 21.09.2021
6293 Clouds 23 1013 72 10000 3.31 198 09:22 21.09.2021
6294 Rain 23 1014 69 10000 3.31 198 07:38 21.09.2021
6295 Clouds 21 1016 70 10000 0.6 198 05:18 21.09.2021
6296 Clouds 18 1016 82 10000 1.5 48 23:19 20.09.2021
6297 Clouds 18 1016 83 10000 1.52 45 21:43 20.09.2021
6298 Clouds 19 1016 84 10000 1.38 46 21:25 20.09.2021
6299 Clouds 19 1016 85 10000 1.15 48 19:48 20.09.2021
6300 Clouds 19 1016 86 10000 1.11 54 18:36 20.09.2021
6301 Clouds 20 1016 91 10000 0.95 41 17:25 20.09.2021
6302 Clouds 20 1015 93 10000 0.58 58 16:26 20.09.2021
6303 Clouds 20 1015 93 10000 0.58 58 15:43 20.09.2021
6304 Rain 21 1015 93 10000 0.78 193 14:42 20.09.2021
6305 Clouds 23 1013 80 10000 2.39 198 12:44 20.09.2021
6306 Clouds 24 1013 78 10000 2.85 199 12:26 20.09.2021
6307 Clouds 24 1013 76 10000 3.19 197 10:57 20.09.2021
6308 Clouds 24 1013 73 10000 3.02 193 09:51 20.09.2021
6309 Clouds 24 1013 73 10000 3.02 193 09:33 20.09.2021
6310 Clouds 24 1013 73 10000 3.02 193 09:33 20.09.2021
6311 Clouds 24 1014 74 10000 2.8 192 08:54 20.09.2021
6312 Clouds 24 1015 74 10000 2.79 200 06:33 20.09.2021
6313 Clouds 21 1016 86 10000 0.12 4 23:28 19.09.2021
6314 Clouds 20 1016 88 10000 0.45 52 21:51 19.09.2021
6315 Clouds 20 1017 89 10000 0.38 74 21:21 19.09.2021
6316 Clouds 20 1017 90 8356 0.32 151 20:19 19.09.2021
6317 Clouds 21 1017 86 8033 0.49 163 18:54 19.09.2021
6318 Clouds 21 1016 84 5279 0.24 134 17:56 19.09.2021
6319 Clouds 22 1016 84 10000 0.17 315 16:52 19.09.2021
6320 Clouds 22 1015 84 10000 0.25 259 15:44 19.09.2021
6321 Clouds 22 1015 83 10000 0.45 180 14:49 19.09.2021
6322 Clouds 23 1015 87 10000 1.31 203 14:24 19.09.2021
6323 Clouds 24 1014 83 5698 2.59 206 12:56 19.09.2021
6324 Clouds 24 1014 83 5698 2.59 206 12:30 19.09.2021
6325 Rain 26 1013 70 7771 3.25 196 11:25 19.09.2021
6326 Clouds 26 1014 67 10000 3.37 199 09:52 19.09.2021
6327 Clouds 26 1015 67 10000 3.17 197 09:26 19.09.2021
6328 Clear 24 1016 69 10000 2.51 197 06:49 19.09.2021
6329 Clear 19 1016 76 10000 1.86 28 01:39 19.09.2021
6330 Clear 19 1016 79 10000 1.88 32 23:25 18.09.2021
6331 Clear 19 1016 81 10000 1.05 39 21:58 18.09.2021
6332 Clear 19 1016 80 10000 0.65 54 20:48 18.09.2021
6333 Clouds 20 1016 77 10000 0.99 47 20:26 18.09.2021
6334 Clouds 20 1017 80 10000 1.12 39 19:37 18.09.2021
6335 Clouds 20 1017 81 10000 1.11 40 19:19 18.09.2021
6336 Clouds 20 1017 81 10000 1.11 40 18:31 18.09.2021
6337 Clouds 21 1016 85 10000 0.93 46 17:22 18.09.2021
6338 Clouds 21 1015 88 8866 0.62 57 15:45 18.09.2021
6339 Clouds 23 1013 86 10000 0.82 191 13:46 18.09.2021
6340 Clouds 24 1013 81 10000 1.82 204 13:24 18.09.2021
6341 Clouds 25 1012 75 4765 2.7 201 12:23 18.09.2021
6342 Clouds 25 1012 75 4765 2.7 201 11:34 18.09.2021
6343 Clouds 25 1012 71 10000 3 199 10:31 18.09.2021
6344 Clouds 25 1013 68 10000 2.93 196 09:24 18.09.2021
6345 Clouds 25 1014 67 10000 2.79 197 08:29 18.09.2021
6346 Clouds 18 1014 86 10000 0.78 34 00:55 18.09.2021
6347 Clouds 18 1014 85 10000 0.81 24 23:56 17.09.2021
6348 Clouds 18 1014 85 10000 0.81 24 23:32 17.09.2021
6349 Clouds 19 1015 86 10000 0.88 50 22:25 17.09.2021
6350 Clouds 19 1015 86 10000 0.88 50 21:45 17.09.2021
6351 Clouds 19 1015 90 10000 0.89 64 19:53 17.09.2021
6352 Clouds 20 1014 85 10000 0.47 85 18:43 17.09.2021
6353 Clouds 21 1014 85 10000 0.43 26 16:47 17.09.2021
6354 Clouds 21 1013 88 7316 0.23 295 15:32 17.09.2021
6355 Clouds 23 1011 82 8427 2.15 198 12:31 17.09.2021
6356 Clouds 25 1011 65 10000 3.24 197 10:25 17.09.2021
6357 Clouds 24 1012 68 10000 2.77 199 07:50 17.09.2021
6358 Clear 22 1013 74 10000 2.04 202 06:29 17.09.2021
6359 Clouds 18 1012 85 10000 0.44 51 00:34 17.09.2021
6360 Clouds 19 1012 86 10000 0.95 7 22:46 16.09.2021
6361 Clouds 18 1013 90 10000 0.63 357 22:24 16.09.2021
6362 Clouds 18 1013 90 10000 0.63 357 21:36 16.09.2021
6363 Clouds 19 1013 92 10000 0.13 239 20:36 16.09.2021
6364 Clouds 19 1013 91 5574 0.2 294 19:18 16.09.2021
6365 Clouds 19 1014 92 6988 0.09 296 18:19 16.09.2021
6366 Clouds 19 1014 92 6988 0.09 296 18:19 16.09.2021
6367 Clouds 19 1013 93 9507 0.38 226 17:22 16.09.2021
6368 Clouds 20 1012 92 4808 0.92 201 14:51 16.09.2021
6369 Clouds 21 1011 92 2532 1.58 211 13:47 16.09.2021
6370 Clouds 21 1011 89 1770 2.61 203 12:47 16.09.2021
6371 Clouds 22 1010 84 2759 3.36 202 11:55 16.09.2021
6372 Clouds 24 1010 74 5089 3.7 200 11:24 16.09.2021
6373 Clouds 24 1010 67 8831 3.52 198 10:29 16.09.2021
6374 Clouds 24 1010 67 8831 3.52 198 09:32 16.09.2021
6375 Clear 24 1012 64 10000 3.06 198 08:28 16.09.2021
6376 Clouds 23 1013 72 10000 2.62 199 06:58 16.09.2021
6377 Clouds 23 1013 72 10000 2.62 199 06:39 16.09.2021
6378 Clear 20 1014 72 10000 0.49 345 04:18 16.09.2021
6379 Rain 18 1015 78 10000 1.59 21 00:59 16.09.2021
6380 Clouds 18 1015 81 10000 1.42 25 23:32 15.09.2021
6381 Clouds 18 1015 83 10000 1 29 22:45 15.09.2021
6382 Clouds 18 1016 83 10000 0.97 49 21:31 15.09.2021
6383 Clouds 18 1016 83 10000 1 57 20:54 15.09.2021
6384 Clouds 18 1016 79 10000 1.46 46 19:34 15.09.2021
6385 Clouds 19 1016 80 10000 1.42 45 18:57 15.09.2021
6386 Clouds 19 1016 81 10000 1.36 40 17:46 15.09.2021
6387 Clouds 19 1016 84 10000 1.36 48 16:44 15.09.2021
6388 Clouds 20 1014 89 10000 0.12 154 15:29 15.09.2021
6389 Clouds 20 1014 89 10000 0.12 154 14:44 15.09.2021
6390 Clouds 22 1013 79 10000 1.49 201 13:51 15.09.2021
6391 Clouds 23 1012 70 10000 2.26 201 13:29 15.09.2021
6392 Clouds 23 1012 70 10000 2.26 201 12:34 15.09.2021
6393 Clouds 24 1012 66 10000 2.96 202 11:51 15.09.2021
6394 Clouds 24 1012 64 10000 3.17 204 10:58 15.09.2021
6395 Clouds 24 1012 64 10000 3.17 204 10:35 15.09.2021
6396 Clear 25 1014 61 10000 3.36 198 09:23 15.09.2021
6397 Clear 25 1014 59 10000 3.38 200 07:30 15.09.2021
6398 Clear 17 1017 77 10000 1.05 18 02:50 15.09.2021
6399 Clouds 18 1017 80 10000 1.5 38 22:36 14.09.2021
6400 Clouds 18 1018 79 10000 1.74 34 21:38 14.09.2021
6401 Clouds 18 1018 75 10000 1.81 40 20:25 14.09.2021
6402 Clouds 18 1018 75 10000 1.81 40 19:41 14.09.2021
6403 Clouds 19 1017 82 10000 1.57 28 17:34 14.09.2021
6404 Clouds 19 1017 86 10000 1.13 41 16:49 14.09.2021
6405 Clouds 20 1015 94 10000 0.25 231 15:27 14.09.2021
6406 Clouds 21 1014 85 10000 2 199 14:28 14.09.2021
6407 Clouds 24 1012 64 10000 3.51 202 11:50 14.09.2021
6408 Clouds 25 1012 60 10000 3.56 202 10:49 14.09.2021
6409 Clouds 25 1013 57 10000 3.52 200 09:50 14.09.2021
6410 Clear 25 1015 49 10000 2.85 198 08:24 14.09.2021
6411 Clear 23 1016 50 10000 1.06 206 06:22 14.09.2021
6412 Clouds 17 1016 74 10000 2.63 21 23:36 13.09.2021
6413 Clouds 18 1016 76 10000 2.47 23 22:29 13.09.2021
6414 Clouds 18 1016 76 10000 2.47 23 21:59 13.09.2021
6415 Clouds 18 1016 76 10000 2.47 23 21:39 13.09.2021
6416 Clouds 18 1016 77 10000 2.6 24 19:48 13.09.2021
6417 Clouds 18 1016 78 10000 2.38 23 18:45 13.09.2021
6418 Clouds 19 1015 81 10000 2.32 20 17:41 13.09.2021
6419 Clouds 19 1015 84 10000 2 24 16:50 13.09.2021
6420 Clouds 19 1013 92 10000 0.26 67 14:56 13.09.2021
6421 Clouds 22 1011 75 10000 3.29 201 11:52 13.09.2021
6422 Clouds 23 1011 71 10000 3.51 200 10:58 13.09.2021
6423 Clouds 24 1011 57 10000 3.6 200 08:55 13.09.2021
6424 Clouds 17 1012 83 10000 1.61 26 00:48 13.09.2021
6425 Clouds 18 1012 83 10000 0.83 23 22:55 12.09.2021
6426 Clouds 18 1013 84 10000 0.99 43 22:24 12.09.2021
6427 Clouds 18 1013 85 10000 1.04 33 21:23 12.09.2021
6428 Clouds 19 1013 85 10000 0.75 49 20:19 12.09.2021
6429 Clouds 19 1013 85 10000 0.75 49 19:49 12.09.2021
6430 Clouds 19 1013 86 10000 0.9 41 19:18 12.09.2021
6431 Clouds 19 1013 88 10000 0.81 47 18:18 12.09.2021
6432 Clouds 19 1013 90 10000 0.37 51 15:59 12.09.2021
6433 Clouds 19 1012 91 7940 0.35 105 14:48 12.09.2021
6434 Clouds 19 1012 88 10000 0.74 175 12:45 12.09.2021
6435 Clouds 21 1011 77 10000 1.96 182 10:35 12.09.2021
6436 Clouds 21 1013 79 10000 1.85 208 08:40 12.09.2021
6437 Clouds 21 1013 75 10000 1.87 220 07:39 12.09.2021
6438 Clouds 18 1014 87 6525 0.31 254 00:48 12.09.2021
6439 Clouds 19 1014 85 10000 0.26 329 23:18 11.09.2021
6440 Clouds 19 1014 87 9578 0.21 200 21:40 11.09.2021
6441 Clouds 19 1015 84 8892 0.56 232 20:18 11.09.2021
6442 Clouds 19 1015 84 10000 0.29 285 18:32 11.09.2021
6443 Clouds 19 1015 88 10000 1.07 340 17:29 11.09.2021
6444 Rain 19 1015 92 8282 0.73 337 15:38 11.09.2021
6445 Clouds 19 1015 92 9916 0.75 91 13:30 11.09.2021
6446 Rain 20 1014 93 2366 1.76 211 11:47 11.09.2021
6447 Rain 21 1014 86 5131 1.76 213 10:51 11.09.2021
6448 Rain 22 1014 76 10000 1.7 221 09:30 11.09.2021
6449 Clouds 23 1015 68 10000 1.24 246 07:44 11.09.2021
6450 Clouds 21 1017 75 10000 1.66 311 06:31 11.09.2021
6451 Clouds 19 1015 77 10000 1.65 21 22:48 10.09.2021
6452 Clouds 20 1015 76 10000 1.63 20 22:22 10.09.2021
6453 Clouds 20 1015 76 10000 1.63 20 21:46 10.09.2021
6454 Clouds 20 1015 79 10000 1.63 8 19:41 10.09.2021
6455 Clouds 20 1015 81 10000 1.61 12 18:20 10.09.2021
6456 Rain 20 1015 82 10000 1.61 21 16:34 10.09.2021
6457 Clouds 21 1012 89 6229 1.91 203 13:52 10.09.2021
6458 Clouds 24 1011 72 10000 2.99 207 11:46 10.09.2021
6459 Clouds 24 1013 68 10000 3.22 203 08:29 10.09.2021
6460 Clouds 24 1013 69 10000 2.98 200 07:45 10.09.2021
6461 Clouds 18 1015 79 10000 2.39 19 00:42 10.09.2021
6462 Clouds 18 1016 79 10000 2.5 15 22:18 09.09.2021
6463 Clouds 18 1016 79 10000 2.26 16 21:28 09.09.2021
6464 Clouds 18 1016 79 10000 2.26 16 20:42 09.09.2021
6465 Clouds 19 1015 80 10000 2.07 17 18:55 09.09.2021
6466 Clouds 19 1015 81 10000 2.26 17 17:54 09.09.2021
6467 Clouds 19 1015 83 10000 2 14 16:40 09.09.2021
6468 Clouds 20 1013 82 10000 1.11 350 15:27 09.09.2021
6469 Clouds 21 1013 78 10000 2.2 358 12:48 09.09.2021
6470 Rain 20 1014 83 10000 1.48 1 11:33 09.09.2021
6471 Clouds 19 1016 96 1392 0.87 224 09:39 09.09.2021
6472 Clouds 20 1015 97 235 2.86 207 08:32 09.09.2021
6473 Clouds 21 1015 87 1486 1.63 202 06:24 09.09.2021
6474 Rain 20 1014 88 6467 0.24 309 01:31 09.09.2021
6475 Clouds 20 1014 90 10000 0.6 53 22:34 08.09.2021
6476 Clouds 19 1015 94 6826 0.68 47 21:22 08.09.2021
6477 Clouds 20 1015 95 6591 0.69 92 19:56 08.09.2021
6478 Clouds 20 1015 95 5066 0.57 165 18:50 08.09.2021
6479 Clouds 20 1015 91 10000 0.49 173 18:28 08.09.2021
6480 Clouds 20 1015 91 10000 0.49 173 17:55 08.09.2021
6481 Clouds 21 1014 92 10000 0.64 35 16:28 08.09.2021
6482 Clouds 22 1013 91 4535 1.83 202 14:23 08.09.2021
6483 Clouds 22 1012 85 10000 1.85 201 12:43 08.09.2021
6484 Clouds 22 1013 85 10000 2.08 201 12:25 08.09.2021
6485 Rain 23 1013 83 10000 2.57 198 11:29 08.09.2021
6486 Clouds 23 1013 83 10000 2.57 198 10:33 08.09.2021
6487 Clouds 23 1013 81 10000 2.81 200 09:58 08.09.2021
6488 Clouds 22 1016 86 1508 2.31 194 07:55 08.09.2021
6489 Clouds 22 1016 86 1508 2.31 194 07:32 08.09.2021
6490 Clouds 20 1017 91 6342 0.6 211 03:41 08.09.2021
6491 Clouds 20 1016 91 10000 0.4 243 22:38 07.09.2021
6492 Clouds 20 1017 93 10000 0.46 211 21:46 07.09.2021
6493 Clouds 20 1017 93 4067 0.37 205 19:47 07.09.2021
6494 Clouds 20 1017 94 10000 0.46 214 18:39 07.09.2021
6495 Clouds 21 1017 94 5992 0.64 202 17:47 07.09.2021
6496 Clouds 21 1016 90 5070 0.29 253 15:59 07.09.2021
6497 Clouds 21 1016 90 5070 0.29 253 15:35 07.09.2021
6498 Clouds 22 1015 90 6264 0.26 200 14:41 07.09.2021
6499 Rain 23 1014 88 2205 1.95 203 12:38 07.09.2021
6500 Rain 23 1014 88 2205 1.95 203 12:38 07.09.2021
6501 Rain 24 1014 85 1352 2.8 199 11:36 07.09.2021
6502 Clouds 25 1014 78 2801 3.34 199 10:40 07.09.2021
6503 Clouds 25 1015 69 10000 2.79 206 08:23 07.09.2021
6504 Clouds 24 1017 74 10000 1.93 199 06:44 07.09.2021
6505 Clouds 22 1018 83 10000 1.56 209 04:47 07.09.2021
6506 Clouds 21 1016 89 9803 0.15 224 02:28 07.09.2021
6507 Clouds 21 1016 90 9518 0.14 311 00:40 07.09.2021
6508 Clouds 21 1016 90 10000 0.12 193 23:31 06.09.2021
6509 Clouds 21 1017 90 10000 0.17 125 22:53 06.09.2021
6510 Clouds 21 1017 90 10000 0.17 125 22:32 06.09.2021
6511 Clouds 20 1017 91 10000 0.25 115 20:55 06.09.2021
6512 Clouds 20 1016 90 10000 0.22 46 19:22 06.09.2021
6513 Clouds 20 1016 90 10000 0.22 46 19:22 06.09.2021
6514 Clouds 20 1016 90 10000 0.22 46 18:46 06.09.2021
6515 Clouds 21 1016 90 10000 0.36 162 18:23 06.09.2021
6516 Clouds 21 1016 90 10000 0.36 162 17:36 06.09.2021
6517 Clouds 22 1014 87 10000 0.02 6 15:49 06.09.2021
6518 Clouds 23 1013 86 10000 1.67 215 13:47 06.09.2021
6519 Clouds 24 1013 80 10000 3.06 203 12:46 06.09.2021
6520 Clouds 26 1012 69 10000 3.98 203 10:44 06.09.2021
6521 Clouds 26 1013 63 10000 3.01 198 07:59 06.09.2021
6522 Clouds 23 1015 69 10000 1.22 202 04:45 06.09.2021
6523 Clear 19 1014 80 10000 1.61 32 23:34 05.09.2021
6524 Clear 19 1014 80 10000 1.31 36 22:47 05.09.2021
6525 Clouds 20 1014 80 10000 1.27 46 21:58 05.09.2021
6526 Clouds 20 1014 80 10000 1.27 46 21:30 05.09.2021
6527 Clouds 20 1013 83 10000 1.04 38 20:21 05.09.2021
6528 Clouds 20 1013 86 10000 0.69 53 18:46 05.09.2021
6529 Clouds 21 1013 88 10000 0.44 82 17:31 05.09.2021
6530 Clouds 22 1012 91 10000 0.18 213 15:28 05.09.2021
6531 Clouds 22 1012 90 10000 1.33 211 14:19 05.09.2021
6532 Clouds 25 1010 79 6313 3.43 204 12:29 05.09.2021
6533 Clouds 26 1010 71 10000 3.98 203 10:55 05.09.2021
6534 Clouds 26 1010 71 10000 3.98 203 10:31 05.09.2021
6535 Clouds 26 1011 64 10000 3.42 202 09:22 05.09.2021
6536 Clear 26 1011 65 10000 2.93 203 07:51 05.09.2021
6537 Clear 19 1014 74 10000 1.97 24 02:36 05.09.2021
6538 Clear 19 1013 77 10000 1.81 30 00:30 05.09.2021
6539 Clear 19 1013 77 10000 1.81 30 00:30 05.09.2021
6540 Clear 19 1012 78 10000 1.5 34 23:42 04.09.2021
6541 Clear 19 1012 80 10000 1.67 36 22:36 04.09.2021
6542 Clear 19 1012 83 10000 1.35 41 21:58 04.09.2021
6543 Clouds 20 1012 82 10000 0.9 49 19:53 04.09.2021
6544 Clouds 20 1012 83 10000 0.95 49 19:27 04.09.2021
6545 Clouds 22 1012 83 10000 0.33 43 16:26 04.09.2021
6546 Clouds 22 1011 83 5657 1.91 199 13:30 04.09.2021
6547 Clouds 24 1010 75 9146 3.33 201 11:20 04.09.2021
6548 Clouds 25 1011 68 10000 3.58 201 09:26 04.09.2021
6549 Clouds 24 1012 68 10000 2.28 201 06:55 04.09.2021
6550 Clouds 19 1012 87 10000 1.22 14 00:27 04.09.2021
6551 Clouds 19 1012 87 10000 1.22 14 23:32 03.09.2021
6552 Clouds 19 1013 91 10000 0.33 32 22:40 03.09.2021
6553 Clouds 19 1013 90 10000 0.35 224 21:36 03.09.2021
6554 Clouds 19 1013 88 10000 0.18 166 20:49 03.09.2021
6555 Clouds 19 1014 87 10000 0.88 28 19:56 03.09.2021
6556 Clouds 19 1014 87 10000 0.44 58 19:23 03.09.2021
6557 Clouds 20 1014 88 10000 0.77 36 17:56 03.09.2021
6558 Clouds 20 1014 88 10000 0.77 36 17:56 03.09.2021
6559 Clouds 20 1014 90 10000 1.09 29 16:40 03.09.2021
6560 Clouds 20 1013 94 4996 0.74 187 15:20 03.09.2021
6561 Rain 21 1012 85 3921 1.87 211 12:59 03.09.2021
6562 Clouds 23 1011 75 10000 2.83 206 10:43 03.09.2021
6563 Clouds 24 1012 69 10000 3.21 207 09:19 03.09.2021
6564 Clouds 24 1013 60 10000 1.94 224 07:51 03.09.2021
6565 Clouds 22 1015 65 10000 1.11 229 05:30 03.09.2021
6566 Clouds 22 1015 65 10000 1.11 229 05:30 03.09.2021
6567 Clouds 19 1015 75 10000 2.53 24 23:25 02.09.2021
6568 Clouds 19 1015 75 10000 2.31 28 21:41 02.09.2021
6569 Clouds 19 1016 76 10000 1.81 31 20:18 02.09.2021
6570 Clouds 19 1016 80 10000 1.59 30 17:33 02.09.2021
6571 Clouds 20 1015 89 10000 1.07 22 16:19 02.09.2021
6572 Rain 22 1013 81 10000 2.18 201 13:59 02.09.2021
6573 Clouds 23 1013 75 10000 3.13 200 12:56 02.09.2021
6574 Clouds 24 1012 71 10000 3.81 200 11:36 02.09.2021
6575 Clouds 24 1012 67 10000 4.45 201 10:37 02.09.2021
6576 Clouds 25 1012 57 10000 3.76 201 08:40 02.09.2021
6577 Clouds 24 1014 52 10000 2.53 201 07:20 02.09.2021
6578 Clouds 17 1017 70 10000 2.79 23 02:58 02.09.2021
6579 Clouds 17 1017 70 10000 2.79 23 02:33 02.09.2021
6580 Clear 17 1017 70 10000 2.89 24 01:34 02.09.2021
6581 Clear 17 1017 71 10000 2.97 25 23:40 01.09.2021
6582 Clear 17 1017 71 10000 2.63 26 22:42 01.09.2021
6583 Clear 18 1017 72 10000 2.39 31 21:41 01.09.2021
6584 Clear 18 1017 72 10000 2.15 36 20:53 01.09.2021
6585 Clouds 18 1017 72 10000 2.37 26 19:22 01.09.2021
6586 Clouds 19 1018 78 10000 2.22 31 17:47 01.09.2021
6587 Clouds 19 1018 86 10000 1.81 29 16:48 01.09.2021
6588 Clouds 19 1017 90 10000 0.6 26 15:52 01.09.2021
6589 Clouds 23 1014 69 10000 3.56 201 12:41 01.09.2021
6590 Clouds 24 1014 63 10000 3.96 203 11:45 01.09.2021
6591 Clear 25 1015 54 10000 3.77 202 09:25 01.09.2021
6592 Clear 24 1017 51 10000 3.46 203 07:53 01.09.2021
6593 Clear 23 1018 52 10000 2.14 203 05:40 01.09.2021
6594 Clear 17 1019 71 10000 2.82 27 23:19 31.08.2021
6595 Clear 18 1019 71 10000 2.5 27 21:40 31.08.2021
6596 Clouds 18 1019 73 10000 2.44 30 19:48 31.08.2021
6597 Clouds 18 1019 74 10000 1.99 33 18:37 31.08.2021
6598 Clouds 18 1019 79 10000 2.05 27 17:38 31.08.2021
6599 Clouds 19 1019 85 10000 1.95 28 17:20 31.08.2021
6600 Clouds 19 1018 90 10000 1 18 16:24 31.08.2021
6601 Clouds 22 1016 76 10000 2.63 199 13:46 31.08.2021
6602 Clouds 24 1014 62 10000 3.86 199 11:36 31.08.2021
6603 Clouds 24 1014 58 10000 4.29 200 10:56 31.08.2021
6604 Clouds 25 1015 55 10000 4.15 201 09:45 31.08.2021
6605 Clouds 24 1016 56 10000 3.9 203 08:41 31.08.2021
6606 Clear 24 1016 55 10000 3.49 202 07:38 31.08.2021
6607 Clear 22 1017 61 10000 2.38 198 05:55 31.08.2021
6608 Clear 17 1018 71 10000 2.68 26 23:35 30.08.2021
6609 Clear 17 1018 75 10000 2.3 29 21:53 30.08.2021
6610 Clear 17 1018 75 10000 2.3 29 21:35 30.08.2021
6611 Clear 17 1019 75 10000 1.87 34 20:32 30.08.2021
6612 Clouds 18 1018 74 10000 1.55 32 19:30 30.08.2021
6613 Clouds 18 1018 74 10000 1.61 23 18:44 30.08.2021
6614 Clouds 18 1017 76 10000 1.68 32 17:48 30.08.2021
6615 Clouds 19 1016 86 10000 1.38 28 16:25 30.08.2021
6616 Clouds 19 1016 86 10000 1.38 28 15:39 30.08.2021
6617 Clouds 22 1013 71 10000 1.66 202 13:51 30.08.2021
6618 Clouds 23 1013 66 10000 2.87 204 12:49 30.08.2021
6619 Clouds 24 1014 63 10000 3.98 201 10:41 30.08.2021
6620 Clouds 17 1016 74 10000 0.63 356 02:37 30.08.2021
6621 Clear 17 1016 82 10000 1.34 44 21:33 29.08.2021
6622 Clear 17 1016 83 10000 0.99 40 20:34 29.08.2021
6623 Clouds 18 1015 80 10000 1.59 27 19:20 29.08.2021
6624 Clouds 18 1015 82 10000 1.71 20 17:58 29.08.2021
6625 Clouds 19 1013 87 10000 0.25 59 15:50 29.08.2021
6626 Clouds 21 1012 79 10000 2.23 197 14:25 29.08.2021
6627 Clouds 21 1012 79 10000 2.23 197 13:47 29.08.2021
6628 Clouds 22 1011 74 10000 3.09 198 12:42 29.08.2021
6629 Clouds 23 1010 71 10000 3.4 199 11:53 29.08.2021
6630 Clouds 23 1011 69 10000 3.73 199 11:28 29.08.2021
6631 Clouds 23 1011 69 10000 3.73 199 10:46 29.08.2021
6632 Clouds 23 1011 68 9003 3.92 202 10:27 29.08.2021
6633 Clouds 23 1011 66 10000 4.24 203 09:21 29.08.2021
6634 Clouds 17 1013 74 10000 2.56 29 02:37 29.08.2021
6635 Clouds 17 1013 86 10000 1.15 14 22:25 28.08.2021
6636 Clouds 18 1013 87 10000 0.66 23 20:30 28.08.2021
6637 Clouds 19 1013 84 10000 0.72 3 18:53 28.08.2021
6638 Clouds 19 1013 84 10000 0.62 349 18:21 28.08.2021
6639 Clouds 19 1013 84 10000 0.62 349 17:45 28.08.2021
6640 Clouds 20 1012 87 10000 0.23 137 16:21 28.08.2021
6641 Clouds 20 1011 88 10000 1.04 195 14:42 28.08.2021
6642 Clouds 21 1010 84 10000 1.83 187 13:46 28.08.2021
6643 Clouds 22 1009 82 10000 2.71 194 12:46 28.08.2021
6644 Clouds 23 1009 80 10000 3.18 197 11:58 28.08.2021
6645 Clouds 23 1010 78 10000 3.41 197 10:44 28.08.2021
6646 Clouds 23 1010 78 10000 3.48 198 09:33 28.08.2021
6647 Clouds 22 1012 76 10000 2.39 203 07:25 28.08.2021
6648 Clouds 19 1012 92 8071 0.52 102 22:50 27.08.2021
6649 Clouds 19 1013 91 10000 0.44 95 21:26 27.08.2021
6650 Clouds 19 1013 91 10000 0.44 95 20:33 27.08.2021
6651 Clouds 20 1013 89 10000 0.59 25 19:26 27.08.2021
6652 Clouds 20 1013 89 10000 0.59 25 18:38 27.08.2021
6653 Clouds 20 1013 88 10000 0.64 12 17:30 27.08.2021
6654 Rain 21 1012 91 10000 0.2 165 16:28 27.08.2021
6655 Clouds 21 1011 88 10000 1.11 188 14:44 27.08.2021
6656 Clouds 23 1010 83 10000 2.42 199 12:55 27.08.2021
6657 Clouds 23 1010 82 5932 2.86 204 11:38 27.08.2021
6658 Clouds 24 1010 81 1176 3.27 196 10:45 27.08.2021
6659 Clouds 25 1010 75 5552 3.25 195 09:51 27.08.2021
6660 Clouds 25 1010 74 10000 2.85 205 08:48 27.08.2021
6661 Clouds 24 1011 77 10000 2.94 207